# Wetter Temperatur Luftdruck Luftfeuchtigkeit Sichtweite Windgeschwindigkeit Windrichtung Zeit
1 Clear 27 1020 6 10000 3.09 360 13:40 22.04.2021
2 Clear 27 1020 6 10000 3.09 360 13:21 22.04.2021
3 Clear 26 1020 8 10000 4.63 320 12:45 22.04.2021
4 Clear 26 1020 8 10000 4.63 320 12:23 22.04.2021
5 Clear 25 1021 7 10000 4.12 340 11:47 22.04.2021
6 Clear 25 1021 7 10000 4.12 340 11:23 22.04.2021
7 Clear 24 1021 7 10000 2.57 340 10:46 22.04.2021
8 Clear 24 1021 7 10000 2.57 340 10:26 22.04.2021
9 Clouds 22 1021 8 8000 2.57 350 09:49 22.04.2021
10 Clouds 22 1021 8 8000 2.57 350 09:30 22.04.2021
11 Clouds 20 1020 18 6000 2.06 70 08:41 22.04.2021
12 Clouds 20 1020 18 6000 2.06 70 08:22 22.04.2021
13 Clouds 18 1019 15 6000 5.25 324 07:46 22.04.2021
14 Clouds 18 1019 15 6000 5.74 321 07:27 22.04.2021
15 Clouds 14 1019 19 6000 5.74 321 06:40 22.04.2021
16 Clouds 14 1018 21 6000 5.47 323 05:50 22.04.2021
17 Clouds 14 1018 21 6000 6.76 320 05:20 22.04.2021
18 Clear 18 1019 32 10000 2.06 240 01:41 22.04.2021
19 Clear 19 1019 45 10000 6.13 319 23:54 21.04.2021
20 Clear 19 1019 45 10000 6.13 319 23:35 21.04.2021
21 Clear 19 1019 18 10000 3.09 240 22:45 21.04.2021
22 Clear 19 1019 18 10000 3.09 240 22:25 21.04.2021
23 Clouds 19 1019 15 8000 2.06 300 21:57 21.04.2021
24 Clouds 19 1019 15 8000 2.06 300 21:38 21.04.2021
25 Clouds 19 1019 15 8000 2.06 300 21:18 21.04.2021
26 Clouds 20 1018 14 8000 2.57 310 20:23 21.04.2021
27 Clouds 21 1018 24 7000 1.54 280 19:46 21.04.2021
28 Clouds 21 1018 24 7000 1.54 280 19:27 21.04.2021
29 Clouds 22 1018 26 7000 2.06 280 18:50 21.04.2021
30 Clouds 22 1018 26 7000 2.06 280 18:32 21.04.2021
31 Clouds 22 1018 26 7000 2.06 280 17:58 21.04.2021
32 Clouds 23 1017 35 6000 4.12 310 17:39 21.04.2021
33 Clouds 23 1017 35 6000 4.12 310 17:20 21.04.2021
34 Clouds 24 1017 29 6000 4.12 310 16:38 21.04.2021
35 Clouds 27 1017 24 7000 4.12 340 15:46 21.04.2021
36 Clouds 27 1017 24 7000 4.12 340 15:20 21.04.2021
37 Clouds 28 1017 14 7000 2.06 310 14:44 21.04.2021
38 Clouds 28 1017 14 7000 2.06 310 14:24 21.04.2021
39 Clouds 28 1018 9 8000 4.12 300 13:49 21.04.2021
40 Clouds 28 1018 9 8000 4.12 300 13:21 21.04.2021
41 Clouds 27 1018 5 8000 2.57 300 12:46 21.04.2021
42 Clouds 27 1018 5 8000 2.57 300 12:20 21.04.2021
43 Clouds 26 1018 6 8000 4.12 320 11:43 21.04.2021
44 Clouds 26 1018 6 8000 4.12 320 11:23 21.04.2021
45 Clouds 25 1018 6 8000 3.6 280 10:39 21.04.2021
46 Clouds 24 1018 6 8000 2.57 250 09:57 21.04.2021
47 Clouds 24 1018 6 8000 2.57 250 09:21 21.04.2021
48 Clouds 21 1018 10 8000 1.03 0 08:46 21.04.2021
49 Clear 21 1018 10 8000 1.03 0 08:24 21.04.2021
50 Clear 21 1018 10 8000 1.03 0 07:54 21.04.2021
51 Clear 19 1018 18 6000 1.03 0 07:28 21.04.2021
52 Haze 17 1017 19 4000 0.51 0 06:21 21.04.2021
53 Clouds 18 1016 40 6000 3.09 250 02:28 21.04.2021
54 Clouds 20 1016 32 6000 5.44 307 00:20 21.04.2021
55 Clouds 21 1016 28 6000 4.12 260 23:40 20.04.2021
56 Clouds 22 1016 46 6000 5.67 308 22:49 20.04.2021
57 Clouds 22 1016 46 6000 6.62 318 22:24 20.04.2021
58 Clouds 23 1016 41 6000 6.62 318 21:57 20.04.2021
59 Clouds 23 1016 41 6000 6.62 318 21:39 20.04.2021
60 Clouds 23 1016 41 6000 7.37 326 21:21 20.04.2021
61 Clouds 25 1015 36 6000 7.37 326 20:40 20.04.2021
62 Clouds 25 1015 36 6000 8.69 331 20:21 20.04.2021
63 Clouds 26 1014 31 6000 8.69 331 19:49 20.04.2021
64 Clouds 26 1014 31 6000 9.88 338 19:29 20.04.2021
65 Haze 30 1013 21 4000 4.12 250 18:47 20.04.2021
66 Haze 30 1013 21 4000 4.12 250 18:29 20.04.2021
67 Haze 32 1013 22 4000 4.12 250 17:41 20.04.2021
68 Haze 32 1013 22 4000 4.12 250 16:53 20.04.2021
69 Haze 33 1013 19 4000 5.14 270 16:34 20.04.2021
70 Haze 35 1013 11 4000 5.14 200 15:41 20.04.2021
71 Haze 35 1013 11 4000 5.14 200 15:21 20.04.2021
72 Haze 35 1014 12 4000 5.14 200 14:48 20.04.2021
73 Haze 35 1014 12 4000 5.14 200 14:23 20.04.2021
74 Haze 35 1014 12 4000 5.14 200 14:23 20.04.2021
75 Haze 35 1014 12 4000 3.6 240 13:29 20.04.2021
76 Haze 34 1015 13 4000 4.12 250 12:55 20.04.2021
77 Haze 34 1015 13 4000 4.12 250 12:28 20.04.2021
78 Haze 33 1015 16 5000 1.03 280 11:47 20.04.2021
79 Haze 33 1015 16 5000 1.03 280 11:28 20.04.2021
80 Haze 32 1016 17 4000 1.54 240 10:55 20.04.2021
81 Haze 32 1016 17 4000 1.54 240 10:36 20.04.2021
82 Haze 32 1016 17 4000 1.54 240 10:18 20.04.2021
83 Haze 29 1016 19 5000 1.03 230 09:20 20.04.2021
84 Haze 28 1016 26 3500 1.54 240 08:53 20.04.2021
85 Haze 25 1016 38 3500 3.74 109 07:59 20.04.2021
86 Haze 23 1016 38 3500 3.4 112 07:33 20.04.2021
87 Haze 22 1014 31 4000 0.51 240 05:56 20.04.2021
88 Haze 22 1014 31 4000 0.51 240 05:31 20.04.2021
89 Haze 24 1014 24 5000 1.54 230 04:40 20.04.2021
90 Clouds 24 1016 31 6000 3.37 129 00:52 20.04.2021
91 Clouds 24 1016 31 6000 2.99 140 00:27 20.04.2021
92 Haze 25 1016 29 5000 2.99 140 23:32 19.04.2021
93 Clouds 26 1016 31 6000 2.83 142 22:46 19.04.2021
94 Clouds 26 1016 31 6000 3.28 147 22:26 19.04.2021
95 Haze 27 1017 30 5000 3.28 147 21:46 19.04.2021
96 Haze 27 1017 30 5000 3.54 132 21:22 19.04.2021
97 Haze 28 1016 24 4000 3.54 132 20:41 19.04.2021
98 Haze 28 1016 24 4000 4.38 129 20:21 19.04.2021
99 Haze 30 1015 21 5000 0.51 230 19:50 19.04.2021
100 Haze 30 1015 21 5000 0.51 230 19:27 19.04.2021
101 Haze 31 1015 18 4000 1.54 240 18:59 19.04.2021
102 Haze 31 1015 18 4000 1.54 240 18:41 19.04.2021
103 Haze 31 1015 18 4000 1.54 240 18:19 19.04.2021
104 Haze 31 1015 18 4000 1.54 240 18:19 19.04.2021
105 Haze 33 1015 15 4000 1.54 260 17:44 19.04.2021
106 Haze 33 1015 15 4000 1.54 260 17:24 19.04.2021
107 Haze 35 1015 13 4000 2.57 250 16:45 19.04.2021
108 Haze 35 1015 13 4000 2.57 250 16:25 19.04.2021
109 Haze 35 1016 10 4000 2.06 240 15:43 19.04.2021
110 Haze 35 1016 10 4000 2.06 240 15:24 19.04.2021
111 Haze 36 1017 11 4000 2.06 150 14:52 19.04.2021
112 Haze 36 1017 11 4000 2.06 150 14:31 19.04.2021
113 Haze 35 1017 11 4000 2.06 210 13:52 19.04.2021
114 Haze 35 1017 11 4000 2.06 210 13:28 19.04.2021
115 Haze 35 1018 11 4000 2.06 160 12:48 19.04.2021
116 Haze 35 1018 11 4000 2.06 160 12:28 19.04.2021
117 Haze 34 1019 16 4000 3.09 180 11:59 19.04.2021
118 Haze 34 1019 16 4000 3.09 180 11:39 19.04.2021
119 Haze 34 1019 16 4000 3.09 180 11:18 19.04.2021
120 Haze 34 1019 16 4000 3.09 180 11:18 19.04.2021
121 Haze 34 1019 16 4000 3.09 180 11:18 19.04.2021
122 Haze 33 1019 16 4000 4.12 190 10:41 19.04.2021
123 Haze 33 1019 16 4000 4.12 190 10:18 19.04.2021
124 Haze 33 1019 16 4000 4.12 190 10:18 19.04.2021
125 Haze 31 1019 16 3000 2.06 60 09:40 19.04.2021
126 Haze 31 1019 16 3000 2.06 60 09:21 19.04.2021
127 Smoke 27 1019 29 3000 1.54 50 08:33 19.04.2021
128 Smoke 26 1019 28 4000 1.03 0 07:50 19.04.2021
129 Smoke 26 1019 28 4000 1.03 0 07:21 19.04.2021
130 Haze 25 1018 19 5000 3.09 170 06:47 19.04.2021
131 Clouds 19 1019 45 7000 1.54 230 04:21 19.04.2021
132 Haze 22 1020 33 5000 1.03 0 01:49 19.04.2021
133 Haze 23 1020 35 5000 1.03 0 00:34 19.04.2021
134 Haze 25 1020 33 5000 1.54 180 23:21 18.04.2021
135 Haze 25 1021 33 5000 1.66 41 22:57 18.04.2021
136 Haze 25 1021 33 5000 1.66 41 22:31 18.04.2021
137 Haze 26 1021 28 5000 2.45 14 21:51 18.04.2021
138 Haze 26 1021 28 5000 3.34 11 21:28 18.04.2021
139 Haze 26 1019 26 5000 3.34 11 20:43 18.04.2021
140 Haze 26 1019 26 5000 3.07 342 20:25 18.04.2021
141 Haze 27 1019 26 5000 3.07 342 19:57 18.04.2021
142 Dust 28 1018 26 4000 3.07 342 19:38 18.04.2021
143 Dust 28 1018 26 4000 1.76 310 19:18 18.04.2021
144 Dust 31 1018 22 4000 2.06 270 18:44 18.04.2021
145 Dust 31 1018 22 4000 2.06 270 18:25 18.04.2021
146 Dust 33 1018 17 3000 3.6 260 17:45 18.04.2021
147 Dust 33 1018 17 3000 3.6 260 17:27 18.04.2021
148 Dust 34 1018 16 4000 3.6 270 16:46 18.04.2021
149 Dust 34 1018 16 4000 3.6 270 16:27 18.04.2021
150 Dust 34 1018 13 4000 5.14 280 15:44 18.04.2021
151 Dust 34 1018 13 4000 5.14 280 15:25 18.04.2021
152 Dust 34 1019 15 4000 5.14 280 14:52 18.04.2021
153 Dust 34 1019 15 4000 5.14 280 14:23 18.04.2021
154 Dust 34 1019 13 4000 3.09 170 13:56 18.04.2021
155 Dust 34 1019 13 4000 3.09 170 13:34 18.04.2021
156 Dust 34 1020 16 4000 3.6 200 12:51 18.04.2021
157 Dust 34 1020 16 4000 3.6 200 12:32 18.04.2021
158 Dust 33 1020 17 4000 2.96 160 11:45 18.04.2021
159 Dust 33 1020 17 4000 3.63 135 11:22 18.04.2021
160 Dust 30 1021 19 3000 3.63 135 10:48 18.04.2021
161 Dust 30 1021 19 3000 4.76 121 10:23 18.04.2021
162 Dust 30 1021 21 3000 4.76 121 09:53 18.04.2021
163 Dust 29 1021 21 3000 4.76 121 09:35 18.04.2021
164 Dust 29 1021 21 3000 3.94 106 08:57 18.04.2021
165 Haze 25 1020 31 3000 4.13 110 08:37 18.04.2021
166 Haze 25 1020 31 3000 3.89 107 08:18 18.04.2021
167 Haze 21 1020 40 3000 1.54 310 07:38 18.04.2021
168 Haze 18 1019 39 5000 2.56 142 05:43 18.04.2021
169 Haze 18 1019 39 5000 2.16 158 05:24 18.04.2021
170 Clear 19 1019 42 7000 1.3 172 03:26 18.04.2021
171 Clear 19 1019 42 7000 1.54 230 02:22 18.04.2021
172 Clear 22 1019 35 6000 2.77 23 00:40 18.04.2021
173 Clear 22 1019 35 6000 4.02 25 23:39 17.04.2021
174 Clear 22 1019 35 6000 4.82 9 22:54 17.04.2021
175 Haze 24 1019 31 5000 4.82 9 22:31 17.04.2021
176 Haze 24 1019 31 5000 5.12 357 21:51 17.04.2021
177 Haze 24 1019 31 5000 5.12 357 21:31 17.04.2021
178 Haze 25 1018 31 5000 5.25 351 20:59 17.04.2021
179 Haze 25 1018 31 5000 4.93 340 20:28 17.04.2021
180 Haze 26 1017 22 5000 4.93 340 19:46 17.04.2021
181 Haze 26 1017 22 5000 4.42 320 19:22 17.04.2021
182 Haze 28 1017 23 4000 4.42 320 18:57 17.04.2021
183 Haze 28 1017 23 4000 4.42 320 18:37 17.04.2021
184 Haze 29 1017 14 5000 2.57 320 18:00 17.04.2021
185 Haze 30 1017 14 5000 2.57 320 17:40 17.04.2021
186 Haze 31 1017 14 5000 2.57 320 16:55 17.04.2021
187 Haze 32 1017 15 5000 3.6 320 16:28 17.04.2021
188 Haze 33 1016 15 5000 2.57 40 15:53 17.04.2021
189 Haze 32 1017 15 5000 2.06 50 14:51 17.04.2021
190 Haze 32 1017 15 5000 2.06 50 14:32 17.04.2021
191 Dust 31 1017 16 5000 1.03 0 13:49 17.04.2021
192 Dust 31 1017 16 5000 1.03 0 13:25 17.04.2021
193 Haze 29 1018 18 5000 2.06 260 12:42 17.04.2021
194 Haze 29 1018 18 5000 2.06 260 12:20 17.04.2021
195 Dust 28 1018 20 4000 1.03 0 11:45 17.04.2021
196 Dust 28 1018 20 4000 1.03 0 11:27 17.04.2021
197 Dust 26 1019 22 4000 1.03 0 10:45 17.04.2021
198 Dust 26 1019 22 4000 1.03 0 10:26 17.04.2021
199 Haze 24 1018 23 5000 1.03 50 09:39 17.04.2021
200 Haze 21 1018 28 5000 3.29 131 08:41 17.04.2021
201 Haze 21 1018 28 5000 4.23 126 08:21 17.04.2021
202 Clear 16 1018 42 6000 3.63 113 06:47 17.04.2021
203 Clear 18 1016 34 10000 2.22 82 03:55 17.04.2021
204 Clear 18 1016 34 10000 2.22 82 03:37 17.04.2021
205 Clear 19 1017 34 10000 3.02 54 00:48 17.04.2021
206 Clear 19 1017 34 10000 1.9 30 00:27 17.04.2021
207 Clear 19 1017 35 10000 1.9 30 23:48 16.04.2021
208 Clear 19 1017 35 10000 1.9 30 23:48 16.04.2021
209 Clear 19 1017 35 10000 1.33 40 23:25 16.04.2021
210 Clear 21 1017 35 10000 1.33 40 22:46 16.04.2021
211 Clear 21 1017 35 10000 3.7 338 22:21 16.04.2021
212 Clear 21 1017 35 10000 3.7 338 21:51 16.04.2021
213 Clear 21 1017 35 10000 3.7 338 21:30 16.04.2021
214 Clear 22 1016 33 10000 5.25 335 20:50 16.04.2021
215 Clear 22 1016 33 10000 6.31 329 20:24 16.04.2021
216 Clouds 25 1016 29 8000 2.06 300 19:52 16.04.2021
217 Clouds 25 1016 29 8000 2.06 300 19:29 16.04.2021
218 Clouds 28 1015 20 8000 6.03 323 18:40 16.04.2021
219 Clouds 28 1015 20 8000 2.86 293 18:19 16.04.2021
220 Clouds 30 1015 19 8000 2.86 293 17:43 16.04.2021
221 Clouds 30 1015 19 8000 0.99 277 17:19 16.04.2021
222 Clouds 29 1015 18 8000 0.99 277 16:42 16.04.2021
223 Clouds 29 1015 18 8000 1.03 160 16:23 16.04.2021
224 Clouds 29 1015 20 8000 1.03 160 15:45 16.04.2021
225 Clouds 29 1015 20 8000 2.3 141 15:20 16.04.2021
226 Clouds 29 1016 20 8000 2.3 141 14:42 16.04.2021
227 Clouds 29 1016 20 8000 3.47 132 14:19 16.04.2021
228 Clouds 29 1016 13 8000 2.57 10 13:46 16.04.2021
229 Clouds 29 1016 13 8000 2.57 10 13:20 16.04.2021
230 Clear 28 1017 16 10000 2.06 30 12:48 16.04.2021
231 Clear 28 1017 16 10000 2.06 30 12:29 16.04.2021
232 Clear 28 1017 13 10000 4.12 40 11:54 16.04.2021
233 Clear 27 1017 13 10000 4.12 40 11:27 16.04.2021
234 Clear 27 1017 13 10000 4.12 40 10:56 16.04.2021
235 Clear 25 1017 19 10000 5.14 40 10:37 16.04.2021
236 Clear 25 1017 19 10000 5.14 40 10:19 16.04.2021
237 Clear 24 1018 19 10000 1.54 70 09:42 16.04.2021
238 Clear 24 1018 19 10000 1.54 70 09:20 16.04.2021
239 Clear 22 1018 26 10000 4.25 109 08:41 16.04.2021
240 Clear 22 1018 26 10000 3.74 98 08:18 16.04.2021
241 Clear 19 1017 45 10000 3.74 98 07:36 16.04.2021
242 Clear 18 1017 45 10000 2.23 77 06:58 16.04.2021
243 Clear 15 1017 51 10000 1.53 52 06:18 16.04.2021
244 Clear 16 1017 51 10000 0.48 15 04:22 16.04.2021
245 Clear 19 1018 42 10000 1.03 0 00:59 16.04.2021
246 Clear 19 1018 39 10000 1.03 0 00:41 16.04.2021
247 Clear 19 1018 39 10000 1.03 0 00:20 16.04.2021
248 Clear 19 1018 39 10000 1.03 0 23:41 15.04.2021
249 Clear 19 1018 39 10000 1.03 0 23:23 15.04.2021
250 Clear 19 1018 39 10000 3.35 358 22:46 15.04.2021
251 Clear 19 1018 39 10000 3.62 351 22:22 15.04.2021
252 Clear 20 1018 34 10000 3.62 351 21:43 15.04.2021
253 Clear 20 1018 34 10000 4.52 349 21:24 15.04.2021
254 Clouds 21 1017 28 6000 1.03 0 20:45 15.04.2021
255 Clear 21 1017 28 6000 1.03 0 20:25 15.04.2021
256 Clear 24 1017 23 6000 5.03 348 19:47 15.04.2021
257 Clear 24 1017 23 6000 4.1 358 19:27 15.04.2021
258 Clear 25 1017 20 6000 3.09 280 18:45 15.04.2021
259 Clear 25 1017 20 6000 3.09 280 18:21 15.04.2021
260 Clear 25 1017 20 6000 3.09 280 17:58 15.04.2021
261 Clear 28 1017 17 6000 3.6 350 17:39 15.04.2021
262 Clear 28 1017 17 6000 3.6 350 17:21 15.04.2021
263 Clear 29 1017 14 6000 1.49 326 16:43 15.04.2021
264 Clear 29 1017 14 6000 1.44 266 16:23 15.04.2021
265 Clear 28 1017 17 6000 3.09 240 15:46 15.04.2021
266 Clear 28 1017 17 6000 3.09 240 15:26 15.04.2021
267 Clear 28 1018 17 6000 1.59 229 14:42 15.04.2021
268 Clear 28 1018 17 6000 2.05 193 14:24 15.04.2021
269 Clear 28 1018 14 6000 2.57 190 13:48 15.04.2021
270 Clear 28 1018 14 6000 2.57 190 13:23 15.04.2021
271 Clear 27 1019 18 6000 2.57 110 12:49 15.04.2021
272 Clear 27 1019 18 6000 2.57 110 12:26 15.04.2021
273 Clear 25 1019 10 6000 3.14 160 11:48 15.04.2021
274 Clear 25 1019 10 6000 3.91 140 11:27 15.04.2021
275 Clear 25 1019 10 6000 3.91 140 11:27 15.04.2021
276 Clear 25 1019 10 6000 3.91 140 10:58 15.04.2021
277 Clear 22 1020 17 6000 3.91 140 10:39 15.04.2021
278 Clear 22 1020 17 6000 4.41 129 10:20 15.04.2021
279 Clear 21 1020 18 6000 4.41 129 09:30 15.04.2021
280 Haze 19 1020 24 5000 1.54 60 08:52 15.04.2021
281 Haze 19 1020 24 5000 1.54 60 08:29 15.04.2021
282 Clouds 17 1020 29 6000 3.23 98 07:36 15.04.2021
283 Clouds 13 1019 47 6000 1.54 230 06:56 15.04.2021
284 Clouds 13 1019 47 6000 1.54 230 06:35 15.04.2021
285 Clouds 12 1019 47 7000 1.93 98 04:55 15.04.2021
286 Clear 14 1019 47 10000 1.64 96 03:59 15.04.2021
287 Clear 15 1020 44 10000 1.8 355 00:00 15.04.2021
288 Clear 15 1020 44 10000 1.8 355 23:32 14.04.2021
289 Clear 16 1020 36 10000 2.13 356 22:57 14.04.2021
290 Clear 16 1020 36 10000 2.13 356 22:37 14.04.2021
291 Clear 16 1020 36 10000 2.13 356 22:37 14.04.2021
292 Clear 16 1020 36 10000 2.83 350 22:19 14.04.2021
293 Clear 16 1020 36 10000 2.83 350 22:19 14.04.2021
294 Clouds 17 1019 31 7000 2.83 350 21:40 14.04.2021
295 Clouds 17 1019 31 7000 4.58 351 21:22 14.04.2021
296 Clouds 17 1019 29 7000 1.54 40 20:45 14.04.2021
297 Clouds 17 1019 29 7000 1.54 40 20:27 14.04.2021
298 Clouds 19 1018 26 6000 5.21 342 19:46 14.04.2021
299 Clouds 19 1018 26 6000 4.78 334 19:19 14.04.2021
300 Clouds 20 1018 22 6000 5.14 330 18:54 14.04.2021
301 Clouds 20 1018 22 6000 5.14 330 18:20 14.04.2021
302 Clouds 22 1018 25 6000 5.14 330 17:57 14.04.2021
303 Clear 22 1018 25 6000 5.14 330 17:24 14.04.2021
304 Clear 23 1018 25 7000 5.14 320 16:52 14.04.2021
305 Clear 23 1018 25 7000 5.14 320 16:24 14.04.2021
306 Clear 24 1019 18 8000 1.54 300 15:42 14.04.2021
307 Clear 24 1019 18 8000 1.54 300 15:22 14.04.2021
308 Clear 24 1019 13 8000 2.06 230 14:44 14.04.2021
309 Clear 24 1019 13 8000 2.06 230 14:23 14.04.2021
310 Haze 23 1020 17 5000 1.54 180 13:54 14.04.2021
311 Haze 23 1020 17 5000 1.54 180 13:19 14.04.2021
312 Haze 22 1020 20 5000 1.03 120 12:37 14.04.2021
313 Haze 20 1021 32 5000 1.03 0 11:43 14.04.2021
314 Haze 20 1021 32 5000 1.03 0 11:25 14.04.2021
315 Haze 18 1021 34 5000 1.03 0 10:48 14.04.2021
316 Haze 18 1021 34 5000 1.03 0 10:30 14.04.2021
317 Clear 16 1022 39 6000 2.06 100 09:42 14.04.2021
318 Clear 16 1022 39 6000 2.06 100 09:21 14.04.2021
319 Haze 14 1022 44 5000 2.06 190 08:45 14.04.2021
320 Haze 14 1022 44 5000 2.06 190 08:21 14.04.2021
321 Haze 10 1021 76 5000 1.81 88 07:20 14.04.2021
322 Haze 7 1021 76 5000 0.57 34 06:25 14.04.2021
323 Clear 5 1020 87 6000 0.39 29 04:45 14.04.2021
324 Clouds 7 1020 71 7000 2.35 327 01:49 14.04.2021
325 Haze 8 1020 71 5000 2.62 326 00:39 14.04.2021
326 Clouds 10 1020 66 7000 3.08 331 23:55 13.04.2021
327 Clouds 10 1020 66 7000 3.08 331 23:30 13.04.2021
328 Clouds 10 1021 76 7000 3.44 325 22:43 13.04.2021
329 Clouds 10 1021 76 7000 4.25 326 22:19 13.04.2021
330 Clouds 11 1021 71 7000 4.25 326 21:46 13.04.2021
331 Clouds 11 1021 71 7000 5.25 329 21:28 13.04.2021
332 Clouds 12 1020 66 7000 2.06 300 20:43 13.04.2021
333 Clouds 12 1020 66 7000 2.06 300 20:23 13.04.2021
334 Haze 14 1019 41 4000 5.14 290 19:48 13.04.2021
335 Haze 14 1019 41 4000 5.14 290 19:24 13.04.2021
336 Haze 16 1019 36 5000 4.12 290 18:44 13.04.2021
337 Haze 17 1019 36 4000 5.14 290 18:25 13.04.2021
338 Haze 18 1019 36 4000 5.14 290 17:40 13.04.2021
339 Haze 18 1019 36 4000 5.14 290 17:18 13.04.2021
340 Haze 18 1019 29 5000 4.12 260 16:44 13.04.2021
341 Haze 18 1019 29 5000 4.12 260 16:23 13.04.2021
342 Haze 18 1019 32 5000 3.09 240 15:53 13.04.2021
343 Haze 18 1019 32 5000 3.09 240 15:34 13.04.2021
344 Haze 19 1019 32 5000 4.12 250 14:47 13.04.2021
345 Haze 19 1019 32 5000 4.12 250 14:22 13.04.2021
346 Haze 18 1020 39 5000 3.09 230 13:45 13.04.2021
347 Haze 18 1020 39 5000 3.09 230 13:25 13.04.2021
348 Clouds 17 1020 41 6000 3.09 260 12:58 13.04.2021
349 Clouds 16 1020 41 6000 3.09 260 12:31 13.04.2021
350 Clouds 15 1021 41 8000 1.03 80 11:58 13.04.2021
351 Clouds 15 1021 41 8000 1.03 80 11:31 13.04.2021
352 Clouds 15 1021 41 8000 1.03 80 11:31 13.04.2021
353 Clouds 15 1021 41 8000 1.03 80 10:56 13.04.2021
354 Clouds 14 1021 47 8000 0.51 100 10:24 13.04.2021
355 Clouds 12 1021 54 10000 0.51 90 09:59 13.04.2021
356 Clouds 12 1021 54 10000 0.51 90 09:40 13.04.2021
357 Clouds 12 1021 54 10000 0.51 90 09:18 13.04.2021
358 Clear 10 1021 62 10000 0.51 0 08:41 13.04.2021
359 Clear 10 1021 62 10000 0.51 0 08:20 13.04.2021
360 Clear 8 1021 66 10000 1.17 343 07:36 13.04.2021
361 Clear 4 1020 81 10000 1.48 10 06:51 13.04.2021
362 Clear 6 1019 81 10000 2.32 335 04:52 13.04.2021
363 Clear 6 1020 81 10000 3.7 325 02:47 13.04.2021
364 Clear 7 1020 81 10000 3.09 300 01:27 13.04.2021
365 Clear 7 1021 81 10000 4.12 290 23:49 12.04.2021
366 Clear 7 1021 81 10000 4.12 290 23:27 12.04.2021
367 Clear 9 1021 81 10000 4.12 320 22:43 12.04.2021
368 Clear 9 1021 81 10000 4.12 320 22:23 12.04.2021
369 Clear 9 1021 81 10000 4.12 320 22:23 12.04.2021
370 Clear 9 1020 81 10000 4.12 320 21:46 12.04.2021
371 Clear 9 1020 81 10000 4.12 320 21:46 12.04.2021
372 Clear 9 1020 81 10000 4.12 320 21:21 12.04.2021
373 Clouds 10 1019 66 10000 5.14 320 20:45 12.04.2021
374 Clouds 10 1019 66 10000 5.14 320 20:26 12.04.2021
375 Clear 11 1019 62 10000 4.12 280 19:58 12.04.2021
376 Clear 11 1019 62 10000 4.12 280 19:38 12.04.2021
377 Clear 11 1019 62 10000 4.12 280 19:19 12.04.2021
378 Clouds 15 1019 47 8000 4.12 280 18:46 12.04.2021
379 Clouds 15 1019 47 8000 4.12 280 18:27 12.04.2021
380 Clouds 15 1018 47 8000 6.17 280 17:46 12.04.2021
381 Clouds 15 1018 47 8000 6.17 280 17:24 12.04.2021
382 Clouds 15 1018 47 8000 6.17 280 16:49 12.04.2021
383 Clouds 15 1018 47 8000 6.17 280 16:28 12.04.2021
384 Clouds 15 1018 47 8000 6.17 280 16:28 12.04.2021
385 Clouds 15 1018 47 8000 6.17 280 15:54 12.04.2021
386 Clouds 15 1018 47 8000 5.14 270 15:33 12.04.2021
387 Clouds 16 1019 44 8000 5.14 270 14:55 12.04.2021
388 Clouds 16 1019 44 8000 5.14 270 14:37 12.04.2021
389 Haze 15 1019 44 5000 5.66 270 13:59 12.04.2021
390 Haze 15 1019 44 5000 5.66 270 13:39 12.04.2021
391 Haze 15 1019 44 5000 5.66 270 13:18 12.04.2021
392 Clouds 15 1019 44 8000 3.6 240 12:38 12.04.2021
393 Clouds 15 1019 44 8000 3.6 240 12:20 12.04.2021
394 Clouds 14 1019 50 8000 4.63 240 11:27 12.04.2021
395 Clouds 13 1019 50 8000 4.63 240 10:51 12.04.2021
396 Clouds 13 1019 50 8000 4.63 240 10:28 12.04.2021
397 Clouds 11 1020 62 6000 4.12 220 09:51 12.04.2021
398 Clouds 11 1020 62 6000 4.12 220 09:23 12.04.2021
399 Clouds 11 1020 62 6000 4.12 220 09:23 12.04.2021
400 Clouds 9 1020 62 6000 2.06 230 08:49 12.04.2021
401 Clouds 8 1018 71 7000 2.57 270 07:53 12.04.2021
402 Clouds 8 1018 71 7000 2.57 270 07:29 12.04.2021
403 Clouds 5 1019 81 7000 2.57 240 06:29 12.04.2021
404 Clouds 5 1019 81 8000 2.57 260 05:47 12.04.2021
405 Clouds 6 1020 71 7000 3.09 240 02:27 12.04.2021
406 Clouds 7 1020 76 7000 3.09 220 00:27 12.04.2021
407 Clouds 7 1020 76 7000 3.09 220 23:55 11.04.2021
408 Clouds 7 1020 71 7000 3.09 220 23:36 11.04.2021
409 Clouds 7 1020 71 7000 3.09 220 23:18 11.04.2021
410 Clouds 9 1020 66 7000 4.12 240 22:37 11.04.2021
411 Clouds 9 1020 66 7000 4.12 240 22:19 11.04.2021
412 Clouds 9 1020 66 7000 6.17 240 21:42 11.04.2021
413 Clouds 9 1020 66 7000 6.17 240 21:23 11.04.2021
414 Clouds 10 1019 62 10000 6.17 280 20:42 11.04.2021
415 Clouds 10 1019 62 10000 6.17 280 20:23 11.04.2021
416 Clouds 10 1018 66 10000 5.14 250 19:43 11.04.2021
417 Clouds 10 1018 66 10000 5.14 250 19:20 11.04.2021
418 Clouds 11 1018 58 8000 6.17 250 18:57 11.04.2021
419 Clouds 11 1018 58 8000 6.17 250 18:39 11.04.2021
420 Clouds 11 1018 58 8000 6.17 250 18:20 11.04.2021
421 Clouds 13 1018 50 6000 7.2 280 17:40 11.04.2021
422 Clouds 13 1018 50 6000 7.2 280 17:22 11.04.2021
423 Clouds 13 1018 54 6000 7.2 250 16:42 11.04.2021
424 Clouds 13 1018 54 6000 7.2 250 16:21 11.04.2021
425 Clouds 14 1018 47 6000 6.17 250 15:46 11.04.2021
426 Clouds 14 1018 47 6000 6.17 250 15:46 11.04.2021
427 Clouds 14 1018 47 6000 6.17 250 15:26 11.04.2021
428 Clouds 13 1018 47 7000 4.12 250 14:51 11.04.2021
429 Clouds 13 1018 47 7000 4.12 250 14:27 11.04.2021
430 Clouds 13 1018 44 8000 7.2 250 13:45 11.04.2021
431 Clouds 13 1018 44 8000 7.2 250 13:27 11.04.2021
432 Clouds 13 1018 44 10000 4.63 240 12:44 11.04.2021
433 Clouds 13 1018 44 10000 4.63 240 12:20 11.04.2021
434 Clouds 12 1018 43 10000 4.12 250 11:48 11.04.2021
435 Clouds 12 1018 43 10000 4.12 250 11:22 11.04.2021
436 Clouds 12 1018 43 10000 6.17 260 10:47 11.04.2021
437 Clouds 12 1018 43 10000 6.17 260 10:26 11.04.2021
438 Clouds 11 1018 50 10000 7.2 250 09:53 11.04.2021
439 Clouds 11 1018 50 10000 7.2 250 09:32 11.04.2021
440 Clouds 9 1017 61 8000 6.17 240 08:42 11.04.2021
441 Clouds 9 1017 61 8000 6.17 240 08:21 11.04.2021
442 Clouds 8 1016 71 7000 4.12 260 07:21 11.04.2021
443 Clouds 7 1016 76 7000 5.14 230 06:26 11.04.2021
444 Clouds 7 1015 81 6000 5.14 220 05:37 11.04.2021
445 Clouds 7 1015 81 6000 5.14 220 05:18 11.04.2021
446 Clouds 6 1015 81 7000 4.12 230 04:33 11.04.2021
447 Clouds 7 1015 87 6000 5.66 220 01:45 11.04.2021
448 Clouds 7 1015 81 6000 6.17 230 00:33 11.04.2021
449 Clouds 7 1015 81 5000 8.23 240 23:47 10.04.2021
450 Clouds 7 1015 81 5000 8.23 240 23:24 10.04.2021
451 Clouds 8 1015 66 5000 8.23 230 22:43 10.04.2021
452 Clouds 8 1015 66 5000 8.23 230 22:20 10.04.2021
453 Clouds 8 1015 66 5000 8.23 230 22:20 10.04.2021
454 Clouds 8 1014 61 5000 7.72 240 21:40 10.04.2021
455 Clouds 8 1014 61 5000 7.72 240 21:20 10.04.2021
456 Clouds 8 1014 61 8000 6.17 240 20:42 10.04.2021
457 Clouds 8 1014 61 8000 6.17 240 20:23 10.04.2021
458 Dust 9 1013 57 5000 10.29 230 19:44 10.04.2021
459 Dust 9 1013 57 5000 10.29 230 19:25 10.04.2021
460 Dust 9 1013 57 5000 10.29 230 19:25 10.04.2021
461 Dust 9 1013 71 5000 9.26 240 18:50 10.04.2021
462 Dust 9 1013 71 5000 9.26 240 18:28 10.04.2021
463 Dust 9 1013 71 5000 10.29 240 17:38 10.04.2021
464 Dust 9 1013 71 5000 10.29 240 17:18 10.04.2021
465 Dust 11 1013 58 4000 8.75 240 16:28 10.04.2021
466 Dust 11 1013 54 4000 10.29 240 15:54 10.04.2021
467 Dust 11 1013 54 4000 10.29 240 15:23 10.04.2021
468 Dust 11 1013 46 5000 8.23 250 14:42 10.04.2021
469 Dust 11 1013 46 5000 8.23 250 14:19 10.04.2021
470 Haze 11 1013 54 5000 6.69 240 13:42 10.04.2021
471 Haze 12 1013 47 5000 6.69 230 12:54 10.04.2021
472 Haze 12 1013 47 5000 6.69 230 12:29 10.04.2021
473 Clouds 13 1013 54 5000 7.72 230 11:49 10.04.2021
474 Clouds 13 1013 54 5000 7.72 230 11:26 10.04.2021
475 Clouds 10 1013 62 4000 5.66 240 10:52 10.04.2021
476 Clouds 10 1013 62 4000 5.66 240 10:31 10.04.2021
477 Haze 10 1013 62 5000 5.14 240 09:50 10.04.2021
478 Haze 10 1013 62 5000 5.14 240 09:23 10.04.2021
479 Clouds 9 1013 66 6000 5.14 230 08:49 10.04.2021
480 Clouds 9 1013 66 6000 5.14 230 08:29 10.04.2021
481 Clouds 9 1014 66 10000 4.12 230 07:50 10.04.2021
482 Clouds 9 1014 66 10000 4.12 230 07:21 10.04.2021
483 Clouds 9 1013 66 10000 3.09 230 06:24 10.04.2021
484 Clouds 9 1013 71 10000 4.12 230 04:40 10.04.2021
485 Clouds 10 1013 76 10000 5.14 270 02:53 10.04.2021
486 Clouds 10 1014 76 10000 5.14 270 02:34 10.04.2021
487 Clouds 10 1014 76 10000 6.17 270 00:45 10.04.2021
488 Clouds 10 1014 76 10000 6.17 270 00:26 10.04.2021
489 Clouds 11 1015 71 10000 5.14 270 23:42 09.04.2021
490 Clouds 11 1015 71 10000 5.14 270 23:18 09.04.2021
491 Clouds 12 1015 71 10000 5.14 270 22:42 09.04.2021
492 Clouds 12 1015 71 10000 5.14 270 22:22 09.04.2021
493 Clouds 12 1014 66 10000 3.09 280 21:39 09.04.2021
494 Clouds 12 1014 66 10000 3.09 280 21:19 09.04.2021
495 Clouds 13 1015 67 10000 2.57 290 20:44 09.04.2021
496 Clouds 13 1015 67 10000 2.57 290 20:23 09.04.2021
497 Clouds 13 1014 67 10000 3.09 280 19:57 09.04.2021
498 Clouds 14 1014 67 10000 3.09 280 19:38 09.04.2021
499 Clouds 14 1014 67 10000 3.09 280 19:20 09.04.2021
500 Clouds 15 1014 58 10000 5.66 250 18:41 09.04.2021
501 Clouds 15 1014 58 10000 5.66 250 18:19 09.04.2021
502 Clouds 16 1014 48 10000 4.12 300 17:41 09.04.2021
503 Clouds 17 1014 39 10000 6.17 260 16:57 09.04.2021
504 Clouds 17 1014 39 10000 6.17 260 16:38 09.04.2021
505 Clouds 17 1014 45 10000 5.14 290 15:59 09.04.2021
506 Clouds 17 1014 45 10000 5.14 290 15:40 09.04.2021
507 Clouds 17 1014 45 10000 5.14 290 15:19 09.04.2021
508 Clouds 18 1014 45 10000 6.69 280 14:42 09.04.2021
509 Clouds 18 1015 42 10000 6.69 310 13:57 09.04.2021
510 Clouds 18 1015 42 10000 6.69 310 13:38 09.04.2021
511 Clouds 18 1015 42 10000 6.69 310 13:19 09.04.2021
512 Clouds 18 1015 42 10000 6.69 310 12:39 09.04.2021
513 Clouds 17 1015 29 10000 6.17 330 11:48 09.04.2021
514 Clouds 17 1015 29 10000 6.17 330 11:23 09.04.2021
515 Clouds 16 1015 51 10000 4.12 340 10:50 09.04.2021
516 Clouds 16 1015 51 10000 4.12 340 10:30 09.04.2021
517 Clouds 15 1015 55 10000 2.57 320 09:51 09.04.2021
518 Clouds 15 1015 55 10000 2.57 320 09:26 09.04.2021
519 Clouds 13 1015 62 10000 3.09 300 08:54 09.04.2021
520 Clouds 13 1015 62 10000 3.09 300 08:22 09.04.2021
521 Clouds 12 1015 66 10000 3.09 300 07:21 09.04.2021
522 Clouds 11 1015 76 10000 3.09 290 06:21 09.04.2021
523 Clear 12 1014 47 7000 2.57 280 03:54 09.04.2021
524 Clear 12 1014 47 7000 2.57 280 03:30 09.04.2021
525 Haze 14 1015 44 5000 2.06 260 00:38 09.04.2021
526 Haze 14 1015 44 5000 2.06 260 00:20 09.04.2021
527 Haze 15 1016 44 5000 1.03 0 23:30 08.04.2021
528 Haze 17 1016 36 5000 2.57 320 22:47 08.04.2021
529 Haze 17 1016 36 5000 2.57 320 22:27 08.04.2021
530 Haze 17 1016 36 5000 2.57 320 21:58 08.04.2021
531 Haze 17 1015 36 5000 2.57 270 21:40 08.04.2021
532 Haze 17 1015 36 5000 2.57 270 21:21 08.04.2021
533 Haze 17 1015 36 5000 2.57 300 20:54 08.04.2021
534 Haze 17 1015 36 5000 2.57 300 20:34 08.04.2021
535 Haze 19 1015 39 5000 2.57 300 19:57 08.04.2021
536 Haze 19 1015 39 5000 2.57 300 19:25 08.04.2021
537 Haze 24 1015 17 5000 4.63 330 18:57 08.04.2021
538 Haze 24 1015 17 5000 4.63 330 18:38 08.04.2021
539 Haze 24 1015 17 5000 4.63 330 18:19 08.04.2021
540 Haze 25 1015 18 5000 4.63 310 17:40 08.04.2021
541 Haze 25 1015 18 5000 4.63 310 17:18 08.04.2021
542 Clouds 26 1015 15 6000 4.63 330 16:43 08.04.2021
543 Clouds 26 1015 15 6000 4.63 330 16:22 08.04.2021
544 Clouds 27 1015 14 6000 2.06 300 15:43 08.04.2021
545 Clear 27 1015 14 6000 2.06 300 15:23 08.04.2021
546 Clear 27 1016 14 6000 4.12 310 14:42 08.04.2021
547 Clear 27 1016 14 6000 4.12 310 14:20 08.04.2021
548 Clear 27 1016 15 6000 5.14 310 13:46 08.04.2021
549 Clear 27 1016 15 6000 5.14 310 13:24 08.04.2021
550 Clear 27 1016 12 6000 3.09 310 12:53 08.04.2021
551 Clear 27 1016 12 6000 3.09 310 12:33 08.04.2021
552 Clear 25 1017 16 6000 2.57 290 11:57 08.04.2021
553 Clear 25 1017 16 6000 2.57 290 11:26 08.04.2021
554 Clear 25 1017 16 6000 2.57 290 10:55 08.04.2021
555 Haze 24 1017 20 4000 3.09 310 10:25 08.04.2021
556 Haze 22 1017 23 4000 3.09 310 09:46 08.04.2021
557 Haze 22 1017 23 4000 3.09 310 09:26 08.04.2021
558 Haze 20 1017 17 4000 4.12 260 08:44 08.04.2021
559 Haze 20 1017 17 4000 4.12 260 08:22 08.04.2021
560 Haze 18 1016 19 3000 2.06 240 07:45 08.04.2021
561 Haze 14 1016 36 2500 2.12 310 06:46 08.04.2021
562 Clear 18 1016 15 6000 4.87 315 01:27 08.04.2021
563 Clear 18 1016 15 6000 1.54 230 00:32 08.04.2021
564 Clear 19 1017 14 6000 2.57 240 23:48 07.04.2021
565 Clear 19 1017 14 6000 2.57 240 23:27 07.04.2021
566 Clear 19 1017 22 6000 2.06 270 22:58 07.04.2021
567 Clear 19 1017 22 6000 2.06 270 22:39 07.04.2021
568 Clear 19 1017 22 6000 2.06 270 22:20 07.04.2021
569 Clear 19 1017 22 7000 4.62 328 21:34 07.04.2021
570 Clear 19 1017 22 7000 4.62 328 21:34 07.04.2021
571 Clear 20 1017 24 7000 4.88 330 20:59 07.04.2021
572 Clear 20 1017 24 7000 4.88 330 20:40 07.04.2021
573 Clear 20 1017 24 7000 5.43 327 20:19 07.04.2021
574 Clear 21 1017 23 6000 1.54 280 19:40 07.04.2021
575 Clear 21 1017 23 6000 1.54 280 19:22 07.04.2021
576 Clear 26 1016 21 6000 2.57 320 18:42 07.04.2021
577 Clear 26 1016 21 6000 2.57 320 18:18 07.04.2021
578 Clear 28 1016 18 6000 3.09 280 17:48 07.04.2021
579 Clear 28 1016 18 6000 3.09 280 17:30 07.04.2021
580 Clear 30 1015 14 6000 3.09 290 16:47 07.04.2021
581 Clear 30 1015 14 6000 3.09 290 16:21 07.04.2021
582 Clear 31 1015 13 6000 1.54 270 15:56 07.04.2021
583 Clear 31 1016 11 6000 1.54 270 15:38 07.04.2021
584 Clear 30 1016 11 6000 1.54 270 14:50 07.04.2021
585 Clouds 30 1016 11 6000 1.54 270 14:25 07.04.2021
586 Dust 30 1016 12 5000 3.6 290 13:46 07.04.2021
587 Dust 30 1016 12 5000 3.6 290 13:21 07.04.2021
588 Dust 29 1016 15 5000 3.6 290 12:49 07.04.2021
589 Dust 29 1016 15 5000 3.6 290 12:22 07.04.2021
590 Dust 28 1016 18 5000 1.03 0 11:48 07.04.2021
591 Dust 28 1016 18 5000 1.03 0 11:25 07.04.2021
592 Dust 27 1016 18 4000 1.03 0 10:52 07.04.2021
593 Dust 25 1016 20 4000 1.03 0 09:57 07.04.2021
594 Dust 25 1016 20 4000 1.03 0 09:38 07.04.2021
595 Dust 25 1016 20 4000 1.03 0 09:19 07.04.2021
596 Dust 20 1015 26 4000 1.03 0 08:33 07.04.2021
597 Smoke 19 1015 36 3000 0.59 261 07:58 07.04.2021
598 Smoke 17 1015 36 3000 0.59 261 07:37 07.04.2021
599 Smoke 17 1015 36 3000 0.2 148 07:19 07.04.2021
600 Haze 15 1015 29 4000 1.34 100 06:22 07.04.2021
601 Haze 16 1014 27 5000 3.46 83 04:22 07.04.2021
602 Dust 22 1015 10 4000 4.63 150 00:20 07.04.2021
603 Dust 23 1015 12 4000 5.66 140 23:46 06.04.2021
604 Dust 23 1015 12 4000 5.66 140 23:18 06.04.2021
605 Dust 23 1015 14 4000 4.12 150 22:39 06.04.2021
606 Dust 23 1015 14 4000 4.12 150 22:19 06.04.2021
607 Dust 24 1014 13 4000 2.06 100 21:40 06.04.2021
608 Dust 24 1014 13 4000 2.06 100 21:21 06.04.2021
609 Dust 25 1014 13 4000 2.06 100 20:53 06.04.2021
610 Dust 25 1014 13 4000 2.06 100 20:24 06.04.2021
611 Dust 25 1014 11 4000 4.4 102 19:52 06.04.2021
612 Dust 25 1014 11 4000 4.4 102 19:34 06.04.2021
613 Dust 28 1013 12 4000 3.09 120 18:52 06.04.2021
614 Dust 28 1013 12 4000 3.09 120 18:33 06.04.2021
615 Dust 30 1013 11 4000 3.6 120 17:57 06.04.2021
616 Dust 30 1013 11 4000 3.6 120 17:38 06.04.2021
617 Dust 30 1013 11 4000 3.6 120 17:18 06.04.2021
618 Dust 30 1014 10 4000 3.09 120 16:41 06.04.2021
619 Dust 31 1014 8 4000 3.09 130 15:53 06.04.2021
620 Dust 31 1014 8 4000 3.09 130 15:25 06.04.2021
621 Dust 30 1015 10 4000 4.12 120 14:43 06.04.2021
622 Dust 30 1015 10 4000 4.12 120 14:24 06.04.2021
623 Dust 30 1016 10 4000 7.72 130 13:46 06.04.2021
624 Dust 30 1016 10 4000 7.72 130 13:25 06.04.2021
625 Dust 29 1017 11 5000 7.72 140 12:45 06.04.2021
626 Dust 29 1017 11 5000 7.72 140 12:26 06.04.2021
627 Dust 26 1018 13 5000 7.72 140 11:55 06.04.2021
628 Dust 26 1018 13 5000 7.72 140 11:36 06.04.2021
629 Dust 26 1018 13 5000 7.72 140 11:18 06.04.2021
630 Clear 24 1019 15 6000 5.66 140 10:39 06.04.2021
631 Clouds 24 1019 15 6000 5.66 140 10:21 06.04.2021
632 Clouds 23 1019 12 7000 4.63 140 09:43 06.04.2021
633 Clear 20 1019 13 6000 4.12 130 08:57 06.04.2021
634 Clear 20 1019 13 6000 4.12 130 08:19 06.04.2021
635 Clear 17 1019 15 7000 3.09 150 07:22 06.04.2021
636 Clear 14 1019 16 10000 3.09 150 06:50 06.04.2021
637 Clear 18 1018 22 10000 2.57 120 03:54 06.04.2021
638 Clear 18 1020 21 10000 3.64 99 00:49 06.04.2021
639 Clear 18 1020 21 10000 3.43 105 00:22 06.04.2021
640 Clear 18 1020 21 10000 3.43 105 23:58 05.04.2021
641 Clear 18 1021 21 10000 3.43 105 23:39 05.04.2021
642 Clear 18 1021 21 10000 2.87 94 23:18 05.04.2021
643 Clear 19 1021 26 10000 2.57 170 22:40 05.04.2021
644 Clear 19 1021 26 10000 2.57 170 21:55 05.04.2021
645 Clear 19 1021 24 10000 3.09 120 21:37 05.04.2021
646 Clear 19 1021 24 10000 3.09 120 21:18 05.04.2021
647 Clear 20 1021 24 10000 3.32 134 20:41 05.04.2021
648 Clear 20 1021 24 10000 2.82 137 20:22 05.04.2021
649 Clear 23 1020 17 7000 3.09 120 19:37 05.04.2021
650 Clear 23 1020 17 7000 3.09 120 19:18 05.04.2021
651 Clear 25 1020 18 7000 3.09 120 18:40 05.04.2021
652 Clear 25 1020 18 7000 3.09 120 18:19 05.04.2021
653 Clear 26 1020 17 7000 3.6 90 17:47 05.04.2021
654 Clear 26 1020 17 7000 3.6 90 17:23 05.04.2021
655 Clear 26 1020 17 7000 3.09 150 16:47 05.04.2021
656 Clear 26 1020 17 7000 3.09 150 16:22 05.04.2021
657 Clear 26 1020 17 7000 3.09 150 15:57 05.04.2021
658 Clear 26 1020 17 7000 3.09 150 15:35 05.04.2021
659 Clear 26 1020 17 7000 3.09 150 14:59 05.04.2021
660 Clear 27 1021 17 7000 3.09 130 14:36 05.04.2021
661 Clear 26 1021 11 6000 3.94 132 13:52 05.04.2021
662 Clear 26 1021 11 6000 4.54 137 13:27 05.04.2021
663 Clear 25 1022 13 6000 2.06 140 12:47 05.04.2021
664 Clear 25 1022 13 6000 2.06 140 12:25 05.04.2021
665 Clear 22 1022 23 6000 2.06 140 11:48 05.04.2021
666 Clear 22 1022 23 6000 2.06 140 11:30 05.04.2021
667 Clear 21 1022 23 6000 2.06 140 10:56 05.04.2021
668 Clear 21 1022 23 6000 2.06 140 10:56 05.04.2021
669 Clear 22 1023 15 6000 4.63 100 10:35 05.04.2021
670 Haze 17 1023 33 5000 4.04 122 09:49 05.04.2021
671 Haze 17 1023 33 5000 3.48 111 09:26 05.04.2021
672 Haze 14 1023 33 5000 3.48 111 08:50 05.04.2021
673 Haze 14 1023 33 5000 3.76 101 08:27 05.04.2021
674 Haze 14 1023 33 5000 3.76 101 07:58 05.04.2021
675 Clear 12 1022 47 6000 3.76 101 07:33 05.04.2021
676 Clear 9 1022 46 10000 0.31 4 03:42 05.04.2021
677 Clear 11 1023 58 7000 2.57 40 00:56 05.04.2021
678 Clear 12 1023 51 7000 3.6 30 00:19 05.04.2021
679 Clear 12 1023 51 7000 4.63 30 23:32 04.04.2021
680 Clear 13 1023 51 7000 4.63 30 22:58 04.04.2021
681 Clear 13 1023 51 7000 2.06 20 22:40 04.04.2021
682 Clear 13 1023 51 7000 2.06 20 22:21 04.04.2021
683 Clear 13 1023 47 8000 3.6 50 21:22 04.04.2021
684 Clear 14 1023 47 10000 1.54 320 20:43 04.04.2021
685 Clear 14 1023 47 10000 1.54 320 20:23 04.04.2021
686 Clear 15 1022 25 10000 4.08 336 19:41 04.04.2021
687 Clear 15 1022 25 10000 5.04 334 19:20 04.04.2021
688 Clear 17 1022 16 8000 2.57 280 18:56 04.04.2021
689 Clear 18 1022 16 8000 2.57 280 18:36 04.04.2021
690 Clear 18 1022 16 8000 2.57 280 18:18 04.04.2021
691 Clear 20 1022 18 8000 4.12 260 17:25 04.04.2021
692 Clear 22 1022 17 8000 4.12 260 16:57 04.04.2021
693 Clear 22 1022 17 8000 4.12 260 16:39 04.04.2021
694 Clear 22 1022 16 8000 3.09 250 15:56 04.04.2021
695 Clear 22 1022 16 8000 3.09 250 15:32 04.04.2021
696 Clear 21 1022 17 8000 3.09 250 14:42 04.04.2021
697 Clear 21 1022 17 8000 3.09 250 14:24 04.04.2021
698 Clear 20 1023 18 10000 1.03 250 13:28 04.04.2021
699 Clear 20 1023 18 8000 2.06 200 12:52 04.04.2021
700 Clear 20 1023 18 8000 2.06 200 12:28 04.04.2021
701 Clear 19 1023 18 8000 4.12 200 11:51 04.04.2021
702 Clear 19 1023 18 8000 4.12 200 11:31 04.04.2021
703 Haze 16 1023 41 5000 1.54 200 10:55 04.04.2021
704 Haze 16 1023 41 5000 1.54 200 10:32 04.04.2021
705 Haze 13 1023 47 4000 3.07 287 09:52 04.04.2021
706 Haze 13 1023 47 4000 2.58 291 09:24 04.04.2021
707 Haze 12 1023 47 4000 2.58 291 08:50 04.04.2021
708 Haze 11 1023 71 3000 1.54 220 08:32 04.04.2021
709 Haze 11 1023 71 3000 1.54 220 08:32 04.04.2021
710 Mist 6 1023 87 2500 1.54 240 07:22 04.04.2021
711 Mist 4 1022 93 2500 2.01 308 06:34 04.04.2021
712 Clear 6 1022 87 7000 3.12 310 04:34 04.04.2021
713 Clear 8 1022 87 10000 3.38 329 01:28 04.04.2021
714 Clear 9 1022 81 10000 3.73 335 00:19 04.04.2021
715 Clear 9 1018 87 10000 3.73 335 23:47 03.04.2021
716 Clear 9 1018 87 10000 4.09 333 23:23 03.04.2021
717 Clear 9 1022 76 8000 1.54 310 22:50 03.04.2021
718 Clear 9 1022 76 8000 1.54 310 22:21 03.04.2021
719 Clear 10 1022 76 8000 2.06 290 21:47 03.04.2021
720 Clear 10 1022 76 8000 2.06 290 21:24 03.04.2021
721 Clear 11 1022 76 8000 1.54 300 20:49 03.04.2021
722 Clear 11 1022 76 8000 1.54 300 20:28 03.04.2021
723 Clouds 12 1022 66 8000 4.12 310 19:51 03.04.2021
724 Clouds 12 1022 66 8000 4.12 310 19:25 03.04.2021
725 Clouds 15 1022 51 6000 4.12 300 18:52 03.04.2021
726 Clouds 15 1022 51 6000 4.12 300 18:32 03.04.2021
727 Clouds 15 1022 51 6000 4.12 300 17:53 03.04.2021
728 Clouds 15 1021 51 6000 4.12 270 17:26 03.04.2021
729 Clouds 15 1021 51 6000 4.12 270 16:54 03.04.2021
730 Clouds 17 1021 42 6000 5.14 270 16:25 03.04.2021
731 Clouds 16 1021 44 6000 4.12 280 15:51 03.04.2021
732 Clouds 16 1021 44 6000 4.12 280 15:30 03.04.2021
733 Clouds 16 1022 44 6000 4.63 270 14:45 03.04.2021
734 Clouds 16 1022 44 6000 4.63 270 14:25 03.04.2021
735 Clouds 16 1022 48 8000 4.63 230 13:54 03.04.2021
736 Clouds 16 1022 48 8000 4.63 230 13:34 03.04.2021
737 Clouds 15 1022 48 8000 4.63 270 12:58 03.04.2021
738 Clouds 15 1022 48 8000 4.63 270 12:33 03.04.2021
739 Clouds 14 1022 51 8000 4.63 280 11:44 03.04.2021
740 Clouds 14 1022 51 8000 4.63 280 11:26 03.04.2021
741 Clouds 14 1022 54 8000 4.12 230 10:45 03.04.2021
742 Clouds 14 1022 54 8000 4.12 230 10:26 03.04.2021
743 Clouds 11 1022 66 6000 4.63 230 09:39 03.04.2021
744 Clouds 11 1022 66 6000 4.63 230 09:21 03.04.2021
745 Haze 10 1022 71 5000 4.12 230 08:35 03.04.2021
746 Clouds 9 1021 76 8000 2.57 230 07:47 03.04.2021
747 Clouds 9 1021 76 8000 2.57 230 07:26 03.04.2021
748 Clouds 8 1020 81 8000 4.12 240 04:24 03.04.2021
749 Clouds 8 1020 93 8000 3.09 220 02:56 03.04.2021
750 Clouds 8 1020 93 8000 3.09 220 02:31 03.04.2021
751 Clouds 9 1021 76 8000 2.06 240 00:51 03.04.2021
752 Clouds 9 1021 76 8000 2.06 240 00:18 03.04.2021
753 Clouds 9 1020 81 8000 2.06 240 23:44 02.04.2021
754 Clouds 9 1020 81 8000 2.06 240 23:19 02.04.2021
755 Clouds 9 1021 76 8000 3.09 250 22:44 02.04.2021
756 Clouds 9 1021 76 8000 3.09 250 22:25 02.04.2021
757 Clouds 9 1021 76 8000 3.09 250 21:41 02.04.2021
758 Clouds 9 1021 76 8000 3.09 250 21:19 02.04.2021
759 Clouds 9 1020 76 8000 3.09 250 20:45 02.04.2021
760 Clouds 9 1020 76 8000 3.09 250 20:25 02.04.2021
761 Clouds 10 1019 71 6000 5.14 220 19:42 02.04.2021
762 Clouds 10 1019 71 6000 5.14 220 19:23 02.04.2021
763 Clouds 11 1019 62 6000 7.2 250 18:50 02.04.2021
764 Clouds 11 1019 62 6000 7.2 250 18:30 02.04.2021
765 Clouds 11 1018 58 6000 8.23 250 17:57 02.04.2021
766 Clouds 11 1018 58 6000 8.23 250 17:34 02.04.2021
767 Clouds 11 1018 76 6000 7.2 250 16:43 02.04.2021
768 Clouds 11 1018 76 6000 7.2 250 15:50 02.04.2021
769 Clouds 11 1018 76 6000 7.2 250 15:28 02.04.2021
770 Clouds 11 1018 76 6000 7.2 250 14:42 02.04.2021
771 Clouds 11 1018 76 6000 7.2 250 14:21 02.04.2021
772 Clouds 12 1018 76 5000 8.75 240 13:39 02.04.2021
773 Clouds 12 1018 76 5000 8.75 240 13:19 02.04.2021
774 Dust 14 1018 47 5000 8.75 240 12:39 02.04.2021
775 Dust 14 1018 47 5000 8.75 240 12:19 02.04.2021
776 Dust 14 1017 47 5000 8.75 230 11:49 02.04.2021
777 Dust 14 1017 47 5000 8.75 230 11:19 02.04.2021
778 Clouds 12 1017 54 8000 7.72 230 10:44 02.04.2021
779 Clouds 12 1017 54 8000 7.72 230 10:25 02.04.2021
780 Clouds 12 1017 54 10000 7.72 240 09:52 02.04.2021
781 Clouds 12 1017 54 10000 7.72 240 09:26 02.04.2021
782 Clouds 11 1017 62 10000 7.2 240 08:46 02.04.2021
783 Clouds 11 1017 62 10000 7.2 240 08:27 02.04.2021
784 Clouds 9 1017 66 10000 1.54 240 07:23 02.04.2021
785 Clouds 8 1017 71 10000 4.18 256 06:46 02.04.2021
786 Clear 7 1017 57 10000 2.57 240 04:18 02.04.2021
787 Clear 7 1017 57 7000 3.6 250 02:20 02.04.2021
788 Clear 9 1017 57 7000 3.09 250 00:47 02.04.2021
789 Clear 9 1017 57 7000 3.09 250 00:18 02.04.2021
790 Clouds 9 1017 53 7000 2.06 300 23:30 01.04.2021
791 Clouds 10 1018 53 7000 3.09 300 22:52 01.04.2021
792 Clouds 10 1018 53 7000 3.09 300 22:19 01.04.2021
793 Clouds 11 1017 54 8000 2.57 290 21:49 01.04.2021
794 Clouds 11 1017 54 8000 2.57 290 21:25 01.04.2021
795 Clouds 11 1017 54 10000 4.12 360 20:44 01.04.2021
796 Clouds 11 1017 54 10000 4.12 360 20:24 01.04.2021
797 Clouds 12 1017 58 8000 2.06 280 19:54 01.04.2021
798 Clouds 12 1017 58 8000 2.06 280 19:35 01.04.2021
799 Clouds 12 1017 58 8000 2.06 280 19:35 01.04.2021
800 Clouds 14 1017 54 8000 2.06 280 18:45 01.04.2021
801 Clouds 14 1017 54 8000 2.06 280 18:18 01.04.2021
802 Clouds 15 1016 44 8000 4.12 250 17:51 01.04.2021
803 Clouds 15 1016 44 8000 4.12 250 17:32 01.04.2021
804 Clouds 15 1016 38 8000 4.63 230 16:51 01.04.2021
805 Clouds 15 1016 38 8000 4.63 230 16:28 01.04.2021
806 Clouds 16 1016 39 8000 4.12 240 15:47 01.04.2021
807 Clouds 16 1016 39 8000 4.12 240 15:20 01.04.2021
808 Clouds 17 1016 41 8000 5.66 250 14:45 01.04.2021
809 Clouds 17 1016 41 8000 5.66 250 14:45 01.04.2021
810 Clouds 17 1016 41 8000 5.66 250 14:26 01.04.2021
811 Clouds 17 1016 41 8000 5.66 250 13:55 01.04.2021
812 Clouds 16 1016 41 8000 8.23 220 13:30 01.04.2021
813 Clouds 16 1016 47 8000 5.14 220 12:51 01.04.2021
814 Clouds 16 1016 47 8000 5.14 220 12:32 01.04.2021
815 Clouds 15 1017 51 8000 5.14 280 11:50 01.04.2021
816 Clouds 15 1017 51 8000 5.14 280 11:25 01.04.2021
817 Clouds 14 1017 51 8000 5.14 280 10:58 01.04.2021
818 Clouds 14 1017 58 8000 5.14 230 10:40 01.04.2021
819 Clouds 14 1017 58 8000 5.14 230 10:21 01.04.2021
820 Clouds 11 1017 66 6000 3.6 260 09:30 01.04.2021
821 Clouds 11 1017 66 6000 3.6 260 09:30 01.04.2021
822 Haze 10 1017 76 5000 4.12 230 08:40 01.04.2021
823 Haze 10 1017 76 5000 4.12 230 08:19 01.04.2021
824 Haze 9 1016 76 5000 3.09 250 07:21 01.04.2021
825 Haze 7 1016 87 5000 2.57 220 06:50 01.04.2021
826 Clear 8 1015 71 7000 4.12 250 04:56 01.04.2021
827 Clear 9 1015 66 6000 5.14 250 02:29 01.04.2021
828 Clear 9 1016 53 8000 3.09 250 23:52 31.03.2021
829 Clear 9 1016 53 8000 3.09 250 23:32 31.03.2021
830 Clear 10 1016 57 7000 2.57 240 22:43 31.03.2021
831 Clear 10 1016 57 7000 2.57 240 22:21 31.03.2021
832 Clear 11 1015 66 8000 2.57 240 21:47 31.03.2021
833 Clear 11 1015 66 8000 2.57 240 21:24 31.03.2021
834 Clouds 11 1015 66 6000 4.12 260 20:58 31.03.2021
835 Clouds 11 1015 66 6000 4.12 260 20:40 31.03.2021
836 Clouds 11 1015 66 6000 4.12 260 20:19 31.03.2021
837 Haze 12 1014 66 5000 3.09 250 19:42 31.03.2021
838 Haze 12 1014 66 5000 3.09 250 19:19 31.03.2021
839 Haze 13 1014 58 5000 3.09 290 18:53 31.03.2021
840 Haze 13 1014 58 5000 3.09 290 18:34 31.03.2021
841 Clouds 15 1014 47 6000 6.17 260 17:38 31.03.2021
842 Clouds 15 1014 47 6000 6.17 260 17:19 31.03.2021
843 Clouds 16 1014 41 6000 5.14 250 16:53 31.03.2021
844 Clouds 16 1014 41 6000 5.14 250 16:34 31.03.2021
845 Clouds 16 1014 41 7000 4.63 240 15:53 31.03.2021
846 Clouds 16 1014 41 7000 4.63 240 15:20 31.03.2021
847 Clouds 17 1014 39 8000 5.14 270 14:50 31.03.2021
848 Clouds 17 1014 39 8000 5.14 270 14:25 31.03.2021
849 Clouds 17 1014 39 8000 5.14 270 13:55 31.03.2021
850 Clouds 16 1014 44 8000 4.63 310 13:23 31.03.2021
851 Clouds 15 1015 51 10000 4.12 230 12:40 31.03.2021
852 Clouds 15 1015 51 10000 4.12 230 12:18 31.03.2021
853 Clouds 14 1015 47 8000 7.2 280 11:23 31.03.2021
854 Clouds 13 1015 62 6000 7.2 260 10:50 31.03.2021
855 Clouds 13 1015 62 6000 7.2 260 10:28 31.03.2021
856 Haze 11 1015 66 5000 4.63 240 09:58 31.03.2021
857 Haze 11 1015 66 5000 4.63 240 09:33 31.03.2021
858 Haze 11 1015 66 5000 4.63 240 09:33 31.03.2021
859 Haze 10 1014 71 5000 6.17 260 08:48 31.03.2021
860 Haze 10 1014 71 5000 6.17 260 08:30 31.03.2021
861 Mist 10 1014 71 5000 6.17 250 07:41 31.03.2021
862 Mist 8 1013 87 5000 2.06 270 05:52 31.03.2021
863 Mist 9 1013 87 5000 4.12 310 02:44 31.03.2021
864 Clouds 10 1013 81 6000 2.57 290 00:54 31.03.2021
865 Clouds 10 1013 81 6000 2.57 290 00:26 31.03.2021
866 Clouds 10 1013 87 6000 2.06 240 23:58 30.03.2021
867 Clouds 10 1013 87 6000 2.06 240 23:28 30.03.2021
868 Clouds 10 1014 87 6000 4.12 260 22:56 30.03.2021
869 Clouds 10 1014 87 6000 4.12 260 22:38 30.03.2021
870 Clouds 10 1014 87 6000 4.12 260 22:19 30.03.2021
871 Clouds 11 1014 82 6000 3.09 250 21:42 30.03.2021
872 Clouds 11 1014 82 6000 3.09 250 21:19 30.03.2021
873 Clouds 11 1013 76 6000 4.12 250 20:48 30.03.2021
874 Clouds 11 1013 76 6000 4.12 250 20:27 30.03.2021
875 Haze 15 1013 41 5000 5.14 270 19:48 30.03.2021
876 Haze 15 1013 41 5000 5.14 270 19:23 30.03.2021
877 Dust 15 1012 33 5000 7.72 250 18:36 30.03.2021
878 Dust 17 1012 36 5000 7.72 250 17:52 30.03.2021
879 Dust 17 1012 36 5000 7.72 250 17:32 30.03.2021
880 Clear 18 1012 32 6000 7.2 270 16:48 30.03.2021
881 Clear 18 1012 32 6000 7.2 270 16:28 30.03.2021
882 Clear 21 1013 24 6000 3.09 270 15:43 30.03.2021
883 Clear 21 1013 24 6000 3.09 270 15:20 30.03.2021
884 Clear 21 1013 24 6000 3.09 270 14:48 30.03.2021
885 Clear 21 1013 24 6000 3.09 270 14:21 30.03.2021
886 Clear 21 1013 24 6000 3.09 270 14:21 30.03.2021
887 Clear 21 1013 18 7000 2.06 0 13:54 30.03.2021
888 Clear 21 1013 18 7000 2.06 0 13:36 30.03.2021
889 Clear 20 1014 21 8000 1.54 0 12:45 30.03.2021
890 Clear 20 1014 21 8000 1.54 0 12:26 30.03.2021
891 Clear 19 1015 30 8000 1.54 0 11:52 30.03.2021
892 Clear 19 1015 30 8000 1.54 0 11:22 30.03.2021
893 Clear 17 1015 22 10000 2.57 90 10:43 30.03.2021
894 Clear 17 1015 22 10000 2.57 90 10:20 30.03.2021
895 Clear 16 1015 25 6000 3.6 80 09:43 30.03.2021
896 Clear 16 1015 25 6000 3.6 80 09:25 30.03.2021
897 Smoke 13 1016 47 4000 1.54 50 08:53 30.03.2021
898 Smoke 13 1016 47 4000 1.54 50 08:35 30.03.2021
899 Smoke 9 1016 66 5000 3.25 94 07:50 30.03.2021
900 Smoke 9 1016 66 5000 1.29 67 07:22 30.03.2021
901 Clear 8 1016 66 10000 0.85 342 05:25 30.03.2021
902 Clear 9 1016 61 10000 0.85 342 04:57 30.03.2021
903 Clear 11 1019 54 7000 0.51 0 00:28 30.03.2021
904 Clear 11 1019 54 7000 0.51 0 23:31 29.03.2021
905 Clear 12 1019 50 7000 0.51 0 22:45 29.03.2021
906 Clear 12 1019 50 7000 0.51 0 22:25 29.03.2021
907 Clear 12 1019 47 7000 0.51 0 21:43 29.03.2021
908 Clear 12 1019 47 7000 0.51 0 21:23 29.03.2021
909 Clear 13 1019 44 10000 0.51 0 20:47 29.03.2021
910 Clear 13 1019 44 10000 0.51 0 20:26 29.03.2021
911 Clear 14 1019 47 10000 3.58 6 19:48 29.03.2021
912 Clear 14 1019 47 10000 3.71 4 19:22 29.03.2021
913 Clear 16 1019 41 10000 1.54 320 18:42 29.03.2021
914 Clear 16 1019 41 10000 1.54 320 18:21 29.03.2021
915 Clear 19 1019 32 10000 1.54 300 17:45 29.03.2021
916 Clear 19 1019 32 10000 1.54 300 17:18 29.03.2021
917 Clear 19 1019 26 10000 1.54 270 16:37 29.03.2021
918 Clear 19 1019 26 10000 1.54 270 16:18 29.03.2021
919 Clear 19 1020 27 10000 1.54 250 15:35 29.03.2021
920 Clear 19 1021 27 8000 2.33 279 14:57 29.03.2021
921 Clear 19 1021 27 8000 2.33 279 14:38 29.03.2021
922 Clear 19 1022 29 8000 1.03 0 13:54 29.03.2021
923 Clear 18 1022 29 8000 1.03 0 13:30 29.03.2021
924 Clear 16 1022 31 8000 1.03 0 12:51 29.03.2021
925 Clear 16 1022 31 8000 1.03 0 12:30 29.03.2021
926 Clear 15 1023 31 8000 1.03 0 11:43 29.03.2021
927 Clear 15 1023 31 8000 1.03 0 11:24 29.03.2021
928 Clear 13 1024 35 8000 1.03 90 10:41 29.03.2021
929 Clear 11 1024 43 8000 1.03 0 09:56 29.03.2021
930 Clear 11 1024 43 8000 1.03 0 09:23 29.03.2021
931 Clear 8 1024 57 7000 1.54 90 08:30 29.03.2021
932 Haze 7 1024 61 5000 1.54 60 07:51 29.03.2021
933 Smoke 5 1024 61 4000 1.54 60 06:53 29.03.2021
934 Clear 4 1024 70 10000 3.35 309 05:19 29.03.2021
935 Clear 5 1025 70 10000 4.37 316 02:27 29.03.2021
936 Clear 6 1025 70 10000 5.51 327 00:26 29.03.2021
937 Clear 7 1025 66 10000 5.51 327 23:55 28.03.2021
938 Clear 7 1025 66 10000 6 325 23:24 28.03.2021
939 Clear 8 1025 71 10000 6 325 22:42 28.03.2021
940 Clear 8 1025 71 10000 6.08 325 22:24 28.03.2021
941 Clear 8 1025 71 10000 6.08 325 22:24 28.03.2021
942 Clear 9 1025 71 10000 6.08 325 21:46 28.03.2021
943 Clear 9 1025 71 10000 6.31 326 21:24 28.03.2021
944 Clear 10 1025 66 10000 2.06 320 20:51 28.03.2021
945 Clear 10 1025 66 10000 2.06 320 20:33 28.03.2021
946 Clear 12 1024 47 7000 2.57 300 19:56 28.03.2021
947 Clear 12 1024 47 7000 2.57 300 19:38 28.03.2021
948 Clear 12 1024 47 7000 2.57 300 19:20 28.03.2021
949 Clear 13 1024 44 7000 2.57 300 18:41 28.03.2021
950 Clear 13 1024 44 7000 2.57 300 18:18 28.03.2021
951 Clear 14 1024 44 7000 2.57 300 17:37 28.03.2021
952 Clouds 15 1024 44 7000 3.09 20 16:56 28.03.2021
953 Clouds 15 1024 44 7000 3.09 20 16:28 28.03.2021
954 Clouds 15 1024 38 7000 4.77 305 15:57 28.03.2021
955 Clouds 15 1024 38 7000 4.7 302 15:24 28.03.2021
956 Clouds 16 1024 38 7000 4.7 302 14:47 28.03.2021
957 Clouds 16 1024 38 7000 3.59 300 14:18 28.03.2021
958 Clouds 15 1025 35 8000 3.09 20 13:35 28.03.2021
959 Clouds 14 1025 38 8000 1.54 90 12:57 28.03.2021
960 Clouds 14 1025 38 8000 1.54 90 12:35 28.03.2021
961 Clouds 13 1026 41 10000 3.09 80 11:59 28.03.2021
962 Clouds 13 1026 41 10000 3.09 80 11:37 28.03.2021
963 Clouds 12 1027 40 10000 3.09 50 10:54 28.03.2021
964 Clouds 12 1027 40 10000 3.09 50 10:31 28.03.2021
965 Clouds 10 1027 50 10000 1.03 60 09:53 28.03.2021
966 Clouds 10 1027 50 10000 1.03 60 09:28 28.03.2021
967 Haze 8 1026 76 5000 1.03 60 08:52 28.03.2021
968 Haze 8 1026 76 5000 1.03 60 08:34 28.03.2021
969 Mist 6 1026 87 2500 4 90 07:42 28.03.2021
970 Mist 3 1026 93 3000 1.54 38 06:21 28.03.2021
971 Clouds 5 1025 76 6000 2.69 354 03:50 28.03.2021
972 Clouds 5 1026 76 6000 3.38 328 00:45 28.03.2021
973 Clouds 5 1026 76 7000 3.58 319 23:59 27.03.2021
974 Clouds 6 1026 76 7000 3.58 319 23:35 27.03.2021
975 Clouds 7 1026 76 6000 4.11 315 22:49 27.03.2021
976 Clouds 7 1026 76 6000 4.11 315 22:30 27.03.2021
977 Clouds 7 1026 71 6000 4.13 316 21:45 27.03.2021
978 Clouds 7 1026 71 6000 4 315 21:21 27.03.2021
979 Clouds 8 1026 71 10000 2.57 310 20:59 27.03.2021
980 Clouds 8 1026 71 10000 2.57 310 20:37 27.03.2021
981 Clouds 8 1025 71 10000 4.66 316 19:59 27.03.2021
982 Clouds 8 1025 71 10000 4.66 316 19:40 27.03.2021
983 Clouds 8 1025 71 10000 6.23 316 19:22 27.03.2021
984 Clouds 9 1025 57 6000 5.14 320 18:47 27.03.2021
985 Clouds 9 1025 57 6000 5.14 320 18:22 27.03.2021
986 Clouds 9 1025 57 6000 5.14 300 17:37 27.03.2021
987 Clouds 9 1025 57 6000 5.14 300 17:18 27.03.2021
988 Clouds 12 1024 43 7000 5.66 310 16:46 27.03.2021
989 Clouds 12 1024 43 7000 5.66 310 16:25 27.03.2021
990 Clouds 12 1024 40 8000 5.66 320 15:45 27.03.2021
991 Clouds 12 1024 40 8000 5.66 320 15:19 27.03.2021
992 Clouds 13 1024 33 8000 5.14 280 14:42 27.03.2021
993 Clouds 11 1024 43 8000 5.14 290 13:39 27.03.2021
994 Clouds 11 1024 43 8000 5.14 290 13:19 27.03.2021
995 Clouds 11 1024 46 10000 6.69 290 12:47 27.03.2021
996 Clouds 11 1025 50 10000 6.17 250 11:53 27.03.2021
997 Clouds 11 1025 50 10000 6.17 250 11:33 27.03.2021
998 Clouds 11 1025 46 10000 6.17 300 10:58 27.03.2021
999 Clouds 11 1025 46 10000 6.17 300 10:39 27.03.2021
1000 Clouds 10 1024 46 10000 5.66 270 09:59 27.03.2021
1001 Clouds 10 1024 46 10000 5.66 270 09:21 27.03.2021
1002 Clouds 9 1023 46 10000 5.14 280 08:40 27.03.2021
1003 Clouds 9 1023 46 10000 5.14 280 07:56 27.03.2021
1004 Clouds 8 1022 53 10000 3.6 290 07:22 27.03.2021
1005 Clear 6 1023 61 10000 2.06 250 06:43 27.03.2021
1006 Clear 4 1022 65 10000 3.09 240 04:42 27.03.2021
1007 Clouds 5 1021 70 10000 3.09 260 03:29 27.03.2021
1008 Clouds 6 1021 75 6000 3.6 280 00:45 27.03.2021
1009 Clouds 6 1021 70 10000 4.12 300 00:26 27.03.2021
1010 Clouds 6 1021 70 10000 4.12 300 23:38 26.03.2021
1011 Clear 6 1021 70 10000 3.09 280 22:45 26.03.2021
1012 Clear 6 1021 70 10000 3.09 280 22:25 26.03.2021
1013 Clouds 6 1021 75 10000 3.09 260 21:25 26.03.2021
1014 Clouds 7 1021 76 10000 3.09 270 20:58 26.03.2021
1015 Clouds 7 1021 76 10000 3.09 270 20:32 26.03.2021
1016 Clouds 7 1020 81 8000 3.09 280 19:53 26.03.2021
1017 Clouds 7 1020 81 8000 3.09 280 19:35 26.03.2021
1018 Drizzle 8 1020 87 8000 3.09 280 18:59 26.03.2021
1019 Drizzle 8 1020 87 8000 3.09 280 18:41 26.03.2021
1020 Drizzle 8 1020 87 8000 3.09 280 18:18 26.03.2021
1021 Drizzle 8 1019 93 8000 2.57 280 17:44 26.03.2021
1022 Clouds 9 1018 76 10000 2.06 280 16:54 26.03.2021
1023 Clouds 9 1018 76 10000 2.06 280 16:31 26.03.2021
1024 Clouds 9 1018 76 10000 3.09 300 15:51 26.03.2021
1025 Clouds 9 1018 93 10000 2.06 280 14:58 26.03.2021
1026 Clouds 9 1018 93 10000 2.06 280 14:23 26.03.2021
1027 Clouds 10 1018 71 10000 2.06 280 13:34 26.03.2021
1028 Clouds 10 1019 71 10000 2.57 300 12:49 26.03.2021
1029 Clouds 10 1019 71 10000 2.57 300 12:49 26.03.2021
1030 Clouds 10 1019 87 10000 5.14 250 11:58 26.03.2021
1031 Clouds 10 1019 87 10000 5.14 250 11:31 26.03.2021
1032 Clouds 10 1019 87 10000 5.14 250 11:31 26.03.2021
1033 Clouds 11 1018 87 3000 5.14 240 10:46 26.03.2021
1034 Clouds 11 1018 87 3000 5.14 240 10:27 26.03.2021
1035 Clouds 11 1018 71 10000 3.6 240 09:42 26.03.2021
1036 Clouds 11 1018 71 10000 3.6 240 09:18 26.03.2021
1037 Clouds 10 1017 71 10000 5.14 240 08:38 26.03.2021
1038 Clouds 10 1017 71 10000 5.14 240 08:20 26.03.2021
1039 Clouds 9 1017 76 10000 5.14 230 07:23 26.03.2021
1040 Clouds 8 1017 76 10000 5.14 230 06:58 26.03.2021
1041 Clouds 7 1016 76 10000 2.06 210 06:30 26.03.2021
1042 Clouds 6 1016 81 10000 1.03 190 05:26 26.03.2021
1043 Haze 7 1017 71 5000 3.09 240 01:58 26.03.2021
1044 Haze 7 1017 81 5000 1.07 331 00:31 26.03.2021
1045 Haze 8 1017 81 5000 1.84 336 23:44 25.03.2021
1046 Haze 8 1017 81 5000 2.57 250 22:57 25.03.2021
1047 Haze 8 1017 81 5000 2.57 250 22:30 25.03.2021
1048 Haze 9 1017 76 5000 2.57 250 21:53 25.03.2021
1049 Haze 9 1017 76 5000 2.57 250 21:34 25.03.2021
1050 Haze 10 1017 76 5000 2.57 250 20:45 25.03.2021
1051 Haze 10 1017 76 5000 2.57 250 20:25 25.03.2021
1052 Haze 10 1017 81 5000 5.05 331 19:48 25.03.2021
1053 Haze 10 1017 81 5000 4.96 332 19:30 25.03.2021
1054 Haze 11 1016 71 5000 3.6 330 18:49 25.03.2021
1055 Haze 11 1016 71 5000 3.6 330 18:27 25.03.2021
1056 Haze 12 1016 71 5000 3.6 330 17:55 25.03.2021
1057 Haze 12 1016 71 5000 4.12 300 17:36 25.03.2021
1058 Haze 13 1015 66 5000 4.12 300 16:55 25.03.2021
1059 Haze 13 1015 66 5000 4.12 300 16:32 25.03.2021
1060 Haze 14 1015 51 5000 7.72 240 15:46 25.03.2021
1061 Haze 14 1015 51 5000 7.72 240 15:24 25.03.2021
1062 Clouds 14 1015 51 7000 7.72 220 14:48 25.03.2021
1063 Clouds 14 1015 51 7000 7.72 220 14:29 25.03.2021
1064 Clouds 14 1014 54 10000 5.66 240 13:25 25.03.2021
1065 Clouds 14 1015 50 10000 6.17 260 12:46 25.03.2021
1066 Clouds 14 1015 50 10000 6.17 260 12:22 25.03.2021
1067 Clouds 14 1015 51 10000 5.14 250 11:57 25.03.2021
1068 Clouds 14 1015 51 10000 5.14 250 11:39 25.03.2021
1069 Clouds 14 1015 51 10000 5.14 250 11:21 25.03.2021
1070 Clouds 13 1015 47 10000 6.17 240 10:45 25.03.2021
1071 Clouds 13 1015 47 10000 6.17 240 10:19 25.03.2021
1072 Clouds 12 1015 47 7000 3.6 270 09:43 25.03.2021
1073 Clouds 12 1015 47 7000 3.6 270 09:23 25.03.2021
1074 Clouds 11 1015 54 6000 6.17 240 08:31 25.03.2021
1075 Clouds 10 1014 53 8000 5.14 240 07:43 25.03.2021
1076 Clouds 9 1014 61 7000 5.14 240 06:43 25.03.2021
1077 Clouds 9 1014 61 7000 5.14 240 06:23 25.03.2021
1078 Clouds 8 1012 71 7000 2.57 270 04:52 25.03.2021
1079 Clouds 9 1012 71 7000 4.12 270 02:28 25.03.2021
1080 Clouds 9 1012 71 8000 5.66 240 00:20 25.03.2021
1081 Clouds 9 1012 66 8000 4.63 230 23:40 24.03.2021
1082 Clouds 9 1012 66 8000 4.63 230 23:20 24.03.2021
1083 Clouds 10 1012 62 8000 6.17 230 22:40 24.03.2021
1084 Clouds 10 1012 62 8000 6.17 230 21:57 24.03.2021
1085 Haze 10 1011 53 5000 6.17 240 21:39 24.03.2021
1086 Haze 10 1011 53 5000 6.17 240 21:19 24.03.2021
1087 Haze 11 1011 50 5000 5.66 250 20:41 24.03.2021
1088 Haze 11 1011 50 5000 5.66 250 20:18 24.03.2021
1089 Dust 11 1009 43 5000 8.75 250 19:34 24.03.2021
1090 Dust 11 1009 43 5000 8.75 250 18:56 24.03.2021
1091 Dust 11 1009 40 4000 8.75 240 18:38 24.03.2021
1092 Dust 11 1009 40 4000 8.75 240 18:19 24.03.2021
1093 Dust 12 1009 37 3000 8.23 240 17:34 24.03.2021
1094 Dust 13 1009 33 3000 8.23 250 16:59 24.03.2021
1095 Dust 13 1009 33 3000 8.23 250 16:41 24.03.2021
1096 Dust 13 1009 33 3000 8.23 250 16:20 24.03.2021
1097 Dust 14 1008 26 4000 10.29 240 15:41 24.03.2021
1098 Dust 14 1008 26 4000 10.29 240 15:21 24.03.2021
1099 Dust 15 1008 72 3000 10.8 240 14:42 24.03.2021
1100 Dust 15 1008 72 3000 10.8 240 14:23 24.03.2021
1101 Dust 15 1008 25 2000 10.29 260 13:45 24.03.2021
1102 Dust 15 1008 25 2000 10.29 260 13:24 24.03.2021
1103 Dust 16 1008 36 2000 12.86 240 12:41 24.03.2021
1104 Dust 16 1008 36 2000 12.86 240 12:20 24.03.2021
1105 Dust 15 1008 44 2000 12.86 250 11:41 24.03.2021
1106 Dust 14 1008 67 2500 12.86 250 10:53 24.03.2021
1107 Dust 14 1008 67 2500 12.86 250 10:32 24.03.2021
1108 Dust 14 1008 51 2000 10.29 260 09:58 24.03.2021
1109 Dust 14 1008 51 2000 10.29 260 09:36 24.03.2021
1110 Dust 14 1008 51 2000 10.29 260 09:18 24.03.2021
1111 Dust 13 1008 54 3000 10.29 240 08:43 24.03.2021
1112 Dust 12 1007 54 3000 13.38 240 07:50 24.03.2021
1113 Dust 12 1007 54 3000 13.38 240 07:25 24.03.2021
1114 Dust 12 1007 62 3000 8.23 260 06:49 24.03.2021
1115 Dust 11 1007 58 3000 9.26 240 03:19 24.03.2021
1116 Haze 13 1007 71 4000 6.69 240 00:44 24.03.2021
1117 Dust 14 1008 67 4000 8.75 240 23:52 23.03.2021
1118 Dust 14 1008 67 4000 8.75 240 23:20 23.03.2021
1119 Dust 14 1008 67 3000 8.23 250 22:51 23.03.2021
1120 Dust 14 1008 67 3000 8.23 250 22:27 23.03.2021
1121 Dust 16 1008 59 3000 8.23 260 21:47 23.03.2021
1122 Dust 16 1008 59 3000 8.23 260 21:29 23.03.2021
1123 Dust 19 1008 45 3000 9.77 250 20:47 23.03.2021
1124 Dust 19 1008 45 3000 9.77 250 20:26 23.03.2021
1125 Dust 19 1006 55 3000 9.26 250 19:55 23.03.2021
1126 Dust 19 1006 55 3000 9.26 250 19:26 23.03.2021
1127 Dust 23 1005 43 2000 9.26 250 18:59 23.03.2021
1128 Dust 23 1005 43 2000 9.26 250 18:37 23.03.2021
1129 Dust 23 1005 43 2000 9.26 250 18:18 23.03.2021
1130 Dust 24 1005 35 1000 4.12 250 17:42 23.03.2021
1131 Dust 24 1005 35 1000 4.12 250 17:20 23.03.2021
1132 Dust 25 1004 31 800 6.17 260 16:25 23.03.2021
1133 Dust 28 1004 26 500 5.14 250 15:48 23.03.2021
1134 Dust 28 1004 26 500 5.14 250 15:22 23.03.2021
1135 Dust 29 1004 26 800 5.14 250 14:45 23.03.2021
1136 Dust 29 1004 26 800 5.14 250 14:19 23.03.2021
1137 Dust 29 1004 26 2000 3.6 240 13:47 23.03.2021
1138 Dust 29 1004 26 2000 3.6 240 13:24 23.03.2021
1139 Dust 29 1005 24 2000 5.14 240 12:44 23.03.2021
1140 Dust 29 1005 24 2000 5.14 240 12:24 23.03.2021
1141 Dust 28 1007 32 1100 2.57 180 11:48 23.03.2021
1142 Clouds 31 1003 18 10000 8.58 253 11:21 23.03.2021
1143 Clouds 31 1003 18 10000 8.58 253 10:42 23.03.2021
1144 Dust 24 1008 35 1500 2.06 180 10:20 23.03.2021
1145 Dust 24 1008 35 1500 2.06 180 09:51 23.03.2021
1146 Dust 24 1008 35 1500 2.06 180 09:23 23.03.2021
1147 Dust 23 1009 38 2000 1.54 170 08:55 23.03.2021
1148 Dust 23 1009 38 2000 1.54 170 08:37 23.03.2021
1149 Dust 22 1009 40 3000 1.03 0 08:18 23.03.2021
1150 Dust 20 1010 45 3000 2.57 120 07:27 23.03.2021
1151 Dust 19 1010 45 4000 6.17 140 06:53 23.03.2021
1152 Haze 17 1012 48 5000 5.14 160 03:25 23.03.2021
1153 Haze 17 1013 63 5000 2.57 160 02:46 23.03.2021
1154 Haze 17 1014 63 5000 2.06 90 23:47 22.03.2021
1155 Haze 17 1014 63 5000 2.06 90 23:20 22.03.2021
1156 Haze 17 1015 63 5000 1.03 160 22:44 22.03.2021
1157 Haze 17 1015 63 5000 1.03 160 22:21 22.03.2021
1158 Dust 17 1015 63 5000 2.2 130 21:49 22.03.2021
1159 Dust 17 1015 63 5000 1 122 21:27 22.03.2021
1160 Dust 17 1015 63 5000 1.03 100 20:44 22.03.2021
1161 Dust 17 1015 63 5000 1.03 100 20:26 22.03.2021
1162 Dust 18 1015 59 5000 1.03 90 19:58 22.03.2021
1163 Dust 18 1015 59 5000 1.03 90 19:39 22.03.2021
1164 Dust 18 1015 59 5000 1.03 90 19:20 22.03.2021
1165 Dust 20 1015 52 4000 0.51 40 18:41 22.03.2021
1166 Dust 20 1015 52 4000 0.51 40 18:22 22.03.2021
1167 Dust 21 1014 49 4000 1.03 30 17:49 22.03.2021
1168 Dust 21 1014 49 4000 1.03 30 17:22 22.03.2021
1169 Dust 22 1014 46 4000 3.09 30 16:55 22.03.2021
1170 Dust 22 1014 46 4000 3.09 30 16:37 22.03.2021
1171 Dust 24 1014 40 3000 3.09 260 15:43 22.03.2021
1172 Dust 24 1014 40 3000 3.09 260 15:23 22.03.2021
1173 Dust 24 1014 40 3000 3.09 260 14:58 22.03.2021
1174 Dust 25 1014 41 3000 7.72 310 14:34 22.03.2021
1175 Dust 25 1014 35 4000 5.66 300 13:52 22.03.2021
1176 Dust 25 1014 35 4000 5.66 300 13:34 22.03.2021
1177 Dust 26 1014 31 4000 6.17 280 12:59 22.03.2021
1178 Dust 26 1014 31 4000 6.17 280 12:38 22.03.2021
1179 Dust 26 1014 31 4000 6.17 280 12:18 22.03.2021
1180 Haze 26 1014 38 4000 8.23 260 11:40 22.03.2021
1181 Haze 26 1014 38 4000 8.23 260 11:20 22.03.2021
1182 Clouds 26 1014 27 4000 5.14 260 10:42 22.03.2021
1183 Clouds 26 1014 27 4000 5.14 260 10:20 22.03.2021
1184 Dust 27 1014 36 4000 7.72 280 09:37 22.03.2021
1185 Dust 25 1014 36 4000 7.72 280 08:59 22.03.2021
1186 Dust 25 1014 6 4000 7.72 240 08:40 22.03.2021
1187 Dust 24 1013 41 5000 1.03 0 08:21 22.03.2021
1188 Smoke 22 1013 53 5000 1.03 0 07:43 22.03.2021
1189 Clouds 20 1013 46 6000 1.54 210 06:52 22.03.2021
1190 Clouds 18 1013 45 7000 2.57 250 05:24 22.03.2021
1191 Clouds 19 1014 32 8000 3.35 254 01:40 22.03.2021
1192 Clouds 19 1014 32 7000 4.12 230 00:27 22.03.2021
1193 Clouds 19 1014 32 7000 4.12 230 23:53 21.03.2021
1194 Clouds 19 1014 32 7000 4.12 230 23:19 21.03.2021
1195 Clouds 19 1014 30 7000 5.14 230 22:55 21.03.2021
1196 Clouds 19 1014 34 7000 5.44 263 21:58 21.03.2021
1197 Clouds 19 1014 34 7000 5.44 263 21:39 21.03.2021
1198 Clouds 19 1014 34 7000 3.76 258 21:21 21.03.2021
1199 Clouds 21 1014 32 7000 3.76 258 20:41 21.03.2021
1200 Clouds 20 1014 32 7000 2.3 267 20:23 21.03.2021
1201 Clouds 21 1013 28 7000 2.06 230 19:52 21.03.2021
1202 Clouds 21 1013 28 7000 2.06 230 19:21 21.03.2021
1203 Clouds 21 1013 28 7000 2.06 230 18:47 21.03.2021
1204 Clouds 21 1013 28 7000 2.06 230 18:27 21.03.2021
1205 Clouds 22 1012 24 7000 3.09 230 17:46 21.03.2021
1206 Clouds 22 1012 24 7000 3.09 230 17:20 21.03.2021
1207 Clouds 25 1012 22 7000 4.12 230 16:57 21.03.2021
1208 Clouds 25 1012 22 7000 4.12 230 16:30 21.03.2021
1209 Clouds 25 1012 20 7000 3.09 270 15:58 21.03.2021
1210 Clouds 25 1012 20 7000 3.09 270 15:38 21.03.2021
1211 Clouds 25 1012 20 7000 3.09 270 15:19 21.03.2021
1212 Clouds 25 1012 20 7000 3.09 270 15:19 21.03.2021
1213 Clouds 26 1012 19 7000 3.09 270 14:42 21.03.2021
1214 Clouds 26 1012 19 7000 3.09 270 14:24 21.03.2021
1215 Clouds 26 1013 19 7000 3.09 260 13:52 21.03.2021
1216 Clear 25 1013 27 8000 4.12 220 12:46 21.03.2021
1217 Clear 25 1013 27 8000 4.12 220 12:27 21.03.2021
1218 Clear 25 1014 23 10000 4.12 220 11:53 21.03.2021
1219 Clear 25 1014 23 10000 4.12 220 11:28 21.03.2021
1220 Haze 24 1014 27 5000 2.57 230 10:59 21.03.2021
1221 Haze 24 1014 27 5000 2.57 230 10:41 21.03.2021
1222 Haze 24 1014 27 5000 2.57 230 10:21 21.03.2021
1223 Clear 22 1014 23 10000 2.06 220 09:44 21.03.2021
1224 Clear 22 1014 23 10000 2.06 220 09:26 21.03.2021
1225 Smoke 20 1014 34 5000 1.03 240 08:39 21.03.2021
1226 Smoke 20 1014 34 5000 1.03 240 08:21 21.03.2021
1227 Haze 17 1013 42 5000 1.17 289 07:38 21.03.2021
1228 Clear 13 1013 47 6000 0.99 305 06:52 21.03.2021
1229 Clear 12 1013 50 6000 0.72 310 05:45 21.03.2021
1230 Clear 14 1013 47 6000 2.62 309 02:23 21.03.2021
1231 Clear 14 1014 44 6000 2.37 306 00:42 21.03.2021
1232 Clear 14 1014 44 6000 2.16 296 00:22 21.03.2021
1233 Clear 14 1014 41 6000 2.16 296 23:48 20.03.2021
1234 Clear 14 1014 41 6000 1.99 293 23:22 20.03.2021
1235 Clear 15 1014 44 6000 1.99 293 22:55 20.03.2021
1236 Clear 15 1014 44 6000 2.12 284 22:22 20.03.2021
1237 Clear 16 1014 45 6000 2.12 284 21:47 20.03.2021
1238 Clear 16 1014 45 6000 1.76 274 21:25 20.03.2021
1239 Clear 16 1014 48 6000 1.76 274 20:45 20.03.2021
1240 Clear 16 1014 48 6000 1.61 266 20:23 20.03.2021
1241 Clear 17 1014 42 6000 1.61 266 19:51 20.03.2021
1242 Clouds 17 1014 42 6000 1.85 287 19:28 20.03.2021
1243 Clouds 19 1014 39 6000 1.85 287 18:50 20.03.2021
1244 Clouds 19 1014 39 6000 3.04 287 18:27 20.03.2021
1245 Haze 20 1014 32 5000 3.04 287 17:58 20.03.2021
1246 Haze 21 1014 32 5000 3.04 287 17:39 20.03.2021
1247 Haze 21 1014 32 5000 3.82 285 17:19 20.03.2021
1248 Clouds 22 1014 24 6000 1.54 250 16:38 20.03.2021
1249 Clouds 22 1014 24 6000 1.54 250 16:18 20.03.2021
1250 Clouds 24 1015 14 7000 1.54 240 15:40 20.03.2021
1251 Clouds 24 1015 14 7000 1.54 240 15:40 20.03.2021
1252 Clouds 24 1015 14 7000 1.54 240 14:55 20.03.2021
1253 Clouds 24 1015 14 7000 1.54 250 14:31 20.03.2021
1254 Clouds 24 1015 14 7000 1.54 250 13:56 20.03.2021
1255 Clouds 24 1015 25 6000 1.54 250 13:24 20.03.2021
1256 Clear 23 1016 18 6000 1.54 160 12:30 20.03.2021
1257 Clear 23 1016 33 6000 2.06 150 11:58 20.03.2021
1258 Clear 23 1016 33 6000 2.06 150 11:39 20.03.2021
1259 Clear 23 1016 33 6000 2.06 150 11:20 20.03.2021
1260 Dust 20 1018 42 5000 2.57 150 10:39 20.03.2021
1261 Dust 20 1018 42 5000 2.57 150 10:20 20.03.2021
1262 Dust 17 1018 51 5000 1.54 30 09:43 20.03.2021
1263 Dust 17 1018 51 5000 1.54 30 09:21 20.03.2021
1264 Smoke 15 1018 67 5000 1.54 30 08:49 20.03.2021
1265 Smoke 15 1018 67 5000 1.54 30 08:18 20.03.2021
1266 Clouds 12 1019 87 6000 3.86 135 07:41 20.03.2021
1267 Clouds 12 1019 87 6000 3.06 131 07:20 20.03.2021
1268 Clouds 8 1018 93 8000 3.46 124 06:38 20.03.2021
1269 Clouds 7 1018 93 8000 0.76 132 05:27 20.03.2021
1270 Clouds 8 1018 87 8000 0.7 221 03:43 20.03.2021
1271 Clear 7 1019 93 8000 0.82 245 01:31 20.03.2021
1272 Clear 9 1019 81 7000 2.19 305 23:46 19.03.2021
1273 Clear 9 1019 81 7000 2.49 337 23:19 19.03.2021
1274 Clear 9 1019 81 7000 0.51 150 22:43 19.03.2021
1275 Clear 9 1019 81 7000 0.51 150 22:22 19.03.2021
1276 Clear 11 1020 76 7000 3.36 342 21:42 19.03.2021
1277 Clear 11 1020 76 7000 3.45 335 21:20 19.03.2021
1278 Clear 11 1020 76 7000 0.51 0 20:45 19.03.2021
1279 Clear 11 1020 76 7000 0.51 0 20:26 19.03.2021
1280 Clear 12 1019 67 10000 1.03 240 19:48 19.03.2021
1281 Clear 12 1019 67 10000 1.03 240 19:23 19.03.2021
1282 Clear 13 1019 67 10000 1.03 230 18:49 19.03.2021
1283 Clear 13 1019 67 10000 1.03 230 18:30 19.03.2021
1284 Clear 14 1019 58 10000 3.09 240 17:58 19.03.2021
1285 Clear 14 1019 58 10000 3.09 240 17:58 19.03.2021
1286 Clear 14 1019 58 10000 3.09 240 17:38 19.03.2021
1287 Clear 14 1019 58 10000 3.09 240 17:18 19.03.2021
1288 Clear 16 1019 51 10000 2.06 240 16:44 19.03.2021
1289 Clear 16 1019 51 10000 2.06 240 16:25 19.03.2021
1290 Clear 18 1018 39 10000 3.09 240 15:34 19.03.2021
1291 Clouds 18 1018 48 8000 2.57 220 14:53 19.03.2021
1292 Clouds 18 1018 48 8000 2.57 220 14:34 19.03.2021
1293 Clouds 18 1018 52 8000 1.03 0 13:53 19.03.2021
1294 Clouds 18 1018 52 8000 1.03 0 13:19 19.03.2021
1295 Clouds 16 1019 55 10000 1.54 0 12:47 19.03.2021
1296 Clouds 16 1019 55 10000 1.54 0 12:24 19.03.2021
1297 Clouds 15 1019 58 10000 1.54 0 11:34 19.03.2021
1298 Clouds 15 1019 63 10000 1.54 10 10:52 19.03.2021
1299 Clouds 15 1019 63 10000 1.54 10 10:25 19.03.2021
1300 Clouds 13 1019 67 10000 3.09 340 09:46 19.03.2021
1301 Clouds 13 1019 67 10000 3.09 340 09:26 19.03.2021
1302 Clouds 12 1019 66 10000 1.54 280 08:52 19.03.2021
1303 Clouds 10 1019 66 10000 1.54 280 08:29 19.03.2021
1304 Clouds 8 1018 76 10000 1.54 280 07:50 19.03.2021
1305 Clouds 8 1018 76 10000 1.54 280 07:32 19.03.2021
1306 Clouds 7 1018 87 10000 1.54 240 06:36 19.03.2021
1307 Haze 6 1018 81 5000 4.57 314 02:37 19.03.2021
1308 Clear 9 1018 57 8000 5.48 313 23:58 18.03.2021
1309 Clear 9 1018 62 8000 5.48 313 23:30 18.03.2021
1310 Clear 9 1018 62 8000 5.48 313 23:30 18.03.2021
1311 Clouds 9 1018 62 8000 2.06 270 22:58 18.03.2021
1312 Clouds 10 1018 62 8000 2.06 270 22:27 18.03.2021
1313 Clouds 10 1018 62 8000 2.06 270 21:59 18.03.2021
1314 Clouds 10 1018 62 8000 5.03 312 21:38 18.03.2021
1315 Clouds 10 1018 57 8000 1.54 220 20:43 18.03.2021
1316 Clouds 10 1018 57 8000 1.54 220 20:23 18.03.2021
1317 Clouds 11 1018 54 8000 4.63 280 19:45 18.03.2021
1318 Clouds 11 1018 54 8000 4.63 280 19:25 18.03.2021
1319 Clouds 11 1018 54 8000 4.63 280 18:54 18.03.2021
1320 Haze 11 1018 54 5000 3.09 250 18:27 18.03.2021
1321 Haze 14 1017 58 5000 3.6 280 17:49 18.03.2021
1322 Haze 14 1017 58 5000 3.6 280 17:25 18.03.2021
1323 Haze 14 1017 58 5000 6.17 250 16:46 18.03.2021
1324 Haze 14 1017 58 5000 6.17 250 16:26 18.03.2021
1325 Haze 14 1017 58 5000 6.17 260 15:46 18.03.2021
1326 Haze 14 1017 58 5000 6.17 260 15:24 18.03.2021
1327 Haze 14 1017 58 5000 6.17 260 14:53 18.03.2021
1328 Haze 15 1016 51 5000 3.6 260 14:32 18.03.2021
1329 Clouds 15 1016 55 6000 4.63 260 13:53 18.03.2021
1330 Clouds 15 1016 55 6000 4.63 260 13:26 18.03.2021
1331 Clouds 15 1016 58 7000 3.6 260 12:44 18.03.2021
1332 Clouds 15 1016 58 7000 3.6 260 12:26 18.03.2021
1333 Clouds 13 1017 67 10000 6.17 260 11:55 18.03.2021
1334 Clouds 13 1017 67 10000 6.17 260 11:33 18.03.2021
1335 Clouds 13 1017 66 5000 5.14 250 10:49 18.03.2021
1336 Clouds 13 1017 66 5000 5.14 250 10:27 18.03.2021
1337 Clouds 13 1017 62 7000 5.14 240 09:57 18.03.2021
1338 Clouds 13 1017 62 7000 5.14 240 09:30 18.03.2021
1339 Clouds 12 1017 76 6000 5.14 240 08:55 18.03.2021
1340 Clouds 12 1017 76 6000 5.14 240 08:33 18.03.2021
1341 Haze 10 1017 87 5000 3.09 230 07:57 18.03.2021
1342 Haze 10 1017 87 5000 3.09 230 07:38 18.03.2021
1343 Clouds 10 1016 87 6000 4.12 250 06:40 18.03.2021
1344 Clouds 10 1016 87 6000 4.12 250 06:19 18.03.2021
1345 Clouds 9 1015 81 7000 4.12 250 04:27 18.03.2021
1346 Clear 9 1015 62 10000 2.57 230 00:39 18.03.2021
1347 Clear 9 1015 62 10000 3.6 250 23:18 17.03.2021
1348 Clear 10 1015 54 10000 2.57 250 22:38 17.03.2021
1349 Clear 10 1015 54 10000 2.57 250 22:19 17.03.2021
1350 Clear 11 1015 54 10000 3.09 260 21:48 17.03.2021
1351 Clear 11 1015 54 10000 3.09 260 21:30 17.03.2021
1352 Clear 11 1015 43 10000 1.54 270 20:45 17.03.2021
1353 Clear 11 1015 43 10000 1.54 270 20:26 17.03.2021
1354 Clear 11 1015 43 10000 1.54 270 19:58 17.03.2021
1355 Clear 11 1015 43 10000 1.54 270 19:58 17.03.2021
1356 Clear 11 1014 43 10000 1.54 300 19:36 17.03.2021
1357 Clear 11 1014 43 10000 1.54 300 19:18 17.03.2021
1358 Clouds 13 1014 41 7000 4.63 290 18:43 17.03.2021
1359 Clouds 13 1014 41 7000 4.63 290 18:25 17.03.2021
1360 Clouds 14 1013 35 7000 5.66 260 17:32 17.03.2021
1361 Clouds 14 1013 35 7000 5.66 260 17:32 17.03.2021
1362 Clouds 16 1013 44 10000 6.69 250 16:57 17.03.2021
1363 Clouds 16 1013 44 10000 6.69 250 16:38 17.03.2021
1364 Clouds 16 1013 44 10000 6.69 250 16:19 17.03.2021
1365 Clouds 16 1013 44 10000 6.17 250 15:44 17.03.2021
1366 Clouds 16 1013 44 10000 6.17 250 15:25 17.03.2021
1367 Clouds 17 1013 42 10000 7.2 260 14:37 17.03.2021
1368 Clouds 17 1013 42 10000 7.2 260 14:18 17.03.2021
1369 Clouds 17 1013 45 8000 6.17 230 13:52 17.03.2021
1370 Clouds 17 1013 45 8000 6.17 230 13:24 17.03.2021
1371 Clouds 16 1014 48 6000 4.63 230 12:37 17.03.2021
1372 Clouds 16 1014 48 6000 4.63 230 12:19 17.03.2021
1373 Clouds 16 1014 48 6000 2.57 260 11:40 17.03.2021
1374 Clear 16 1014 48 6000 2.57 260 11:20 17.03.2021
1375 Clear 15 1014 44 10000 1.54 240 10:50 17.03.2021
1376 Clear 15 1014 44 10000 1.54 240 10:22 17.03.2021
1377 Haze 14 1015 54 5000 2.57 280 09:43 17.03.2021
1378 Haze 14 1015 54 5000 2.57 280 09:20 17.03.2021
1379 Haze 12 1015 62 5000 1.54 220 08:47 17.03.2021
1380 Haze 12 1015 62 5000 1.54 220 08:27 17.03.2021
1381 Mist 10 1015 76 5000 2.57 270 07:43 17.03.2021
1382 Mist 9 1015 76 5000 2.57 270 06:57 17.03.2021
1383 Mist 7 1014 87 5000 2.06 40 06:28 17.03.2021
1384 Clear 7 1013 81 6000 2.06 40 04:18 17.03.2021
1385 Clear 8 1014 76 6000 3.09 240 02:41 17.03.2021
1386 Clear 8 1014 87 6000 2.57 320 00:39 17.03.2021
1387 Clear 9 1015 81 6000 5.32 322 23:27 16.03.2021
1388 Clear 10 1015 81 6000 2.06 290 22:47 16.03.2021
1389 Clear 10 1015 81 6000 2.06 290 22:28 16.03.2021
1390 Clouds 11 1015 76 6000 3.09 300 21:45 16.03.2021
1391 Clouds 11 1015 76 6000 3.09 300 21:27 16.03.2021
1392 Clouds 11 1015 82 6000 2.57 290 20:58 16.03.2021
1393 Clouds 11 1015 82 6000 2.57 290 20:20 16.03.2021
1394 Clouds 12 1014 76 10000 5.14 320 19:54 16.03.2021
1395 Clouds 12 1014 76 10000 5.14 320 19:36 16.03.2021
1396 Clouds 12 1014 76 10000 5.14 320 18:59 16.03.2021
1397 Clouds 12 1014 71 10000 5.14 310 18:40 16.03.2021
1398 Clouds 12 1014 71 10000 5.14 310 18:21 16.03.2021
1399 Clouds 14 1013 54 6000 6.17 310 17:46 16.03.2021
1400 Clouds 14 1013 54 6000 6.17 310 17:26 16.03.2021
1401 Haze 16 1013 51 4000 3.6 290 16:51 16.03.2021
1402 Haze 16 1013 51 4000 3.6 290 16:28 16.03.2021
1403 Haze 18 1013 52 4000 5.14 250 15:47 16.03.2021
1404 Haze 18 1013 52 4000 5.14 250 15:21 16.03.2021
1405 Haze 18 1013 55 4500 5.14 250 14:58 16.03.2021
1406 Haze 18 1013 55 4500 5.14 250 14:40 16.03.2021
1407 Haze 18 1013 55 4500 5.14 250 14:20 16.03.2021
1408 Clouds 19 1013 48 7000 5.14 300 13:49 16.03.2021
1409 Clouds 19 1013 48 7000 5.14 300 13:26 16.03.2021
1410 Clouds 19 1013 45 8000 4.12 240 12:51 16.03.2021
1411 Clouds 19 1013 45 8000 4.12 240 12:33 16.03.2021
1412 Clear 19 1014 45 8000 3.09 250 11:53 16.03.2021
1413 Clear 19 1014 45 8000 3.09 250 11:24 16.03.2021
1414 Clear 18 1014 45 8000 4.12 240 10:28 16.03.2021
1415 Clear 18 1014 24 8000 2.57 240 09:59 16.03.2021
1416 Clear 18 1014 24 8000 2.57 240 09:38 16.03.2021
1417 Clouds 18 1014 24 8000 2.57 240 09:18 16.03.2021
1418 Clouds 15 1013 51 7000 1.54 250 08:48 16.03.2021
1419 Clouds 14 1013 51 7000 1.54 250 08:30 16.03.2021
1420 Haze 14 1013 67 5000 1.03 230 07:36 16.03.2021
1421 Haze 12 1013 76 5000 0.51 0 06:57 16.03.2021
1422 Haze 12 1013 76 5000 0.51 0 06:35 16.03.2021
1423 Haze 11 1012 71 5000 1.54 240 05:35 16.03.2021
1424 Haze 14 1011 67 5000 2.26 312 02:46 16.03.2021
1425 Haze 12 1011 67 5000 3.37 315 02:24 16.03.2021
1426 Haze 13 1012 76 5000 3.09 230 00:25 16.03.2021
1427 Haze 13 1012 72 5000 3.09 230 23:29 15.03.2021
1428 Haze 14 1012 72 5000 3.09 230 22:56 15.03.2021
1429 Haze 14 1012 72 5000 3.09 230 22:56 15.03.2021
1430 Haze 14 1012 72 5000 3.09 250 22:36 15.03.2021
1431 Haze 14 1012 72 5000 3.09 250 22:18 15.03.2021
1432 Haze 14 1012 58 5000 3.09 220 21:39 15.03.2021
1433 Haze 14 1012 58 5000 3.09 220 21:21 15.03.2021
1434 Haze 15 1012 58 5000 2.06 240 20:45 15.03.2021
1435 Haze 15 1012 58 5000 2.06 240 20:26 15.03.2021
1436 Dust 16 1012 63 5000 2.06 240 19:57 15.03.2021
1437 Dust 16 1012 63 5000 2.06 240 19:38 15.03.2021
1438 Dust 16 1012 63 5000 2.06 240 19:19 15.03.2021
1439 Dust 16 1012 51 5000 2.06 230 18:40 15.03.2021
1440 Dust 16 1012 51 5000 2.06 230 18:22 15.03.2021
1441 Dust 17 1011 48 5000 2.06 300 17:43 15.03.2021
1442 Dust 17 1011 48 5000 2.06 300 17:22 15.03.2021
1443 Clear 19 1011 37 6000 2.57 310 16:44 15.03.2021
1444 Clear 19 1011 37 6000 2.57 310 16:44 15.03.2021
1445 Clear 20 1010 32 6000 3.6 300 15:56 15.03.2021
1446 Clear 20 1010 32 6000 3.6 300 15:28 15.03.2021
1447 Clear 21 1010 23 6000 5.14 260 14:56 15.03.2021
1448 Clear 21 1010 23 6000 5.14 260 14:38 15.03.2021
1449 Clear 21 1010 23 6000 5.14 260 14:19 15.03.2021
1450 Clear 22 1010 24 6000 3.6 240 13:44 15.03.2021
1451 Clouds 22 1010 24 6000 3.6 240 13:23 15.03.2021
1452 Clouds 22 1010 21 7000 4.63 240 12:45 15.03.2021
1453 Clouds 22 1010 21 7000 4.63 240 12:18 15.03.2021
1454 Clouds 21 1011 28 7000 3.6 240 11:45 15.03.2021
1455 Clouds 21 1011 28 7000 3.6 240 11:26 15.03.2021
1456 Dust 19 1011 39 5000 1.03 230 10:44 15.03.2021
1457 Dust 19 1011 39 5000 1.03 230 10:24 15.03.2021
1458 Dust 18 1011 45 5000 1.03 0 09:48 15.03.2021
1459 Dust 18 1011 45 5000 1.03 0 09:29 15.03.2021
1460 Smoke 14 1011 51 5000 5.08 139 08:46 15.03.2021
1461 Smoke 14 1011 51 5000 4.57 125 08:25 15.03.2021
1462 Clouds 13 1011 58 7000 4.57 125 07:43 15.03.2021
1463 Clouds 13 1011 58 7000 1.72 120 07:22 15.03.2021
1464 Clouds 11 1011 71 6000 0.74 123 06:21 15.03.2021
1465 Clouds 10 1023 87 8000 3.31 116 03:36 15.03.2021
1466 Clear 11 1014 76 10000 1.38 351 00:50 15.03.2021
1467 Clear 11 1015 71 10000 0.75 94 23:24 14.03.2021
1468 Clear 12 1015 71 10000 0.75 94 22:59 14.03.2021
1469 Clear 12 1015 71 10000 0.75 94 22:38 14.03.2021
1470 Clear 12 1015 71 10000 0.2 76 22:18 14.03.2021
1471 Clouds 14 1015 72 8000 0.2 76 21:41 14.03.2021
1472 Clouds 14 1015 72 8000 0.06 143 21:18 14.03.2021
1473 Clouds 14 1016 72 8000 0.06 143 20:42 14.03.2021
1474 Clouds 14 1016 72 8000 0.48 7 20:24 14.03.2021
1475 Clouds 15 1014 67 6000 0.48 7 19:42 14.03.2021
1476 Clouds 15 1014 67 6000 1.88 351 19:20 14.03.2021
1477 Haze 17 1015 42 4000 1.7 357 18:46 14.03.2021
1478 Haze 17 1015 42 4000 3.5 359 18:18 14.03.2021
1479 Haze 18 1015 32 4000 3.5 359 17:39 14.03.2021
1480 Haze 18 1015 32 4000 3.54 0 17:20 14.03.2021
1481 Haze 21 1014 28 4000 3.54 0 16:46 14.03.2021
1482 Haze 21 1014 28 4000 3.03 326 16:24 14.03.2021
1483 Haze 20 1014 40 4000 3.03 326 15:52 14.03.2021
1484 Haze 20 1014 40 4000 3.03 326 15:30 14.03.2021
1485 Haze 21 1014 37 5000 2.71 287 14:41 14.03.2021
1486 Haze 21 1014 37 5000 2.61 282 14:20 14.03.2021
1487 Dust 21 1015 37 4000 1.03 340 13:49 14.03.2021
1488 Dust 21 1015 37 4000 1.03 340 13:28 14.03.2021
1489 Clear 21 1015 35 6000 1.03 160 12:45 14.03.2021
1490 Clear 21 1015 35 6000 1.03 160 12:27 14.03.2021
1491 Clear 21 1015 35 6000 1.03 160 12:27 14.03.2021
1492 Haze 19 1016 42 5000 1.04 265 11:44 14.03.2021
1493 Haze 19 1016 42 5000 1.77 253 11:26 14.03.2021
1494 Dust 17 1016 51 4000 1.03 90 10:56 14.03.2021
1495 Dust 17 1016 51 4000 1.03 90 10:36 14.03.2021
1496 Dust 17 1016 51 4000 1.03 90 10:18 14.03.2021
1497 Dust 15 1017 51 4000 1.03 30 09:42 14.03.2021
1498 Dust 15 1017 51 4000 1.03 30 09:21 14.03.2021
1499 Smoke 13 1017 67 4000 0.51 60 08:41 14.03.2021
1500 Smoke 13 1017 67 4000 0.51 60 08:18 14.03.2021
1501 Haze 10 1017 76 3000 0.76 320 07:35 14.03.2021
1502 Mist 8 1017 87 3000 1.14 316 06:41 14.03.2021
1503 Clear 7 1016 87 6000 2.12 310 03:54 14.03.2021
1504 Clear 9 1018 76 6000 2.62 303 00:51 14.03.2021
1505 Clear 9 1018 76 6000 2.92 304 00:19 14.03.2021
1506 Clear 9 1018 81 7000 2.92 304 23:42 13.03.2021
1507 Clear 9 1018 81 7000 2.67 302 23:24 13.03.2021
1508 Clear 10 1019 76 7000 2.67 302 22:52 13.03.2021
1509 Clear 10 1019 76 7000 2.3 316 22:26 13.03.2021
1510 Clear 11 1018 71 7000 2.3 316 21:43 13.03.2021
1511 Clear 11 1018 71 7000 2.77 335 21:25 13.03.2021
1512 Clear 11 1018 71 6000 2.77 335 20:50 13.03.2021
1513 Clear 11 1018 71 6000 2.77 335 20:30 13.03.2021
1514 Clear 12 1018 67 6000 3.41 336 19:53 13.03.2021
1515 Clear 12 1018 67 6000 2.45 331 19:29 13.03.2021
1516 Haze 13 1018 62 5000 2.67 334 18:44 13.03.2021
1517 Haze 13 1018 62 5000 2.38 319 18:23 13.03.2021
1518 Haze 14 1018 58 5000 2.38 319 17:59 13.03.2021
1519 Haze 14 1018 58 5000 2.38 319 17:40 13.03.2021
1520 Haze 14 1018 58 5000 1.85 310 17:21 13.03.2021
1521 Haze 16 1018 48 5000 1.85 310 16:42 13.03.2021
1522 Haze 16 1018 48 5000 2.53 299 15:59 13.03.2021
1523 Haze 16 1018 48 4000 3.46 292 15:26 13.03.2021
1524 Haze 16 1018 48 5000 3.46 292 14:47 13.03.2021
1525 Haze 16 1018 48 5000 2.87 295 14:25 13.03.2021
1526 Dust 15 1017 55 4000 0.51 60 13:47 13.03.2021
1527 Dust 15 1017 55 4000 0.51 60 13:24 13.03.2021
1528 Dust 15 1017 55 4000 0.51 60 13:24 13.03.2021
1529 Dust 14 1019 54 5000 1.54 60 12:43 13.03.2021
1530 Dust 14 1019 54 5000 1.54 60 12:20 13.03.2021
1531 Dust 14 1019 58 5000 1.03 80 11:49 13.03.2021
1532 Dust 14 1019 58 5000 1.03 80 11:28 13.03.2021
1533 Haze 12 1020 62 5000 1.03 0 10:50 13.03.2021
1534 Haze 12 1020 62 5000 1.03 0 10:29 13.03.2021
1535 Smoke 11 1020 71 5000 1.03 0 09:47 13.03.2021
1536 Mist 10 1020 87 5000 1.54 60 08:59 13.03.2021
1537 Mist 10 1020 87 5000 1.54 60 08:41 13.03.2021
1538 Mist 10 1020 87 5000 1.54 60 08:19 13.03.2021
1539 Mist 10 1020 87 5000 1.54 60 08:19 13.03.2021
1540 Clouds 8 1019 93 8000 2.39 330 07:46 13.03.2021
1541 Clouds 7 1019 87 8000 2.58 323 06:51 13.03.2021
1542 Clouds 7 1017 87 10000 4.12 240 02:54 13.03.2021
1543 Clouds 8 1017 81 10000 3.79 302 00:56 13.03.2021
1544 Clouds 8 1017 81 10000 4.65 295 23:57 12.03.2021
1545 Clouds 8 1017 81 10000 4.65 295 23:32 12.03.2021
1546 Clouds 8 1017 81 10000 2.06 230 22:43 12.03.2021
1547 Clouds 8 1017 81 10000 2.06 230 22:23 12.03.2021
1548 Clouds 9 1017 76 10000 3.6 260 21:45 12.03.2021
1549 Clouds 9 1017 76 10000 3.6 260 21:26 12.03.2021
1550 Clouds 9 1016 76 10000 7.72 250 20:56 12.03.2021
1551 Clouds 9 1016 76 10000 7.72 250 20:32 12.03.2021
1552 Clear 9 1016 76 10000 6.17 250 19:59 12.03.2021
1553 Clear 9 1016 76 10000 6.17 250 19:40 12.03.2021
1554 Clear 9 1016 76 10000 6.17 250 19:22 12.03.2021
1555 Clear 9 1016 71 10000 7.2 250 18:36 12.03.2021
1556 Clouds 10 1015 57 10000 6.17 250 17:58 12.03.2021
1557 Clouds 10 1015 57 10000 6.17 250 17:38 12.03.2021
1558 Clouds 10 1015 57 10000 6.17 250 17:20 12.03.2021
1559 Clouds 11 1015 71 10000 5.14 260 16:42 12.03.2021
1560 Clouds 11 1015 71 10000 5.14 260 15:52 12.03.2021
1561 Clouds 12 1014 58 10000 8.75 280 15:32 12.03.2021
1562 Clouds 12 1014 66 6000 10.29 250 14:49 12.03.2021
1563 Clouds 12 1014 66 6000 10.29 250 14:21 12.03.2021
1564 Clouds 12 1013 66 6000 11.32 280 13:45 12.03.2021
1565 Clouds 12 1013 66 6000 11.32 280 13:24 12.03.2021
1566 Clouds 12 1012 66 8000 12.35 270 12:59 12.03.2021
1567 Clouds 12 1012 66 8000 12.35 270 12:41 12.03.2021
1568 Clouds 12 1012 66 8000 12.35 270 12:20 12.03.2021
1569 Clouds 12 1012 71 5000 9.26 250 11:51 12.03.2021
1570 Clouds 12 1012 71 5000 9.26 250 11:23 12.03.2021
1571 Clouds 11 1012 82 5000 7.2 250 10:54 12.03.2021
1572 Clouds 11 1012 82 5000 7.2 250 10:26 12.03.2021
1573 Clouds 9 1013 87 5000 7.2 250 09:57 12.03.2021
1574 Clouds 9 1013 87 5000 7.2 250 09:26 12.03.2021
1575 Clouds 9 1011 87 8000 6.17 270 08:46 12.03.2021
1576 Clouds 8 1010 93 2500 12.86 270 07:58 12.03.2021
1577 Clouds 8 1010 93 2500 12.86 270 07:34 12.03.2021
1578 Clouds 9 1009 81 5000 10.29 260 06:54 12.03.2021
1579 Clouds 9 1009 81 5000 10.29 260 06:28 12.03.2021
1580 Clouds 9 1009 81 5000 10.29 260 06:28 12.03.2021
1581 Clouds 10 1007 100 1700 11.32 230 02:49 12.03.2021
1582 Clouds 12 1009 82 2500 11.32 250 00:51 12.03.2021
1583 Clouds 12 1009 82 5000 15.43 250 23:31 11.03.2021
1584 Clouds 13 1009 76 5000 12.35 240 22:51 11.03.2021
1585 Clouds 13 1009 76 5000 12.35 240 22:31 11.03.2021
1586 Haze 13 1010 71 5000 10.29 240 21:56 11.03.2021
1587 Haze 13 1010 71 5000 10.29 240 21:37 11.03.2021
1588 Haze 13 1010 71 5000 10.29 240 21:19 11.03.2021
1589 Haze 13 1011 71 5000 9.26 240 20:41 11.03.2021
1590 Haze 13 1011 71 5000 9.26 240 20:19 11.03.2021
1591 Dust 13 1011 71 4000 5.14 240 19:45 11.03.2021
1592 Dust 13 1011 71 4000 5.14 240 19:26 11.03.2021
1593 Dust 14 1011 58 4000 8.23 250 18:48 11.03.2021
1594 Dust 14 1011 58 4000 8.23 250 18:29 11.03.2021
1595 Dust 16 1010 44 3500 8.23 250 17:44 11.03.2021
1596 Dust 16 1010 44 3500 8.23 250 17:24 11.03.2021
1597 Dust 17 1011 34 3500 9.77 260 16:29 11.03.2021
1598 Dust 18 1011 42 4000 8.23 240 15:49 11.03.2021
1599 Dust 18 1011 42 4000 8.23 240 15:26 11.03.2021
1600 Dust 20 1011 42 3000 9.26 250 14:57 11.03.2021
1601 Dust 20 1011 42 3000 9.26 250 14:37 11.03.2021
1602 Dust 20 1011 42 3000 9.26 250 14:18 11.03.2021
1603 Dust 20 1011 34 3000 9.26 240 13:42 11.03.2021
1604 Dust 20 1011 34 3000 9.26 240 13:20 11.03.2021
1605 Dust 21 1011 24 4000 9.26 270 12:44 11.03.2021
1606 Dust 21 1011 24 4000 9.26 270 12:26 11.03.2021
1607 Dust 20 1011 27 4000 8.75 230 11:45 11.03.2021
1608 Dust 20 1011 27 4000 8.75 230 11:27 11.03.2021
1609 Dust 20 1012 26 4000 9.26 240 10:48 11.03.2021
1610 Dust 20 1012 26 4000 9.26 240 10:22 11.03.2021
1611 Dust 20 1012 27 4000 7.72 240 09:45 11.03.2021
1612 Dust 20 1012 27 4000 7.72 240 09:25 11.03.2021
1613 Dust 19 1012 34 4000 7.72 240 08:48 11.03.2021
1614 Dust 19 1012 34 4000 7.72 240 08:23 11.03.2021
1615 Dust 17 1011 36 3000 8.23 230 07:44 11.03.2021
1616 Dust 16 1011 39 4000 8.23 240 06:51 11.03.2021
1617 Dust 16 1011 39 4000 8.23 240 06:31 11.03.2021
1618 Dust 15 1010 23 5000 8.23 240 04:48 11.03.2021
1619 Haze 15 1012 33 5000 4.63 240 01:39 11.03.2021
1620 Haze 17 1012 27 5000 4.12 230 23:53 10.03.2021
1621 Haze 17 1012 27 5000 4.12 230 23:22 10.03.2021
1622 Haze 18 1012 24 5000 1.54 230 22:39 10.03.2021
1623 Haze 18 1013 30 5000 2.06 230 21:57 10.03.2021
1624 Haze 18 1013 30 5000 2.06 230 21:38 10.03.2021
1625 Haze 18 1013 30 5000 2.06 230 21:20 10.03.2021
1626 Haze 18 1013 28 5000 2.57 240 20:42 10.03.2021
1627 Haze 18 1013 28 5000 2.57 240 20:21 10.03.2021
1628 Haze 20 1013 24 5000 2.06 230 19:40 10.03.2021
1629 Haze 20 1013 24 5000 2.06 230 19:40 10.03.2021
1630 Haze 20 1013 24 5000 2.06 230 19:21 10.03.2021
1631 Haze 23 1012 21 5000 2.06 240 18:44 10.03.2021
1632 Haze 23 1012 21 5000 2.06 240 18:23 10.03.2021
1633 Haze 23 1012 22 5000 2.57 210 17:43 10.03.2021
1634 Haze 23 1012 22 5000 2.57 210 17:21 10.03.2021
1635 Haze 26 1013 17 5000 3.6 230 16:57 10.03.2021
1636 Haze 26 1013 17 5000 3.6 230 16:37 10.03.2021
1637 Haze 26 1013 17 5000 3.6 230 16:19 10.03.2021
1638 Haze 22 1013 67 5000 3.6 220 15:41 10.03.2021
1639 Haze 22 1013 67 5000 3.6 220 15:22 10.03.2021
1640 Haze 28 1013 13 5000 4.12 240 14:41 10.03.2021
1641 Haze 28 1013 13 5000 4.12 240 14:41 10.03.2021
1642 Haze 28 1013 13 5000 4.12 240 14:19 10.03.2021
1643 Dust 28 1013 13 5000 4.12 230 13:46 10.03.2021
1644 Dust 28 1013 13 5000 4.12 230 13:25 10.03.2021
1645 Dust 28 1014 17 5000 4.63 230 12:45 10.03.2021
1646 Dust 28 1014 17 5000 4.63 230 12:19 10.03.2021
1647 Dust 27 1015 21 5000 2.06 210 11:32 10.03.2021
1648 Dust 24 1016 31 5000 1.03 240 10:58 10.03.2021
1649 Dust 24 1016 31 5000 1.03 240 10:38 10.03.2021
1650 Dust 24 1016 31 5000 1.03 240 10:20 10.03.2021
1651 Dust 21 1017 37 5000 1.03 0 09:42 10.03.2021
1652 Dust 21 1017 37 5000 1.03 0 09:22 10.03.2021
1653 Dust 18 1018 39 5000 1.03 60 08:57 10.03.2021
1654 Dust 18 1018 39 5000 1.03 60 08:57 10.03.2021
1655 Dust 18 1018 39 5000 1.03 60 08:38 10.03.2021
1656 Dust 18 1018 39 5000 1.03 60 08:20 10.03.2021
1657 Haze 15 1016 51 4000 6.43 121 07:30 10.03.2021
1658 Haze 13 1017 54 4000 4.84 112 06:56 10.03.2021
1659 Haze 13 1017 54 4000 4.41 115 06:25 10.03.2021
1660 Haze 14 1017 58 5000 3.24 132 02:41 10.03.2021
1661 Dust 14 1019 58 5000 2.61 129 23:52 09.03.2021
1662 Dust 14 1019 58 5000 1.51 104 23:20 09.03.2021
1663 Dust 14 1019 54 5000 1.51 104 22:39 09.03.2021
1664 Dust 14 1019 54 5000 1.24 60 22:21 09.03.2021
1665 Dust 13 1018 51 5000 1.24 60 21:46 09.03.2021
1666 Dust 13 1018 51 5000 1.25 78 21:25 09.03.2021
1667 Dust 14 1018 51 5000 1.25 78 20:58 09.03.2021
1668 Dust 14 1018 51 5000 1.25 78 20:40 09.03.2021
1669 Dust 14 1018 51 5000 1.25 78 20:40 09.03.2021
1670 Dust 15 1018 51 5000 1.75 60 20:21 09.03.2021
1671 Dust 15 1017 51 5000 1.75 60 19:51 09.03.2021
1672 Dust 15 1017 51 5000 2.66 11 19:27 09.03.2021
1673 Haze 16 1017 51 5000 1.54 100 18:50 09.03.2021
1674 Haze 16 1017 51 5000 1.54 100 18:27 09.03.2021
1675 Haze 16 1017 51 5000 1.54 100 17:53 09.03.2021
1676 Haze 17 1017 45 4000 1.69 349 17:33 09.03.2021
1677 Haze 19 1017 39 4500 1.47 315 16:55 09.03.2021
1678 Haze 19 1017 39 4500 1.47 315 16:37 09.03.2021
1679 Haze 19 1017 39 4500 1.42 272 16:18 09.03.2021
1680 Haze 21 1017 32 4500 1.03 280 15:44 09.03.2021
1681 Haze 21 1017 32 4500 1.03 280 15:22 09.03.2021
1682 Haze 22 1017 28 5000 1.54 280 14:36 09.03.2021
1683 Haze 22 1017 28 5000 1.54 280 14:18 09.03.2021
1684 Clouds 21 1018 32 7000 2.91 288 13:38 09.03.2021
1685 Clear 21 1018 32 7000 3.07 295 13:20 09.03.2021
1686 Clouds 20 1019 34 8000 2.85 295 12:42 09.03.2021
1687 Clear 20 1019 34 8000 3.9 305 12:22 09.03.2021
1688 Clear 18 1019 24 8000 1.54 30 11:42 09.03.2021
1689 Clear 18 1019 24 8000 1.54 30 11:21 09.03.2021
1690 Clear 18 1019 24 8000 1.54 30 10:56 09.03.2021
1691 Clear 17 1019 34 8000 1.54 260 10:38 09.03.2021
1692 Clear 17 1019 34 8000 1.54 260 10:19 09.03.2021
1693 Clear 15 1019 36 7000 2.06 220 09:44 09.03.2021
1694 Clear 15 1019 36 7000 2.06 220 09:26 09.03.2021
1695 Smoke 12 1020 66 4000 2.63 285 08:48 09.03.2021
1696 Smoke 12 1020 66 4000 2.24 291 08:29 09.03.2021
1697 Smoke 9 1019 81 4000 2.24 291 07:40 09.03.2021
1698 Smoke 9 1019 81 4000 1.81 311 07:21 09.03.2021
1699 Smoke 5 1019 81 4000 1.81 311 06:38 09.03.2021
1700 Clear 5 1018 81 6000 2.02 309 05:48 09.03.2021
1701 Clear 8 1018 87 6000 3.41 335 00:43 09.03.2021
1702 Clear 8 1018 87 6000 3.95 327 23:45 08.03.2021
1703 Clear 8 1018 87 6000 4.12 324 23:27 08.03.2021
1704 Clear 8 1018 87 6000 4.12 324 22:58 08.03.2021
1705 Clear 9 1018 81 6000 4.12 324 22:39 08.03.2021
1706 Clear 9 1018 81 6000 3.78 316 22:20 08.03.2021
1707 Clear 10 1019 81 6000 3.78 316 21:43 08.03.2021
1708 Clear 10 1019 81 6000 3.45 311 21:24 08.03.2021
1709 Clear 10 1019 81 6000 2.06 240 20:39 08.03.2021
1710 Clear 10 1019 81 6000 2.06 240 20:19 08.03.2021
1711 Clear 11 1018 76 6000 4.63 290 19:38 08.03.2021
1712 Clear 11 1018 66 6000 3.09 300 18:57 08.03.2021
1713 Clear 12 1018 66 6000 3.09 300 18:37 08.03.2021
1714 Clear 12 1018 66 6000 3.09 300 18:18 08.03.2021
1715 Haze 14 1017 58 5000 5.74 311 17:43 08.03.2021
1716 Haze 14 1017 58 5000 6.7 298 17:21 08.03.2021
1717 Haze 14 1017 54 5000 5.66 240 16:41 08.03.2021
1718 Haze 14 1017 54 5000 5.66 240 16:21 08.03.2021
1719 Haze 16 1017 48 5000 2.57 240 15:41 08.03.2021
1720 Haze 16 1017 48 5000 2.57 240 15:22 08.03.2021
1721 Haze 16 1017 44 5000 4.12 290 14:21 08.03.2021
1722 Haze 16 1017 44 5000 4.12 290 13:54 08.03.2021
1723 Clouds 15 1017 51 6000 4.12 260 13:23 08.03.2021
1724 Clouds 15 1017 55 6000 4.63 250 12:56 08.03.2021
1725 Clouds 15 1017 55 6000 4.63 250 12:29 08.03.2021
1726 Clouds 15 1018 55 6000 4.12 290 11:50 08.03.2021
1727 Clouds 15 1018 55 6000 4.12 290 11:30 08.03.2021
1728 Clouds 14 1018 47 6000 3.09 300 10:57 08.03.2021
1729 Clouds 14 1018 47 6000 3.09 300 10:39 08.03.2021
1730 Clouds 14 1018 47 6000 3.09 300 10:18 08.03.2021
1731 Clouds 12 1018 66 6000 2.57 310 09:27 08.03.2021
1732 Haze 12 1018 66 5000 4.63 260 08:52 08.03.2021
1733 Haze 12 1018 66 5000 4.63 260 08:25 08.03.2021
1734 Smoke 11 1017 71 5000 2.57 250 07:22 08.03.2021
1735 Clouds 8 1016 81 8000 2.06 280 05:46 08.03.2021
1736 Clouds 7 1016 81 10000 4.7 312 02:43 08.03.2021
1737 Clear 7 1017 81 10000 5.29 325 00:43 08.03.2021
1738 Clear 8 1017 81 10000 5.09 324 23:53 07.03.2021
1739 Clear 8 1017 81 10000 5.23 324 23:22 07.03.2021
1740 Clear 8 1017 76 10000 5.23 324 22:50 07.03.2021
1741 Clear 8 1017 76 10000 4.91 323 22:29 07.03.2021
1742 Clear 9 1017 76 10000 4.91 323 21:58 07.03.2021
1743 Clear 10 1017 81 10000 4.91 323 21:39 07.03.2021
1744 Clear 10 1017 81 10000 4.62 320 21:21 07.03.2021
1745 Clear 11 1017 76 10000 4.62 320 20:41 07.03.2021
1746 Clear 11 1017 76 10000 4.55 315 20:23 07.03.2021
1747 Clear 11 1017 76 10000 4.55 315 19:55 07.03.2021
1748 Clear 11 1017 76 10000 1.54 320 19:37 07.03.2021
1749 Clear 11 1017 76 10000 1.54 320 19:19 07.03.2021
1750 Clear 12 1016 71 10000 4.12 280 18:40 07.03.2021
1751 Clear 12 1016 71 10000 4.12 280 18:19 07.03.2021
1752 Clouds 14 1016 58 10000 4.12 280 17:39 07.03.2021
1753 Clouds 14 1016 58 10000 4.12 280 17:20 07.03.2021
1754 Clouds 15 1016 58 10000 4.12 280 16:54 07.03.2021
1755 Clear 17 1016 36 10000 3.6 250 16:36 07.03.2021
1756 Clear 17 1016 36 10000 3.6 250 16:36 07.03.2021
1757 Clear 17 1016 36 10000 3.6 250 16:18 07.03.2021
1758 Clear 18 1016 24 10000 3.09 260 15:41 07.03.2021
1759 Clear 18 1016 24 10000 3.09 260 15:20 07.03.2021
1760 Clear 19 1017 19 8000 3.6 320 14:30 07.03.2021
1761 Clear 19 1017 19 8000 3.6 320 14:30 07.03.2021
1762 Clear 19 1017 19 8000 3.6 320 14:30 07.03.2021
1763 Clear 19 1017 19 8000 3.6 320 13:59 07.03.2021
1764 Clear 19 1017 19 8000 3.6 320 13:39 07.03.2021
1765 Clear 19 1017 19 8000 3.6 320 13:18 07.03.2021
1766 Clear 20 1018 15 10000 6.41 291 12:43 07.03.2021
1767 Clear 20 1018 15 10000 5.02 300 12:24 07.03.2021
1768 Clear 19 1019 16 10000 4.1 305 11:25 07.03.2021
1769 Clear 18 1019 25 10000 4.1 305 10:59 07.03.2021
1770 Clear 18 1019 25 10000 4.1 305 10:38 07.03.2021
1771 Clear 18 1019 25 10000 2.95 306 10:19 07.03.2021
1772 Clear 16 1020 31 10000 2.95 306 09:40 07.03.2021
1773 Clear 16 1020 31 10000 1.31 298 09:21 07.03.2021
1774 Smoke 15 1020 41 4000 1.31 298 08:45 07.03.2021
1775 Smoke 15 1020 41 4000 0.3 160 08:23 07.03.2021
1776 Haze 12 1019 50 5000 1.18 120 07:25 07.03.2021
1777 Clear 9 1020 66 6000 1.96 129 02:40 07.03.2021
1778 Clear 10 1021 66 6000 2.23 137 00:45 07.03.2021
1779 Clear 11 1022 62 6000 2.19 130 23:41 06.03.2021
1780 Clear 11 1022 62 6000 2.19 128 23:23 06.03.2021
1781 Clear 11 1022 62 6000 2.19 128 22:47 06.03.2021
1782 Clear 11 1022 62 6000 2.16 123 22:27 06.03.2021
1783 Clear 12 1022 76 8000 2.16 123 21:58 06.03.2021
1784 Clear 12 1022 76 8000 2.44 131 21:22 06.03.2021
1785 Clear 12 1022 82 10000 2.44 131 20:52 06.03.2021
1786 Clear 12 1022 82 10000 2.85 118 20:27 06.03.2021
1787 Clear 14 1022 47 10000 2.85 118 19:49 06.03.2021
1788 Clear 14 1022 47 10000 2.97 106 19:22 06.03.2021
1789 Clear 16 1022 29 10000 2.52 103 18:56 06.03.2021
1790 Clear 16 1022 29 10000 2.52 103 18:37 06.03.2021
1791 Clear 16 1022 29 10000 2.52 94 18:18 06.03.2021
1792 Clear 17 1022 27 10000 2.52 94 17:44 06.03.2021
1793 Clear 17 1022 27 10000 2.49 75 17:22 06.03.2021
1794 Clear 19 1022 24 8000 1.54 140 16:43 06.03.2021
1795 Clear 19 1022 24 8000 1.54 140 16:25 06.03.2021
1796 Clear 20 1022 24 10000 1.54 110 15:51 06.03.2021
1797 Clear 20 1022 24 10000 1.54 110 15:31 06.03.2021
1798 Clear 20 1022 28 10000 1.32 117 14:54 06.03.2021
1799 Clear 20 1022 28 10000 1.32 117 14:30 06.03.2021
1800 Clear 19 1023 34 7000 1.03 230 13:42 06.03.2021
1801 Clear 19 1023 34 7000 1.03 230 13:21 06.03.2021
1802 Clear 19 1023 34 7000 0.51 160 12:44 06.03.2021
1803 Clear 19 1023 34 7000 0.51 160 12:20 06.03.2021
1804 Clear 17 1024 42 7000 1.03 160 11:56 06.03.2021
1805 Clear 16 1025 41 7000 1.54 140 11:22 06.03.2021
1806 Clear 15 1025 41 7000 1.54 140 10:49 06.03.2021
1807 Clear 15 1025 41 7000 1.54 140 10:24 06.03.2021
1808 Clear 12 1025 50 7000 0.51 70 09:49 06.03.2021
1809 Clear 12 1025 50 7000 0.51 70 09:20 06.03.2021
1810 Clear 10 1026 62 6000 10.29 60 08:51 06.03.2021
1811 Clear 10 1026 62 6000 10.29 60 08:22 06.03.2021
1812 Clear 7 1026 81 6000 2.35 144 07:41 06.03.2021
1813 Clear 7 1026 81 6000 1.68 130 07:20 06.03.2021
1814 Mist 2 1025 93 5000 0.51 160 05:38 06.03.2021
1815 Clear 5 1025 93 6000 2.22 309 02:51 06.03.2021
1816 Clear 5 1025 93 6000 2.82 308 01:27 06.03.2021
1817 Clear 7 1025 93 8000 3.15 304 00:39 06.03.2021
1818 Clear 7 1026 87 8000 3.38 300 23:34 05.03.2021
1819 Clear 7 1026 87 8000 3.51 308 22:58 05.03.2021
1820 Clear 7 1026 87 8000 3.51 308 22:39 05.03.2021
1821 Clear 7 1026 87 8000 3.62 320 22:20 05.03.2021
1822 Clear 9 1026 81 8000 3.62 320 21:41 05.03.2021
1823 Clear 9 1026 81 8000 3.84 326 21:22 05.03.2021
1824 Clear 9 1026 81 8000 3.84 326 20:42 05.03.2021
1825 Clear 9 1026 81 8000 4.21 329 20:23 05.03.2021
1826 Clear 10 1025 81 7000 1.54 320 19:44 05.03.2021
1827 Clear 10 1025 81 7000 1.54 320 19:22 05.03.2021
1828 Clear 11 1025 76 8000 0.51 0 18:44 05.03.2021
1829 Clear 11 1025 76 8000 0.51 0 18:25 05.03.2021
1830 Clouds 12 1024 58 10000 2.06 270 17:49 05.03.2021
1831 Clouds 12 1024 58 10000 2.06 270 17:31 05.03.2021
1832 Clouds 13 1024 58 10000 1.54 280 16:42 05.03.2021
1833 Clouds 13 1024 58 10000 1.54 280 16:23 05.03.2021
1834 Clouds 14 1024 54 10000 3.09 280 15:54 05.03.2021
1835 Clouds 14 1024 54 10000 3.09 280 15:27 05.03.2021
1836 Clouds 15 1023 51 10000 3.09 250 14:46 05.03.2021
1837 Clouds 15 1023 51 10000 3.09 250 14:27 05.03.2021
1838 Clouds 15 1023 47 10000 3.6 300 13:43 05.03.2021
1839 Clouds 15 1023 47 10000 3.6 300 13:21 05.03.2021
1840 Clouds 15 1024 44 10000 6.69 260 12:45 05.03.2021
1841 Clouds 13 1024 50 10000 5.14 260 11:40 05.03.2021
1842 Clouds 13 1024 50 10000 5.14 260 11:19 05.03.2021
1843 Clouds 13 1024 54 10000 3.6 290 10:57 05.03.2021
1844 Clouds 13 1024 54 10000 3.6 290 10:37 05.03.2021
1845 Clouds 13 1024 54 10000 3.6 290 10:18 05.03.2021
1846 Clouds 12 1023 62 10000 4.12 260 09:39 05.03.2021
1847 Clouds 11 1023 62 10000 4.12 260 09:20 05.03.2021
1848 Clouds 11 1024 71 10000 4.12 260 08:39 05.03.2021
1849 Clouds 11 1024 71 10000 4.12 260 08:20 05.03.2021
1850 Clouds 9 1023 87 8000 3.6 230 07:35 05.03.2021
1851 Mist 8 1022 93 5000 2.06 220 06:43 05.03.2021
1852 Mist 8 1022 93 5000 2.06 220 06:25 05.03.2021
1853 Clouds 8 1021 81 5000 4.63 240 01:35 05.03.2021
1854 Clouds 8 1021 76 6000 4.63 250 23:55 04.03.2021
1855 Clouds 8 1021 76 7000 4.63 240 23:25 04.03.2021
1856 Clouds 8 1020 76 7000 5.14 250 22:31 04.03.2021
1857 Clouds 8 1020 76 7000 5.14 250 21:55 04.03.2021
1858 Drizzle 8 1020 87 5000 5.14 240 21:33 04.03.2021
1859 Drizzle 8 1019 87 6000 4.12 240 20:58 04.03.2021
1860 Drizzle 8 1019 87 6000 4.12 240 20:39 04.03.2021
1861 Drizzle 8 1019 87 6000 4.12 240 20:21 04.03.2021
1862 Clouds 8 1019 87 7000 4.12 230 19:50 04.03.2021
1863 Clouds 8 1019 87 7000 4.12 230 19:23 04.03.2021
1864 Clouds 7 1019 81 7000 5.14 260 18:52 04.03.2021
1865 Clouds 7 1019 81 7000 5.14 260 18:52 04.03.2021
1866 Clouds 7 1019 81 7000 5.14 260 18:30 04.03.2021
1867 Clouds 7 1019 81 7000 5.14 260 18:30 04.03.2021
1868 Clouds 7 1018 81 4000 4.12 260 17:48 04.03.2021
1869 Clouds 7 1018 81 4000 4.12 260 17:30 04.03.2021
1870 Clouds 8 1017 76 4000 4.12 250 16:51 04.03.2021
1871 Clouds 8 1017 76 4000 4.12 250 16:32 04.03.2021
1872 Clouds 9 1017 76 4000 6.17 230 15:57 04.03.2021
1873 Clouds 9 1017 76 4000 6.17 230 15:38 04.03.2021
1874 Clouds 9 1017 76 4000 6.17 230 15:20 04.03.2021
1875 Clouds 8 1017 81 4000 6.17 230 14:39 04.03.2021
1876 Clouds 9 1016 71 5000 6.17 240 13:57 04.03.2021
1877 Clouds 9 1016 71 5000 6.17 240 13:36 04.03.2021
1878 Clouds 9 1016 71 5000 6.17 240 13:18 04.03.2021
1879 Clouds 8 1016 76 5000 7.72 240 12:40 04.03.2021
1880 Mist 8 1017 81 5000 6.17 230 11:49 04.03.2021
1881 Mist 8 1017 81 5000 6.17 230 11:28 04.03.2021
1882 Mist 8 1017 81 5000 6.17 240 10:58 04.03.2021
1883 Mist 8 1017 81 5000 6.17 240 10:36 04.03.2021
1884 Clouds 7 1017 81 6000 4.63 250 09:51 04.03.2021
1885 Clouds 7 1017 81 6000 4.63 250 09:27 04.03.2021
1886 Clouds 7 1017 81 6000 3.09 200 08:49 04.03.2021
1887 Clouds 7 1017 81 6000 3.09 200 08:24 04.03.2021
1888 Clouds 7 1016 76 7000 4.12 230 07:36 04.03.2021
1889 Clouds 6 1016 81 6000 4.81 283 06:31 04.03.2021
1890 Mist 6 1016 87 5000 1.54 230 05:57 04.03.2021
1891 Haze 6 1016 81 5000 2.06 240 02:29 04.03.2021
1892 Clouds 6 1017 81 6000 3.9 315 23:42 03.03.2021
1893 Clear 6 1018 81 6000 5.19 317 22:39 03.03.2021
1894 Clear 6 1018 81 6000 6.04 322 22:20 03.03.2021
1895 Clear 7 1018 81 6000 6.04 322 21:41 03.03.2021
1896 Clear 7 1018 81 6000 6.25 327 21:23 03.03.2021
1897 Clouds 8 1018 87 6000 2.06 310 20:53 03.03.2021
1898 Clouds 8 1018 87 6000 2.06 310 20:35 03.03.2021
1899 Clouds 9 1018 81 6000 2.06 320 19:51 03.03.2021
1900 Clouds 9 1018 81 6000 2.06 320 19:30 03.03.2021
1901 Haze 9 1018 71 5000 2.57 330 18:56 03.03.2021
1902 Haze 10 1018 71 5000 2.57 330 18:38 03.03.2021
1903 Haze 10 1017 71 5000 4.63 320 17:58 03.03.2021
1904 Haze 11 1017 71 5000 4.63 320 17:22 03.03.2021
1905 Clouds 12 1017 62 7000 2.06 240 16:55 03.03.2021
1906 Clouds 12 1017 62 7000 2.06 240 16:27 03.03.2021
1907 Clouds 12 1017 54 7000 3.6 250 15:57 03.03.2021
1908 Clouds 12 1017 54 7000 3.6 250 15:33 03.03.2021
1909 Clouds 14 1017 51 7000 3.09 240 14:50 03.03.2021
1910 Clouds 14 1017 51 7000 3.09 240 14:27 03.03.2021
1911 Clouds 13 1018 58 7000 3.09 250 13:47 03.03.2021
1912 Clouds 13 1018 58 7000 3.09 250 13:28 03.03.2021
1913 Clouds 14 1018 47 7000 2.06 280 12:43 03.03.2021
1914 Clouds 14 1018 47 7000 2.06 280 12:23 03.03.2021
1915 Clouds 13 1018 54 7000 2.57 240 11:46 03.03.2021
1916 Clouds 13 1018 54 7000 2.57 240 11:27 03.03.2021
1917 Clouds 13 1019 58 7000 2.57 230 10:46 03.03.2021
1918 Clouds 13 1019 58 7000 2.57 230 10:23 03.03.2021
1919 Clouds 12 1019 62 7000 1.54 290 09:45 03.03.2021
1920 Clouds 10 1020 71 6000 1.54 240 08:57 03.03.2021
1921 Clouds 10 1020 71 6000 1.54 240 08:39 03.03.2021
1922 Clouds 10 1020 71 6000 1.54 240 08:18 03.03.2021
1923 Clouds 8 1020 76 6000 3.09 230 07:39 03.03.2021
1924 Clouds 6 1020 87 6000 2.06 240 06:47 03.03.2021
1925 Clouds 5 1019 87 6000 2.06 240 05:45 03.03.2021
1926 Clouds 5 1019 87 6000 2.06 240 04:50 03.03.2021
1927 Clouds 5 1019 87 6000 2.06 240 04:25 03.03.2021
1928 Clear 7 1020 81 6000 2.57 270 00:44 03.03.2021
1929 Clear 8 1020 76 6000 2.06 240 23:53 02.03.2021
1930 Clear 8 1020 76 6000 2.06 240 23:21 02.03.2021
1931 Clear 8 1020 76 6000 2.06 230 22:41 02.03.2021
1932 Clear 8 1020 76 6000 2.06 230 22:18 02.03.2021
1933 Clear 8 1020 81 6000 2.57 260 21:39 02.03.2021
1934 Clear 8 1020 81 6000 2.57 260 21:19 02.03.2021
1935 Clear 9 1020 71 6000 3.09 250 20:45 02.03.2021
1936 Clear 9 1020 71 6000 3.09 250 20:22 02.03.2021
1937 Clouds 10 1020 71 6000 4.12 240 19:51 02.03.2021
1938 Clouds 10 1020 71 6000 4.12 240 19:32 02.03.2021
1939 Clear 11 1020 66 6000 2.06 240 18:58 02.03.2021
1940 Clear 11 1020 66 6000 2.06 240 18:39 02.03.2021
1941 Clear 11 1020 66 6000 2.06 240 18:20 02.03.2021
1942 Haze 13 1020 58 5000 2.57 230 17:49 02.03.2021
1943 Haze 13 1020 58 5000 2.57 230 17:29 02.03.2021
1944 Haze 14 1020 51 5000 3.6 240 16:49 02.03.2021
1945 Haze 14 1020 51 5000 3.6 240 16:20 02.03.2021
1946 Haze 14 1020 51 5000 3.6 240 16:20 02.03.2021
1947 Haze 14 1020 44 5000 5.14 240 15:48 02.03.2021
1948 Haze 14 1020 44 5000 5.14 240 15:22 02.03.2021
1949 Haze 15 1020 47 5000 3.6 230 14:22 02.03.2021
1950 Clouds 15 1020 47 6000 3.6 230 13:49 02.03.2021
1951 Clouds 15 1020 47 6000 3.6 230 13:30 02.03.2021
1952 Clouds 14 1020 54 6000 1.54 240 12:51 02.03.2021
1953 Clouds 14 1020 54 6000 1.54 240 12:29 02.03.2021
1954 Clouds 14 1021 58 6000 2.06 220 11:53 02.03.2021
1955 Clouds 14 1021 58 6000 2.06 220 11:32 02.03.2021
1956 Haze 13 1022 66 5000 2.87 248 10:57 02.03.2021
1957 Haze 12 1022 66 5000 2.87 248 10:32 02.03.2021
1958 Haze 11 1021 71 5000 2.06 240 09:57 02.03.2021
1959 Haze 11 1021 71 5000 2.06 240 09:39 02.03.2021
1960 Haze 11 1021 71 5000 2.06 240 09:18 02.03.2021
1961 Haze 10 1022 81 4000 2.06 250 08:36 02.03.2021
1962 Haze 8 1021 81 4000 0.51 130 07:52 02.03.2021
1963 Mist 8 1021 87 4000 1.03 140 06:59 02.03.2021
1964 Mist 6 1021 93 4000 0.51 250 05:54 02.03.2021
1965 Mist 5 1021 93 4000 0.51 250 05:34 02.03.2021
1966 Clear 5 1021 93 6000 0.51 250 04:58 02.03.2021
1967 Haze 7 1021 87 5000 1.46 318 01:44 02.03.2021
1968 Haze 7 1021 87 5000 2.02 330 01:23 02.03.2021
1969 Haze 8 1021 87 5000 2.53 332 23:55 01.03.2021
1970 Clear 9 1021 76 8000 3.45 333 23:22 01.03.2021
1971 Clear 9 1021 76 8000 3.45 333 23:22 01.03.2021
1972 Clear 9 1021 76 8000 3.45 333 22:40 01.03.2021
1973 Clear 9 1021 76 8000 3.67 332 22:21 01.03.2021
1974 Clear 9 1021 81 8000 3.67 332 21:45 01.03.2021
1975 Clear 9 1021 81 8000 3.6 330 21:23 01.03.2021
1976 Haze 9 1021 81 5000 3.6 330 20:46 01.03.2021
1977 Haze 9 1021 81 5000 3.59 317 20:27 01.03.2021
1978 Clear 10 1020 76 6000 1.54 240 19:51 01.03.2021
1979 Clear 10 1020 76 6000 1.54 240 19:32 01.03.2021
1980 Haze 11 1020 76 5000 1.54 240 18:45 01.03.2021
1981 Haze 11 1020 76 5000 1.54 240 18:24 01.03.2021
1982 Haze 12 1020 66 5000 2.57 260 17:49 01.03.2021
1983 Haze 12 1020 66 5000 2.57 260 17:25 01.03.2021
1984 Haze 12 1019 66 5000 2.57 270 16:57 01.03.2021
1985 Haze 12 1019 66 5000 2.57 270 16:38 01.03.2021
1986 Haze 12 1019 66 5000 2.57 270 16:20 01.03.2021
1987 Clouds 13 1019 62 6000 4.12 260 15:38 01.03.2021
1988 Clouds 13 1019 62 6000 4.12 260 15:18 01.03.2021
1989 Clouds 13 1019 62 6000 4.12 260 15:18 01.03.2021
1990 Clouds 13 1019 62 6000 3.09 270 14:43 01.03.2021
1991 Clouds 13 1019 62 6000 3.09 270 14:25 01.03.2021
1992 Haze 13 1018 58 5000 3.09 240 13:39 01.03.2021
1993 Haze 13 1018 58 5000 3.09 240 13:20 01.03.2021
1994 Haze 13 1019 58 5000 5.66 230 12:44 01.03.2021
1995 Haze 13 1019 58 5000 5.66 230 12:25 01.03.2021
1996 Clouds 13 1020 58 7000 4.63 230 11:57 01.03.2021
1997 Clouds 13 1020 58 7000 4.63 230 11:30 01.03.2021
1998 Clouds 13 1020 58 7000 4.12 230 10:44 01.03.2021
1999 Clouds 13 1020 58 7000 4.12 230 10:22 01.03.2021
2000 Clouds 13 1020 58 7000 4.12 230 09:56 01.03.2021
2001 Clouds 12 1019 62 7000 3.09 230 09:37 01.03.2021
2002 Clouds 12 1019 62 7000 3.09 230 09:19 01.03.2021
2003 Haze 10 1019 76 5000 1.54 270 08:41 01.03.2021
2004 Clouds 8 1018 81 6000 3.6 240 07:34 01.03.2021
2005 Mist 6 1018 87 5000 2.06 250 06:51 01.03.2021
2006 Clear 8 1018 81 10000 4.78 321 02:47 01.03.2021
2007 Clear 8 1019 76 10000 5.17 318 23:58 28.02.2021
2008 Clear 8 1019 76 10000 5.7 319 23:26 28.02.2021
2009 Clear 8 1019 76 10000 5.7 319 22:45 28.02.2021
2010 Clear 8 1019 76 10000 6.46 322 22:21 28.02.2021
2011 Clear 8 1019 76 10000 6.46 322 22:21 28.02.2021
2012 Clouds 9 1019 76 6000 6.46 322 21:48 28.02.2021
2013 Clouds 9 1019 76 6000 6.96 323 21:25 28.02.2021
2014 Clouds 9 1019 76 6000 6.96 323 20:52 28.02.2021
2015 Clouds 9 1019 76 6000 6.96 323 20:34 28.02.2021
2016 Clouds 11 1017 71 6000 1.54 290 19:47 28.02.2021
2017 Clouds 11 1017 71 6000 1.54 290 19:28 28.02.2021
2018 Clouds 12 1017 71 6000 4.12 280 18:49 28.02.2021
2019 Clouds 12 1017 71 6000 4.12 280 18:28 28.02.2021
2020 Clouds 13 1017 62 6000 4.12 270 17:59 28.02.2021
2021 Clouds 13 1017 62 6000 4.12 270 17:41 28.02.2021
2022 Clouds 13 1017 62 6000 4.12 270 17:21 28.02.2021
2023 Haze 15 1016 58 5000 2.06 290 16:50 28.02.2021
2024 Haze 15 1016 58 5000 2.06 290 16:30 28.02.2021
2025 Clouds 15 1016 55 6000 6.17 290 15:52 28.02.2021
2026 Clouds 15 1016 55 6000 6.17 290 15:29 28.02.2021
2027 Clouds 15 1016 55 6000 6.17 290 14:58 28.02.2021
2028 Clouds 17 1016 48 8000 4.12 250 14:39 28.02.2021
2029 Clouds 17 1016 48 8000 4.12 250 14:39 28.02.2021
2030 Clouds 16 1016 51 8000 5.14 250 14:20 28.02.2021
2031 Clouds 16 1016 51 8000 5.14 250 13:41 28.02.2021
2032 Clouds 16 1016 51 8000 5.14 250 13:19 28.02.2021
2033 Clouds 16 1016 55 8000 5.66 240 12:54 28.02.2021
2034 Clouds 16 1016 55 8000 5.66 240 12:36 28.02.2021
2035 Clouds 16 1016 55 8000 5.66 240 12:18 28.02.2021
2036 Clear 16 1017 33 10000 4.63 230 11:42 28.02.2021
2037 Clear 16 1017 33 10000 4.63 230 11:22 28.02.2021
2038 Clear 16 1017 39 10000 2.06 240 10:45 28.02.2021
2039 Clear 16 1017 39 10000 2.06 240 10:25 28.02.2021
2040 Clear 15 1017 38 10000 4.12 240 09:42 28.02.2021
2041 Clear 15 1017 38 10000 4.12 240 09:42 28.02.2021
2042 Clear 15 1017 38 10000 4.12 240 09:24 28.02.2021
2043 Smoke 12 1016 50 4000 1.54 230 08:47 28.02.2021
2044 Smoke 12 1016 50 4000 1.54 230 08:29 28.02.2021
2045 Haze 10 1016 54 3000 1.11 100 07:50 28.02.2021
2046 Haze 10 1016 54 3000 1.11 100 07:30 28.02.2021
2047 Clouds 8 1016 61 6000 2.63 97 06:27 28.02.2021
2048 Clouds 7 1015 66 6000 1.31 62 05:24 28.02.2021
2049 Clouds 10 1015 46 6000 1.9 357 03:26 28.02.2021
2050 Clouds 10 1015 46 6000 2.06 220 01:41 28.02.2021
2051 Clouds 10 1015 53 6000 0.98 341 00:49 28.02.2021
2052 Clouds 10 1015 53 6000 0.87 120 00:26 28.02.2021
2053 Clouds 11 1015 46 6000 0.87 120 23:45 27.02.2021
2054 Clouds 11 1015 46 6000 1.47 119 23:19 27.02.2021
2055 Clouds 11 1015 46 6000 1.47 119 22:45 27.02.2021
2056 Clouds 11 1015 46 6000 2.3 82 22:19 27.02.2021
2057 Clouds 12 1016 43 6000 2.3 82 21:42 27.02.2021
2058 Clouds 12 1016 43 6000 2.04 48 21:24 27.02.2021
2059 Clouds 12 1016 43 6000 2.04 48 20:49 27.02.2021
2060 Clouds 12 1016 43 6000 2.33 57 20:28 27.02.2021
2061 Clouds 13 1016 38 6000 2.33 57 19:46 27.02.2021
2062 Clear 13 1016 38 6000 2.46 73 19:27 27.02.2021
2063 Clear 14 1016 30 6000 2.41 71 18:46 27.02.2021
2064 Clear 14 1016 30 6000 3.06 81 18:22 27.02.2021
2065 Haze 15 1015 33 5000 3.06 81 17:58 27.02.2021
2066 Haze 15 1015 33 5000 3.06 81 17:38 27.02.2021
2067 Haze 15 1015 33 5000 3.44 85 17:19 27.02.2021
2068 Haze 18 1015 22 5000 3.44 85 16:49 27.02.2021
2069 Haze 18 1015 22 5000 3.48 100 16:28 27.02.2021
2070 Haze 20 1015 19 5000 3.48 100 15:46 27.02.2021
2071 Haze 20 1015 19 5000 3.96 108 15:19 27.02.2021
2072 Haze 20 1015 21 5000 3.96 108 14:41 27.02.2021
2073 Haze 20 1015 21 5000 4.01 113 14:21 27.02.2021
2074 Clouds 20 1016 24 10000 2.06 90 13:46 27.02.2021
2075 Clouds 20 1016 24 10000 2.06 90 13:21 27.02.2021
2076 Clouds 19 1016 22 10000 2.06 110 12:45 27.02.2021
2077 Clouds 19 1016 22 10000 2.06 110 12:25 27.02.2021
2078 Clear 19 1017 24 8000 3.09 100 11:52 27.02.2021
2079 Clear 19 1017 24 8000 3.09 100 11:31 27.02.2021
2080 Clear 17 1018 29 10000 3.09 140 10:53 27.02.2021
2081 Clear 17 1018 29 10000 3.09 140 10:34 27.02.2021
2082 Clear 17 1019 29 6000 3.6 120 09:54 27.02.2021
2083 Clear 16 1019 29 6000 3.6 120 09:33 27.02.2021
2084 Smoke 12 1019 54 5000 2.06 100 08:44 27.02.2021
2085 Smoke 12 1019 54 5000 2.06 100 08:24 27.02.2021
2086 Haze 9 1019 66 5000 4.42 125 07:59 27.02.2021
2087 Haze 9 1019 66 5000 4.33 124 07:31 27.02.2021
2088 Clear 8 1019 66 10000 2.98 94 02:31 27.02.2021
2089 Clear 9 1019 66 10000 1.46 84 00:33 27.02.2021
2090 Clear 9 1020 61 10000 0.39 123 23:43 26.02.2021
2091 Clear 9 1020 61 10000 0.51 181 23:24 26.02.2021
2092 Clear 9 1020 62 10000 0.51 181 22:40 26.02.2021
2093 Clear 9 1020 62 10000 0.5 145 22:21 26.02.2021
2094 Clear 10 1019 54 10000 0.5 145 21:37 26.02.2021
2095 Clear 11 1020 50 10000 0.51 150 20:59 26.02.2021
2096 Clear 11 1020 50 10000 0.51 150 20:41 26.02.2021
2097 Clear 11 1020 50 10000 0.51 150 20:20 26.02.2021
2098 Clear 11 1020 50 10000 0.51 150 19:27 26.02.2021
2099 Clear 14 1020 44 10000 2.59 6 18:57 26.02.2021
2100 Clear 15 1020 47 10000 1.03 110 18:38 26.02.2021
2101 Clear 15 1020 47 10000 1.03 110 18:19 26.02.2021
2102 Clear 15 1020 47 10000 1.03 110 17:38 26.02.2021
2103 Clear 15 1020 47 10000 1.03 110 17:20 26.02.2021
2104 Clouds 17 1020 31 10000 0.51 0 16:49 26.02.2021
2105 Clouds 17 1020 31 10000 0.51 0 16:30 26.02.2021
2106 Clouds 18 1020 29 10000 1.21 310 15:51 26.02.2021
2107 Clouds 18 1020 29 10000 1.21 310 15:30 26.02.2021
2108 Clouds 19 1020 30 10000 1.13 295 14:59 26.02.2021
2109 Clouds 19 1020 30 10000 1.13 295 14:41 26.02.2021
2110 Clouds 19 1020 30 10000 1.11 280 14:22 26.02.2021
2111 Clouds 18 1020 34 10000 1.39 291 13:39 26.02.2021
2112 Clouds 18 1020 34 10000 1.15 265 13:20 26.02.2021
2113 Clouds 17 1021 34 8000 0.51 130 12:33 26.02.2021
2114 Clear 17 1022 29 8000 0.51 30 11:50 26.02.2021
2115 Clear 17 1022 29 8000 0.51 30 11:32 26.02.2021
2116 Clear 15 1023 30 10000 1.03 110 10:45 26.02.2021
2117 Clear 14 1023 30 10000 0.51 100 09:50 26.02.2021
2118 Clear 14 1023 30 10000 0.51 100 09:30 26.02.2021
2119 Clear 12 1023 35 10000 2.57 90 08:53 26.02.2021
2120 Clear 12 1023 35 10000 2.57 90 08:25 26.02.2021
2121 Clear 9 1023 49 10000 2.93 106 07:48 26.02.2021
2122 Clear 7 1022 87 10000 3.06 101 06:36 26.02.2021
2123 Mist 6 1022 93 3500 1.37 79 05:27 26.02.2021
2124 Mist 9 1022 93 3500 1.64 51 03:46 26.02.2021
2125 Mist 7 1023 87 5000 1.76 17 01:37 26.02.2021
2126 Mist 8 1023 93 5000 2.08 359 23:56 25.02.2021
2127 Haze 9 1023 87 5000 2.49 342 23:28 25.02.2021
2128 Haze 9 1023 81 5000 2.49 342 22:49 25.02.2021
2129 Haze 10 1023 81 5000 3.23 338 22:19 25.02.2021
2130 Clear 10 1023 81 5000 3.23 338 21:38 25.02.2021
2131 Clear 10 1023 81 5000 4.45 337 21:19 25.02.2021
2132 Clear 11 1023 76 10000 4.45 337 20:41 25.02.2021
2133 Clear 11 1023 76 10000 5.42 333 20:22 25.02.2021
2134 Clear 11 1022 76 10000 5.42 333 19:52 25.02.2021
2135 Clear 11 1022 76 10000 5.71 329 19:22 25.02.2021
2136 Clear 11 1022 76 10000 5.05 329 18:57 25.02.2021
2137 Clear 12 1022 50 10000 5.18 329 18:25 25.02.2021
2138 Clear 13 1022 47 7000 5.18 329 17:49 25.02.2021
2139 Clear 13 1022 47 7000 5.33 327 17:26 25.02.2021
2140 Clear 14 1021 47 7000 3.09 300 16:46 25.02.2021
2141 Clear 14 1021 47 7000 3.09 300 16:25 25.02.2021
2142 Clouds 15 1021 55 7000 6.11 316 15:30 25.02.2021
2143 Clouds 15 1021 55 7000 5.9 308 14:58 25.02.2021
2144 Clouds 15 1021 55 7000 5.61 310 14:26 25.02.2021
2145 Clouds 15 1021 55 6000 2.57 320 13:55 25.02.2021
2146 Clouds 15 1021 55 6000 2.57 320 13:27 25.02.2021
2147 Clouds 14 1021 54 6000 2.57 320 12:56 25.02.2021
2148 Clouds 14 1021 54 6000 2.57 320 12:22 25.02.2021
2149 Clouds 14 1022 51 6000 3.09 310 11:47 25.02.2021
2150 Clouds 14 1022 51 6000 3.09 310 11:21 25.02.2021
2151 Clouds 13 1022 54 6000 2.06 270 10:46 25.02.2021
2152 Clouds 13 1022 54 6000 2.06 270 10:26 25.02.2021
2153 Clouds 13 1023 58 6000 3.09 300 09:43 25.02.2021
2154 Clouds 11 1023 71 6000 3.09 260 08:56 25.02.2021
2155 Clouds 11 1023 71 6000 3.09 260 08:25 25.02.2021
2156 Clouds 11 1023 71 6000 3.09 260 07:56 25.02.2021
2157 Clouds 8 1022 81 6000 2.06 230 07:35 25.02.2021
2158 Clouds 6 1021 87 6000 2.06 240 06:55 25.02.2021
2159 Clouds 8 1020 81 10000 2.06 240 02:59 25.02.2021
2160 Clouds 8 1020 81 10000 1.54 240 01:38 25.02.2021
2161 Clouds 8 1020 81 10000 1.54 240 01:38 25.02.2021
2162 Clouds 9 1020 81 10000 1.54 240 00:42 25.02.2021
2163 Clouds 8 1021 81 10000 2.57 250 23:53 24.02.2021
2164 Clouds 8 1021 81 10000 2.57 250 23:32 24.02.2021
2165 Clouds 8 1021 76 10000 2.06 250 22:46 24.02.2021
2166 Clouds 8 1021 76 10000 2.06 250 22:26 24.02.2021
2167 Clouds 8 1021 76 10000 2.06 250 22:26 24.02.2021
2168 Clouds 9 1021 71 10000 3.73 309 21:48 24.02.2021
2169 Clouds 9 1021 71 10000 4.17 310 21:24 24.02.2021
2170 Clouds 10 1020 71 10000 4.17 310 20:45 24.02.2021
2171 Clouds 10 1020 71 10000 4.86 315 20:22 24.02.2021
2172 Clear 10 1020 66 10000 4.44 317 19:38 24.02.2021
2173 Clear 10 1020 66 10000 5.54 315 19:18 24.02.2021
2174 Clouds 12 1020 41 7000 4.12 260 18:48 24.02.2021
2175 Clouds 12 1020 41 7000 4.12 260 18:29 24.02.2021
2176 Clouds 13 1020 41 7000 5.14 250 17:39 24.02.2021
2177 Clouds 13 1020 41 7000 5.14 250 17:20 24.02.2021
2178 Clouds 14 1020 41 7000 6.21 308 16:45 24.02.2021
2179 Clouds 14 1020 41 7000 7.01 307 16:20 24.02.2021
2180 Clouds 15 1019 38 7000 7.01 307 15:49 24.02.2021
2181 Clouds 15 1019 38 7000 4.99 301 15:26 24.02.2021
2182 Clouds 15 1020 38 7000 4.99 301 14:43 24.02.2021
2183 Clouds 15 1020 38 7000 3.93 300 14:25 24.02.2021
2184 Clouds 15 1020 38 7000 2.06 300 13:41 24.02.2021
2185 Clouds 15 1020 38 7000 2.06 300 13:22 24.02.2021
2186 Clouds 15 1020 51 7000 1.03 290 12:53 24.02.2021
2187 Clouds 15 1020 51 7000 1.03 290 12:33 24.02.2021
2188 Clouds 14 1020 44 7000 1.79 296 11:51 24.02.2021
2189 Clouds 14 1020 44 7000 0.25 21 11:29 24.02.2021
2190 Clouds 13 1021 58 7000 0.25 21 10:38 24.02.2021
2191 Clouds 13 1021 58 7000 0.79 87 10:19 24.02.2021
2192 Clear 12 1021 62 7000 1.28 104 09:22 24.02.2021
2193 Haze 10 1021 71 5000 1.28 104 08:45 24.02.2021
2194 Haze 10 1021 71 5000 2.1 90 08:24 24.02.2021
2195 Haze 9 1020 81 4000 3.4 79 07:21 24.02.2021
2196 Haze 9 1020 81 4000 3.4 79 06:56 24.02.2021
2197 Mist 7 1019 87 5000 3.95 71 04:40 24.02.2021
2198 Haze 8 1020 81 5000 4.68 66 00:47 24.02.2021
2199 Haze 9 1020 76 5000 4.46 76 23:38 23.02.2021
2200 Haze 9 1020 66 5000 2.57 160 22:45 23.02.2021
2201 Haze 9 1020 66 5000 2.57 160 22:22 23.02.2021
2202 Clouds 10 1020 58 5000 4.12 120 21:47 23.02.2021
2203 Clouds 10 1020 58 5000 4.12 120 21:24 23.02.2021
2204 Dust 11 1021 58 4000 5.14 160 20:56 23.02.2021
2205 Dust 11 1021 58 4000 5.14 160 20:37 23.02.2021
2206 Dust 11 1021 58 4000 5.14 160 20:18 23.02.2021
2207 Clouds 12 1021 54 3000 3.09 150 19:41 23.02.2021
2208 Clouds 12 1021 54 3000 3.09 150 19:22 23.02.2021
2209 Clouds 13 1019 50 3000 3.6 70 18:44 23.02.2021
2210 Drizzle 13 1019 50 5000 3.6 70 18:24 23.02.2021
2211 Clouds 14 1019 47 4000 5.56 102 17:49 23.02.2021
2212 Clouds 14 1019 47 4000 6.11 100 17:26 23.02.2021
2213 Dust 14 1019 47 3500 6.11 100 16:44 23.02.2021
2214 Dust 14 1019 47 3500 7.06 98 16:21 23.02.2021
2215 Clouds 15 1020 41 5000 1.03 70 15:45 23.02.2021
2216 Clouds 15 1020 41 5000 1.03 70 15:27 23.02.2021
2217 Clouds 15 1020 44 5000 2.57 70 14:46 23.02.2021
2218 Clear 15 1020 38 7000 2.57 90 14:28 23.02.2021
2219 Clear 16 1020 31 7000 6.17 90 13:59 23.02.2021
2220 Clear 16 1020 31 7000 6.17 90 13:35 23.02.2021
2221 Clouds 16 1020 31 7000 6.17 90 12:57 23.02.2021
2222 Clouds 15 1021 33 8000 4.12 100 12:24 23.02.2021
2223 Clouds 14 1021 33 8000 4.12 100 11:58 23.02.2021
2224 Clouds 14 1021 33 8000 4.12 100 11:26 23.02.2021
2225 Clouds 13 1022 37 8000 6.17 80 10:55 23.02.2021
2226 Clouds 13 1022 37 8000 6.17 80 10:37 23.02.2021
2227 Clouds 11 1023 37 8000 3.6 70 09:58 23.02.2021
2228 Clouds 11 1023 37 8000 3.6 70 09:38 23.02.2021
2229 Clouds 11 1023 37 8000 3.6 70 09:20 23.02.2021
2230 Clouds 11 1023 37 8000 3.6 70 09:20 23.02.2021
2231 Clouds 9 1023 40 8000 4.12 70 08:44 23.02.2021
2232 Clouds 9 1023 40 8000 4.12 70 08:20 23.02.2021
2233 Clouds 8 1023 46 8000 7.61 100 06:52 23.02.2021
2234 Clouds 7 1023 53 8000 6.09 90 05:25 23.02.2021
2235 Clouds 7 1023 57 8000 5.95 93 02:37 23.02.2021
2236 Clouds 7 1023 57 8000 6.13 94 02:19 23.02.2021
2237 Haze 9 1023 66 5000 5.91 100 00:19 23.02.2021
2238 Haze 9 1023 66 5000 5.91 100 23:30 22.02.2021
2239 Haze 10 1023 62 5000 1.54 60 22:43 22.02.2021
2240 Haze 10 1023 62 5000 1.54 60 22:23 22.02.2021
2241 Haze 10 1023 62 5000 1.54 60 21:58 22.02.2021
2242 Haze 10 1022 53 4000 1.03 70 21:38 22.02.2021
2243 Haze 10 1022 53 4000 1.03 70 21:20 22.02.2021
2244 Haze 10 1022 57 4000 1.03 70 20:44 22.02.2021
2245 Haze 10 1022 57 4000 1.03 70 20:25 22.02.2021
2246 Haze 10 1022 66 4000 1.54 70 19:46 22.02.2021
2247 Haze 10 1022 66 4000 1.54 70 19:28 22.02.2021
2248 Haze 11 1021 62 4000 0.51 70 18:48 22.02.2021
2249 Haze 11 1021 62 4000 0.51 70 18:29 22.02.2021
2250 Haze 12 1021 54 4000 0.51 60 17:49 22.02.2021
2251 Haze 12 1021 54 4000 0.51 60 17:20 22.02.2021
2252 Haze 13 1021 50 4000 1.03 50 16:48 22.02.2021
2253 Haze 13 1021 50 4000 1.03 50 16:29 22.02.2021
2254 Haze 14 1021 44 5000 1.54 60 15:32 22.02.2021
2255 Haze 16 1021 41 5000 2.06 100 14:54 22.02.2021
2256 Haze 16 1021 41 5000 2.06 100 14:35 22.02.2021
2257 Haze 16 1022 36 5000 3.09 80 13:54 22.02.2021
2258 Haze 16 1022 36 5000 3.09 80 13:33 22.02.2021
2259 Clouds 15 1022 41 6000 2.06 90 12:48 22.02.2021
2260 Clouds 15 1022 41 6000 2.06 90 12:23 22.02.2021
2261 Clouds 14 1022 44 6000 3.09 100 11:56 22.02.2021
2262 Clouds 14 1022 44 6000 3.09 100 11:32 22.02.2021
2263 Clouds 12 1023 47 6000 2.06 110 10:59 22.02.2021
2264 Clouds 12 1023 47 6000 2.06 110 10:40 22.02.2021
2265 Clouds 12 1023 47 6000 2.06 110 10:20 22.02.2021
2266 Clouds 10 1024 53 6000 2.57 110 09:38 22.02.2021
2267 Clouds 10 1024 53 6000 2.57 110 09:19 22.02.2021
2268 Smoke 7 1023 65 5000 1.54 70 08:49 22.02.2021
2269 Smoke 7 1023 65 5000 1.54 70 08:21 22.02.2021
2270 Haze 5 1023 75 5000 1.54 30 07:46 22.02.2021
2271 Haze 5 1023 75 5000 1.54 30 07:22 22.02.2021
2272 Smoke 4 1023 81 3500 1.54 60 06:27 22.02.2021
2273 Clear 4 1022 93 6000 5.79 80 04:27 22.02.2021
2274 Clear 4 1022 70 6000 5.27 71 03:23 22.02.2021
2275 Clear 6 1023 87 5000 4.9 56 00:56 22.02.2021
2276 Clear 6 1023 87 5000 4.9 56 00:30 22.02.2021
2277 Mist 6 1023 87 5000 4.92 54 23:57 21.02.2021
2278 Mist 6 1023 87 5000 3.68 66 23:26 21.02.2021
2279 Haze 6 1023 87 5000 3.68 66 22:36 21.02.2021
2280 Clouds 7 1023 65 7000 2.83 56 21:53 21.02.2021
2281 Clouds 7 1023 65 7000 2.83 56 21:35 21.02.2021
2282 Clouds 7 1023 65 7000 2.83 56 21:35 21.02.2021
2283 Clouds 7 1023 76 8000 1.54 80 20:58 21.02.2021
2284 Clouds 7 1023 76 8000 1.54 80 20:39 21.02.2021
2285 Clouds 7 1023 76 8000 1.54 80 20:18 21.02.2021
2286 Clouds 7 1023 70 8000 1.54 30 19:46 21.02.2021
2287 Clouds 7 1023 70 8000 1.54 30 19:26 21.02.2021
2288 Clouds 9 1022 71 8000 2.57 290 18:40 21.02.2021
2289 Clouds 9 1022 71 8000 2.57 290 18:22 21.02.2021
2290 Clouds 10 1022 66 8000 2.57 290 17:29 21.02.2021
2291 Haze 12 1022 47 5000 2.1 78 16:55 21.02.2021
2292 Haze 12 1022 47 5000 2.1 78 16:34 21.02.2021
2293 Clouds 11 1022 50 7000 1.68 85 15:54 21.02.2021
2294 Clouds 11 1022 50 7000 1.2 122 15:22 21.02.2021
2295 Clouds 12 1022 50 10000 2.57 140 14:49 21.02.2021
2296 Clouds 12 1022 50 10000 2.57 140 14:28 21.02.2021
2297 Clouds 12 1022 50 10000 2.06 200 13:46 21.02.2021
2298 Clouds 12 1022 50 10000 2.06 200 13:23 21.02.2021
2299 Clouds 12 1022 50 6000 2.06 130 12:32 21.02.2021
2300 Clouds 12 1023 40 7000 3.09 260 11:55 21.02.2021
2301 Clouds 12 1023 40 7000 3.09 260 11:36 21.02.2021
2302 Clouds 11 1023 46 7000 1.03 120 10:36 21.02.2021
2303 Clouds 11 1023 46 7000 1.03 120 10:18 21.02.2021
2304 Clouds 9 1023 49 7000 1.54 130 09:41 21.02.2021
2305 Clouds 9 1023 49 7000 1.54 130 09:23 21.02.2021
2306 Clouds 7 1024 57 6000 1.03 100 08:32 21.02.2021
2307 Mist 4 1023 93 4000 4.52 109 07:43 21.02.2021
2308 Mist 4 1023 93 4000 5.17 96 07:21 21.02.2021
2309 Mist 2 1023 93 5000 2.84 85 04:58 21.02.2021
2310 Clear 4 1023 87 8000 1.81 35 02:32 21.02.2021
2311 Clouds 4 1024 93 8000 1.84 17 00:55 21.02.2021
2312 Clouds 4 1024 93 8000 2.66 327 00:20 21.02.2021
2313 Clouds 5 1024 87 8000 2.66 327 23:31 20.02.2021
2314 Clouds 5 1024 87 8000 2.95 323 22:55 20.02.2021
2315 Clouds 5 1024 87 8000 2.95 323 22:31 20.02.2021
2316 Clouds 6 1025 87 8000 3.11 328 21:47 20.02.2021
2317 Clouds 6 1025 87 8000 3.35 320 21:29 20.02.2021
2318 Clouds 6 1024 87 8000 1.54 330 20:56 20.02.2021
2319 Clouds 6 1024 87 8000 1.54 330 20:36 20.02.2021
2320 Clouds 6 1024 87 8000 1.54 330 20:18 20.02.2021
2321 Clouds 7 1024 76 10000 2.06 310 19:40 20.02.2021
2322 Clouds 8 1024 71 10000 2.06 340 18:54 20.02.2021
2323 Clouds 8 1024 71 10000 2.06 340 18:31 20.02.2021
2324 Clouds 8 1023 66 10000 2.06 320 17:47 20.02.2021
2325 Clouds 8 1023 66 10000 2.06 320 17:28 20.02.2021
2326 Clouds 9 1023 57 10000 2.57 350 16:49 20.02.2021
2327 Clouds 9 1023 57 10000 2.57 350 16:23 20.02.2021
2328 Clouds 10 1023 53 10000 2.57 320 15:42 20.02.2021
2329 Clouds 12 1023 47 10000 2.57 290 14:52 20.02.2021
2330 Clouds 12 1023 47 10000 2.57 290 14:25 20.02.2021
2331 Clouds 11 1023 50 10000 2.57 260 13:58 20.02.2021
2332 Clouds 11 1023 50 10000 2.57 260 13:39 20.02.2021
2333 Clouds 11 1023 50 10000 2.57 260 13:20 20.02.2021
2334 Clouds 11 1023 50 10000 1.54 290 12:44 20.02.2021
2335 Clouds 10 1023 53 10000 2.57 240 11:54 20.02.2021
2336 Clouds 10 1023 53 10000 2.57 240 11:35 20.02.2021
2337 Clouds 10 1024 57 10000 1.54 0 10:53 20.02.2021
2338 Clouds 10 1024 57 10000 1.54 0 10:29 20.02.2021
2339 Clouds 9 1024 57 10000 1.54 280 09:48 20.02.2021
2340 Smoke 7 1024 76 5000 0.51 0 08:56 20.02.2021
2341 Smoke 7 1024 76 5000 0.51 0 08:27 20.02.2021
2342 Clear 5 1023 87 7000 4.21 309 07:50 20.02.2021
2343 Mist 5 1022 87 5000 1.54 170 02:37 20.02.2021
2344 Mist 5 1022 87 5000 1.54 170 02:19 20.02.2021
2345 Mist 5 1022 93 5000 1.03 230 01:20 20.02.2021
2346 Mist 5 1022 93 5000 2.06 230 00:42 20.02.2021
2347 Drizzle 6 1022 87 5000 2.06 230 23:42 19.02.2021
2348 Mist 6 1021 87 5000 2.57 240 22:51 19.02.2021
2349 Mist 6 1021 87 5000 2.57 240 22:26 19.02.2021
2350 Mist 6 1022 87 5000 2.57 230 21:47 19.02.2021
2351 Mist 6 1022 87 5000 2.57 230 21:28 19.02.2021
2352 Clouds 6 1022 87 7000 3.09 230 20:47 19.02.2021
2353 Clouds 6 1022 87 7000 3.09 230 20:27 19.02.2021
2354 Clouds 6 1022 93 7000 3.09 230 19:51 19.02.2021
2355 Clouds 6 1022 93 7000 3.09 230 19:23 19.02.2021
2356 Drizzle 6 1022 87 7000 4.12 240 18:56 19.02.2021
2357 Drizzle 6 1022 87 7000 4.12 240 18:33 19.02.2021
2358 Clouds 6 1021 93 7000 4.12 240 17:49 19.02.2021
2359 Clouds 7 1021 87 7000 3.6 230 16:52 19.02.2021
2360 Clouds 7 1021 87 7000 3.6 230 16:27 19.02.2021
2361 Clouds 7 1021 87 6000 4.12 230 15:57 19.02.2021
2362 Clouds 7 1021 87 6000 4.12 230 15:31 19.02.2021
2363 Clouds 7 1021 87 4000 3.09 240 14:59 19.02.2021
2364 Clouds 7 1021 87 4000 3.09 240 14:38 19.02.2021
2365 Clouds 7 1021 87 4000 3.09 240 14:18 19.02.2021
2366 Clouds 9 1021 87 2000 4.63 240 13:42 19.02.2021
2367 Clouds 9 1021 87 2000 4.63 240 13:24 19.02.2021
2368 Drizzle 9 1021 81 3500 5.66 240 12:41 19.02.2021
2369 Drizzle 9 1021 81 3500 5.66 240 12:22 19.02.2021
2370 Haze 8 1021 76 5000 7.72 230 11:50 19.02.2021
2371 Haze 8 1021 76 5000 7.72 230 11:22 19.02.2021
2372 Mist 7 1022 87 5000 5.14 230 10:50 19.02.2021
2373 Mist 7 1022 87 5000 5.14 230 10:22 19.02.2021
2374 Clouds 7 1022 87 5000 5.14 220 09:47 19.02.2021
2375 Clouds 7 1022 87 5000 5.14 220 09:25 19.02.2021
2376 Clouds 7 1022 81 4000 4.12 220 08:50 19.02.2021
2377 Clouds 7 1022 81 4000 4.12 220 08:23 19.02.2021
2378 Drizzle 6 1021 87 7000 3.6 250 07:48 19.02.2021
2379 Drizzle 6 1021 87 7000 3.6 250 07:29 19.02.2021
2380 Drizzle 5 1021 87 5000 3.09 230 06:53 19.02.2021
2381 Clouds 5 1021 93 5000 2.06 230 05:28 19.02.2021
2382 Clouds 5 1021 93 5000 2.06 230 04:41 19.02.2021
2383 Clouds 5 1021 93 5000 2.06 230 04:41 19.02.2021
2384 Clouds 5 1021 100 4000 2.57 220 01:47 19.02.2021
2385 Mist 5 1021 93 5000 2.57 240 00:37 19.02.2021
2386 Haze 5 1021 87 5000 2.57 240 23:56 18.02.2021
2387 Haze 5 1021 87 5000 2.57 240 23:35 18.02.2021
2388 Clouds 5 1021 81 5000 4.63 240 22:50 18.02.2021
2389 Clouds 5 1021 81 5000 4.63 240 22:30 18.02.2021
2390 Clouds 5 1021 81 7000 3.6 230 21:51 18.02.2021
2391 Clouds 5 1021 81 7000 3.6 230 21:25 18.02.2021
2392 Clouds 5 1020 87 10000 4.12 250 20:44 18.02.2021
2393 Clouds 5 1020 87 10000 4.12 250 20:24 18.02.2021
2394 Clouds 5 1020 87 10000 4.12 250 19:47 18.02.2021
2395 Clouds 5 1020 87 10000 4.12 250 19:28 18.02.2021
2396 Clouds 5 1020 93 10000 2.57 250 18:54 18.02.2021
2397 Clouds 5 1020 93 10000 2.57 250 18:31 18.02.2021
2398 Clouds 5 1018 93 10000 3.09 270 17:59 18.02.2021
2399 Clouds 5 1018 93 10000 3.09 270 17:41 18.02.2021
2400 Clouds 5 1018 93 10000 3.09 270 17:19 18.02.2021
2401 Drizzle 5 1018 93 8000 3.09 260 16:41 18.02.2021
2402 Drizzle 5 1018 93 8000 3.09 260 16:22 18.02.2021
2403 Clouds 5 1018 100 2500 3.09 280 15:39 18.02.2021
2404 Clouds 5 1018 100 2500 3.09 280 15:21 18.02.2021
2405 Drizzle 5 1017 100 4000 3.09 230 14:49 18.02.2021
2406 Drizzle 5 1017 100 4000 3.09 230 14:29 18.02.2021
2407 Clouds 5 1017 93 1000 3.09 230 13:46 18.02.2021
2408 Clouds 5 1017 93 1000 3.09 230 13:20 18.02.2021
2409 Clouds 5 1017 100 3000 3.09 240 12:53 18.02.2021
2410 Clouds 4 1017 100 3000 3.09 240 12:25 18.02.2021
2411 Clouds 3 1017 100 1000 4.12 240 11:47 18.02.2021
2412 Clouds 3 1017 100 1000 4.12 240 11:47 18.02.2021
2413 Clouds 3 1017 100 1000 4.12 240 11:27 18.02.2021
2414 Clouds 3 1017 93 2000 2.06 220 10:52 18.02.2021
2415 Clouds 3 1017 93 2000 2.06 220 10:34 18.02.2021
2416 Clouds 2 1017 93 2000 4.12 230 09:51 18.02.2021
2417 Clouds 2 1017 93 2000 4.12 230 09:27 18.02.2021
2418 Clouds 2 1017 100 1500 5.14 230 08:48 18.02.2021
2419 Clouds 2 1017 100 1500 5.14 230 08:29 18.02.2021
2420 Clouds 2 1016 100 2000 4.12 230 07:42 18.02.2021
2421 Clouds 2 1016 100 2000 4.12 230 07:18 18.02.2021
2422 Rain 1 1013 93 5000 4.12 230 05:29 18.02.2021
2423 Snow 1 1012 100 1500 5.14 220 00:26 18.02.2021
2424 Snow 1 1012 93 700 6.69 230 23:38 17.02.2021
2425 Snow 1 1012 93 500 7.72 240 22:57 17.02.2021
2426 Snow 1 1012 93 500 7.72 240 22:39 17.02.2021
2427 Rain 1 1012 93 500 7.72 240 22:19 17.02.2021
2428 Clouds 2 1011 93 1000 7.72 240 21:42 17.02.2021
2429 Rain 2 1011 93 1000 7.72 240 21:19 17.02.2021
2430 Snow 2 1011 100 2000 10.29 230 20:40 17.02.2021
2431 Clouds 2 1011 100 2000 10.29 230 19:59 17.02.2021
2432 Clouds 2 1011 100 2000 10.29 230 19:37 17.02.2021
2433 Clouds 3 1011 87 2000 8.23 230 18:58 17.02.2021
2434 Clouds 3 1011 87 2000 8.23 230 18:37 17.02.2021
2435 Clouds 4 1010 93 2000 10.29 220 17:47 17.02.2021
2436 Clouds 4 1010 93 2000 10.29 220 17:23 17.02.2021
2437 Clouds 4 1010 93 2000 10.29 220 16:54 17.02.2021
2438 Clouds 4 1009 93 2000 10.29 220 16:36 17.02.2021
2439 Clouds 4 1009 93 2000 10.29 220 16:18 17.02.2021
2440 Clouds 6 1010 65 3000 11.32 240 15:42 17.02.2021
2441 Drizzle 6 1009 61 6000 10.29 280 15:22 17.02.2021
2442 Clouds 6 1008 61 6000 12.35 230 14:44 17.02.2021
2443 Clouds 6 1008 61 6000 12.35 230 14:26 17.02.2021
2444 Clouds 6 1008 61 2000 8.75 230 13:45 17.02.2021
2445 Clouds 6 1008 61 2000 7.2 230 12:59 17.02.2021
2446 Clouds 6 1008 61 2000 7.2 230 12:39 17.02.2021
2447 Clouds 6 1008 61 2000 7.2 230 12:20 17.02.2021
2448 Clouds 6 1008 56 3000 6.69 230 11:36 17.02.2021
2449 Clouds 6 1008 56 3000 6.69 230 11:18 17.02.2021
2450 Clouds 5 1009 70 10000 5.66 220 10:44 17.02.2021
2451 Clouds 5 1009 70 10000 5.66 220 10:23 17.02.2021
2452 Clouds 4 1009 75 4000 7.72 220 09:44 17.02.2021
2453 Clouds 4 1009 75 4000 7.72 220 09:25 17.02.2021
2454 Clouds 4 1008 75 10000 6.69 220 08:43 17.02.2021
2455 Clouds 4 1009 75 6000 6.69 210 08:21 17.02.2021
2456 Clouds 3 1008 87 7000 5.14 240 07:33 17.02.2021
2457 Mist 3 1008 87 4000 6.17 240 06:19 17.02.2021
2458 Clouds 4 1006 87 5000 7.2 230 02:34 17.02.2021
2459 Mist 4 1006 87 5000 7.72 230 01:55 17.02.2021
2460 Mist 5 1006 87 5000 8.23 220 00:33 17.02.2021
2461 Clouds 6 1006 93 5000 5.14 240 23:57 16.02.2021
2462 Clouds 6 1006 93 5000 5.14 240 23:38 16.02.2021
2463 Clouds 7 1006 87 5000 3.6 250 22:44 16.02.2021
2464 Clouds 7 1006 87 5000 3.6 250 22:25 16.02.2021
2465 Clouds 7 1005 100 5000 6.69 230 21:57 16.02.2021
2466 Clouds 7 1005 100 5000 6.69 230 21:39 16.02.2021
2467 Clouds 7 1005 100 5000 6.69 230 21:20 16.02.2021
2468 Clouds 8 1005 93 5000 6.69 230 20:42 16.02.2021
2469 Clouds 8 1005 93 5000 6.69 230 20:20 16.02.2021
2470 Clouds 9 1005 87 5000 8.75 240 19:44 16.02.2021
2471 Clouds 9 1005 87 5000 8.75 240 19:25 16.02.2021
2472 Clouds 10 1005 87 4000 6.17 230 18:41 16.02.2021
2473 Clouds 10 1005 81 6000 4.63 230 18:23 16.02.2021
2474 Clouds 12 1005 71 6000 6.17 250 17:53 16.02.2021
2475 Clouds 12 1005 71 4000 8.75 260 17:27 16.02.2021
2476 Haze 13 1005 54 5000 3.09 260 16:52 16.02.2021
2477 Haze 13 1005 54 5000 3.09 260 16:52 16.02.2021
2478 Haze 13 1005 54 5000 3.09 260 16:30 16.02.2021
2479 Haze 13 1005 54 5000 3.09 260 16:30 16.02.2021
2480 Clouds 14 1006 51 6000 4.12 240 15:56 16.02.2021
2481 Clouds 14 1006 51 6000 4.12 240 15:33 16.02.2021
2482 Clouds 15 1006 51 6000 6.17 230 14:58 16.02.2021
2483 Clouds 15 1006 51 6000 6.17 230 14:38 16.02.2021
2484 Clouds 15 1006 51 6000 6.17 230 14:19 16.02.2021
2485 Clouds 15 1006 47 7000 5.14 230 13:40 16.02.2021
2486 Clouds 15 1006 31 7000 3.6 250 12:59 16.02.2021
2487 Clouds 15 1006 31 7000 3.6 250 12:40 16.02.2021
2488 Clouds 15 1006 31 7000 3.6 250 12:19 16.02.2021
2489 Clouds 15 1006 47 7000 3.6 240 11:39 16.02.2021
2490 Clouds 15 1006 47 7000 3.6 240 11:20 16.02.2021
2491 Clouds 14 1008 62 7000 3.09 260 10:46 16.02.2021
2492 Clouds 14 1008 62 7000 3.09 260 10:27 16.02.2021
2493 Clouds 13 1008 71 8000 4.12 240 09:53 16.02.2021
2494 Clouds 13 1008 71 8000 4.12 240 09:26 16.02.2021
2495 Clouds 11 1008 76 7000 3.6 250 08:51 16.02.2021
2496 Clouds 11 1008 76 7000 3.6 250 08:28 16.02.2021
2497 Mist 7 1009 93 2500 0.51 340 07:54 16.02.2021
2498 Mist 6 1009 93 2500 0.51 340 06:55 16.02.2021
2499 Clouds 8 1011 76 8000 3.02 304 02:42 16.02.2021
2500 Clouds 8 1011 76 8000 2.96 313 00:23 16.02.2021
2501 Clouds 9 1011 71 8000 2.96 313 23:30 15.02.2021
2502 Clouds 9 1013 71 8000 3.34 315 22:51 15.02.2021
2503 Clear 9 1013 71 8000 3.64 306 22:29 15.02.2021
2504 Clear 10 1013 66 8000 3.64 306 21:49 15.02.2021
2505 Clear 10 1013 66 8000 3.47 315 21:26 15.02.2021
2506 Clear 10 1013 66 8000 3.47 315 20:57 15.02.2021
2507 Clear 10 1013 66 8000 3.47 315 20:39 15.02.2021
2508 Clear 10 1013 66 8000 4.01 317 20:19 15.02.2021
2509 Clear 11 1013 66 8000 4.01 317 19:42 15.02.2021
2510 Clear 11 1013 66 8000 4.05 306 19:18 15.02.2021
2511 Clear 12 1013 62 8000 4.17 311 18:42 15.02.2021
2512 Clear 12 1013 62 8000 4.19 304 18:18 15.02.2021
2513 Clear 13 1013 62 8000 1.03 300 17:41 15.02.2021
2514 Clear 13 1013 62 8000 1.03 300 17:21 15.02.2021
2515 Clear 15 1013 51 8000 4.12 260 16:48 15.02.2021
2516 Clear 15 1013 51 8000 4.12 260 16:26 15.02.2021
2517 Clear 17 1013 45 8000 2.06 240 15:49 15.02.2021
2518 Clear 17 1013 45 8000 2.06 240 15:22 15.02.2021
2519 Clear 17 1013 48 8000 3.6 240 14:49 15.02.2021
2520 Clear 17 1013 48 8000 3.6 240 14:21 15.02.2021
2521 Haze 17 1013 45 5000 3.09 250 13:58 15.02.2021
2522 Haze 17 1013 45 5000 3.09 250 13:37 15.02.2021
2523 Haze 17 1013 45 5000 3.09 250 13:18 15.02.2021
2524 Haze 17 1014 48 5000 2.06 190 12:38 15.02.2021
2525 Haze 17 1014 48 5000 2.06 190 12:18 15.02.2021
2526 Haze 16 1015 55 5000 2.06 220 11:40 15.02.2021
2527 Haze 16 1015 55 5000 2.06 220 11:18 15.02.2021
2528 Haze 15 1015 58 5000 1.54 230 10:45 15.02.2021
2529 Haze 15 1015 58 5000 1.54 230 10:21 15.02.2021
2530 Dust 13 1016 71 4000 1.03 30 09:52 15.02.2021
2531 Dust 13 1016 71 4000 1.03 30 09:32 15.02.2021
2532 Smoke 11 1016 82 4000 0.51 80 08:37 15.02.2021
2533 Mist 7 1015 87 4000 4.97 316 07:38 15.02.2021
2534 Mist 6 1015 93 3500 5.03 320 06:45 15.02.2021
2535 Mist 6 1015 93 3500 4.37 319 06:27 15.02.2021
2536 Haze 10 1016 62 5000 1.54 190 02:22 15.02.2021
2537 Haze 11 1016 58 5000 1.54 230 00:35 15.02.2021
2538 Haze 12 1016 47 5000 1.54 180 23:33 14.02.2021
2539 Haze 12 1016 47 5000 1.54 180 22:54 14.02.2021
2540 Haze 12 1016 44 5000 2.57 230 22:36 14.02.2021
2541 Haze 12 1016 44 5000 2.57 230 22:18 14.02.2021
2542 Haze 12 1016 44 5000 2.57 230 22:18 14.02.2021
2543 Clear 13 1016 41 6000 2.57 250 21:42 14.02.2021
2544 Clear 13 1016 41 6000 2.57 250 21:21 14.02.2021
2545 Clear 13 1016 41 6000 2.34 304 20:39 14.02.2021
2546 Clear 13 1016 41 6000 2.4 311 20:20 14.02.2021
2547 Clear 14 1016 38 6000 2.4 311 19:40 14.02.2021
2548 Clear 15 1016 31 6000 2.06 240 18:51 14.02.2021
2549 Clear 15 1016 31 6000 2.06 240 18:51 14.02.2021
2550 Clear 15 1016 31 6000 2.06 240 18:29 14.02.2021
2551 Clear 17 1015 27 7000 3.6 240 17:51 14.02.2021
2552 Clear 17 1015 27 7000 3.6 240 17:33 14.02.2021
2553 Haze 18 1015 22 5000 3.09 230 16:51 14.02.2021
2554 Haze 20 1015 22 5000 3.09 230 16:26 14.02.2021
2555 Clear 22 1015 23 6000 3.09 230 15:49 14.02.2021
2556 Clear 22 1015 23 6000 3.09 230 15:30 14.02.2021
2557 Clear 24 1015 20 6000 3.09 230 14:47 14.02.2021
2558 Clear 24 1015 20 6000 3.09 230 14:26 14.02.2021
2559 Clear 24 1016 20 6000 1.54 220 13:44 14.02.2021
2560 Clear 24 1016 20 6000 1.54 220 13:26 14.02.2021
2561 Clear 23 1017 21 6000 1.54 190 12:38 14.02.2021
2562 Clear 23 1017 21 6000 1.54 190 12:18 14.02.2021
2563 Clear 21 1018 26 6000 3.09 160 11:47 14.02.2021
2564 Clear 21 1018 26 6000 3.09 160 11:20 14.02.2021
2565 Clear 19 1019 30 6000 1.54 90 10:34 14.02.2021
2566 Clear 19 1019 30 6000 1.54 90 09:55 14.02.2021
2567 Haze 16 1019 36 5000 1.54 90 09:37 14.02.2021
2568 Haze 16 1019 36 5000 1.54 90 09:19 14.02.2021
2569 Clear 12 1019 58 6000 1.03 40 08:25 14.02.2021
2570 Haze 10 1019 71 5000 4.06 123 07:48 14.02.2021
2571 Clear 8 1019 81 6000 3.22 117 06:37 14.02.2021
2572 Clear 6 1019 87 8000 2.94 115 04:35 14.02.2021
2573 Clear 7 1019 87 8000 2.59 107 03:23 14.02.2021
2574 Clear 8 1020 87 8000 3.23 102 01:33 14.02.2021
2575 Clear 8 1020 81 6000 3.12 99 00:45 14.02.2021
2576 Clear 9 1020 81 6000 2.19 94 23:58 13.02.2021
2577 Clear 9 1020 87 6000 2.19 94 23:37 13.02.2021
2578 Clear 9 1020 87 6000 1.57 86 23:19 13.02.2021
2579 Clear 9 1020 87 6000 1.57 86 22:32 13.02.2021
2580 Clear 9 1020 87 6000 0.88 52 21:53 13.02.2021
2581 Clear 10 1020 76 8000 0.88 52 21:35 13.02.2021
2582 Clear 11 1020 76 8000 1.03 10 20:49 13.02.2021
2583 Clear 11 1020 76 8000 1.45 342 20:28 13.02.2021
2584 Clear 11 1020 76 7000 1.54 120 19:49 13.02.2021
2585 Clear 11 1020 76 7000 1.54 120 19:49 13.02.2021
2586 Clear 11 1020 76 7000 1.54 120 19:24 13.02.2021
2587 Clear 12 1019 71 10000 1.95 335 18:52 13.02.2021
2588 Clear 12 1019 71 10000 1.95 335 18:33 13.02.2021
2589 Clear 14 1019 62 7000 1.54 10 17:45 13.02.2021
2590 Clear 14 1019 62 7000 1.54 10 17:26 13.02.2021
2591 Haze 16 1019 48 7000 2.06 90 16:59 13.02.2021
2592 Haze 16 1019 48 7000 2.06 90 16:41 13.02.2021
2593 Haze 16 1019 48 7000 2.06 90 15:57 13.02.2021
2594 Clear 18 1019 36 6000 3.09 319 15:27 13.02.2021
2595 Clear 18 1019 34 6000 3.09 319 14:41 13.02.2021
2596 Clear 18 1019 34 6000 3.19 318 14:19 13.02.2021
2597 Clear 18 1019 39 7000 1.54 260 13:40 13.02.2021
2598 Clear 18 1019 39 7000 1.54 260 13:22 13.02.2021
2599 Clear 16 1019 36 10000 1.54 280 12:38 13.02.2021
2600 Clear 16 1019 36 10000 1.54 280 12:18 13.02.2021
2601 Clear 16 1020 36 10000 2.06 300 11:40 13.02.2021
2602 Clear 16 1020 36 10000 2.06 300 11:18 13.02.2021
2603 Clear 15 1020 36 10000 1.03 0 10:43 13.02.2021
2604 Clear 15 1020 36 10000 1.03 0 10:23 13.02.2021
2605 Clear 12 1020 47 10000 1.03 280 09:50 13.02.2021
2606 Clear 12 1020 47 10000 1.03 280 09:29 13.02.2021
2607 Smoke 10 1020 58 5000 2.63 331 08:52 13.02.2021
2608 Smoke 10 1020 58 5000 3.03 334 08:26 13.02.2021
2609 Clear 7 1020 76 6000 3.31 337 07:43 13.02.2021
2610 Clear 6 1019 66 7000 3.36 326 06:25 13.02.2021
2611 Clear 6 1019 61 7000 2.06 250 05:18 13.02.2021
2612 Clear 7 1018 57 6000 1.54 250 03:44 13.02.2021
2613 Clear 8 1018 66 6000 2.57 220 01:25 13.02.2021
2614 Clear 8 1018 81 6000 4.81 309 00:19 13.02.2021
2615 Clear 9 1018 76 6000 4.81 309 23:46 12.02.2021
2616 Clear 9 1018 76 6000 5.08 309 23:20 12.02.2021
2617 Clear 9 1018 81 6000 1.03 80 22:38 12.02.2021
2618 Clear 9 1018 81 6000 1.03 80 22:18 12.02.2021
2619 Clear 10 1017 81 6000 4.73 308 21:42 12.02.2021
2620 Clear 10 1017 81 6000 4.89 313 21:23 12.02.2021
2621 Clear 11 1017 76 7000 0.51 70 20:45 12.02.2021
2622 Clear 11 1017 76 7000 0.51 70 20:26 12.02.2021
2623 Clear 12 1017 76 7000 1.03 310 19:55 12.02.2021
2624 Clear 12 1017 76 7000 1.03 310 19:30 12.02.2021
2625 Clouds 13 1016 76 7000 2.06 300 18:54 12.02.2021
2626 Clouds 13 1016 76 7000 2.06 300 18:28 12.02.2021
2627 Clouds 14 1016 62 7000 6.17 300 17:43 12.02.2021
2628 Clear 16 1016 51 8000 3.09 300 16:56 12.02.2021
2629 Clear 16 1016 51 8000 3.09 300 16:25 12.02.2021
2630 Clear 18 1015 39 8000 4.63 310 15:46 12.02.2021
2631 Clear 18 1015 39 8000 4.63 310 15:20 12.02.2021
2632 Clear 19 1015 32 8000 4.12 340 14:40 12.02.2021
2633 Haze 20 1015 34 5000 0.51 360 13:58 12.02.2021
2634 Haze 20 1015 34 5000 0.51 360 13:40 12.02.2021
2635 Haze 20 1015 34 5000 0.51 360 12:56 12.02.2021
2636 Haze 20 1015 37 4000 0.51 330 12:36 12.02.2021
2637 Haze 20 1015 37 4000 0.51 330 12:36 12.02.2021
2638 Haze 19 1016 39 5000 0.51 40 11:58 12.02.2021
2639 Haze 19 1016 39 5000 0.51 40 11:37 12.02.2021
2640 Haze 19 1016 39 5000 0.51 40 11:18 12.02.2021
2641 Haze 16 1017 41 5000 1.54 30 10:40 12.02.2021
2642 Haze 15 1017 44 5000 1.03 10 09:48 12.02.2021
2643 Haze 15 1017 44 5000 1.03 10 09:24 12.02.2021
2644 Smoke 13 1017 54 4000 3.62 134 08:49 12.02.2021
2645 Smoke 13 1017 54 4000 4.09 126 08:27 12.02.2021
2646 Clear 10 1017 62 6000 4.09 126 07:53 12.02.2021
2647 Clear 10 1017 62 6000 4.09 126 07:31 12.02.2021
2648 Clouds 8 1017 70 7000 3.38 118 06:55 12.02.2021
2649 Clear 7 1017 66 10000 3.07 116 05:43 12.02.2021
2650 Clear 7 1017 61 10000 3.27 117 04:22 12.02.2021
2651 Clear 10 1018 58 7000 2.72 111 01:23 12.02.2021
2652 Clear 10 1019 54 7000 2.95 126 23:40 11.02.2021
2653 Clear 10 1019 54 7000 2.89 129 23:22 11.02.2021
2654 Clear 11 1019 54 7000 2.89 129 22:46 11.02.2021
2655 Clear 11 1019 54 7000 3.25 129 22:24 11.02.2021
2656 Clear 11 1019 35 8000 3.25 129 21:54 11.02.2021
2657 Clear 12 1019 35 8000 3.25 129 21:36 11.02.2021
2658 Clear 12 1019 35 8000 3.1 128 21:18 11.02.2021
2659 Clear 12 1019 35 8000 3.1 128 21:18 11.02.2021
2660 Clear 12 1019 35 8000 3.1 128 20:41 11.02.2021
2661 Clear 12 1019 35 8000 2.74 124 20:21 11.02.2021
2662 Clear 13 1019 33 8000 2.74 124 19:47 11.02.2021
2663 Clouds 13 1019 33 8000 2.36 130 19:27 11.02.2021
2664 Clouds 16 1019 19 6000 2.36 130 18:49 11.02.2021
2665 Clouds 16 1019 19 6000 2.3 146 18:25 11.02.2021
2666 Clouds 19 1019 18 6000 2.3 146 17:51 11.02.2021
2667 Clouds 19 1019 18 6000 2.76 153 17:22 11.02.2021
2668 Clouds 19 1019 18 6000 2.76 153 16:53 11.02.2021
2669 Clouds 20 1019 15 6000 2.76 153 16:34 11.02.2021
2670 Clouds 20 1019 15 6000 2.76 153 16:34 11.02.2021
2671 Clouds 19 1019 22 6000 2.23 142 15:59 11.02.2021
2672 Clouds 20 1019 22 6000 2.23 142 15:40 11.02.2021
2673 Clouds 20 1019 22 6000 2.23 142 15:40 11.02.2021
2674 Clouds 20 1019 22 6000 1.66 122 15:20 11.02.2021
2675 Clouds 20 1019 19 6000 1.66 122 14:40 11.02.2021
2676 Clear 20 1019 19 6000 1.32 129 14:21 11.02.2021
2677 Clear 20 1019 19 6000 1.03 50 13:38 11.02.2021
2678 Clear 20 1019 19 6000 1.03 50 13:18 11.02.2021
2679 Clear 20 1020 15 6000 0.51 120 12:44 11.02.2021
2680 Clear 20 1020 15 6000 0.51 120 12:21 11.02.2021
2681 Clear 19 1021 22 6000 0.51 150 11:42 11.02.2021
2682 Clear 19 1021 22 6000 0.51 150 11:20 11.02.2021
2683 Haze 17 1022 29 5000 0.51 40 10:44 11.02.2021
2684 Haze 17 1022 29 5000 0.51 40 10:25 11.02.2021
2685 Smoke 15 1022 77 5000 0.51 150 09:45 11.02.2021
2686 Smoke 15 1022 77 5000 0.51 150 09:19 11.02.2021
2687 Smoke 11 1022 47 5000 0.51 240 08:50 11.02.2021
2688 Smoke 11 1022 47 5000 0.51 240 08:21 11.02.2021
2689 Clear 5 1021 61 7000 0.6 10 06:52 11.02.2021
2690 Clear 5 1021 61 7000 0.6 10 06:33 11.02.2021
2691 Clear 7 1021 53 7000 1.6 340 04:55 11.02.2021
2692 Clear 9 1021 71 7000 2.06 180 02:28 11.02.2021
2693 Clear 9 1021 66 7000 1.54 230 00:47 11.02.2021
2694 Clear 9 1021 66 7000 1.54 230 00:19 11.02.2021
2695 Clear 9 1021 66 7000 3.52 303 23:39 10.02.2021
2696 Clear 9 1022 71 7000 4.27 298 22:52 10.02.2021
2697 Clear 9 1022 71 7000 4.5 298 22:28 10.02.2021
2698 Clear 11 1021 58 8000 4.5 298 21:57 10.02.2021
2699 Clear 11 1021 58 8000 4.5 298 21:38 10.02.2021
2700 Clear 11 1021 58 8000 4.06 305 21:19 10.02.2021
2701 Clear 12 1021 58 8000 4.06 305 20:40 10.02.2021
2702 Clear 12 1021 58 8000 3.8 314 20:22 10.02.2021
2703 Clear 13 1021 62 8000 3.8 314 19:45 10.02.2021
2704 Clear 13 1021 62 8000 3.99 319 19:24 10.02.2021
2705 Clear 15 1021 44 8000 3.09 300 18:40 10.02.2021
2706 Clear 15 1021 44 8000 3.09 300 18:22 10.02.2021
2707 Clear 16 1021 44 8000 3.09 300 17:51 10.02.2021
2708 Clear 16 1021 44 8000 3.09 300 17:23 10.02.2021
2709 Clear 18 1021 32 8000 3.09 300 16:53 10.02.2021
2710 Clear 18 1021 32 8000 3.09 300 16:29 10.02.2021
2711 Clear 20 1021 28 8000 3.09 200 15:54 10.02.2021
2712 Clear 20 1021 28 8000 3.09 200 15:23 10.02.2021
2713 Clear 21 1020 28 8000 3.09 200 14:47 10.02.2021
2714 Clear 21 1020 28 8000 3.09 200 14:27 10.02.2021
2715 Clear 21 1020 28 8000 3.09 300 13:51 10.02.2021
2716 Clouds 21 1020 28 8000 3.09 300 13:28 10.02.2021
2717 Clouds 21 1020 37 6000 3.6 330 12:48 10.02.2021
2718 Clouds 21 1020 37 6000 3.6 330 12:29 10.02.2021
2719 Clouds 20 1021 37 6000 1.03 80 11:48 10.02.2021
2720 Clouds 20 1021 37 6000 1.03 80 11:29 10.02.2021
2721 Dust 18 1021 52 4000 0.51 70 10:52 10.02.2021
2722 Dust 18 1021 52 4000 0.51 70 10:21 10.02.2021
2723 Dust 16 1022 59 4000 1.54 30 09:44 10.02.2021
2724 Dust 16 1022 59 4000 1.54 30 09:22 10.02.2021
2725 Smoke 12 1022 71 4000 0.76 157 08:50 10.02.2021
2726 Smoke 12 1022 71 4000 0.76 157 08:30 10.02.2021
2727 Haze 10 1022 76 4000 1.14 123 07:25 10.02.2021
2728 Haze 8 1021 81 5000 2.06 220 05:40 10.02.2021
2729 Haze 9 1022 81 5000 2.37 104 01:21 10.02.2021
2730 Haze 11 1022 71 5000 3.02 101 23:45 09.02.2021
2731 Haze 11 1022 71 5000 3.43 104 23:27 09.02.2021
2732 Haze 11 1022 66 5000 3.43 104 22:45 09.02.2021
2733 Haze 11 1022 66 5000 3.27 107 22:23 09.02.2021
2734 Haze 13 1023 62 5000 3.27 107 21:47 09.02.2021
2735 Haze 13 1023 62 5000 3.57 110 21:21 09.02.2021
2736 Haze 14 1023 54 5000 3.57 110 20:44 09.02.2021
2737 Haze 14 1023 54 5000 3.68 109 20:25 09.02.2021
2738 Clear 15 1024 58 6000 3.68 109 19:44 09.02.2021
2739 Clear 15 1024 58 6000 3.79 101 19:22 09.02.2021
2740 Haze 15 1023 55 5000 3.73 106 18:49 09.02.2021
2741 Haze 15 1023 55 5000 3.73 106 18:30 09.02.2021
2742 Haze 17 1023 48 5000 3.71 100 17:50 09.02.2021
2743 Haze 17 1023 48 5000 3.71 100 17:50 09.02.2021
2744 Haze 17 1023 48 5000 3.78 92 17:27 09.02.2021
2745 Haze 19 1023 42 5000 0.51 70 16:54 09.02.2021
2746 Haze 19 1023 42 5000 0.51 70 16:20 09.02.2021
2747 Haze 20 1023 34 5000 1.54 60 15:58 09.02.2021
2748 Haze 20 1023 34 5000 1.54 60 15:39 09.02.2021
2749 Haze 20 1023 34 5000 1.54 60 15:20 09.02.2021
2750 Haze 21 1023 37 5000 2.06 80 14:42 09.02.2021
2751 Haze 21 1023 37 5000 2.06 80 14:21 09.02.2021
2752 Dust 21 1023 37 5000 1.03 80 13:41 09.02.2021
2753 Dust 21 1023 37 5000 1.03 80 13:20 09.02.2021
2754 Haze 19 1024 39 5000 1.03 90 12:47 09.02.2021
2755 Haze 19 1024 39 5000 1.03 90 12:27 09.02.2021
2756 Smoke 18 1024 45 5000 1.54 60 11:44 09.02.2021
2757 Smoke 18 1024 45 5000 1.54 60 11:22 09.02.2021
2758 Dust 17 1025 48 5000 1.54 40 10:57 09.02.2021
2759 Dust 17 1025 48 5000 1.54 40 10:23 09.02.2021
2760 Smoke 15 1025 51 5000 1.03 70 09:59 09.02.2021
2761 Smoke 15 1025 51 5000 1.03 70 09:40 09.02.2021
2762 Smoke 15 1025 51 5000 1.03 70 09:20 09.02.2021
2763 Smoke 12 1026 58 4000 1.03 30 08:30 09.02.2021
2764 Clouds 11 1025 58 8000 5.17 122 07:54 09.02.2021
2765 Clouds 11 1025 37 8000 2.92 107 05:35 09.02.2021
2766 Clouds 12 1024 35 8000 4.12 170 03:49 09.02.2021
2767 Clouds 12 1023 33 8000 4.12 170 02:26 09.02.2021
2768 Clouds 12 1025 51 8000 3.11 129 00:31 09.02.2021
2769 Clouds 12 1025 51 8000 3.72 133 23:44 08.02.2021
2770 Clouds 12 1025 51 8000 3.72 134 23:19 08.02.2021
2771 Clouds 13 1026 51 8000 3.72 134 22:43 08.02.2021
2772 Clouds 13 1026 51 8000 3.98 135 22:22 08.02.2021
2773 Clouds 13 1025 54 8000 3.98 135 21:49 08.02.2021
2774 Clouds 13 1025 54 8000 3.98 135 21:30 08.02.2021
2775 Clouds 14 1026 44 8000 3.82 135 20:57 08.02.2021
2776 Clouds 14 1026 44 8000 3.82 135 20:36 08.02.2021
2777 Clouds 14 1026 44 8000 4.01 136 20:18 08.02.2021
2778 Clouds 15 1025 34 8000 1.54 160 19:41 08.02.2021
2779 Clouds 15 1025 34 8000 1.54 160 19:22 08.02.2021
2780 Clouds 16 1025 29 8000 2.57 170 18:46 08.02.2021
2781 Clouds 16 1025 29 8000 2.57 170 18:19 08.02.2021
2782 Clouds 17 1024 29 8000 3.09 160 17:43 08.02.2021
2783 Clouds 17 1024 29 8000 3.09 160 17:24 08.02.2021
2784 Clouds 19 1024 28 8000 1.03 180 16:43 08.02.2021
2785 Clouds 19 1024 28 8000 1.03 180 16:21 08.02.2021
2786 Clouds 21 1024 24 8000 1.03 160 15:43 08.02.2021
2787 Clouds 21 1024 24 8000 1.03 160 15:20 08.02.2021
2788 Clouds 22 1024 23 6000 2.06 180 14:52 08.02.2021
2789 Clouds 22 1024 23 6000 2.06 180 14:32 08.02.2021
2790 Clouds 21 1024 24 6000 2.57 170 13:57 08.02.2021
2791 Clouds 21 1024 24 6000 2.57 170 13:33 08.02.2021
2792 Haze 21 1024 28 5000 2.57 130 12:55 08.02.2021
2793 Haze 21 1024 28 5000 2.57 130 12:37 08.02.2021
2794 Haze 19 1026 42 5000 2.57 140 11:49 08.02.2021
2795 Haze 19 1026 42 5000 2.57 140 11:22 08.02.2021
2796 Dust 17 1026 51 5000 1.03 0 10:45 08.02.2021
2797 Dust 17 1026 51 5000 1.03 0 10:24 08.02.2021
2798 Smoke 15 1027 58 5000 1.54 60 09:54 08.02.2021
2799 Smoke 15 1027 58 5000 1.54 60 09:36 08.02.2021
2800 Smoke 12 1026 76 5000 1.03 240 08:50 08.02.2021
2801 Smoke 12 1026 76 5000 1.03 240 08:21 08.02.2021
2802 Mist 8 1025 93 7000 3.41 122 07:35 08.02.2021
2803 Mist 6 1025 93 7000 2.98 122 06:30 08.02.2021
2804 Fog 7 1024 100 900 1.03 130 03:58 08.02.2021
2805 Haze 7 1024 81 5000 2.57 60 01:50 08.02.2021
2806 Mist 9 1024 87 3000 0.85 150 00:23 08.02.2021
2807 Mist 9 1024 87 3000 0.85 150 23:52 07.02.2021
2808 Mist 9 1024 87 3000 0.37 252 23:27 07.02.2021
2809 Mist 9 1024 87 3000 0.37 252 22:55 07.02.2021
2810 Mist 9 1025 87 3000 0.37 252 22:37 07.02.2021
2811 Mist 9 1025 87 3000 0.51 152 22:19 07.02.2021
2812 Mist 10 1025 93 3000 0.51 152 21:47 07.02.2021
2813 Mist 10 1025 93 3000 0.87 297 21:21 07.02.2021
2814 Mist 11 1024 93 3000 0.87 297 20:48 07.02.2021
2815 Mist 11 1024 93 3000 2.03 334 20:27 07.02.2021
2816 Haze 12 1024 88 4000 2.03 334 19:45 07.02.2021
2817 Haze 12 1024 88 4000 3.37 332 19:27 07.02.2021
2818 Haze 13 1024 88 4000 3.18 333 18:44 07.02.2021
2819 Haze 13 1024 88 4000 4.14 328 18:26 07.02.2021
2820 Haze 14 1023 82 3000 4.14 328 17:45 07.02.2021
2821 Haze 14 1023 82 3000 3.66 334 17:22 07.02.2021
2822 Haze 15 1023 82 3000 3.66 334 16:59 07.02.2021
2823 Haze 16 1023 72 4000 3.66 334 16:41 07.02.2021
2824 Haze 16 1023 72 4000 3.38 331 16:20 07.02.2021
2825 Haze 16 1023 67 3500 3.38 331 15:44 07.02.2021
2826 Haze 16 1023 67 3500 3.57 311 15:21 07.02.2021
2827 Haze 16 1023 63 3000 1.03 40 14:44 07.02.2021
2828 Haze 16 1023 63 3000 1.03 40 14:26 07.02.2021
2829 Haze 16 1022 67 2500 1.54 110 13:45 07.02.2021
2830 Haze 16 1022 67 2500 1.54 110 13:27 07.02.2021
2831 Mist 15 1022 82 2000 1.54 130 12:42 07.02.2021
2832 Mist 15 1022 82 2000 1.54 130 12:21 07.02.2021
2833 Haze 13 1023 58 5000 0.51 70 11:45 07.02.2021
2834 Haze 13 1023 58 5000 0.51 70 11:26 07.02.2021
2835 Haze 12 1023 67 4000 2.95 291 10:44 07.02.2021
2836 Haze 12 1023 67 4000 3.31 296 10:23 07.02.2021
2837 Dust 11 1024 76 4000 0.51 0 09:44 07.02.2021
2838 Dust 11 1024 76 4000 0.51 0 09:21 07.02.2021
2839 Smoke 9 1023 82 4000 0.51 0 08:23 07.02.2021
2840 Mist 7 1022 93 1000 2.61 316 06:34 07.02.2021
2841 Mist 7 1022 93 2000 2.47 316 05:57 07.02.2021
2842 Mist 7 1022 93 4000 1.54 250 03:50 07.02.2021
2843 Mist 7 1022 87 3500 3.6 320 01:27 07.02.2021
2844 Mist 8 1022 87 3500 3.36 319 00:35 07.02.2021
2845 Mist 8 1022 93 4000 3.25 317 23:44 06.02.2021
2846 Mist 9 1022 87 4000 3.23 323 22:41 06.02.2021
2847 Mist 10 1021 87 4000 3.53 325 21:42 06.02.2021
2848 Mist 10 1021 87 4000 3.91 326 21:22 06.02.2021
2849 Mist 11 1021 87 4000 3.91 326 20:52 06.02.2021
2850 Mist 11 1021 87 4000 4.54 326 20:25 06.02.2021
2851 Mist 11 1021 87 4000 4.54 326 19:57 06.02.2021
2852 Haze 11 1021 87 5000 2.06 280 19:32 06.02.2021
2853 Clouds 12 1021 82 6000 4.12 320 18:52 06.02.2021
2854 Clouds 12 1021 82 6000 4.12 320 18:32 06.02.2021
2855 Clouds 13 1021 76 6000 4.12 320 17:56 06.02.2021
2856 Clouds 13 1021 76 6000 4.12 320 17:38 06.02.2021
2857 Clouds 13 1021 76 6000 4.12 320 17:19 06.02.2021
2858 Clouds 14 1021 62 6000 4.12 320 16:41 06.02.2021
2859 Clouds 14 1021 62 6000 4.12 320 16:23 06.02.2021
2860 Clouds 15 1021 47 6000 5.14 310 15:48 06.02.2021
2861 Clouds 15 1021 47 6000 5.14 310 15:25 06.02.2021
2862 Clouds 16 1021 41 7000 4.12 330 14:45 06.02.2021
2863 Clouds 16 1021 41 7000 4.12 330 14:27 06.02.2021
2864 Clouds 16 1020 44 8000 2.06 300 13:51 06.02.2021
2865 Clouds 16 1020 44 8000 2.06 300 13:32 06.02.2021
2866 Clouds 16 1021 48 8000 2.06 300 12:23 06.02.2021
2867 Clouds 15 1021 51 10000 1.54 320 11:57 06.02.2021
2868 Clouds 15 1021 51 10000 1.54 320 11:38 06.02.2021
2869 Clouds 15 1021 51 10000 1.54 320 11:19 06.02.2021
2870 Clouds 14 1022 47 10000 1.03 360 10:44 06.02.2021
2871 Clouds 14 1022 47 10000 1.03 360 10:24 06.02.2021
2872 Clear 14 1022 58 10000 1.03 200 09:37 06.02.2021
2873 Clear 14 1022 58 10000 1.03 200 09:18 06.02.2021
2874 Clear 12 1022 71 7000 1.63 354 08:49 06.02.2021
2875 Clear 12 1022 71 7000 1.73 357 08:28 06.02.2021
2876 Clear 7 1021 93 6000 2.02 316 06:41 06.02.2021
2877 Clear 7 1021 93 6000 1.54 120 05:33 06.02.2021
2878 Clear 8 1020 93 7000 1.67 351 02:43 06.02.2021
2879 Clouds 9 1020 87 8000 2.52 342 00:56 06.02.2021
2880 Clouds 9 1020 87 8000 2.52 342 00:37 06.02.2021
2881 Clouds 9 1020 87 8000 2.74 343 00:18 06.02.2021
2882 Clouds 9 1020 93 8000 2.87 345 23:29 05.02.2021
2883 Clouds 10 1020 81 8000 1.54 120 22:49 05.02.2021
2884 Clouds 10 1020 81 8000 1.54 120 22:25 05.02.2021
2885 Clouds 10 1020 81 8000 1.54 120 22:25 05.02.2021
2886 Clouds 10 1020 93 8000 1.54 120 21:56 05.02.2021
2887 Clouds 11 1020 93 8000 1.54 120 21:36 05.02.2021
2888 Mist 11 1019 93 5000 3.09 70 20:56 05.02.2021
2889 Mist 11 1019 93 5000 3.09 70 20:19 05.02.2021
2890 Haze 12 1018 94 4000 2.06 60 19:45 05.02.2021
2891 Haze 12 1018 94 4000 2.06 60 19:18 05.02.2021
2892 Haze 12 1018 94 4000 2.06 40 18:40 05.02.2021
2893 Haze 12 1018 94 4000 2.06 40 18:19 05.02.2021
2894 Haze 13 1016 88 4000 2.06 320 17:38 05.02.2021
2895 Haze 13 1016 88 4000 2.06 320 17:19 05.02.2021
2896 Haze 14 1016 77 4000 2.06 320 16:43 05.02.2021
2897 Haze 14 1016 77 4000 2.06 320 16:21 05.02.2021
2898 Haze 14 1016 77 4000 3.09 310 15:50 05.02.2021
2899 Haze 14 1016 77 4000 3.09 310 15:23 05.02.2021
2900 Haze 14 1016 82 4000 2.57 270 14:39 05.02.2021
2901 Haze 14 1016 82 4000 2.57 270 14:21 05.02.2021
2902 Haze 14 1015 82 5000 3.09 320 13:52 05.02.2021
2903 Haze 14 1015 82 5000 3.09 320 13:32 05.02.2021
2904 Haze 13 1015 82 5000 4.12 310 12:45 05.02.2021
2905 Haze 13 1015 82 5000 4.12 310 12:24 05.02.2021
2906 Clouds 13 1015 82 6000 2.06 330 11:39 05.02.2021
2907 Clouds 13 1015 82 6000 2.06 330 11:21 05.02.2021
2908 Clouds 11 1015 93 6000 2.06 340 10:49 05.02.2021
2909 Clouds 11 1015 93 6000 2.06 340 10:26 05.02.2021
2910 Clouds 11 1015 93 4000 2.06 340 09:43 05.02.2021
2911 Clouds 11 1015 93 4000 2.06 340 09:25 05.02.2021
2912 Mist 11 1015 93 4000 1.54 340 08:47 05.02.2021
2913 Clouds 11 1014 93 6000 2.06 340 07:53 05.02.2021
2914 Clouds 11 1014 93 6000 2.06 340 07:34 05.02.2021
2915 Clouds 9 1013 100 5000 1.54 310 06:48 05.02.2021
2916 Clouds 9 1013 93 8000 2.57 350 05:36 05.02.2021
2917 Clouds 9 1012 100 1500 2.57 240 02:52 05.02.2021
2918 Clouds 9 1012 100 1500 2.57 240 02:24 05.02.2021
2919 Mist 9 1012 93 4000 3.6 240 00:39 05.02.2021
2920 Mist 9 1012 93 4000 3.6 240 00:19 05.02.2021
2921 Drizzle 9 1012 93 2500 2.57 250 23:55 04.02.2021
2922 Drizzle 9 1012 93 2500 2.57 250 23:36 04.02.2021
2923 Drizzle 9 1012 93 2500 2.57 250 23:18 04.02.2021
2924 Mist 9 1012 93 3500 3.6 260 22:46 04.02.2021
2925 Mist 9 1012 93 3500 3.6 260 22:25 04.02.2021
2926 Mist 9 1012 100 1500 4.12 250 21:42 04.02.2021
2927 Clouds 9 1012 93 4000 2.57 230 21:19 04.02.2021
2928 Clouds 9 1011 93 8000 2.57 250 20:46 04.02.2021
2929 Clouds 9 1011 93 8000 2.57 250 20:28 04.02.2021
2930 Clouds 9 1011 87 10000 3.09 350 19:42 04.02.2021
2931 Clouds 10 1011 87 10000 5.14 350 18:56 04.02.2021
2932 Clouds 10 1011 87 10000 5.14 350 18:25 04.02.2021
2933 Clouds 10 1012 93 3000 7.72 250 17:53 04.02.2021
2934 Clouds 10 1012 93 3000 7.72 250 17:26 04.02.2021
2935 Clouds 11 1011 82 3000 9.26 240 16:56 04.02.2021
2936 Clouds 12 1011 82 3000 9.26 240 16:38 04.02.2021
2937 Clouds 13 1011 82 3000 9.26 240 16:18 04.02.2021
2938 Clouds 14 1011 58 10000 4.2 46 15:39 04.02.2021
2939 Clouds 14 1011 58 10000 6.25 37 15:20 04.02.2021
2940 Clouds 15 1010 58 10000 5.14 120 14:47 04.02.2021
2941 Clouds 15 1010 58 10000 5.14 120 14:20 04.02.2021
2942 Clouds 14 1010 58 10000 4.63 90 13:45 04.02.2021
2943 Clouds 14 1010 58 10000 4.63 90 13:26 04.02.2021
2944 Clouds 14 1010 58 4000 4.12 160 12:54 04.02.2021
2945 Dust 13 1011 58 4000 2.06 160 11:57 04.02.2021
2946 Dust 14 1011 58 4000 2.06 160 11:37 04.02.2021
2947 Dust 14 1011 58 4000 2.06 160 11:18 04.02.2021
2948 Dust 13 1012 58 4000 1.03 50 10:35 04.02.2021
2949 Dust 13 1012 62 5000 0.51 215 09:46 04.02.2021
2950 Dust 13 1012 62 5000 0.51 215 09:23 04.02.2021
2951 Dust 13 1012 66 5000 1.03 30 08:57 04.02.2021
2952 Dust 13 1012 66 5000 1.03 30 08:26 04.02.2021
2953 Haze 12 1012 76 4000 7.88 143 07:58 04.02.2021
2954 Haze 10 1012 76 4000 7.88 143 07:35 04.02.2021
2955 Dust 10 1012 66 5000 5.7 125 06:53 04.02.2021
2956 Dust 10 1012 66 5000 5.7 125 06:34 04.02.2021
2957 Dust 11 1013 66 4000 5.63 113 02:43 04.02.2021
2958 Dust 11 1013 66 4000 5.91 111 02:24 04.02.2021
2959 Dust 11 1014 66 4000 4.25 104 00:31 04.02.2021
2960 Dust 12 1014 62 4000 4.63 93 23:39 03.02.2021
2961 Dust 12 1015 62 4000 2.77 105 22:42 03.02.2021
2962 Dust 12 1015 62 4000 1.5 77 22:22 03.02.2021
2963 Dust 12 1015 62 4000 1.5 77 21:56 03.02.2021
2964 Haze 13 1015 58 4000 1.5 77 21:36 03.02.2021
2965 Haze 13 1015 58 4000 1.51 59 21:18 03.02.2021
2966 Haze 13 1015 58 4000 1.51 59 20:38 03.02.2021
2967 Haze 13 1015 58 4000 0.41 79 20:19 03.02.2021
2968 Haze 14 1016 47 4000 0.41 79 19:42 03.02.2021
2969 Haze 14 1016 47 4000 0.68 85 19:19 03.02.2021
2970 Haze 16 1016 41 4000 0.61 51 18:46 03.02.2021
2971 Haze 16 1016 41 4000 0.76 59 18:20 03.02.2021
2972 Haze 18 1015 36 5000 0.76 59 17:51 03.02.2021
2973 Haze 18 1015 36 5000 0.76 59 17:31 03.02.2021
2974 Haze 18 1015 36 4000 0.32 58 16:56 03.02.2021
2975 Haze 18 1015 36 4000 0.32 58 16:30 03.02.2021
2976 Haze 18 1015 36 4000 0.32 58 16:30 03.02.2021
2977 Haze 19 1015 34 4000 0.34 128 15:46 03.02.2021
2978 Haze 19 1015 34 4000 1.52 130 15:25 03.02.2021
2979 Haze 20 1015 34 4000 1.52 130 14:54 03.02.2021
2980 Dust 20 1016 30 4000 1.52 130 14:30 03.02.2021
2981 Dust 20 1016 34 4000 1.54 20 13:56 03.02.2021
2982 Dust 20 1016 34 4000 1.54 20 13:29 03.02.2021
2983 Dust 20 1016 34 4000 1.03 70 12:55 03.02.2021
2984 Dust 20 1016 34 4000 1.03 70 12:36 03.02.2021
2985 Dust 20 1016 34 4000 1.03 70 12:18 03.02.2021
2986 Dust 18 1017 34 4000 1.54 70 11:38 03.02.2021
2987 Dust 16 1018 41 4000 1.54 50 10:59 03.02.2021
2988 Dust 16 1018 41 4000 1.54 50 10:23 03.02.2021
2989 Dust 14 1018 44 4000 1.03 30 09:53 03.02.2021
2990 Dust 14 1018 44 4000 1.03 30 09:34 03.02.2021
2991 Dust 13 1018 47 4000 0.51 60 08:55 03.02.2021
2992 Dust 13 1018 47 4000 0.51 60 08:37 03.02.2021
2993 Dust 10 1018 66 3000 5.73 94 07:48 03.02.2021
2994 Dust 9 1017 66 3000 4.72 81 06:42 03.02.2021
2995 Dust 9 1017 66 3000 4.72 81 06:42 03.02.2021
2996 Haze 9 1016 71 5000 4.08 81 04:55 03.02.2021
2997 Haze 9 1016 71 5000 4.08 81 04:37 03.02.2021
2998 Haze 11 1017 50 5000 4.76 85 03:49 03.02.2021
2999 Haze 11 1017 50 5000 5.58 87 02:38 03.02.2021
3000 Haze 11 1018 54 5000 6.53 82 01:21 03.02.2021
3001 Haze 12 1018 54 5000 6.6 85 00:23 03.02.2021
3002 Haze 12 1018 58 5000 6.6 85 23:42 02.02.2021
3003 Haze 12 1018 58 5000 6.93 85 23:23 02.02.2021
3004 Dust 12 1018 58 4000 6.93 85 22:43 02.02.2021
3005 Dust 12 1018 58 4000 7.05 85 22:19 02.02.2021
3006 Dust 13 1018 58 4000 7.05 85 21:44 02.02.2021
3007 Dust 13 1018 58 4000 7.74 90 21:23 02.02.2021
3008 Dust 13 1018 54 4000 7.74 90 20:49 02.02.2021
3009 Dust 13 1018 54 4000 8.09 89 20:21 02.02.2021
3010 Dust 14 1018 51 4000 8.09 89 19:51 02.02.2021
3011 Dust 14 1018 51 4000 8.09 89 19:33 02.02.2021
3012 Dust 15 1017 47 4000 7.72 88 18:57 02.02.2021
3013 Dust 15 1017 47 4000 7.72 88 18:38 02.02.2021
3014 Dust 15 1017 47 4000 4.87 82 18:20 02.02.2021
3015 Dust 16 1017 41 5000 1.54 110 17:38 02.02.2021
3016 Dust 16 1017 41 5000 1.54 110 17:19 02.02.2021
3017 Dust 18 1018 36 4000 1.54 110 16:48 02.02.2021
3018 Dust 18 1018 36 4000 1.54 110 16:27 02.02.2021
3019 Dust 19 1018 32 3500 2.57 110 15:56 02.02.2021
3020 Dust 19 1018 32 3500 2.57 110 15:30 02.02.2021
3021 Dust 19 1018 34 4000 4.12 90 14:53 02.02.2021
3022 Dust 19 1018 34 4000 4.12 90 14:34 02.02.2021
3023 Haze 19 1018 32 4000 2.06 70 13:58 02.02.2021
3024 Haze 19 1018 32 4000 2.06 70 13:40 02.02.2021
3025 Haze 19 1018 32 4000 2.06 70 13:22 02.02.2021
3026 Haze 18 1019 34 4000 1.54 50 12:50 02.02.2021
3027 Haze 17 1020 36 5000 2.06 60 11:55 02.02.2021
3028 Haze 17 1020 36 5000 2.06 60 11:36 02.02.2021
3029 Haze 17 1020 36 5000 2.06 60 11:18 02.02.2021
3030 Clear 16 1021 41 6000 3.09 80 10:43 02.02.2021
3031 Clear 16 1021 41 6000 3.09 80 10:25 02.02.2021
3032 Haze 13 1022 50 5000 1.03 60 09:41 02.02.2021
3033 Haze 13 1022 50 5000 1.03 60 09:20 02.02.2021
3034 Smoke 11 1022 37 5000 1.03 50 08:36 02.02.2021
3035 Clear 9 1022 53 8000 7.8 100 07:44 02.02.2021
3036 Clear 9 1022 49 8000 6.91 93 06:49 02.02.2021
3037 Clear 9 1022 49 8000 6.91 93 06:31 02.02.2021
3038 Clear 9 1022 49 8000 6.91 93 06:31 02.02.2021
3039 Clear 10 1022 43 10000 5.71 93 05:50 02.02.2021
3040 Clear 12 1021 38 10000 5.65 93 02:57 02.02.2021
3041 Clear 12 1021 35 10000 5.39 97 02:24 02.02.2021
3042 Clear 13 1021 38 10000 3.09 100 00:38 02.02.2021
3043 Clear 13 1022 38 10000 3.09 100 23:55 01.02.2021
3044 Clear 14 1021 36 10000 3.09 100 22:57 01.02.2021
3045 Clear 14 1021 36 10000 3.09 100 22:57 01.02.2021
3046 Clear 14 1021 36 10000 3.09 100 22:57 01.02.2021
3047 Clear 13 1021 36 10000 3.09 100 22:38 01.02.2021
3048 Clear 13 1021 36 10000 3.09 100 22:19 01.02.2021
3049 Clear 13 1021 33 10000 4.12 130 21:42 01.02.2021
3050 Clear 13 1021 33 10000 4.12 130 21:22 01.02.2021
3051 Clear 14 1021 36 10000 5.14 110 20:42 01.02.2021
3052 Clear 14 1021 36 10000 5.14 110 20:24 01.02.2021
3053 Clear 14 1021 47 10000 1.54 120 19:42 01.02.2021
3054 Clear 14 1021 47 10000 1.54 120 19:21 01.02.2021
3055 Clear 14 1021 44 10000 3.09 120 18:51 01.02.2021
3056 Clear 14 1021 44 10000 3.09 120 18:29 01.02.2021
3057 Clear 15 1021 41 10000 2.06 110 17:57 01.02.2021
3058 Clear 16 1021 41 10000 2.06 110 17:39 01.02.2021
3059 Clear 16 1021 41 10000 2.06 110 17:18 01.02.2021
3060 Clear 18 1020 34 10000 2.06 110 16:33 01.02.2021
3061 Clear 20 1020 32 10000 2.06 110 15:50 01.02.2021
3062 Clear 20 1020 32 10000 2.06 110 15:21 01.02.2021
3063 Clear 20 1020 32 10000 1.54 110 14:57 01.02.2021
3064 Clear 20 1020 32 10000 1.54 110 14:39 01.02.2021
3065 Clear 19 1021 42 6000 2.57 110 13:56 01.02.2021
3066 Clear 19 1021 42 6000 2.57 110 13:38 01.02.2021
3067 Clear 19 1021 42 6000 2.57 110 13:20 01.02.2021
3068 Clear 18 1021 42 6000 2.57 90 12:44 01.02.2021
3069 Clear 18 1021 42 6000 2.57 90 12:23 01.02.2021
3070 Clear 17 1022 51 6000 4.63 90 11:42 01.02.2021
3071 Clear 17 1022 51 6000 4.63 90 11:20 01.02.2021
3072 Clear 15 1023 55 6000 1.54 90 10:46 01.02.2021
3073 Clear 15 1023 55 6000 1.54 90 10:20 01.02.2021
3074 Haze 13 1023 67 5000 2.06 80 09:45 01.02.2021
3075 Haze 13 1023 67 5000 2.06 80 09:24 01.02.2021
3076 Smoke 9 1023 81 4000 0.51 30 08:54 01.02.2021
3077 Smoke 9 1023 81 4000 0.51 30 08:21 01.02.2021
3078 Smoke 6 1022 93 4000 4.18 112 06:43 01.02.2021
3079 Clear 5 1021 87 7000 2.79 107 04:32 01.02.2021
3080 Clear 7 1020 81 6000 1.99 135 01:46 01.02.2021
3081 Mist 7 1021 87 5000 2.06 230 23:47 31.01.2021
3082 Mist 7 1021 93 5000 1.54 230 22:56 31.01.2021
3083 Mist 7 1021 93 5000 1.54 230 22:36 31.01.2021
3084 Mist 7 1021 93 5000 1.54 230 22:18 31.01.2021
3085 Clear 8 1021 87 6000 1.54 240 21:41 31.01.2021
3086 Clear 8 1021 87 6000 1.54 240 21:19 31.01.2021
3087 Clear 9 1020 81 6000 0.84 198 20:41 31.01.2021
3088 Clear 9 1020 81 6000 1.08 204 20:19 31.01.2021
3089 Clear 9 1020 81 6000 1.08 204 20:19 31.01.2021
3090 Haze 9 1021 87 5000 1.08 204 19:38 31.01.2021
3091 Haze 9 1021 87 5000 0.4 218 19:19 31.01.2021
3092 Haze 10 1021 81 5000 0.51 140 18:44 31.01.2021
3093 Haze 10 1021 81 5000 0.51 140 18:24 31.01.2021
3094 Haze 11 1020 76 5000 1.55 252 17:57 31.01.2021
3095 Haze 12 1020 76 5000 1.55 252 17:38 31.01.2021
3096 Haze 12 1020 76 5000 1.57 267 17:19 31.01.2021
3097 Haze 13 1019 62 5000 2.57 220 16:41 31.01.2021
3098 Haze 13 1019 62 5000 2.57 220 16:20 31.01.2021
3099 Clouds 14 1019 58 6000 3.09 220 15:49 31.01.2021
3100 Clouds 14 1019 58 6000 3.09 220 15:21 31.01.2021
3101 Clouds 14 1018 58 6000 4.12 220 14:36 31.01.2021
3102 Clouds 14 1018 58 6000 4.12 220 14:18 31.01.2021
3103 Clouds 13 1018 58 8000 3.09 230 13:41 31.01.2021
3104 Clouds 13 1018 58 8000 3.09 230 13:19 31.01.2021
3105 Clouds 13 1018 58 10000 3.6 230 12:46 31.01.2021
3106 Clouds 13 1018 58 10000 3.6 230 12:20 31.01.2021
3107 Clouds 13 1018 54 10000 4.12 230 11:40 31.01.2021
3108 Clouds 13 1018 54 10000 4.12 230 11:20 31.01.2021
3109 Clear 12 1019 58 10000 4.12 230 10:46 31.01.2021
3110 Clear 12 1019 58 10000 4.12 230 10:27 31.01.2021
3111 Clear 11 1019 58 10000 3.09 240 09:47 31.01.2021
3112 Clear 10 1019 58 10000 3.09 240 08:55 31.01.2021
3113 Clear 10 1018 62 7000 3.09 220 08:31 31.01.2021
3114 Clear 8 1017 61 10000 3.09 200 06:51 31.01.2021
3115 Clear 6 1016 61 10000 4.12 200 05:30 31.01.2021
3116 Clear 5 1018 76 8000 3.6 230 00:40 31.01.2021
3117 Clear 5 1018 76 8000 3.6 230 00:21 31.01.2021
3118 Haze 5 1019 76 5000 1.49 207 23:28 30.01.2021
3119 Haze 5 1019 76 5000 1.49 207 22:49 30.01.2021
3120 Haze 5 1019 76 5000 2.14 188 22:28 30.01.2021
3121 Clear 6 1019 66 6000 2.06 230 21:39 30.01.2021
3122 Clear 6 1019 66 6000 2.06 230 21:20 30.01.2021
3123 Clear 6 1019 66 6000 2.06 230 20:44 30.01.2021
3124 Clear 6 1019 66 6000 2.06 230 20:26 30.01.2021
3125 Clear 7 1019 76 7000 2.03 235 19:44 30.01.2021
3126 Clear 7 1019 76 7000 2.05 261 19:25 30.01.2021
3127 Clear 8 1019 76 6000 1.54 230 18:42 30.01.2021
3128 Clear 8 1019 76 6000 1.54 230 18:21 30.01.2021
3129 Clear 10 1019 66 6000 3.09 240 17:58 30.01.2021
3130 Clear 10 1019 66 6000 3.09 240 17:19 30.01.2021
3131 Haze 10 1019 66 5000 4.63 230 16:47 30.01.2021
3132 Haze 10 1019 66 5000 4.63 230 16:25 30.01.2021
3133 Haze 10 1019 66 5000 4.63 230 15:57 30.01.2021
3134 Haze 11 1019 62 5000 6.69 230 15:38 30.01.2021
3135 Haze 11 1019 62 5000 6.69 230 15:20 30.01.2021
3136 Haze 11 1020 66 5000 5.14 220 14:47 30.01.2021
3137 Haze 11 1020 66 5000 5.14 220 14:21 30.01.2021
3138 Haze 10 1020 71 5000 3.09 230 13:32 30.01.2021
3139 Haze 9 1020 71 5000 3.09 220 12:49 30.01.2021
3140 Haze 9 1020 71 5000 3.09 220 12:28 30.01.2021
3141 Haze 8 1020 76 5000 2.57 210 11:57 30.01.2021
3142 Haze 8 1020 76 5000 2.57 210 11:28 30.01.2021
3143 Haze 7 1021 81 4000 4.12 200 10:48 30.01.2021
3144 Mist 6 1021 93 4000 2.06 210 09:51 30.01.2021
3145 Mist 6 1021 93 4000 2.06 210 09:30 30.01.2021
3146 Clouds 6 1021 87 2000 2.57 220 08:47 30.01.2021
3147 Drizzle 6 1020 87 4000 2.06 220 07:49 30.01.2021
3148 Clouds 6 1020 87 6000 2.57 220 06:51 30.01.2021
3149 Mist 5 1019 100 5000 4.12 240 05:59 30.01.2021
3150 Clouds 6 1018 93 6000 4.12 240 03:35 30.01.2021
3151 Clouds 6 1018 93 6000 4.12 240 02:25 30.01.2021
3152 Clouds 6 1018 93 6000 5.14 240 01:30 30.01.2021
3153 Mist 6 1018 87 5000 4.12 240 00:39 30.01.2021
3154 Mist 6 1018 87 5000 4.12 240 00:20 30.01.2021
3155 Mist 6 1018 87 5000 4.12 240 23:45 29.01.2021
3156 Mist 6 1018 87 5000 4.12 240 23:22 29.01.2021
3157 Mist 6 1018 93 5000 5.14 230 22:44 29.01.2021
3158 Mist 6 1018 93 5000 5.14 230 22:20 29.01.2021
3159 Clouds 6 1018 87 5000 3.09 240 21:37 29.01.2021
3160 Clouds 6 1018 87 5000 3.09 240 21:19 29.01.2021
3161 Clouds 6 1018 87 6000 3.09 240 20:41 29.01.2021
3162 Clouds 6 1018 87 6000 3.09 240 20:21 29.01.2021
3163 Mist 6 1018 93 5000 3.09 240 19:38 29.01.2021
3164 Mist 6 1018 93 5000 3.09 240 19:19 29.01.2021
3165 Mist 6 1017 93 5000 4.12 240 18:44 29.01.2021
3166 Mist 6 1017 93 4000 4.12 240 17:45 29.01.2021
3167 Mist 6 1017 93 4000 4.12 240 17:22 29.01.2021
3168 Clouds 6 1016 93 3000 5.14 240 16:47 29.01.2021
3169 Clouds 6 1016 93 3000 5.14 240 16:24 29.01.2021
3170 Clouds 6 1016 93 3000 5.14 240 15:54 29.01.2021
3171 Drizzle 7 1016 93 3000 5.14 240 15:36 29.01.2021
3172 Drizzle 7 1015 93 3000 6.17 240 14:57 29.01.2021
3173 Drizzle 7 1015 93 3000 6.17 240 14:21 29.01.2021
3174 Clouds 7 1015 93 3000 7.72 270 13:45 29.01.2021
3175 Clouds 7 1015 93 3000 7.72 270 13:26 29.01.2021
3176 Clouds 6 1014 93 3500 7.2 250 12:30 29.01.2021
3177 Clouds 6 1014 93 5000 7.72 250 11:58 29.01.2021
3178 Clouds 7 1014 93 5000 7.72 250 11:40 29.01.2021
3179 Clouds 7 1014 93 5000 7.72 250 11:18 29.01.2021
3180 Clouds 6 1015 87 3000 8.75 250 10:41 29.01.2021
3181 Clouds 7 1015 81 4000 5.14 240 09:56 29.01.2021
3182 Clouds 7 1015 81 4000 5.14 240 09:36 29.01.2021
3183 Clouds 7 1014 65 6000 8.23 240 08:48 29.01.2021
3184 Clouds 7 1014 65 6000 8.23 240 08:26 29.01.2021
3185 Clouds 8 1014 57 7000 8.75 240 07:44 29.01.2021
3186 Clouds 8 1014 53 10000 9.26 240 07:23 29.01.2021
3187 Clouds 7 1013 57 10000 5.14 240 06:35 29.01.2021
3188 Clouds 7 1014 71 8000 5.14 240 04:42 29.01.2021
3189 Clear 5 1015 76 6000 2.06 200 00:51 29.01.2021
3190 Clear 5 1015 76 6000 2.06 200 00:23 29.01.2021
3191 Clear 5 1015 81 6000 2.5 239 23:55 28.01.2021
3192 Clear 5 1015 81 6000 2.5 239 23:36 28.01.2021
3193 Clear 5 1015 81 6000 2.36 263 23:18 28.01.2021
3194 Clear 5 1015 76 6000 2.36 263 22:41 28.01.2021
3195 Clear 6 1015 76 6000 2.62 274 22:21 28.01.2021
3196 Clouds 5 1016 87 6000 2.62 274 21:42 28.01.2021
3197 Clouds 5 1016 87 6000 3 279 21:23 28.01.2021
3198 Clouds 6 1016 81 6000 3 279 20:46 28.01.2021
3199 Clouds 6 1016 81 6000 3.22 279 20:19 28.01.2021
3200 Clouds 7 1016 87 6000 3.22 279 19:52 28.01.2021
3201 Clouds 7 1016 87 6000 3.17 293 19:29 28.01.2021
3202 Clouds 8 1016 76 6000 2.06 230 18:53 28.01.2021
3203 Clouds 8 1016 76 6000 2.06 230 18:34 28.01.2021
3204 Clouds 8 1016 81 6000 2.06 240 17:58 28.01.2021
3205 Clouds 8 1016 81 6000 2.06 240 17:40 28.01.2021
3206 Clouds 8 1016 81 6000 2.06 240 17:21 28.01.2021
3207 Clouds 9 1016 81 6000 5.66 240 16:43 28.01.2021
3208 Clouds 9 1016 81 6000 5.66 240 16:21 28.01.2021
3209 Clouds 10 1016 76 6000 5.14 240 15:36 28.01.2021
3210 Clouds 11 1016 76 6000 5.14 240 14:55 28.01.2021
3211 Clouds 11 1016 76 6000 5.14 240 14:37 28.01.2021
3212 Clouds 11 1016 76 6000 5.14 240 14:37 28.01.2021
3213 Clouds 11 1016 76 6000 5.14 240 14:18 28.01.2021
3214 Clouds 11 1015 81 4000 4.12 240 13:40 28.01.2021
3215 Clouds 12 1015 71 3000 4.63 240 12:52 28.01.2021
3216 Clouds 12 1015 71 3000 4.63 240 12:33 28.01.2021
3217 Clouds 11 1016 87 4000 5.66 240 11:58 28.01.2021
3218 Clouds 11 1016 76 5000 7.72 230 11:39 28.01.2021
3219 Clouds 11 1016 76 5000 7.72 230 11:19 28.01.2021
3220 Clouds 10 1016 87 5000 2.57 270 10:49 28.01.2021
3221 Clouds 10 1016 87 5000 2.57 270 10:27 28.01.2021
3222 Clouds 9 1017 87 4000 4.63 240 09:44 28.01.2021
3223 Clouds 9 1017 87 4000 4.63 240 09:22 28.01.2021
3224 Clouds 10 1016 81 4000 3.6 250 08:49 28.01.2021
3225 Clouds 15 1016 32 5000 2.06 270 08:18 28.01.2021
3226 Clouds 10 1015 87 4000 1.54 280 07:43 28.01.2021
3227 Clouds 9 1015 81 3000 2.57 240 06:49 28.01.2021
3228 Mist 8 1014 87 5000 2.57 280 05:28 28.01.2021
3229 Haze 7 1014 57 5000 2.06 220 03:49 28.01.2021
3230 Haze 8 1015 57 5000 3.92 292 00:58 28.01.2021
3231 Haze 8 1015 57 5000 2.93 291 23:47 27.01.2021
3232 Haze 8 1015 57 5000 2.84 299 23:23 27.01.2021
3233 Haze 8 1014 53 5000 2.84 299 22:41 27.01.2021
3234 Haze 8 1014 53 5000 3.87 296 22:21 27.01.2021
3235 Haze 10 1014 53 5000 2.06 250 21:43 27.01.2021
3236 Haze 10 1014 53 5000 2.06 250 21:23 27.01.2021
3237 Haze 11 1014 50 5000 2.06 240 20:52 27.01.2021
3238 Haze 11 1014 50 5000 2.06 240 20:24 27.01.2021
3239 Haze 12 1014 43 5000 2.57 240 19:49 27.01.2021
3240 Haze 12 1014 43 5000 2.57 240 19:23 27.01.2021
3241 Haze 12 1014 43 5000 2.57 240 19:23 27.01.2021
3242 Haze 13 1014 54 5000 1.03 230 18:46 27.01.2021
3243 Haze 13 1014 54 5000 1.03 230 18:24 27.01.2021
3244 Haze 13 1014 44 5000 3.09 240 17:55 27.01.2021
3245 Haze 13 1014 44 5000 3.09 240 17:35 27.01.2021
3246 Haze 16 1012 41 4000 1.03 230 16:57 27.01.2021
3247 Haze 16 1012 41 4000 1.03 230 16:39 27.01.2021
3248 Haze 16 1012 41 4000 1.03 230 16:21 27.01.2021
3249 Haze 17 1012 34 5000 3.09 230 15:49 27.01.2021
3250 Haze 17 1012 34 5000 3.09 230 15:29 27.01.2021
3251 Haze 19 1012 30 5000 4.63 230 14:38 27.01.2021
3252 Haze 19 1012 30 5000 4.63 230 14:18 27.01.2021
3253 Dust 19 1012 32 4000 1.03 240 13:35 27.01.2021
3254 Dust 18 1013 33 4000 1.54 300 12:42 27.01.2021
3255 Dust 18 1013 33 4000 1.54 300 12:42 27.01.2021
3256 Dust 18 1013 33 4000 1.54 300 12:42 27.01.2021
3257 Dust 18 1013 33 4000 1.54 300 12:24 27.01.2021
3258 Dust 16 1014 38 3000 1.03 30 11:50 27.01.2021
3259 Dust 16 1014 38 3000 1.03 30 11:26 27.01.2021
3260 Dust 12 1015 43 3000 1.54 20 10:51 27.01.2021
3261 Dust 12 1015 43 3000 1.54 20 10:26 27.01.2021
3262 Dust 11 1016 46 3000 1.03 0 09:56 27.01.2021
3263 Dust 11 1016 46 3000 1.03 0 09:29 27.01.2021
3264 Dust 11 1016 46 3000 1.03 0 09:29 27.01.2021
3265 Smoke 9 1016 57 4000 1.03 0 08:47 27.01.2021
3266 Haze 5 1016 70 4000 8.04 121 07:58 27.01.2021
3267 Haze 5 1016 70 4000 8.04 121 07:38 27.01.2021
3268 Haze 5 1016 60 3500 7.42 114 06:47 27.01.2021
3269 Haze 6 1016 61 5000 7.18 107 05:56 27.01.2021
3270 Haze 6 1016 61 5000 7.18 107 05:35 27.01.2021
3271 Haze 8 1017 61 5000 6.69 113 02:46 27.01.2021
3272 Haze 8 1017 61 5000 6.19 116 02:20 27.01.2021
3273 Haze 8 1018 61 5000 6.19 116 01:46 27.01.2021
3274 Haze 9 1018 61 5000 4.12 110 00:29 27.01.2021
3275 Haze 9 1019 57 5000 5.35 115 23:40 26.01.2021
3276 Haze 9 1019 57 5000 4.94 116 23:22 26.01.2021
3277 Haze 10 1019 53 5000 4.94 116 22:44 26.01.2021
3278 Haze 10 1019 53 5000 4.76 107 22:20 26.01.2021
3279 Haze 9 1019 61 5000 4.76 107 21:53 26.01.2021
3280 Haze 9 1019 61 5000 4.39 103 21:26 26.01.2021
3281 Haze 9 1019 57 5000 4.39 103 20:56 26.01.2021
3282 Haze 9 1019 57 5000 4.39 103 20:36 26.01.2021
3283 Haze 9 1019 57 5000 4.13 106 20:18 26.01.2021
3284 Haze 9 1020 61 5000 4.13 106 19:42 26.01.2021
3285 Haze 9 1020 61 5000 3.69 105 19:19 26.01.2021
3286 Haze 11 1020 54 5000 3.96 100 18:43 26.01.2021
3287 Haze 11 1020 54 5000 4.23 110 18:23 26.01.2021
3288 Haze 12 1020 43 5000 4.23 110 17:48 26.01.2021
3289 Haze 12 1020 43 5000 4.42 123 17:25 26.01.2021
3290 Haze 14 1020 38 4000 1.54 100 16:53 26.01.2021
3291 Haze 14 1020 38 4000 1.54 100 16:22 26.01.2021
3292 Haze 15 1020 38 4000 1.54 100 15:57 26.01.2021
3293 Haze 16 1020 33 5000 1.54 120 15:38 26.01.2021
3294 Haze 16 1020 33 5000 1.54 120 15:18 26.01.2021
3295 Haze 17 1020 31 5000 1.54 120 14:34 26.01.2021
3296 Haze 16 1020 31 5000 2.06 110 13:59 26.01.2021
3297 Haze 16 1020 31 5000 2.06 110 13:30 26.01.2021
3298 Haze 16 1021 27 5000 2.06 100 12:56 26.01.2021
3299 Haze 16 1021 27 5000 2.06 100 12:37 26.01.2021
3300 Haze 16 1021 27 5000 2.06 100 12:19 26.01.2021
3301 Haze 15 1022 36 5000 0.51 90 11:49 26.01.2021
3302 Haze 15 1022 36 5000 0.51 90 11:19 26.01.2021
3303 Haze 13 1023 44 5000 1.54 90 10:34 26.01.2021
3304 Dust 11 1023 58 4000 0.51 50 09:57 26.01.2021
3305 Dust 11 1023 58 4000 0.51 50 09:39 26.01.2021
3306 Dust 11 1023 58 4000 0.51 50 09:21 26.01.2021
3307 Smoke 7 1023 71 4000 0.51 200 08:44 26.01.2021
3308 Smoke 5 1023 81 4000 1.03 220 07:56 26.01.2021
3309 Mist 3 1023 93 4000 0.51 230 06:58 26.01.2021
3310 Haze 3 1022 87 5000 0.51 200 05:51 26.01.2021
3311 Haze 3 1022 87 5000 0.51 200 05:32 26.01.2021
3312 Clear 5 1022 70 10000 0.93 329 03:32 26.01.2021
3313 Clear 6 1023 61 10000 3.17 316 00:59 26.01.2021
3314 Clear 6 1023 61 10000 3.8 323 00:26 26.01.2021
3315 Clear 6 1022 61 10000 3.8 323 23:32 25.01.2021
3316 Clear 6 1023 61 10000 4.42 326 22:50 25.01.2021
3317 Clear 6 1023 61 10000 4.54 317 22:29 25.01.2021
3318 Clear 8 1022 53 10000 4.54 317 21:46 25.01.2021
3319 Clear 8 1022 53 10000 3.97 312 21:19 25.01.2021
3320 Clear 8 1022 53 10000 3.97 312 20:43 25.01.2021
3321 Clear 8 1022 53 10000 2.76 315 20:23 25.01.2021
3322 Clear 9 1022 53 10000 2.76 315 19:48 25.01.2021
3323 Clear 9 1022 53 10000 1.96 326 19:24 25.01.2021
3324 Clouds 11 1021 35 6000 2.37 325 18:47 25.01.2021
3325 Clouds 11 1021 35 6000 1.79 334 18:24 25.01.2021
3326 Clouds 12 1021 35 6000 1.79 334 17:49 25.01.2021
3327 Clouds 12 1021 35 6000 1.79 334 17:49 25.01.2021
3328 Clouds 12 1021 35 6000 2.55 312 17:26 25.01.2021
3329 Clouds 14 1020 33 6000 2.55 312 16:57 25.01.2021
3330 Clouds 14 1020 33 6000 2.55 312 16:39 25.01.2021
3331 Clouds 14 1020 33 6000 2.3 283 16:20 25.01.2021
3332 Clouds 16 1020 36 6000 2.3 283 15:41 25.01.2021
3333 Clouds 16 1020 36 6000 1.42 242 15:21 25.01.2021
3334 Clouds 17 1020 33 6000 1.42 242 14:39 25.01.2021
3335 Clouds 17 1020 33 6000 0.99 182 14:18 25.01.2021
3336 Dust 17 1020 33 4000 1.03 90 13:44 25.01.2021
3337 Dust 17 1020 33 4000 1.03 90 13:25 25.01.2021
3338 Dust 15 1020 33 4000 1.54 30 12:45 25.01.2021
3339 Dust 15 1020 33 4000 1.54 30 12:19 25.01.2021
3340 Dust 14 1020 35 4000 1.54 80 11:31 25.01.2021
3341 Dust 12 1021 37 4000 1.03 60 10:53 25.01.2021
3342 Dust 12 1021 37 4000 1.03 60 10:23 25.01.2021
3343 Dust 11 1021 43 4000 0.51 0 09:54 25.01.2021
3344 Dust 11 1021 43 4000 0.51 0 09:34 25.01.2021
3345 Smoke 7 1021 57 4000 3.38 121 08:56 25.01.2021
3346 Smoke 7 1021 57 4000 3.39 115 08:23 25.01.2021
3347 Smoke 5 1021 65 3500 3.39 115 07:31 25.01.2021
3348 Clear 3 1021 70 6000 2.36 110 06:52 25.01.2021
3349 Clear 3 1020 75 10000 1.53 77 03:23 25.01.2021
3350 Clear 4 1020 60 6000 2.06 230 01:22 25.01.2021
3351 Clear 6 1020 57 7000 1.2 1 23:40 24.01.2021
3352 Clear 6 1020 57 7000 1.76 342 23:19 24.01.2021
3353 Clear 5 1021 61 7000 1.76 342 22:42 24.01.2021
3354 Clear 5 1021 61 7000 1.76 342 22:42 24.01.2021
3355 Clear 5 1021 61 7000 1.72 330 22:20 24.01.2021
3356 Clear 6 1021 65 6000 1.72 330 21:46 24.01.2021
3357 Clear 6 1021 65 6000 1.36 325 21:24 24.01.2021
3358 Clear 7 1021 61 6000 1.36 325 20:44 24.01.2021
3359 Clear 7 1021 61 6000 0.75 319 20:21 24.01.2021
3360 Haze 7 1021 61 5000 0.75 319 19:52 24.01.2021
3361 Haze 7 1021 61 5000 0.17 48 19:27 24.01.2021
3362 Haze 8 1020 57 5000 0.25 13 18:58 24.01.2021
3363 Haze 8 1020 57 5000 0.25 13 18:39 24.01.2021
3364 Haze 8 1020 57 5000 0.58 54 18:20 24.01.2021
3365 Haze 10 1020 43 5000 0.58 54 17:50 24.01.2021
3366 Haze 10 1020 43 5000 0.82 79 17:29 24.01.2021
3367 Haze 12 1019 37 3000 0.82 79 16:58 24.01.2021
3368 Haze 12 1019 37 3000 0.82 79 16:39 24.01.2021
3369 Haze 12 1019 37 3000 1.36 100 16:19 24.01.2021
3370 Haze 14 1019 28 4000 1.36 100 15:43 24.01.2021
3371 Haze 14 1019 28 4000 2.01 113 15:19 24.01.2021
3372 Haze 14 1019 33 5000 2.06 60 14:43 24.01.2021
3373 Haze 13 1020 32 5000 0.51 80 13:48 24.01.2021
3374 Haze 13 1020 32 5000 0.51 80 13:30 24.01.2021
3375 Haze 12 1020 35 5000 2.57 50 12:50 24.01.2021
3376 Haze 12 1020 35 5000 2.57 50 12:21 24.01.2021
3377 Haze 10 1020 34 5000 1.54 40 11:54 24.01.2021
3378 Haze 10 1020 34 5000 1.54 40 11:25 24.01.2021
3379 Haze 8 1021 39 5000 1.03 60 10:54 24.01.2021
3380 Haze 8 1021 39 5000 1.03 60 10:30 24.01.2021
3381 Haze 8 1021 39 5000 1.03 60 10:30 24.01.2021
3382 Haze 7 1021 42 5000 1.54 80 09:46 24.01.2021
3383 Haze 7 1021 42 5000 1.54 80 09:19 24.01.2021
3384 Smoke 4 1022 48 4000 0.51 40 08:31 24.01.2021
3385 Haze 3 1021 60 5000 4.56 108 03:48 24.01.2021
3386 Haze 4 1021 56 5000 4.59 106 02:18 24.01.2021
3387 Clear 5 1021 45 6000 4.58 107 00:28 24.01.2021
3388 Clear 5 1021 45 6000 4.58 107 00:28 24.01.2021
3389 Clear 6 1021 42 6000 4.58 107 23:59 23.01.2021
3390 Clear 6 1021 42 6000 4.58 107 23:33 23.01.2021
3391 Clear 6 1021 39 6000 4.69 108 22:58 23.01.2021
3392 Clear 6 1021 39 6000 4.69 108 22:40 23.01.2021
3393 Clear 6 1022 45 6000 4.58 104 21:59 23.01.2021
3394 Clear 6 1022 45 6000 4.43 102 21:23 23.01.2021
3395 Clear 6 1022 45 6000 4.43 102 20:55 23.01.2021
3396 Clear 6 1022 45 6000 4.43 102 20:37 23.01.2021
3397 Clear 6 1022 45 6000 4.48 104 20:19 23.01.2021
3398 Clear 6 1022 42 6000 4.48 104 19:43 23.01.2021
3399 Clear 6 1022 42 6000 4.4 106 19:20 23.01.2021
3400 Clear 8 1021 39 6000 4.4 106 18:42 23.01.2021
3401 Clear 8 1021 39 6000 4.29 108 18:21 23.01.2021
3402 Clear 8 1021 36 6000 4.29 108 17:43 23.01.2021
3403 Clear 8 1021 36 6000 4.37 110 17:24 23.01.2021
3404 Clear 10 1021 29 6000 1.54 80 16:45 23.01.2021
3405 Clear 12 1020 22 7000 3.09 80 15:57 23.01.2021
3406 Clear 12 1020 22 7000 3.09 80 15:30 23.01.2021
3407 Clear 12 1021 20 8000 4.12 90 14:46 23.01.2021
3408 Clear 12 1021 20 8000 4.12 90 14:25 23.01.2021
3409 Clear 12 1021 19 10000 3.09 110 13:50 23.01.2021
3410 Clear 12 1021 19 10000 3.09 110 13:26 23.01.2021
3411 Clear 11 1021 32 10000 2.57 120 12:46 23.01.2021
3412 Clear 11 1021 32 10000 2.57 120 12:25 23.01.2021
3413 Clear 10 1023 29 10000 2.57 130 11:44 23.01.2021
3414 Clear 10 1023 29 10000 2.57 130 11:18 23.01.2021
3415 Clear 9 1023 27 10000 2.57 90 10:27 23.01.2021
3416 Clear 7 1024 26 10000 3.6 110 09:54 23.01.2021
3417 Clear 7 1024 26 10000 3.6 110 09:29 23.01.2021
3418 Clear 5 1024 38 10000 1.03 130 08:44 23.01.2021
3419 Clouds 3 1024 44 8000 0.51 110 07:50 23.01.2021
3420 Clouds 2 1024 44 8000 0.51 110 06:59 23.01.2021
3421 Clear 4 1023 33 10000 4.81 114 03:34 23.01.2021
3422 Clear 4 1024 33 10000 4.59 111 00:34 23.01.2021
3423 Clear 4 1024 36 10000 4.39 106 23:36 22.01.2021
3424 Clear 5 1025 33 10000 4.21 113 22:45 22.01.2021
3425 Clear 5 1025 33 10000 4.63 113 22:22 22.01.2021
3426 Clear 6 1025 31 10000 4.63 113 21:45 22.01.2021
3427 Clear 6 1025 31 10000 4.63 113 21:45 22.01.2021
3428 Clear 6 1025 31 10000 4.67 107 21:25 22.01.2021
3429 Clear 6 1025 33 10000 4.67 107 20:54 22.01.2021
3430 Clear 6 1025 33 10000 4.67 107 20:32 22.01.2021
3431 Clear 6 1025 33 10000 4.57 108 19:48 22.01.2021
3432 Clear 6 1025 33 10000 4.57 100 19:21 22.01.2021
3433 Clear 7 1025 34 10000 4.57 100 18:50 22.01.2021
3434 Clear 7 1025 34 10000 3.79 107 18:27 22.01.2021
3435 Clear 7 1025 31 10000 3.79 107 17:58 22.01.2021
3436 Clear 7 1025 31 10000 3.79 107 17:39 22.01.2021
3437 Clear 8 1025 31 8000 4.12 120 16:59 22.01.2021
3438 Clear 8 1025 31 8000 4.12 120 16:36 22.01.2021
3439 Clear 10 1025 34 10000 4.12 120 15:55 22.01.2021
3440 Clear 10 1025 34 10000 4.12 120 15:26 22.01.2021
3441 Clear 10 1025 32 10000 5.14 120 14:50 22.01.2021
3442 Clear 10 1025 32 10000 5.14 120 14:28 22.01.2021
3443 Clear 10 1025 32 10000 5.14 120 13:46 22.01.2021
3444 Clear 10 1025 32 10000 5.14 120 13:27 22.01.2021
3445 Clear 9 1026 37 10000 5.14 110 12:44 22.01.2021
3446 Clear 9 1026 37 10000 5.14 110 12:20 22.01.2021
3447 Clear 8 1028 39 10000 5.14 110 11:45 22.01.2021
3448 Clear 7 1028 42 10000 5.14 110 10:51 22.01.2021
3449 Clear 7 1028 42 10000 5.14 110 10:29 22.01.2021
3450 Clear 7 1029 49 10000 3.6 100 09:55 22.01.2021
3451 Clear 7 1029 49 10000 3.6 100 09:55 22.01.2021
3452 Clear 7 1029 49 10000 3.6 100 09:21 22.01.2021
3453 Clear 4 1029 56 10000 3.6 100 08:50 22.01.2021
3454 Clear 4 1029 56 10000 3.6 100 08:25 22.01.2021
3455 Clear 3 1029 60 10000 2.57 100 07:23 22.01.2021
3456 Clear 2 1029 93 6000 4.34 101 02:46 22.01.2021
3457 Clear 2 1029 93 6000 4.04 109 00:38 22.01.2021
3458 Clear 3 1029 87 7000 3.91 111 23:51 21.01.2021
3459 Clear 3 1029 87 7000 3.25 111 23:29 21.01.2021
3460 Clear 3 1029 87 7000 3.25 111 22:50 21.01.2021
3461 Clear 3 1029 87 7000 3.01 111 22:24 21.01.2021
3462 Clear 4 1029 81 7000 3.01 111 21:43 21.01.2021
3463 Clear 4 1029 81 7000 3.01 111 21:43 21.01.2021
3464 Clear 4 1029 81 7000 2.83 114 21:20 21.01.2021
3465 Clear 5 1029 75 7000 1.54 100 20:48 21.01.2021
3466 Clear 5 1029 75 7000 1.54 100 20:29 21.01.2021
3467 Clear 5 1029 75 7000 1.03 90 19:52 21.01.2021
3468 Clear 5 1029 75 7000 1.03 90 19:30 21.01.2021
3469 Clear 5 1029 75 7000 1.03 90 19:30 21.01.2021
3470 Clear 7 1029 61 7000 2.52 128 18:59 21.01.2021
3471 Clear 7 1029 61 7000 2.52 128 18:39 21.01.2021
3472 Clear 7 1029 61 7000 3.18 124 18:20 21.01.2021
3473 Clear 8 1030 61 8000 3.18 124 17:51 21.01.2021
3474 Clear 8 1030 61 8000 3.36 117 17:20 21.01.2021
3475 Clear 8 1029 61 10000 1.03 50 16:49 21.01.2021
3476 Clear 8 1029 61 10000 1.03 50 16:27 21.01.2021
3477 Clear 10 1029 57 10000 1.03 0 15:59 21.01.2021
3478 Clear 10 1029 57 10000 1.03 0 15:34 21.01.2021
3479 Clear 11 1028 50 10000 3.09 360 14:54 21.01.2021
3480 Clear 11 1028 50 10000 3.09 360 14:35 21.01.2021
3481 Clear 10 1029 53 10000 1.03 340 13:52 21.01.2021
3482 Clear 10 1029 53 10000 1.03 340 13:33 21.01.2021
3483 Clear 10 1029 49 10000 1.54 10 12:58 21.01.2021
3484 Clear 10 1029 49 10000 1.54 10 12:39 21.01.2021
3485 Clear 10 1029 49 10000 1.54 10 12:20 21.01.2021
3486 Clear 9 1029 49 10000 2.06 330 11:48 21.01.2021
3487 Clear 9 1029 49 10000 2.06 330 11:25 21.01.2021
3488 Clear 8 1030 53 10000 2.57 250 10:51 21.01.2021
3489 Clear 8 1030 53 10000 2.57 250 10:30 21.01.2021
3490 Clear 7 1030 49 10000 1.03 270 09:44 21.01.2021
3491 Clear 7 1030 49 10000 1.03 270 09:25 21.01.2021
3492 Clear 5 1029 70 10000 1.54 230 08:45 21.01.2021
3493 Clear 5 1029 70 10000 1.54 230 08:24 21.01.2021
3494 Clear 3 1028 75 10000 1.37 341 07:28 21.01.2021
3495 Clear 2 1027 81 10000 1.37 341 06:54 21.01.2021
3496 Clear 2 1027 81 10000 3.88 296 05:21 21.01.2021
3497 Clouds 3 1026 75 10000 1.54 260 02:31 21.01.2021
3498 Clouds 4 1026 81 10000 1.54 250 00:54 21.01.2021
3499 Clouds 4 1025 81 10000 1.54 270 23:54 20.01.2021
3500 Clouds 4 1025 81 10000 1.54 270 23:32 20.01.2021
3501 Clouds 4 1025 81 10000 3.09 230 22:58 20.01.2021
3502 Clouds 4 1025 81 10000 3.09 230 22:37 20.01.2021
3503 Clouds 5 1025 81 10000 3.09 230 21:59 20.01.2021
3504 Clouds 5 1025 81 10000 3.09 230 21:41 20.01.2021
3505 Clouds 5 1025 81 10000 3.09 230 21:41 20.01.2021
3506 Clouds 5 1025 81 10000 3.09 230 21:20 20.01.2021
3507 Clouds 5 1024 81 10000 5.14 270 20:49 20.01.2021
3508 Clouds 5 1024 81 10000 5.14 270 20:18 20.01.2021
3509 Clouds 5 1024 81 10000 3.09 250 19:43 20.01.2021
3510 Clouds 5 1024 81 10000 3.09 250 19:43 20.01.2021
3511 Clouds 5 1024 81 10000 3.09 250 19:24 20.01.2021
3512 Clouds 5 1023 81 10000 2.57 250 18:42 20.01.2021
3513 Clouds 5 1023 81 10000 2.57 250 18:18 20.01.2021
3514 Rain 5 1023 93 6000 1.54 280 17:40 20.01.2021
3515 Rain 5 1023 93 6000 1.54 280 17:19 20.01.2021
3516 Clouds 5 1022 81 6000 3.09 270 16:41 20.01.2021
3517 Rain 5 1021 87 3000 6.17 240 15:55 20.01.2021
3518 Rain 5 1021 87 3000 6.17 240 15:36 20.01.2021
3519 Clouds 6 1020 81 5000 7.2 240 14:51 20.01.2021
3520 Clouds 6 1020 81 5000 7.2 240 14:28 20.01.2021
3521 Clouds 6 1019 81 6000 4.63 260 13:59 20.01.2021
3522 Clouds 5 1019 81 6000 4.63 260 13:36 20.01.2021
3523 Rain 5 1019 87 4000 5.14 250 12:48 20.01.2021
3524 Rain 5 1019 87 4000 5.14 250 12:22 20.01.2021
3525 Rain 5 1019 93 2500 5.14 230 11:39 20.01.2021
3526 Rain 5 1019 93 2500 5.14 230 11:18 20.01.2021
3527 Rain 5 1019 93 2500 5.14 230 10:44 20.01.2021
3528 Rain 5 1019 93 2500 5.14 230 10:18 20.01.2021
3529 Rain 5 1019 93 5000 4.63 230 09:31 20.01.2021
3530 Rain 5 1018 93 2500 5.14 240 08:59 20.01.2021
3531 Rain 5 1018 93 2500 5.14 240 08:41 20.01.2021
3532 Rain 4 1018 100 5000 5.14 240 08:20 20.01.2021
3533 Rain 5 1017 87 4000 5.66 240 07:37 20.01.2021
3534 Rain 6 1017 93 3000 5.14 240 06:59 20.01.2021
3535 Rain 7 1016 87 4000 3.09 240 03:37 20.01.2021
3536 Rain 7 1017 87 4000 3.09 230 01:51 20.01.2021
3537 Rain 7 1017 93 4000 3.09 260 00:52 20.01.2021
3538 Rain 7 1017 93 4000 3.09 260 23:51 19.01.2021
3539 Rain 7 1017 93 4000 3.09 260 23:32 19.01.2021
3540 Rain 7 1017 93 4000 3.09 260 22:58 19.01.2021
3541 Rain 7 1017 93 4000 2.06 260 22:39 19.01.2021
3542 Rain 7 1017 93 4000 2.06 260 22:21 19.01.2021
3543 Rain 7 1017 93 4000 2.06 260 21:54 19.01.2021
3544 Drizzle 7 1017 93 3000 3.09 230 21:34 19.01.2021
3545 Rain 8 1017 87 4000 4.12 250 20:49 19.01.2021
3546 Rain 8 1017 87 4000 4.12 250 20:28 19.01.2021
3547 Rain 8 1017 87 4000 2.06 250 19:56 19.01.2021
3548 Rain 8 1017 87 4000 2.06 250 19:36 19.01.2021
3549 Rain 8 1017 87 4000 2.06 250 19:18 19.01.2021
3550 Rain 8 1017 87 5000 4.12 280 18:38 19.01.2021
3551 Drizzle 8 1017 87 5000 4.12 280 18:20 19.01.2021
3552 Rain 8 1017 87 5000 4.12 280 18:20 19.01.2021
3553 Rain 10 1015 81 6000 11.32 260 17:42 19.01.2021
3554 Rain 10 1015 81 6000 11.32 260 17:20 19.01.2021
3555 Rain 10 1014 71 4000 7.72 230 16:40 19.01.2021
3556 Rain 10 1014 71 4000 7.72 230 16:20 19.01.2021
3557 Clouds 11 1015 62 6000 8.23 240 15:51 19.01.2021
3558 Clouds 11 1015 62 6000 8.23 240 15:32 19.01.2021
3559 Clouds 11 1015 62 6000 9.26 250 14:47 19.01.2021
3560 Clouds 11 1015 62 6000 9.26 250 14:26 19.01.2021
3561 Clouds 11 1015 58 6000 6.17 250 13:52 19.01.2021
3562 Clouds 11 1015 58 6000 6.17 250 13:24 19.01.2021
3563 Clouds 11 1015 58 7000 7.2 240 12:51 19.01.2021
3564 Clouds 11 1015 58 7000 7.2 240 12:30 19.01.2021
3565 Clear 10 1016 66 10000 4.63 230 11:52 19.01.2021
3566 Clear 10 1016 66 10000 4.63 230 11:30 19.01.2021
3567 Clear 9 1017 61 10000 3.6 230 10:59 19.01.2021
3568 Clear 9 1017 61 10000 3.6 230 10:40 19.01.2021
3569 Clear 9 1017 61 10000 3.6 230 10:18 19.01.2021
3570 Clear 9 1017 61 10000 7.2 230 09:46 19.01.2021
3571 Clear 9 1017 61 10000 7.2 230 09:46 19.01.2021
3572 Clear 9 1017 61 10000 7.2 230 09:19 19.01.2021
3573 Clear 8 1018 61 10000 4.12 220 08:33 19.01.2021
3574 Clear 6 1017 65 10000 3.09 230 07:53 19.01.2021
3575 Clear 5 1018 70 10000 2.57 210 06:59 19.01.2021
3576 Clear 5 1018 70 10000 3.6 220 04:18 19.01.2021
3577 Clouds 5 1018 81 10000 3.09 240 02:22 19.01.2021
3578 Clouds 6 1019 87 10000 3.09 240 00:37 19.01.2021
3579 Clear 6 1019 81 10000 3.62 226 23:55 18.01.2021
3580 Clear 6 1019 81 10000 3.5 233 23:27 18.01.2021
3581 Clear 6 1019 81 10000 3.5 233 22:44 18.01.2021
3582 Clear 6 1019 81 10000 3.71 241 22:22 18.01.2021
3583 Clear 7 1019 93 8000 3.71 241 21:47 18.01.2021
3584 Clear 7 1019 93 8000 3.79 244 21:23 18.01.2021
3585 Clear 7 1019 93 8000 3.79 244 20:57 18.01.2021
3586 Clouds 8 1019 81 6000 2.06 240 20:34 18.01.2021
3587 Clouds 8 1019 81 6000 2.06 240 19:54 18.01.2021
3588 Clouds 8 1019 87 6000 2.06 240 19:35 18.01.2021
3589 Clouds 8 1019 87 6000 2.06 250 18:51 18.01.2021
3590 Clouds 8 1019 87 6000 2.06 250 18:32 18.01.2021
3591 Clouds 8 1019 87 6000 3.09 240 17:50 18.01.2021
3592 Clouds 8 1019 87 6000 3.09 240 17:31 18.01.2021
3593 Clouds 8 1019 87 6000 3.09 240 16:54 18.01.2021
3594 Clouds 8 1019 93 6000 2.57 240 16:33 18.01.2021
3595 Rain 8 1019 87 5000 2.06 190 15:56 18.01.2021
3596 Rain 8 1019 87 5000 2.06 190 15:37 18.01.2021
3597 Rain 8 1019 87 5000 2.06 190 15:19 18.01.2021
3598 Mist 9 1018 87 5000 4.12 210 14:42 18.01.2021
3599 Mist 9 1018 87 5000 4.12 210 14:23 18.01.2021
3600 Rain 8 1018 93 3000 3.6 240 13:45 18.01.2021
3601 Rain 8 1018 93 3000 3.6 240 13:22 18.01.2021
3602 Rain 8 1018 93 2500 4.63 240 12:47 18.01.2021
3603 Rain 8 1018 93 2500 4.63 240 12:19 18.01.2021
3604 Rain 8 1019 93 1000 3.6 240 11:48 18.01.2021
3605 Rain 8 1019 93 1000 3.6 240 11:27 18.01.2021
3606 Rain 8 1019 93 1000 3.6 240 10:53 18.01.2021
3607 Rain 7 1019 100 1000 2.06 240 10:34 18.01.2021
3608 Rain 7 1019 100 2000 3.09 240 09:43 18.01.2021
3609 Drizzle 7 1019 100 2000 3.09 240 09:19 18.01.2021
3610 Rain 7 1019 93 2000 4.12 240 08:43 18.01.2021
3611 Drizzle 7 1017 87 6000 4.12 230 07:55 18.01.2021
3612 Rain 7 1016 87 7000 5.66 240 06:56 18.01.2021
3613 Rain 7 1015 93 6000 5.14 240 04:57 18.01.2021
3614 Rain 7 1015 93 6000 5.14 240 04:30 18.01.2021
3615 Rain 7 1014 87 7000 5.14 250 03:57 18.01.2021
3616 Rain 7 1014 87 7000 5.14 250 03:38 18.01.2021
3617 Rain 7 1014 87 7000 5.14 250 03:18 18.01.2021
3618 Rain 7 1014 87 5000 7.2 240 02:37 18.01.2021
3619 Rain 7 1014 87 5000 6.69 240 00:43 18.01.2021
3620 Rain 7 1014 87 5000 6.69 240 00:23 18.01.2021
3621 Rain 7 1014 87 4000 7.2 240 23:44 17.01.2021
3622 Rain 7 1014 87 4000 7.2 240 23:20 17.01.2021
3623 Rain 6 1014 93 6000 6.17 240 22:39 17.01.2021
3624 Rain 6 1014 93 6000 6.17 240 22:19 17.01.2021
3625 Rain 8 1014 87 4000 8.75 260 21:39 17.01.2021
3626 Rain 8 1014 87 4000 8.75 260 21:21 17.01.2021
3627 Rain 10 1014 76 6000 8.75 250 20:48 17.01.2021
3628 Rain 10 1014 76 6000 8.75 250 20:27 17.01.2021
3629 Clouds 10 1012 53 8000 10.29 250 19:42 17.01.2021
3630 Clouds 10 1012 53 8000 10.29 250 19:22 17.01.2021
3631 Rain 10 1012 76 5000 7.72 260 18:43 17.01.2021
3632 Rain 10 1012 76 5000 7.72 260 18:23 17.01.2021
3633 Rain 11 1012 43 4000 12.86 250 17:48 17.01.2021
3634 Rain 11 1012 43 4000 12.86 250 17:26 17.01.2021
3635 Clouds 11 1011 40 5000 12.86 250 16:44 17.01.2021
3636 Clouds 11 1011 40 5000 12.86 250 16:21 17.01.2021
3637 Dust 12 1010 47 5000 10.29 250 15:43 17.01.2021
3638 Dust 12 1010 47 5000 10.29 250 15:24 17.01.2021
3639 Clouds 12 1010 47 5000 11.32 250 14:49 17.01.2021
3640 Clouds 12 1010 47 5000 11.32 250 14:26 17.01.2021
3641 Clouds 12 1010 47 6000 8.75 240 13:46 17.01.2021
3642 Clouds 12 1010 47 6000 8.75 240 13:27 17.01.2021
3643 Clouds 12 1010 50 7000 10.29 240 12:54 17.01.2021
3644 Clouds 12 1010 50 7000 10.29 240 12:31 17.01.2021
3645 Clouds 12 1011 50 7000 7.2 230 11:59 17.01.2021
3646 Clouds 12 1011 50 7000 7.2 230 11:24 17.01.2021
3647 Clouds 11 1012 76 6000 6.69 230 10:49 17.01.2021
3648 Clouds 11 1012 76 6000 6.69 230 10:21 17.01.2021
3649 Clouds 11 1013 62 8000 6.17 230 09:44 17.01.2021
3650 Clear 10 1013 61 8000 6.17 230 08:46 17.01.2021
3651 Clouds 8 1013 71 8000 5.14 240 07:46 17.01.2021
3652 Clouds 8 1012 61 6000 5.14 230 04:29 17.01.2021
3653 Haze 9 1012 66 5000 3.09 230 02:48 17.01.2021
3654 Haze 7 1013 66 5000 4.12 220 00:52 17.01.2021
3655 Haze 7 1013 66 5000 4.12 220 00:20 17.01.2021
3656 Haze 7 1013 66 5000 2.57 230 23:52 16.01.2021
3657 Haze 7 1013 66 5000 2.57 230 23:20 16.01.2021
3658 Haze 7 1013 61 5000 5.14 230 22:49 16.01.2021
3659 Haze 7 1013 61 5000 5.14 230 22:18 16.01.2021
3660 Haze 6 1014 76 5000 2.92 258 21:43 16.01.2021
3661 Haze 6 1014 76 5000 3.03 279 21:22 16.01.2021
3662 Haze 7 1014 76 5000 3.03 279 20:47 16.01.2021
3663 Haze 7 1014 76 5000 3.02 286 20:23 16.01.2021
3664 Clear 7 1013 76 8000 2.06 240 19:48 16.01.2021
3665 Clear 7 1013 76 8000 2.06 240 19:29 16.01.2021
3666 Haze 8 1013 71 5000 2.06 240 18:46 16.01.2021
3667 Haze 8 1013 71 5000 2.06 240 18:27 16.01.2021
3668 Haze 10 1013 66 5000 4.63 250 17:50 16.01.2021
3669 Haze 10 1013 66 5000 4.63 250 17:30 16.01.2021
3670 Haze 10 1013 76 5000 4.12 240 16:51 16.01.2021
3671 Haze 10 1013 76 5000 4.12 240 16:33 16.01.2021
3672 Haze 11 1013 76 5000 4.12 240 15:56 16.01.2021
3673 Haze 12 1013 58 5000 5.14 240 15:37 16.01.2021
3674 Clouds 12 1012 58 6000 5.14 250 14:31 16.01.2021
3675 Clouds 12 1012 58 6000 1.54 250 13:52 16.01.2021
3676 Clouds 12 1012 58 6000 1.54 250 13:31 16.01.2021
3677 Haze 12 1012 58 5000 3.6 240 12:48 16.01.2021
3678 Haze 12 1012 58 5000 3.6 240 12:27 16.01.2021
3679 Haze 12 1013 62 4000 3.09 240 11:55 16.01.2021
3680 Haze 12 1013 62 4000 3.09 240 11:27 16.01.2021
3681 Haze 12 1013 62 4000 3.09 240 10:59 16.01.2021
3682 Haze 12 1014 76 3000 0.51 0 10:41 16.01.2021
3683 Haze 10 1015 76 4000 1.54 230 09:54 16.01.2021
3684 Haze 9 1015 76 4000 1.54 230 09:20 16.01.2021
3685 Mist 6 1015 100 4000 1.19 130 08:19 16.01.2021
3686 Mist 4 1014 93 5000 0.73 152 06:52 16.01.2021
3687 Mist 4 1015 93 5000 1.13 160 05:32 16.01.2021
3688 Mist 5 1015 93 4000 1.64 140 03:38 16.01.2021
3689 Mist 5 1015 93 4000 1.83 134 02:47 16.01.2021
3690 Mist 6 1016 93 4000 0.68 120 00:47 16.01.2021
3691 Mist 6 1016 93 4000 0.44 120 00:23 16.01.2021
3692 Mist 7 1016 93 3000 0.44 120 23:39 15.01.2021
3693 Mist 7 1017 93 3000 0.4 215 22:42 15.01.2021
3694 Mist 7 1017 93 3000 0.62 239 22:21 15.01.2021
3695 Mist 7 1017 100 3000 0.62 239 21:44 15.01.2021
3696 Mist 8 1017 93 5000 1.89 312 20:49 15.01.2021
3697 Mist 8 1017 93 5000 3.14 312 20:24 15.01.2021
3698 Clear 9 1017 81 6000 1.54 230 19:58 15.01.2021
3699 Clear 9 1017 81 6000 1.54 230 19:39 15.01.2021
3700 Clouds 9 1017 81 6000 1.54 230 19:21 15.01.2021
3701 Clouds 9 1018 81 6000 1.54 240 18:42 15.01.2021
3702 Clouds 9 1018 81 6000 1.54 240 18:18 15.01.2021
3703 Clouds 10 1018 81 6000 1.54 240 17:42 15.01.2021
3704 Clouds 10 1018 81 6000 1.54 240 17:22 15.01.2021
3705 Haze 10 1017 81 5000 1.54 250 16:49 15.01.2021
3706 Haze 10 1017 81 5000 1.54 250 16:24 15.01.2021
3707 Clouds 10 1017 87 6000 2.57 250 15:41 15.01.2021
3708 Clouds 10 1017 87 6000 2.57 250 15:22 15.01.2021
3709 Clouds 10 1017 87 6000 3.09 240 14:50 15.01.2021
3710 Clouds 10 1017 87 6000 3.09 240 14:27 15.01.2021
3711 Drizzle 10 1017 93 5000 5.14 250 13:44 15.01.2021
3712 Drizzle 10 1017 93 5000 5.14 250 13:23 15.01.2021
3713 Drizzle 10 1018 87 5000 5.14 250 12:59 15.01.2021
3714 Drizzle 10 1018 87 5000 5.14 250 12:36 15.01.2021
3715 Drizzle 10 1018 87 5000 5.14 250 12:18 15.01.2021
3716 Drizzle 10 1018 81 5000 4.12 250 11:41 15.01.2021
3717 Drizzle 9 1018 93 5000 5.14 250 10:58 15.01.2021
3718 Drizzle 9 1018 93 5000 5.14 250 10:39 15.01.2021
3719 Drizzle 9 1018 93 5000 5.14 250 10:19 15.01.2021
3720 Drizzle 10 1018 87 5000 4.12 250 09:47 15.01.2021
3721 Drizzle 10 1018 87 5000 4.12 250 09:27 15.01.2021
3722 Drizzle 9 1016 93 5000 4.12 250 08:27 15.01.2021
3723 Drizzle 9 1016 93 4000 3.6 240 07:42 15.01.2021
3724 Drizzle 9 1016 93 4000 3.6 240 07:21 15.01.2021
3725 Rain 8 1015 93 4000 5.14 260 05:56 15.01.2021
3726 Clouds 9 1013 87 6000 7.2 260 02:26 15.01.2021
3727 Mist 9 1013 87 5000 7.2 240 00:37 15.01.2021
3728 Rain 9 1012 87 6000 7.72 240 23:30 14.01.2021
3729 Rain 8 1012 93 4000 3.6 250 22:52 14.01.2021
3730 Rain 8 1012 93 4000 3.6 250 22:28 14.01.2021
3731 Rain 8 1012 93 4000 3.6 250 21:58 14.01.2021
3732 Rain 8 1012 87 6000 4.12 240 21:39 14.01.2021
3733 Rain 8 1012 87 6000 4.12 240 21:20 14.01.2021
3734 Rain 8 1012 87 6000 4.63 250 20:43 14.01.2021
3735 Rain 8 1012 87 4000 6.69 240 19:59 14.01.2021
3736 Rain 8 1012 87 4000 6.69 240 19:36 14.01.2021
3737 Rain 8 1012 87 4000 6.69 240 19:18 14.01.2021
3738 Rain 9 1012 93 4000 4.12 270 18:42 14.01.2021
3739 Rain 10 1011 62 4000 8.75 240 17:59 14.01.2021
3740 Rain 10 1011 62 4000 8.75 240 17:59 14.01.2021
3741 Rain 11 1011 58 7000 5.14 240 17:33 14.01.2021
3742 Clouds 11 1010 50 8000 7.72 230 16:56 14.01.2021
3743 Clouds 11 1010 50 8000 7.72 230 16:35 14.01.2021
3744 Clouds 12 1010 50 8000 7.72 230 15:55 14.01.2021
3745 Clouds 12 1009 54 8000 6.69 240 15:34 14.01.2021
3746 Clouds 13 1009 50 10000 9.26 240 14:49 14.01.2021
3747 Clouds 13 1009 50 10000 9.26 240 14:31 14.01.2021
3748 Clouds 13 1009 50 7000 10.29 230 13:57 14.01.2021
3749 Clouds 13 1009 50 7000 10.29 230 13:26 14.01.2021
3750 Clouds 13 1009 47 7000 9.26 240 12:59 14.01.2021
3751 Clouds 13 1009 47 7000 9.26 240 12:38 14.01.2021
3752 Clouds 13 1009 47 7000 9.26 240 12:18 14.01.2021
3753 Clouds 12 1009 54 7000 9.26 250 11:41 14.01.2021
3754 Clouds 12 1009 54 7000 9.26 250 11:20 14.01.2021
3755 Clouds 12 1010 58 10000 7.2 230 10:47 14.01.2021
3756 Clouds 12 1010 58 10000 7.2 230 10:22 14.01.2021
3757 Clouds 12 1011 66 7000 5.66 240 09:44 14.01.2021
3758 Clouds 12 1011 66 7000 5.66 240 09:22 14.01.2021
3759 Clouds 11 1011 82 7000 6.17 230 08:43 14.01.2021
3760 Clouds 11 1011 82 7000 6.17 230 08:22 14.01.2021
3761 Clouds 11 1011 87 6000 4.63 230 07:45 14.01.2021
3762 Mist 10 1011 87 5000 5.14 240 06:46 14.01.2021
3763 Mist 11 1011 87 5000 5.14 240 05:45 14.01.2021
3764 Rain 14 1011 67 3500 3.09 250 00:44 14.01.2021
3765 Haze 14 1012 62 5000 4.12 250 23:51 13.01.2021
3766 Haze 14 1012 62 5000 4.12 250 23:22 13.01.2021
3767 Dust 14 1012 62 5000 5.66 240 22:28 13.01.2021
3768 Dust 15 1012 44 5000 8.23 230 21:57 13.01.2021
3769 Dust 15 1012 44 5000 8.23 230 21:38 13.01.2021
3770 Dust 15 1012 44 5000 8.23 230 20:59 13.01.2021
3771 Haze 16 1012 39 5000 4.63 200 20:33 13.01.2021
3772 Haze 16 1012 39 5000 4.63 200 19:58 13.01.2021
3773 Haze 16 1012 36 5000 3.09 240 19:39 13.01.2021
3774 Haze 16 1012 36 5000 3.09 240 19:19 13.01.2021
3775 Haze 17 1012 42 5000 4.63 180 18:40 13.01.2021
3776 Haze 17 1013 42 5000 3.09 230 17:51 13.01.2021
3777 Haze 17 1013 42 5000 3.09 230 17:25 13.01.2021
3778 Haze 17 1013 39 5000 2.57 200 16:51 13.01.2021
3779 Haze 17 1013 39 5000 2.57 200 16:22 13.01.2021
3780 Haze 18 1013 39 5000 3.6 220 15:56 13.01.2021
3781 Haze 18 1013 39 5000 3.6 220 15:38 13.01.2021
3782 Haze 19 1014 30 5000 3.6 240 14:49 13.01.2021
3783 Haze 19 1014 30 5000 3.09 210 13:55 13.01.2021
3784 Haze 19 1014 30 5000 3.09 210 13:32 13.01.2021
3785 Haze 19 1014 30 5000 4.12 200 12:59 13.01.2021
3786 Haze 19 1014 30 5000 4.12 200 12:39 13.01.2021
3787 Haze 19 1014 30 5000 4.12 200 12:19 13.01.2021
3788 Haze 18 1016 34 5000 3.09 210 11:45 13.01.2021
3789 Haze 18 1016 34 5000 3.09 210 11:22 13.01.2021
3790 Dust 17 1017 39 4000 1.03 240 10:42 13.01.2021
3791 Dust 17 1017 39 4000 1.03 240 10:24 13.01.2021
3792 Haze 15 1018 41 4000 0.51 0 09:37 13.01.2021
3793 Haze 14 1019 44 4000 0.51 260 08:57 13.01.2021
3794 Haze 13 1019 44 4000 0.51 260 08:33 13.01.2021
3795 Haze 13 1019 44 4000 0.51 260 08:33 13.01.2021
3796 Haze 10 1019 50 4000 2.06 260 07:53 13.01.2021
3797 Haze 10 1019 50 4000 2.06 260 07:24 13.01.2021
3798 Haze 11 1019 50 5000 2.57 150 04:21 13.01.2021
3799 Haze 11 1019 50 5000 2.57 150 03:52 13.01.2021
3800 Haze 11 1019 50 5000 2.57 150 03:31 13.01.2021
3801 Haze 11 1020 54 5000 5.66 140 02:46 13.01.2021
3802 Haze 12 1020 50 5000 6.17 140 00:38 13.01.2021
3803 Haze 13 1021 47 5000 5.66 170 23:33 12.01.2021
3804 Haze 13 1021 47 5000 5.66 170 22:47 12.01.2021
3805 Haze 13 1021 47 5000 5.66 170 22:25 12.01.2021
3806 Haze 13 1021 47 5000 5.66 170 21:58 12.01.2021
3807 Haze 13 1022 54 5000 1.54 170 21:40 12.01.2021
3808 Haze 13 1022 54 5000 1.54 170 21:20 12.01.2021
3809 Clouds 14 1022 51 6000 4.73 120 20:44 12.01.2021
3810 Clouds 14 1022 51 6000 4.35 119 20:25 12.01.2021
3811 Clouds 14 1022 51 6000 4.35 119 19:39 12.01.2021
3812 Haze 15 1022 36 5000 2.06 150 18:54 12.01.2021
3813 Haze 15 1022 36 5000 2.06 150 18:25 12.01.2021
3814 Haze 17 1022 34 5000 2.06 150 17:57 12.01.2021
3815 Haze 17 1022 34 5000 2.06 150 17:33 12.01.2021
3816 Haze 19 1022 34 5000 2.06 150 16:46 12.01.2021
3817 Haze 19 1022 34 5000 2.06 150 16:27 12.01.2021
3818 Haze 21 1022 30 5000 2.57 130 15:54 12.01.2021
3819 Haze 21 1022 30 5000 2.57 130 15:27 12.01.2021
3820 Haze 21 1023 30 5000 2.57 110 14:57 12.01.2021
3821 Haze 21 1023 30 5000 2.57 110 14:38 12.01.2021
3822 Haze 21 1023 30 5000 2.57 110 14:18 12.01.2021
3823 Haze 21 1023 30 5000 2.57 110 13:45 12.01.2021
3824 Haze 20 1024 40 5000 3.09 110 12:39 12.01.2021
3825 Haze 20 1025 37 5000 2.06 150 11:55 12.01.2021
3826 Haze 20 1025 37 5000 2.06 150 11:36 12.01.2021
3827 Haze 18 1026 45 5000 3.09 150 10:45 12.01.2021
3828 Haze 18 1026 45 5000 3.09 150 10:20 12.01.2021
3829 Haze 17 1027 48 5000 3.6 100 09:55 12.01.2021
3830 Haze 17 1027 48 5000 3.6 100 09:24 12.01.2021
3831 Smoke 14 1026 55 5000 2.06 130 08:42 12.01.2021
3832 Smoke 14 1026 55 5000 2.06 130 08:21 12.01.2021
3833 Clear 11 1026 58 8000 2.06 120 07:34 12.01.2021
3834 Clouds 9 1026 43 8000 3.65 119 06:20 12.01.2021
3835 Clear 9 1026 46 10000 3.65 119 05:30 12.01.2021
3836 Clear 10 1026 37 10000 2.71 120 03:26 12.01.2021
3837 Clear 10 1026 37 10000 2.71 124 02:18 12.01.2021
3838 Clear 12 1026 35 10000 2.49 128 01:27 12.01.2021
3839 Clear 11 1026 44 10000 2.68 127 23:46 11.01.2021
3840 Clear 11 1026 44 10000 2.37 126 23:23 11.01.2021
3841 Clear 11 1026 44 10000 2.37 126 22:58 11.01.2021
3842 Clear 11 1027 44 10000 1.03 110 22:39 11.01.2021
3843 Clear 11 1027 44 10000 1.03 110 22:18 11.01.2021
3844 Clear 14 1027 35 10000 3.09 140 21:37 11.01.2021
3845 Clear 13 1027 35 10000 3.09 140 21:18 11.01.2021
3846 Clear 13 1027 41 10000 2.57 110 20:41 11.01.2021
3847 Clear 13 1027 41 10000 2.57 110 20:23 11.01.2021
3848 Clear 13 1027 44 10000 3.6 110 19:55 11.01.2021
3849 Clear 14 1027 44 10000 3.6 110 19:25 11.01.2021
3850 Clear 14 1027 41 10000 2.57 100 18:45 11.01.2021
3851 Clear 14 1027 41 10000 2.57 100 18:25 11.01.2021
3852 Clear 14 1026 47 10000 1.54 90 17:54 11.01.2021
3853 Clear 15 1026 47 10000 1.54 90 17:36 11.01.2021
3854 Clear 15 1026 47 10000 1.54 90 17:18 11.01.2021
3855 Clear 17 1025 36 10000 1.54 100 16:38 11.01.2021
3856 Clear 17 1025 36 10000 1.54 100 16:19 11.01.2021
3857 Clear 19 1025 32 10000 1.54 110 15:47 11.01.2021
3858 Clear 19 1025 32 10000 1.54 110 15:26 11.01.2021
3859 Clear 20 1025 28 10000 2.57 100 14:39 11.01.2021
3860 Haze 20 1025 30 5000 1.54 110 13:50 11.01.2021
3861 Haze 20 1025 30 5000 1.54 110 13:26 11.01.2021
3862 Haze 19 1025 36 5000 1.54 100 12:52 11.01.2021
3863 Haze 19 1025 36 5000 1.54 100 12:32 11.01.2021
3864 Dust 18 1026 41 5000 2.06 30 11:56 11.01.2021
3865 Dust 18 1026 41 5000 2.06 30 11:36 11.01.2021
3866 Dust 17 1027 41 4000 1.54 40 10:53 11.01.2021
3867 Dust 17 1027 41 4000 1.54 40 10:26 11.01.2021
3868 Smoke 14 1027 41 4000 1.54 30 09:45 11.01.2021
3869 Smoke 14 1027 41 4000 1.54 30 09:23 11.01.2021
3870 Smoke 11 1027 46 4000 3.12 124 08:46 11.01.2021
3871 Smoke 11 1027 46 4000 3.25 118 08:19 11.01.2021
3872 Smoke 9 1025 66 4000 3.25 118 07:30 11.01.2021
3873 Clear 7 1025 61 6000 2.82 110 06:59 11.01.2021
3874 Clear 7 1025 61 6000 2.31 113 06:26 11.01.2021
3875 Clear 7 1025 61 6000 3.2 118 01:53 11.01.2021
3876 Clear 10 1025 53 6000 3.14 116 00:40 11.01.2021
3877 Clear 9 1025 57 6000 2.61 106 23:45 10.01.2021
3878 Clear 9 1025 54 6000 2.31 102 22:49 10.01.2021
3879 Clear 9 1025 54 6000 2.25 101 22:28 10.01.2021
3880 Clear 9 1025 58 6000 2.25 101 21:56 10.01.2021
3881 Clear 11 1025 58 6000 2.25 101 21:36 10.01.2021
3882 Clear 11 1025 58 6000 1.99 104 21:18 10.01.2021
3883 Clear 12 1025 50 6000 1.99 104 20:39 10.01.2021
3884 Clear 12 1025 50 6000 1.12 120 20:21 10.01.2021
3885 Clear 12 1025 54 6000 1.12 120 19:38 10.01.2021
3886 Clear 12 1025 54 6000 0.84 138 19:20 10.01.2021
3887 Haze 14 1024 47 5000 0.67 167 18:43 10.01.2021
3888 Haze 14 1024 47 5000 0.77 175 18:20 10.01.2021
3889 Haze 15 1023 44 5000 1.54 120 17:23 10.01.2021
3890 Haze 17 1023 39 5000 2.06 100 16:46 10.01.2021
3891 Haze 17 1023 39 5000 2.06 100 16:28 10.01.2021
3892 Haze 18 1022 37 5000 1.17 159 15:39 10.01.2021
3893 Haze 18 1022 37 5000 1.8 136 15:21 10.01.2021
3894 Haze 19 1022 37 5000 1.54 80 14:40 10.01.2021
3895 Haze 19 1022 37 5000 1.54 80 14:22 10.01.2021
3896 Haze 20 1022 34 5000 1.54 70 13:42 10.01.2021
3897 Haze 20 1022 34 5000 1.54 70 13:24 10.01.2021
3898 Haze 18 1022 36 5000 1.03 50 12:51 10.01.2021
3899 Haze 18 1022 36 5000 1.03 50 12:33 10.01.2021
3900 Haze 17 1023 36 5000 1.54 70 11:55 10.01.2021
3901 Haze 17 1023 36 5000 1.54 70 11:20 10.01.2021
3902 Dust 15 1024 38 4000 0.51 50 10:51 10.01.2021
3903 Dust 15 1024 38 4000 0.51 50 10:24 10.01.2021
3904 Smoke 13 1025 44 4000 0.51 60 09:45 10.01.2021
3905 Haze 10 1024 50 3000 0.51 40 08:38 10.01.2021
3906 Haze 8 1024 65 3000 3.37 124 07:46 10.01.2021
3907 Haze 7 1023 61 4000 3.22 119 06:50 10.01.2021
3908 Haze 7 1023 61 4000 2.93 114 06:18 10.01.2021
3909 Haze 7 1022 57 5000 3.17 115 05:27 10.01.2021
3910 Clouds 9 1022 43 6000 3.24 106 01:58 10.01.2021
3911 Clouds 10 1022 50 6000 3.87 103 00:23 10.01.2021
3912 Clouds 11 1022 58 6000 3.87 103 23:41 09.01.2021
3913 Clouds 10 1022 58 6000 3.8 100 23:22 09.01.2021
3914 Clouds 11 1022 50 6000 3.99 104 22:25 09.01.2021
3915 Clouds 12 1022 50 6000 3.99 104 21:59 09.01.2021
3916 Clouds 12 1022 50 6000 3.99 104 21:40 09.01.2021
3917 Clear 11 1022 50 6000 4.04 97 21:21 09.01.2021
3918 Haze 11 1022 50 5000 4.04 97 20:58 09.01.2021
3919 Haze 11 1022 50 5000 4.04 97 20:37 09.01.2021
3920 Haze 13 1022 38 5000 3.63 91 19:43 09.01.2021
3921 Haze 13 1022 38 5000 2.9 101 19:21 09.01.2021
3922 Haze 14 1022 36 5000 3.14 89 18:39 09.01.2021
3923 Haze 14 1022 36 5000 2.03 115 18:20 09.01.2021
3924 Haze 15 1021 36 5000 2.03 115 17:45 09.01.2021
3925 Haze 15 1021 36 5000 2.03 136 17:27 09.01.2021
3926 Haze 16 1021 33 5000 2.03 136 16:32 09.01.2021
3927 Haze 16 1020 33 5000 1.03 60 15:47 09.01.2021
3928 Haze 16 1020 33 5000 1.03 60 15:28 09.01.2021
3929 Haze 17 1020 31 5000 3.09 120 14:40 09.01.2021
3930 Haze 17 1020 31 5000 3.09 120 14:20 09.01.2021
3931 Haze 17 1020 31 5000 3.09 120 13:47 09.01.2021
3932 Haze 17 1020 31 5000 3.09 120 13:29 09.01.2021
3933 Clear 17 1020 31 6000 3.09 100 12:48 09.01.2021
3934 Clear 17 1020 31 6000 3.09 100 12:22 09.01.2021
3935 Clear 15 1021 30 7000 0.51 120 11:50 09.01.2021
3936 Clear 15 1021 30 7000 0.51 120 11:29 09.01.2021
3937 Clear 14 1023 30 6000 1.03 60 10:52 09.01.2021
3938 Clear 14 1023 30 6000 1.03 60 10:30 09.01.2021
3939 Clear 13 1023 35 7000 2.06 100 09:52 09.01.2021
3940 Clear 13 1023 35 7000 2.06 100 09:25 09.01.2021
3941 Clear 11 1023 40 6000 1.54 40 08:34 09.01.2021
3942 Clear 9 1022 34 10000 3.64 111 06:58 09.01.2021
3943 Clear 9 1022 34 10000 3.45 110 06:39 09.01.2021
3944 Clear 8 1021 34 10000 3.4 110 04:47 09.01.2021
3945 Clear 8 1021 36 10000 3.56 112 03:22 09.01.2021
3946 Clear 8 1021 36 10000 3.56 112 02:31 09.01.2021
3947 Clear 8 1022 36 10000 3.53 114 01:46 09.01.2021
3948 Clear 9 1021 43 10000 3.58 114 00:36 09.01.2021
3949 Clear 9 1022 43 10000 3.71 117 23:57 08.01.2021
3950 Clear 9 1022 40 10000 3.71 114 22:58 08.01.2021
3951 Clear 9 1022 40 10000 4.1 112 22:19 08.01.2021
3952 Clear 9 1022 40 10000 1.54 260 21:44 08.01.2021
3953 Clear 10 1022 35 10000 1.54 260 20:49 08.01.2021
3954 Clear 10 1022 35 10000 1.54 260 20:25 08.01.2021
3955 Clear 11 1022 32 10000 2.06 90 19:55 08.01.2021
3956 Clear 11 1022 32 10000 2.06 90 19:22 08.01.2021
3957 Clear 11 1022 37 10000 2.06 90 18:36 08.01.2021
3958 Clear 11 1022 37 10000 2.06 90 18:18 08.01.2021
3959 Clear 12 1022 32 10000 2.06 90 17:45 08.01.2021
3960 Clear 12 1022 32 10000 2.06 90 17:22 08.01.2021
3961 Clear 14 1021 24 10000 2.06 90 16:34 08.01.2021
3962 Clear 16 1021 20 10000 2.57 90 15:44 08.01.2021
3963 Clear 16 1021 20 10000 2.57 90 15:18 08.01.2021
3964 Clear 16 1021 18 10000 2.57 90 14:35 08.01.2021
3965 Clear 17 1021 17 10000 4.12 110 13:44 08.01.2021
3966 Clear 17 1021 17 10000 4.12 110 13:18 08.01.2021
3967 Clear 16 1021 20 10000 4.12 100 12:46 08.01.2021
3968 Clear 16 1021 20 10000 4.12 100 12:19 08.01.2021
3969 Clear 15 1022 23 10000 5.14 120 11:44 08.01.2021
3970 Clear 15 1022 23 10000 5.14 120 11:25 08.01.2021
3971 Clear 15 1023 23 10000 3.6 130 10:52 08.01.2021
3972 Clear 15 1023 23 10000 3.6 130 10:32 08.01.2021
3973 Clear 14 1023 28 10000 1.54 60 09:45 08.01.2021
3974 Clear 14 1023 28 10000 1.54 60 09:27 08.01.2021
3975 Clear 11 1023 28 10000 1.54 60 08:33 08.01.2021
3976 Clear 6 1023 56 10000 4.06 121 07:27 08.01.2021
3977 Clear 7 1022 57 10000 2.06 80 05:55 08.01.2021
3978 Clouds 11 1023 37 6000 2.06 130 23:48 07.01.2021
3979 Clouds 11 1023 37 6000 2.06 130 23:30 07.01.2021
3980 Clouds 11 1023 43 6000 3.79 118 22:47 07.01.2021
3981 Clear 11 1023 43 6000 4.11 118 22:26 07.01.2021
3982 Clear 12 1023 44 6000 4.11 118 21:46 07.01.2021
3983 Clear 12 1023 44 6000 4.25 111 21:27 07.01.2021
3984 Clear 13 1023 44 7000 2.57 110 20:47 07.01.2021
3985 Clear 13 1023 44 7000 2.57 110 20:29 07.01.2021
3986 Clear 13 1023 41 8000 4.12 100 19:45 07.01.2021
3987 Clear 13 1023 41 8000 4.12 100 19:23 07.01.2021
3988 Clear 13 1023 44 8000 1.54 90 18:38 07.01.2021
3989 Clear 13 1023 44 8000 1.54 90 18:19 07.01.2021
3990 Clear 14 1022 44 8000 1.54 80 17:30 07.01.2021
3991 Clear 16 1022 39 10000 1.54 80 16:54 07.01.2021
3992 Clear 16 1022 39 10000 1.54 80 16:30 07.01.2021
3993 Clear 18 1022 36 10000 2.06 100 15:48 07.01.2021
3994 Clear 18 1022 36 10000 2.06 100 15:29 07.01.2021
3995 Clear 18 1022 32 10000 2.57 80 14:27 07.01.2021
3996 Clear 18 1021 32 6000 2.57 100 13:49 07.01.2021
3997 Clouds 18 1021 32 6000 2.57 100 13:22 07.01.2021
3998 Clouds 17 1020 29 10000 4.86 121 12:52 07.01.2021
3999 Clouds 17 1022 38 6000 3.1 140 12:21 07.01.2021
4000 Clouds 17 1022 38 6000 3.1 140 11:38 07.01.2021
4001 Clouds 16 1023 38 7000 3.6 100 10:56 07.01.2021
4002 Clouds 16 1023 38 7000 3.6 100 10:37 07.01.2021
4003 Clouds 15 1024 34 6000 3.6 110 09:57 07.01.2021
4004 Clouds 15 1024 34 6000 3.6 110 09:38 07.01.2021
4005 Smoke 13 1024 50 5000 1.5 90 08:40 07.01.2021
4006 Haze 11 1023 61 5000 5.04 126 08:21 07.01.2021
4007 Haze 11 1023 61 5000 5.04 126 07:40 07.01.2021
4008 Haze 10 1023 62 5000 2.1 100 05:52 07.01.2021
4009 Clouds 12 1023 62 6000 4.09 112 01:34 07.01.2021
4010 Clouds 11 1023 76 6000 3.55 125 23:58 06.01.2021
4011 Clouds 11 1023 76 6000 3.55 125 23:58 06.01.2021
4012 Haze 12 1024 71 5000 4.7 115 23:25 06.01.2021
4013 Clouds 12 1024 62 6000 4.29 115 22:23 06.01.2021
4014 Clouds 12 1024 62 6000 4.29 115 21:41 06.01.2021
4015 Clouds 12 1024 62 6000 4.63 106 21:22 06.01.2021
4016 Clouds 12 1024 62 6000 4.63 106 21:22 06.01.2021
4017 Clouds 13 1024 58 6000 4.63 106 20:42 06.01.2021
4018 Clouds 13 1024 54 6000 1 100 20:22 06.01.2021
4019 Clouds 13 1024 54 6000 1 100 19:48 06.01.2021
4020 Clouds 13 1024 54 6000 1 100 19:28 06.01.2021
4021 Clouds 14 1024 58 6000 1.5 90 18:50 06.01.2021
4022 Clouds 15 1024 47 6000 1.5 90 18:31 06.01.2021
4023 Clouds 15 1024 47 6000 1.5 90 17:47 06.01.2021
4024 Clouds 15 1024 47 6000 1.5 90 17:28 06.01.2021
4025 Clouds 17 1023 39 6000 2.1 100 16:57 06.01.2021
4026 Clouds 17 1023 39 6000 2.1 100 16:36 06.01.2021
4027 Clouds 18 1023 39 8000 2.6 120 16:18 06.01.2021
4028 Clouds 18 1023 39 8000 2.6 120 15:43 06.01.2021
4029 Clouds 18 1023 39 7000 1.5 100 15:23 06.01.2021
4030 Clouds 18 1023 39 7000 1.5 100 14:32 06.01.2021
4031 Clouds 19 1023 39 6000 2.6 110 13:55 06.01.2021
4032 Clouds 19 1023 39 6000 2.6 110 13:27 06.01.2021
4033 Clouds 18 1023 42 6000 2.6 110 12:58 06.01.2021
4034 Clouds 18 1023 42 6000 2.6 110 12:32 06.01.2021
4035 Haze 18 1024 48 5000 3.1 110 11:46 06.01.2021
4036 Haze 18 1024 48 5000 3.1 110 11:23 06.01.2021
4037 Haze 16 1024 55 5000 0.5 70 10:44 06.01.2021
4038 Haze 14 1025 58 5000 1 60 09:52 06.01.2021
4039 Haze 14 1025 58 5000 1 60 09:33 06.01.2021
4040 Smoke 10 1025 81 3000 6.25 127 08:54 06.01.2021
4041 Mist 9 1025 87 3000 6.09 123 08:20 06.01.2021
4042 Mist 9 1025 87 3000 6.09 123 07:53 06.01.2021
4043 Mist 8 1024 87 2000 5.07 114 06:45 06.01.2021
4044 Mist 8 1024 93 5000 3.84 114 05:31 06.01.2021
4045 Clear 9 1023 87 7000 3.68 110 04:31 06.01.2021
4046 Clear 10 1023 93 7000 3.46 112 02:45 06.01.2021
4047 Clear 10 1023 87 7000 3.36 118 02:22 06.01.2021
4048 Clear 11 1022 81 7000 3.21 117 00:22 06.01.2021
4049 Clear 11 1022 81 7000 3 118 23:23 05.01.2021
4050 Clear 11 1022 81 7000 3 118 22:41 05.01.2021
4051 Clear 11 1022 81 7000 3.35 119 22:20 05.01.2021
4052 Clear 13 1022 76 7000 3.35 119 21:52 05.01.2021
4053 Haze 13 1021 71 5000 1.5 70 20:41 05.01.2021
4054 Haze 13 1021 71 5000 1.5 70 20:23 05.01.2021
4055 Haze 13 1021 71 5000 1.5 70 19:41 05.01.2021
4056 Haze 13 1021 71 5000 1.5 70 19:21 05.01.2021
4057 Clouds 13 1021 76 7000 3.42 107 18:43 05.01.2021
4058 Clouds 15 1021 67 7000 1.5 80 18:24 05.01.2021
4059 Clouds 15 1021 67 7000 1.5 80 17:49 05.01.2021
4060 Clouds 15 1021 67 7000 1.5 80 17:27 05.01.2021
4061 Haze 16 1020 59 5000 2.6 100 16:52 05.01.2021
4062 Haze 18 1020 59 4000 2.6 100 16:21 05.01.2021
4063 Haze 18 1020 59 4000 2.6 100 15:50 05.01.2021
4064 Haze 18 1020 59 4000 2.6 100 15:25 05.01.2021
4065 Haze 19 1020 52 4000 4.1 120 14:39 05.01.2021
4066 Haze 18 1020 48 5000 2.1 90 13:51 05.01.2021
4067 Haze 18 1020 48 5000 2.1 90 13:30 05.01.2021
4068 Haze 17 1020 55 5000 3.1 100 12:50 05.01.2021
4069 Haze 17 1020 55 5000 3.1 100 12:28 05.01.2021
4070 Haze 16 1020 59 4000 3.1 100 11:40 05.01.2021
4071 -273 0 0 0 0 0 11:22 05.01.2021
4072 -273 0 0 0 0 0 11:21 05.01.2021
4073 Haze 14 1021 67 4000 2.6 100 11:20 05.01.2021
4074 Haze 14 1021 67 4000 2.6 100 10:43 05.01.2021
4075 Haze 13 1022 66 4000 1.5 90 09:58 05.01.2021
4076 Haze 13 1022 66 4000 1.5 90 09:38 05.01.2021
4077 Haze 11 1019 76 3000 1 40 08:42 05.01.2021
4078 Mist 8 1022 87 3000 6.55 122 08:18 05.01.2021
4079 Haze 8 1021 93 3500 4.7 112 05:29 05.01.2021
4080 Clouds 10 1020 76 8000 2.1 120 02:56 05.01.2021
4081 Clouds 11 1020 71 8000 4.71 117 00:23 05.01.2021
4082 Clouds 11 1020 66 8000 4.71 117 23:41 04.01.2021
4083 Clouds 12 1020 66 8000 4.83 115 23:21 04.01.2021
4084 Clouds 12 1020 66 8000 4.83 115 22:45 04.01.2021
4085 Clouds 12 1020 66 8000 5.13 108 21:58 04.01.2021
4086 Clouds 13 1020 66 8000 5.13 108 21:40 04.01.2021
4087 Clouds 13 1020 66 8000 2.6 90 20:59 04.01.2021
4088 Clouds 13 1020 66 8000 2.6 90 20:38 04.01.2021
4089 Clear 13 1020 66 8000 2.6 90 20:19 04.01.2021
4090 Clear 14 1020 58 8000 2.6 90 19:42 04.01.2021
4091 Clear 14 1020 58 8000 2.6 90 19:19 04.01.2021
4092 Clear 14 1020 58 7000 3.9 99 18:44 04.01.2021
4093 Clear 14 1020 54 7000 3.21 116 17:59 04.01.2021
4094 Clear 15 1020 54 7000 3.21 116 17:39 04.01.2021
4095 Haze 16 1020 51 4000 3.11 131 17:21 04.01.2021
4096 Haze 16 1020 51 4000 3.11 131 16:42 04.01.2021
4097 Haze 16 1020 51 4000 3.37 132 16:24 04.01.2021
4098 Haze 18 1020 48 4000 2.6 90 15:48 04.01.2021
4099 Haze 18 1019 52 4000 3.1 100 15:24 04.01.2021
4100 Haze 18 1019 52 4000 3.1 100 14:21 04.01.2021
4101 Haze 18 1019 52 4000 3.1 100 13:36 04.01.2021
4102 Haze 17 1019 55 4000 3.1 100 12:57 04.01.2021
4103 Haze 17 1019 55 4000 3.1 100 12:31 04.01.2021
4104 Haze 16 1020 59 4000 2.6 90 11:52 04.01.2021
4105 Haze 15 1021 58 5000 2.6 90 11:20 04.01.2021
4106 Haze 15 1021 58 5000 2.6 90 10:46 04.01.2021
4107 Haze 15 1021 58 5000 2.6 90 10:23 04.01.2021
4108 Haze 13 1022 66 4000 1.5 100 09:49 04.01.2021
4109 Smoke 10 1022 81 4000 1.5 50 09:18 04.01.2021
4110 Smoke 10 1022 81 4000 1.5 50 08:41 04.01.2021
4111 Smoke 9 1021 87 2500 4.49 120 07:54 04.01.2021
4112 Smoke 9 1021 87 2500 3.74 126 07:18 04.01.2021
4113 Haze 8 1020 87 5000 3.62 109 05:21 04.01.2021
4114 Clear 9 1020 76 6000 4.21 100 02:34 04.01.2021
4115 Clear 11 1020 71 6000 3.96 96 00:34 04.01.2021
4116 Clear 11 1020 71 6000 4.2 96 23:47 03.01.2021
4117 Clear 11 1020 76 6000 4.1 100 23:20 03.01.2021
4118 Clear 11 1020 76 6000 4.1 100 22:51 03.01.2021
4119 Clear 11 1020 76 6000 4.1 100 22:30 03.01.2021
4120 Clear 12 1020 66 6000 5.01 97 21:48 03.01.2021
4121 Clear 12 1020 66 6000 4.72 87 21:25 03.01.2021
4122 Clear 12 1020 71 6000 4.72 87 20:44 03.01.2021
4123 Clear 12 1020 71 6000 4.05 73 20:24 03.01.2021
4124 Clear 13 1020 66 6000 1 60 19:55 03.01.2021
4125 Clear 13 1020 66 6000 1 60 19:34 03.01.2021
4126 Clear 13 1020 66 6000 1 60 18:56 03.01.2021
4127 Clear 14 1020 67 6000 1.5 130 18:38 03.01.2021
4128 Clear 14 1020 67 6000 1.5 130 18:18 03.01.2021
4129 Clear 14 1019 67 6000 3.77 78 17:41 03.01.2021
4130 Haze 16 1019 59 5000 1.5 90 17:22 03.01.2021
4131 Haze 16 1019 59 5000 1.5 90 16:42 03.01.2021
4132 Haze 16 1019 59 5000 1.5 90 16:19 03.01.2021
4133 Haze 16 1019 59 5000 1.5 90 16:19 03.01.2021
4134 Haze 18 1019 52 4000 2.6 70 15:46 03.01.2021
4135 Haze 18 1019 52 4000 2.6 70 15:26 03.01.2021
4136 Haze 18 1019 48 4000 1.5 100 14:52 03.01.2021
4137 Haze 18 1019 48 4000 1.5 100 14:27 03.01.2021
4138 Haze 18 1019 48 5000 1.5 90 13:41 03.01.2021
4139 Haze 17 1019 51 5000 1 70 13:22 03.01.2021
4140 Haze 17 1020 51 5000 1.5 60 12:24 03.01.2021
4141 Haze 16 1020 51 5000 1.5 60 11:42 03.01.2021
4142 Haze 16 1020 51 5000 1.5 60 11:24 03.01.2021
4143 Haze 15 1020 54 4500 1 70 10:34 03.01.2021
4144 Haze 13 1022 62 4000 1.5 50 09:59 03.01.2021
4145 Haze 13 1022 62 4000 1.5 50 09:34 03.01.2021
4146 Smoke 11 1022 76 3000 1.5 80 08:59 03.01.2021
4147 Mist 9 1021 87 2500 6.09 103 07:33 03.01.2021
4148 Mist 9 1021 87 3000 4.64 99 05:58 03.01.2021
4149 Haze 10 1021 76 5000 4.23 98 02:27 03.01.2021
4150 Haze 10 1021 76 5000 4.23 98 02:27 03.01.2021
4151 Haze 10 1021 76 5000 4.23 98 01:44 03.01.2021
4152 Haze 10 1021 76 5000 4.23 98 01:44 03.01.2021
4153 Haze 10 1021 76 5000 4.96 97 00:18 03.01.2021
4154 Haze 10 1021 76 5000 5.04 96 23:27 02.01.2021
4155 Haze 10 1021 76 5000 5.04 96 23:27 02.01.2021
4156 Haze 11 1021 76 5000 5.04 96 22:51 02.01.2021
4157 Haze 11 1021 76 5000 5.04 96 22:32 02.01.2021
4158 Haze 12 1021 76 5000 5.31 90 21:50 02.01.2021
4159 Haze 12 1021 76 5000 5.31 90 21:31 02.01.2021
4160 Haze 12 1021 71 5000 4.88 85 20:50 02.01.2021
4161 Haze 12 1021 71 5000 4.53 82 20:28 02.01.2021
4162 Haze 13 1021 71 5000 4.53 82 19:52 02.01.2021
4163 Haze 13 1021 71 5000 3.9 81 19:20 02.01.2021
4164 Haze 13 1021 71 5000 3.9 81 18:56 02.01.2021
4165 Haze 13 1021 62 5000 4.04 79 18:38 02.01.2021
4166 Haze 14 1021 62 5000 3.35 91 18:19 02.01.2021
4167 Haze 14 1021 58 5000 3.35 91 17:38 02.01.2021
4168 Haze 14 1021 58 5000 3.63 93 16:58 02.01.2021
4169 Haze 14 1020 58 5000 3.82 100 16:23 02.01.2021
4170 Haze 16 1020 58 5000 3.82 100 15:54 02.01.2021
4171 Haze 16 1020 58 5000 3.82 100 15:32 02.01.2021
4172 Haze 16 1020 58 5000 3.1 80 14:58 02.01.2021
4173 Haze 16 1020 58 5000 3.1 80 14:36 02.01.2021
4174 Haze 16 1020 58 5000 2.6 70 13:51 02.01.2021
4175 Haze 16 1020 58 5000 2.6 70 13:26 02.01.2021
4176 Haze 16 1020 54 5000 3.6 70 12:52 02.01.2021
4177 Haze 16 1020 54 5000 3.6 70 12:31 02.01.2021
4178 Haze 15 1021 58 5000 2.6 110 11:45 02.01.2021
4179 Haze 13 1022 66 4000 3.1 70 11:22 02.01.2021
4180 Haze 13 1022 66 4000 3.1 70 10:49 02.01.2021
4181 Haze 13 1022 66 4000 3.1 70 10:28 02.01.2021
4182 Haze 11 1023 66 5000 2.6 70 09:45 02.01.2021
4183 Haze 9 1023 76 4000 1.5 50 09:23 02.01.2021
4184 Haze 9 1023 76 4000 1.5 50 08:50 02.01.2021
4185 Haze 9 1023 76 4000 1.5 50 08:25 02.01.2021
4186 Mist 8 1022 87 4000 5.82 120 07:47 02.01.2021
4187 Mist 8 1022 87 4000 5.15 115 07:22 02.01.2021
4188 Haze 8 1021 81 4000 5.08 111 06:40 02.01.2021
4189 Clouds 8 1021 81 6000 4.31 107 05:45 02.01.2021
4190 Haze 9 1020 87 4000 3.95 115 00:58 02.01.2021
4191 Haze 9 1020 87 4000 3.99 113 00:37 02.01.2021
4192 Haze 9 1020 87 4000 4.12 110 23:56 01.01.2021
4193 Haze 9 1020 87 4000 4.83 108 23:21 01.01.2021
4194 Haze 9 1020 87 4000 4.83 108 22:47 01.01.2021
4195 Haze 9 1020 87 4000 4.72 108 22:25 01.01.2021
4196 Haze 10 1020 81 5000 4.72 108 21:44 01.01.2021
4197 Haze 10 1020 81 5000 4.77 103 21:22 01.01.2021
4198 Haze 10 1020 81 5000 4.77 103 20:54 01.01.2021
4199 Haze 11 1020 81 5000 4.08 96 20:23 01.01.2021
4200 Haze 11 1020 81 5000 4.08 96 19:59 01.01.2021
4201 Haze 11 1020 81 5000 4.08 96 19:41 01.01.2021
4202 Haze 11 1020 76 5000 1.5 120 19:20 01.01.2021
4203 Haze 11 1020 76 5000 1.5 120 18:42 01.01.2021
4204 Haze 12 1019 71 5000 1.5 120 18:23 01.01.2021
4205 Haze 12 1019 71 5000 1.5 120 17:44 01.01.2021
4206 Haze 12 1019 71 5000 1.5 120 17:23 01.01.2021
4207 Haze 14 1019 71 5000 1.5 110 16:45 01.01.2021
4208 Haze 14 1019 71 5000 1.5 110 16:25 01.01.2021
4209 Clear 15 1019 62 8000 1.5 110 15:39 01.01.2021
4210 Clear 15 1019 62 8000 3.1 100 14:44 01.01.2021
4211 Clear 15 1019 62 8000 3.1 100 14:26 01.01.2021
4212 Clouds 16 1019 59 7000 3.1 100 13:39 01.01.2021
4213 Clouds 16 1020 59 7000 3.1 100 12:52 01.01.2021
4214 Clouds 16 1020 59 7000 3.1 100 12:27 01.01.2021
4215 Clear 15 1019 62 6000 6.2 70 11:43 01.01.2021
4216 Clouds 15 1020 62 7000 2.6 100 11:22 01.01.2021
4217 Clouds 15 1020 62 7000 2.6 100 10:59 01.01.2021
4218 Clouds 15 1020 62 7000 2.6 100 10:33 01.01.2021
4219 Clouds 13 1020 66 6000 2.1 90 09:39 01.01.2021
4220 Mist 12 1020 71 4500 2.1 100 08:52 01.01.2021
4221 Mist 12 1020 71 4500 2.1 100 08:25 01.01.2021
4222 Mist 9 1019 93 3000 1.5 60 04:52 01.01.2021
4223 Clear 10 1018 78 10000 4.12 111 02:25 01.01.2021
4224 Clear 8 1019 93 6000 4.09 111 00:41 01.01.2021
4225 Clear 8 1019 93 6000 4.1 116 00:21 01.01.2021
4226 Clear 9 1019 87 6000 4.31 114 23:22 31.12.2020
4227 Clear 9 1019 87 6000 4.31 114 22:56 31.12.2020
4228 Clear 9 1019 87 6000 4.31 114 22:38 31.12.2020
4229 Clear 10 1019 81 6000 1.5 90 22:19 31.12.2020
4230 Clear 10 1019 81 6000 1.5 90 21:46 31.12.2020
4231 Clear 10 1019 81 6000 1.5 90 21:23 31.12.2020
4232 Clear 11 1019 76 6000 4.42 108 20:48 31.12.2020
4233 Clear 11 1018 76 6000 4 103 20:18 31.12.2020
4234 Clear 11 1018 76 6000 4 103 19:46 31.12.2020
4235 Clear 11 1018 76 6000 3.15 110 19:24 31.12.2020
4236 Clear 13 1018 76 6000 1.5 100 18:44 31.12.2020
4237 Clear 13 1018 76 6000 1.5 100 18:24 31.12.2020
4238 Clear 13 1018 76 6000 2.54 119 17:44 31.12.2020
4239 Clear 13 1018 76 6000 2.54 119 17:44 31.12.2020
4240 Haze 14 1018 62 5000 3.16 130 17:23 31.12.2020
4241 Haze 14 1018 62 5000 3.16 130 16:43 31.12.2020
4242 Haze 14 1018 62 5000 3.16 130 16:43 31.12.2020
4243 Haze 14 1018 62 5000 3.51 131 16:23 31.12.2020
4244 Haze 15 1018 58 5000 2.1 100 15:46 31.12.2020
4245 Haze 16 1018 55 5000 3.1 100 15:22 31.12.2020
4246 Haze 16 1018 55 5000 3.1 100 15:22 31.12.2020
4247 Haze 16 1018 55 5000 3.1 100 14:57 31.12.2020
4248 Haze 16 1018 55 5000 3.1 100 14:39 31.12.2020
4249 Haze 16 1018 55 5000 2.6 70 14:21 31.12.2020
4250 Haze 16 1018 55 5000 2.6 70 13:39 31.12.2020
4251 Clear 16 1018 58 7000 2.1 90 13:21 31.12.2020
4252 Clear 16 1018 58 7000 2.1 90 12:54 31.12.2020
4253 Clear 16 1018 58 7000 2.1 90 12:35 31.12.2020
4254 Clear 15 1019 54 7000 3.1 90 11:52 31.12.2020
4255 Clear 15 1019 54 7000 3.1 90 11:32 31.12.2020
4256 Clear 15 1019 54 7000 3.1 90 11:32 31.12.2020
4257 Clear 13 1020 58 7000 2.6 100 10:50 31.12.2020
4258 Clear 13 1020 58 7000 2.6 100 10:30 31.12.2020
4259 Clear 12 1021 58 8000 4.1 100 09:58 31.12.2020
4260 Clear 12 1021 58 8000 4.1 100 09:38 31.12.2020
4261 Clear 11 1021 58 8000 4.1 100 09:20 31.12.2020
4262 Clear 10 1021 76 7000 1.5 100 08:45 31.12.2020
4263 Clear 10 1021 76 7000 1.5 100 08:27 31.12.2020
4264 Mist 8 1020 87 4000 5.2 112 07:51 31.12.2020
4265 Mist 6 1020 87 4000 4.43 105 06:46 31.12.2020
4266 Haze 7 1020 87 5000 3.89 104 05:29 31.12.2020
4267 Clear 8 1020 81 8000 3.67 107 03:24 31.12.2020
4268 Clear 8 1020 70 8000 3.59 112 02:26 31.12.2020
4269 Clear 8 1020 70 8000 3.59 112 01:49 31.12.2020
4270 Clear 8 1020 70 8000 3.59 112 01:31 31.12.2020
4271 Clear 9 1020 70 10000 4.05 104 00:51 31.12.2020
4272 Clear 9 1020 66 10000 3.85 106 23:55 30.12.2020
4273 Clear 9 1020 66 10000 3.89 103 23:20 30.12.2020
4274 Clear 9 1020 61 7000 3.89 103 22:52 30.12.2020
4275 Clear 9 1020 61 7000 3.89 103 22:32 30.12.2020
4276 Clear 10 1020 66 6000 4.21 105 21:49 30.12.2020
4277 Clear 10 1020 66 6000 5.17 107 21:25 30.12.2020
4278 Clear 10 1020 66 7000 5.17 107 20:52 30.12.2020
4279 Clear 10 1020 66 7000 5.12 104 20:25 30.12.2020
4280 Clear 10 1020 66 7000 5.12 104 19:58 30.12.2020
4281 Clear 10 1020 66 7000 5.12 104 19:36 30.12.2020
4282 Clear 10 1020 71 8000 5.07 96 19:18 30.12.2020
4283 Clear 10 1020 71 8000 4.68 97 18:38 30.12.2020
4284 Clear 11 1020 66 8000 1.5 100 18:19 30.12.2020
4285 Clear 11 1020 66 8000 1.5 100 17:42 30.12.2020
4286 Clear 12 1020 58 8000 2.1 90 17:22 30.12.2020
4287 Clear 12 1020 58 8000 2.1 90 16:43 30.12.2020
4288 Clear 12 1020 58 8000 2.1 90 16:43 30.12.2020
4289 Clear 13 1019 54 8000 3.1 90 15:51 30.12.2020
4290 Clear 13 1019 54 8000 3.1 90 15:30 30.12.2020
4291 Clear 14 1020 54 8000 4.1 80 14:58 30.12.2020
4292 Clear 14 1020 54 8000 4.1 80 14:39 30.12.2020
4293 Haze 14 1019 50 5000 2.1 90 14:18 30.12.2020
4294 Haze 14 1019 50 5000 2.1 90 13:19 30.12.2020
4295 Haze 14 1020 50 5000 2.6 80 12:26 30.12.2020
4296 Clear 13 1020 58 7000 2.1 100 11:45 30.12.2020
4297 Clear 12 1022 62 7000 2.6 90 11:22 30.12.2020
4298 Clear 12 1022 62 7000 2.6 90 10:58 30.12.2020
4299 Clear 12 1022 62 7000 2.6 90 10:58 30.12.2020
4300 Clear 11 1022 62 7000 2.6 90 10:38 30.12.2020
4301 Haze 11 1022 57 5000 1.5 100 10:18 30.12.2020
4302 Haze 11 1022 57 5000 1.5 100 09:44 30.12.2020
4303 Mist 7 1022 81 5000 0.5 100 08:54 30.12.2020
4304 Mist 6 1022 87 5000 6.45 99 07:59 30.12.2020
4305 Mist 6 1022 87 5000 5.58 94 07:28 30.12.2020
4306 Mist 5 1022 87 4000 5.52 94 06:42 30.12.2020
4307 Mist 4 1021 86 5000 4.74 100 05:50 30.12.2020
4308 Mist 4 1021 86 5000 4.74 100 05:30 30.12.2020
4309 Clear 4 1020 80 6000 4.6 60 03:45 30.12.2020
4310 Clear 5 1021 81 7000 4.51 94 03:25 30.12.2020
4311 Clear 6 1021 81 7000 4.51 94 02:36 30.12.2020
4312 Clear 6 1021 81 7000 4.77 92 01:50 30.12.2020
4313 Clear 6 1021 81 7000 4.77 92 01:31 30.12.2020
4314 Clear 7 1021 81 7000 4.96 90 00:47 30.12.2020
4315 Clear 7 1021 81 7000 5.01 86 00:27 30.12.2020
4316 Clear 6 1021 81 7000 5.01 86 23:52 29.12.2020
4317 Clear 6 1021 81 7000 5.01 86 23:34 29.12.2020
4318 Clear 7 1021 75 7000 4.76 86 22:50 29.12.2020
4319 Clear 7 1021 75 7000 4.76 86 22:32 29.12.2020
4320 Clear 7 1021 75 7000 4.48 85 21:59 29.12.2020
4321 Clear 7 1021 75 7000 4.48 85 21:39 29.12.2020
4322 Clear 7 1021 75 7000 3.98 84 21:21 29.12.2020
4323 Clear 7 1021 75 7000 3.98 84 20:44 29.12.2020
4324 Clear 7 1021 75 7000 3.58 89 20:25 29.12.2020
4325 Clear 8 1021 75 7000 3.58 89 19:45 29.12.2020
4326 Clear 8 1021 75 7000 2.91 107 19:22 29.12.2020
4327 Clear 9 1021 70 7000 1 100 18:54 29.12.2020
4328 Clear 9 1021 70 7000 1 100 18:29 29.12.2020
4329 Clear 10 1021 53 6000 3.1 120 17:55 29.12.2020
4330 Clear 10 1021 53 6000 3.1 120 17:36 29.12.2020
4331 Haze 12 1021 58 5000 2.1 80 17:18 29.12.2020
4332 Haze 12 1021 58 5000 2.1 80 16:34 29.12.2020
4333 Haze 14 1021 54 5000 2.6 130 15:53 29.12.2020
4334 Haze 14 1021 54 5000 2.6 130 15:33 29.12.2020
4335 Haze 14 1021 50 5000 2.6 100 14:55 29.12.2020
4336 Haze 14 1021 50 5000 2.6 100 14:36 29.12.2020
4337 Clear 14 1021 50 6000 1.5 80 14:18 29.12.2020
4338 Clear 14 1021 50 6000 1.5 80 13:37 29.12.2020
4339 Clear 14 1021 50 6000 1.5 80 13:18 29.12.2020
4340 Clear 14 1021 50 6000 2.1 90 12:37 29.12.2020
4341 Clear 13 1022 58 6000 1 90 12:19 29.12.2020
4342 Clear 13 1022 58 6000 1 90 11:50 29.12.2020
4343 Clear 13 1022 58 6000 1 90 11:31 29.12.2020
4344 Haze 11 1023 66 5000 1.5 50 10:22 29.12.2020
4345 Haze 9 1023 76 4000 1.5 40 09:47 29.12.2020
4346 Haze 7 1023 81 4000 1 50 09:19 29.12.2020
4347 Haze 7 1023 81 4000 1 50 08:50 29.12.2020
4348 Haze 6 1023 81 4000 1 50 07:58 29.12.2020
4349 Mist 4 1022 93 3500 3.82 107 07:26 29.12.2020
4350 Mist 4 1023 93 3500 3.43 101 06:26 29.12.2020
4351 Clouds 5 1022 93 6000 3.51 105 03:32 29.12.2020
4352 Clouds 6 1022 81 6000 3.86 116 00:47 29.12.2020
4353 Clouds 6 1022 87 6000 4.05 115 00:20 29.12.2020
4354 Clouds 6 1022 87 6000 4.05 115 23:34 28.12.2020
4355 Clouds 6 1022 87 6000 2.1 100 22:28 28.12.2020
4356 Clouds 7 1022 81 6000 2.1 100 21:45 28.12.2020
4357 Clouds 7 1022 81 6000 2.1 100 21:24 28.12.2020
4358 Clouds 7 1022 75 6000 3.1 110 20:42 28.12.2020
4359 Clouds 7 1022 81 6000 2.6 110 20:22 28.12.2020
4360 Clouds 7 1022 81 6000 2.6 110 19:49 28.12.2020
4361 Clouds 7 1022 81 6000 2.6 110 19:24 28.12.2020
4362 Haze 8 1022 70 5000 2.1 90 18:53 28.12.2020
4363 Haze 8 1022 70 5000 2.1 90 18:28 28.12.2020
4364 Haze 8 1022 75 5000 3.1 100 17:47 28.12.2020
4365 Haze 8 1021 75 5000 2.1 100 17:29 28.12.2020
4366 Haze 8 1021 75 5000 2.1 100 16:50 28.12.2020
4367 Haze 8 1021 75 5000 2.1 100 16:28 28.12.2020
4368 Haze 10 1021 76 5000 2.6 110 15:53 28.12.2020
4369 Haze 10 1021 70 5000 2.6 100 15:30 28.12.2020
4370 Haze 10 1021 70 5000 2.6 100 14:28 28.12.2020
4371 Clouds 10 1021 71 6000 2.6 100 13:39 28.12.2020
4372 Haze 10 1021 70 5000 2.6 100 13:19 28.12.2020
4373 Haze 10 1021 70 5000 2.6 100 12:26 28.12.2020
4374 Haze 9 1021 70 5000 2.6 100 11:55 28.12.2020
4375 Haze 9 1022 75 5000 4.1 90 11:36 28.12.2020
4376 Haze 7 1023 81 5000 2.1 90 11:18 28.12.2020
4377 Haze 7 1023 81 5000 2.1 90 10:29 28.12.2020
4378 Haze 9 1023 81 5000 3.1 90 09:57 28.12.2020
4379 Haze 9 1023 81 5000 3.1 90 09:37 28.12.2020
4380 Mist 6 1024 87 4000 2.6 80 09:18 28.12.2020
4381 Clouds 6 1023 87 10000 3.1 110 06:53 28.12.2020
4382 Clouds 5 1022 86 10000 3.1 100 05:18 28.12.2020
4383 Clear 4 1022 86 10000 3.1 100 03:34 28.12.2020
4384 Clear 4 1022 80 10000 5.15 99 01:54 28.12.2020
4385 Clear 5 1023 75 10000 5.16 105 23:55 27.12.2020
4386 Clouds 5 1023 73 10000 5.44 107 23:29 27.12.2020
4387 Clouds 5 1024 60 10000 5.44 107 22:36 27.12.2020
4388 Clouds 6 1024 56 10000 3.1 120 21:55 27.12.2020
4389 Clear 6 1024 68 10000 2.6 120 21:22 27.12.2020
4390 Clear 6 1024 68 10000 2.6 120 20:32 27.12.2020
4391 Clear 7 1017 56 10000 2.6 120 19:24 27.12.2020
4392 Clear 8 1022 62 10000 3.1 100 18:50 27.12.2020
4393 Clear 8 1022 65 10000 3.1 100 18:21 27.12.2020
4394 Clear 8 1022 65 10000 3.1 100 17:59 27.12.2020
4395 Clear 8 1022 65 10000 3.1 100 17:37 27.12.2020
4396 Clear 9 1022 58 10000 4.6 100 17:18 27.12.2020
4397 Clear 9 1022 51 10000 4.6 100 16:25 27.12.2020
4398 Clouds 10 1022 61 8000 3.6 100 15:34 27.12.2020
4399 Clouds 11 1022 53 8000 3.6 100 14:56 27.12.2020
4400 Clouds 11 1022 53 8000 3.6 100 14:38 27.12.2020
4401 Clear 10 1022 61 8000 4.1 80 13:41 27.12.2020
4402 Clouds 10 1022 61 8000 4.6 90 12:59 27.12.2020
4403 Clouds 10 1022 61 8000 4.6 90 12:38 27.12.2020
4404 Clear 9 1023 66 7000 4.1 110 11:43 27.12.2020
4405 Clear 8 1024 75 7000 2.1 70 11:23 27.12.2020
4406 Clear 8 1024 75 7000 2.1 70 10:49 27.12.2020
4407 Clear 8 1024 75 7000 2.1 70 10:23 27.12.2020
4408 Clear 8 1024 75 7000 2.6 90 09:41 27.12.2020
4409 Clear 7 1024 75 7000 1.5 60 08:29 27.12.2020
4410 Clouds 6 1023 81 8000 1.5 80 07:58 27.12.2020
4411 Clouds 6 1023 81 8000 1.5 80 07:25 27.12.2020
4412 Clouds 7 1022 36 6000 2.1 50 05:39 27.12.2020
4413 Haze 8 1022 33 5000 3.1 80 03:26 27.12.2020
4414 Haze 8 1022 29 5000 7.2 80 02:42 27.12.2020
4415 Haze 9 1022 31 5000 5.1 70 01:32 27.12.2020
4416 Haze 8 1023 42 5000 5.7 80 23:57 26.12.2020
4417 Haze 9 1023 39 5000 1.5 80 23:27 26.12.2020
4418 Dust 9 1023 36 4000 1.5 80 22:47 26.12.2020
4419 Dust 9 1023 36 4000 1.5 80 22:20 26.12.2020
4420 Dust 9 1023 36 4000 1.5 80 21:55 26.12.2020
4421 Dust 9 1023 39 2500 3.1 110 21:33 26.12.2020
4422 Dust 10 1023 37 2500 2.6 120 20:59 26.12.2020
4423 Dust 10 1023 37 2500 2.6 120 20:36 26.12.2020
4424 Dust 10 1023 37 2500 2.6 120 20:36 26.12.2020
4425 Dust 10 1023 37 2500 2.6 120 20:18 26.12.2020
4426 Dust 10 1023 37 3500 3.6 110 19:25 26.12.2020
4427 Haze 12 1022 37 5000 2.6 90 18:50 26.12.2020
4428 Haze 12 1022 37 5000 2.6 90 18:28 26.12.2020
4429 Haze 12 1022 37 5000 4.6 100 17:41 26.12.2020
4430 Haze 12 1022 37 5000 3.6 100 17:20 26.12.2020
4431 Haze 12 1022 37 5000 3.6 100 16:36 26.12.2020
4432 Haze 14 1022 33 5000 4.1 90 15:27 26.12.2020
4433 Haze 14 1022 30 5000 4.6 110 14:54 26.12.2020
4434 Haze 14 1022 30 5000 4.6 110 14:28 26.12.2020
4435 Clear 14 1022 30 7000 5.1 70 13:53 26.12.2020
4436 Clear 14 1022 30 7000 5.1 70 13:32 26.12.2020
4437 Clear 13 1022 30 7000 3.6 80 12:50 26.12.2020
4438 Clear 13 1022 30 7000 3.6 80 12:30 26.12.2020
4439 Clear 13 1022 30 7000 3.6 80 12:30 26.12.2020
4440 Clear 12 1023 30 7000 3.6 90 11:51 26.12.2020
4441 Clear 12 1023 30 7000 3.6 90 11:24 26.12.2020
4442 Clear 11 1023 21 10000 5.1 90 10:55 26.12.2020
4443 Clear 11 1023 21 10000 5.1 90 10:28 26.12.2020
4444 Clear 10 1024 31 10000 4.6 100 09:55 26.12.2020
4445 Clear 10 1024 31 10000 4.6 100 09:32 26.12.2020
4446 Clear 8 1024 36 8000 2.1 70 08:39 26.12.2020
4447 Clear 6 1024 48 8000 2.6 110 07:56 26.12.2020
4448 Clear 6 1024 56 8000 2.6 100 07:20 26.12.2020
4449 Clear 6 1023 52 8000 2.6 100 03:53 26.12.2020
4450 Clear 7 1023 61 8000 4.84 110 02:24 26.12.2020
4451 Clear 8 1023 66 8000 2.1 110 00:28 26.12.2020
4452 Clear 9 1023 66 8000 2.1 110 23:46 25.12.2020
4453 Clear 9 1023 66 8000 2.1 110 23:27 25.12.2020
4454 Clear 9 1024 61 8000 2.6 120 22:51 25.12.2020
4455 Clear 9 1024 61 8000 2.6 120 22:26 25.12.2020
4456 Clear 10 1024 66 8000 1.5 120 21:41 25.12.2020
4457 Clear 10 1024 66 8000 4.92 120 21:23 25.12.2020
4458 Clear 10 1024 66 8000 4.92 120 20:44 25.12.2020
4459 Clear 10 1024 66 8000 4.76 117 20:26 25.12.2020
4460 Clear 10 1024 61 8000 2.6 90 19:42 25.12.2020
4461 Clear 10 1024 66 10000 2.6 80 18:43 25.12.2020
4462 Clear 10 1024 66 10000 2.6 80 18:25 25.12.2020
4463 Clear 11 1023 62 10000 1.5 80 17:35 25.12.2020
4464 Clear 13 1022 58 10000 1.5 80 16:51 25.12.2020
4465 Clear 14 1022 54 10000 2.6 110 16:24 25.12.2020
4466 Clear 14 1022 54 10000 2.6 110 15:49 25.12.2020
4467 Clear 14 1022 54 10000 2.6 110 15:26 25.12.2020
4468 Clear 15 1022 51 10000 2.1 110 14:32 25.12.2020
4469 Clouds 15 1022 54 7000 2.6 110 13:57 25.12.2020
4470 Clouds 15 1022 54 7000 2.6 110 13:37 25.12.2020
4471 Clouds 15 1022 54 7000 2.6 110 13:18 25.12.2020
4472 Clouds 15 1022 54 7000 2.6 110 13:18 25.12.2020
4473 Clouds 14 1023 58 10000 3.1 120 12:28 25.12.2020
4474 Clear 13 1023 62 10000 2.1 120 11:49 25.12.2020
4475 Clear 13 1023 62 10000 2.1 120 11:25 25.12.2020
4476 Clear 12 1023 66 10000 2.1 90 10:49 25.12.2020
4477 Clear 10 1024 66 10000 1.5 80 10:21 25.12.2020
4478 Clear 10 1024 66 10000 1.5 80 09:27 25.12.2020
4479 Clear 10 1024 66 10000 1.5 80 09:27 25.12.2020
4480 Clear 7 1024 65 8000 1.5 30 08:45 25.12.2020
4481 Clear 5 1023 80 8000 4.77 112 07:52 25.12.2020
4482 Clear 4 1022 80 8000 1 80 06:44 25.12.2020
4483 Mist 5 1021 93 5000 3.01 89 02:47 25.12.2020
4484 Mist 6 1021 87 5000 2.99 81 01:18 25.12.2020
4485 Mist 6 1021 81 5000 3.13 81 00:18 25.12.2020
4486 Mist 6 1022 87 5000 3.14 80 23:23 24.12.2020
4487 Mist 6 1022 87 5000 3.14 80 22:40 24.12.2020
4488 Mist 6 1022 87 5000 3.16 77 22:19 24.12.2020
4489 Clouds 7 1022 81 6000 3.16 77 21:32 24.12.2020
4490 Clouds 8 1021 76 6000 2.49 68 20:36 24.12.2020
4491 Haze 9 1020 76 5000 1.5 270 18:40 24.12.2020
4492 Haze 10 1020 71 5000 2.41 312 18:18 24.12.2020
4493 Haze 10 1020 71 5000 2.41 312 17:37 24.12.2020
4494 Haze 11 1019 71 5000 1.5 300 16:45 24.12.2020
4495 Haze 11 1019 71 5000 1.5 300 16:20 24.12.2020
4496 Haze 12 1019 62 5000 3.1 320 15:42 24.12.2020
4497 Clouds 13 1019 54 7000 4.1 320 15:19 24.12.2020
4498 Clouds 13 1019 54 7000 4.1 320 14:42 24.12.2020
4499 Clouds 13 1019 54 8000 1.5 300 14:24 24.12.2020
4500 Clouds 13 1019 54 8000 1.5 300 13:42 24.12.2020
4501 Clouds 12 1019 71 6000 3.6 240 13:22 24.12.2020
4502 Clouds 12 1019 71 6000 3.6 240 12:43 24.12.2020
4503 Clouds 12 1019 71 6000 2.1 240 12:21 24.12.2020
4504 Clouds 12 1019 71 6000 2.1 240 11:47 24.12.2020
4505 Drizzle 13 1020 71 5000 2.6 320 11:20 24.12.2020
4506 Drizzle 13 1020 71 5000 2.6 320 10:53 24.12.2020
4507 Clouds 12 1020 76 7000 1 260 10:34 24.12.2020
4508 Clouds 12 1020 76 7000 1 260 09:52 24.12.2020
4509 Clouds 12 1020 76 7000 1 260 09:52 24.12.2020
4510 Clouds 12 1020 76 7000 1 260 09:26 24.12.2020
4511 Drizzle 11 1020 93 4000 2.1 220 08:39 24.12.2020
4512 Rain 10 1019 87 4000 4.1 250 07:42 24.12.2020
4513 Rain 10 1019 87 4000 2.6 240 07:20 24.12.2020
4514 Mist 10 1019 93 5000 3.6 230 05:49 24.12.2020
4515 Rain 9 1019 87 5000 2.1 230 02:26 24.12.2020
4516 Rain 10 1019 81 5000 2.1 230 01:43 24.12.2020
4517 Rain 11 1019 81 5000 1.5 230 01:18 24.12.2020
4518 Rain 11 1019 81 5000 1.5 230 00:22 24.12.2020
4519 Rain 11 1019 87 5000 2.6 230 23:49 23.12.2020
4520 Rain 11 1019 87 5000 2.6 230 23:49 23.12.2020
4521 Rain 11 1019 87 5000 2.6 230 23:31 23.12.2020
4522 Rain 11 1019 87 5000 2.6 230 22:59 23.12.2020
4523 Haze 11 1020 76 5000 2.1 240 22:39 23.12.2020
4524 Haze 11 1020 76 5000 2.1 240 22:18 23.12.2020
4525 Haze 11 1020 76 5000 2.1 240 21:31 23.12.2020
4526 Rain 11 1019 76 5000 2.6 230 20:57 23.12.2020
4527 Rain 11 1019 76 5000 2.6 230 20:37 23.12.2020
4528 Rain 12 1019 76 5000 2.6 230 20:19 23.12.2020
4529 Haze 12 1019 76 5000 2.6 230 19:41 23.12.2020
4530 Haze 12 1019 76 5000 2.6 230 19:22 23.12.2020
4531 Haze 12 1019 76 5000 2.6 230 18:51 23.12.2020
4532 Haze 12 1019 81 5000 2.6 230 18:33 23.12.2020
4533 Haze 12 1019 81 5000 4.1 240 17:43 23.12.2020
4534 Haze 12 1019 81 5000 4.1 240 17:22 23.12.2020
4535 Haze 13 1019 71 5000 4.1 250 16:52 23.12.2020
4536 Haze 13 1019 71 5000 4.1 250 16:30 23.12.2020
4537 Clouds 13 1018 71 6000 4.6 220 15:59 23.12.2020
4538 Clouds 13 1018 71 6000 4.6 220 15:39 23.12.2020
4539 Haze 15 1018 58 5000 3.6 240 15:21 23.12.2020
4540 Haze 15 1018 58 5000 3.6 240 14:46 23.12.2020
4541 Haze 15 1018 58 5000 3.6 240 14:23 23.12.2020
4542 Clouds 15 1018 58 6000 2.1 270 13:46 23.12.2020
4543 Clouds 15 1018 58 6000 4.6 230 13:20 23.12.2020
4544 Clouds 15 1018 58 6000 4.6 230 12:58 23.12.2020
4545 Clouds 15 1018 58 6000 4.6 230 12:37 23.12.2020
4546 Clouds 15 1018 58 6000 4.6 230 12:18 23.12.2020
4547 Clouds 14 1019 71 6000 3.1 230 11:43 23.12.2020
4548 Clouds 14 1019 71 6000 3.1 230 10:57 23.12.2020
4549 Clouds 14 1019 71 6000 3.1 230 10:57 23.12.2020
4550 Clouds 14 1019 76 6000 2.6 240 10:39 23.12.2020
4551 Clouds 13 1020 71 10000 4.1 250 10:19 23.12.2020
4552 Clouds 13 1020 71 10000 4.1 250 09:26 23.12.2020
4553 Clouds 12 1020 81 6000 1.5 230 08:42 23.12.2020
4554 Haze 11 1019 93 5000 2.6 200 07:51 23.12.2020
4555 Mist 10 1020 93 3000 4.86 268 07:20 23.12.2020
4556 Mist 10 1020 93 3000 4.72 272 06:38 23.12.2020
4557 Mist 9 1019 87 5000 1.5 280 05:25 23.12.2020
4558 Mist 9 1019 87 5000 2.1 290 04:51 23.12.2020
4559 Clouds 9 1020 76 6000 4.44 287 00:34 23.12.2020
4560 Clouds 9 1020 76 6000 4.52 288 23:46 22.12.2020
4561 Clouds 9 1020 76 6000 4.41 291 23:27 22.12.2020
4562 Clouds 10 1019 76 6000 4.41 291 22:44 22.12.2020
4563 Clouds 10 1019 76 6000 4.25 301 22:25 22.12.2020
4564 Clouds 10 1020 87 6000 3.1 300 21:57 22.12.2020
4565 Clouds 10 1020 87 6000 3.1 300 21:38 22.12.2020
4566 Clouds 11 1020 81 6000 3.1 310 21:18 22.12.2020
4567 Clouds 11 1020 81 6000 3.1 310 20:47 22.12.2020
4568 Clouds 11 1019 81 6000 3.6 310 20:21 22.12.2020
4569 Clouds 11 1019 81 6000 3.6 310 19:44 22.12.2020
4570 Clouds 11 1019 81 6000 3.6 310 19:21 22.12.2020
4571 Haze 11 1019 81 5000 3.6 290 18:50 22.12.2020
4572 Haze 11 1019 81 5000 3.6 290 18:29 22.12.2020
4573 Haze 13 1019 76 5000 4.1 280 17:57 22.12.2020
4574 Haze 13 1019 76 5000 4.1 280 17:26 22.12.2020
4575 Haze 13 1019 71 5000 5.1 280 16:56 22.12.2020
4576 Haze 13 1019 71 5000 5.1 280 16:37 22.12.2020
4577 Haze 14 1019 62 5000 5.1 280 16:19 22.12.2020
4578 Haze 14 1019 62 5000 5.1 280 15:43 22.12.2020
4579 Haze 14 1019 62 5000 5.1 280 15:23 22.12.2020
4580 Haze 16 1018 59 5000 2.1 70 14:45 22.12.2020
4581 Haze 16 1018 59 5000 2.1 70 14:27 22.12.2020
4582 Haze 17 1018 51 5000 2.1 280 13:50 22.12.2020
4583 Haze 17 1018 55 4000 2.6 300 13:20 22.12.2020
4584 Haze 17 1018 55 4000 2.6 300 12:58 22.12.2020
4585 Haze 17 1018 55 4000 2.6 300 12:40 22.12.2020
4586 Dust 17 1019 59 4000 1 90 12:19 22.12.2020
4587 Dust 17 1019 59 4000 1 90 11:43 22.12.2020
4588 Dust 16 1019 59 4000 1 90 11:23 22.12.2020
4589 Dust 16 1019 59 4000 1 90 10:56 22.12.2020
4590 Dust 15 1020 62 3000 0.5 50 10:28 22.12.2020
4591 Smoke 12 1021 71 3000 0.5 30 09:59 22.12.2020
4592 Smoke 12 1021 71 3000 0.5 30 09:31 22.12.2020
4593 Smoke 10 1021 76 4000 1 60 08:59 22.12.2020
4594 Smoke 10 1021 76 4000 1 60 08:40 22.12.2020
4595 Haze 8 1021 87 4000 3.54 121 08:19 22.12.2020
4596 Haze 8 1021 87 4000 3.54 121 07:46 22.12.2020
4597 Haze 7 1021 87 4000 4.01 112 06:36 22.12.2020
4598 Haze 7 1021 87 5000 3.54 108 05:34 22.12.2020
4599 Clear 10 1020 66 6000 4.3 107 02:36 22.12.2020
4600 Clear 12 1021 50 6000 2.1 170 00:43 22.12.2020
4601 Clear 12 1022 50 7000 3.1 150 23:51 21.12.2020
4602 Clear 13 1022 50 7000 3.1 150 23:24 21.12.2020
4603 Clear 13 1022 50 7000 3.1 150 22:37 21.12.2020
4604 Clear 13 1022 50 7000 3.1 150 22:19 21.12.2020
4605 Clear 13 1022 54 6000 2.6 160 21:48 21.12.2020
4606 Clear 13 1022 54 6000 2.6 160 21:30 21.12.2020
4607 Clear 13 1022 54 6000 3.1 170 20:46 21.12.2020
4608 Clear 14 1022 50 6000 4.6 80 20:25 21.12.2020
4609 Clear 14 1022 50 6000 4.6 80 19:56 21.12.2020
4610 Clear 14 1022 50 6000 4.6 80 19:37 21.12.2020
4611 Clear 14 1022 50 6000 4.6 80 19:18 21.12.2020
4612 Clear 15 1021 51 6000 2.1 150 18:50 21.12.2020
4613 Clear 15 1021 51 6000 2.1 150 18:32 21.12.2020
4614 Haze 15 1021 58 5000 2.6 100 17:43 21.12.2020
4615 Haze 16 1021 55 5000 2.1 100 17:24 21.12.2020
4616 Haze 16 1021 55 5000 2.1 100 16:47 21.12.2020
4617 Haze 17 1021 55 5000 2.1 100 16:26 21.12.2020
4618 Clear 18 1021 51 6000 2.6 110 15:47 21.12.2020
4619 Clear 18 1021 51 6000 2.6 110 15:29 21.12.2020
4620 Clear 19 1021 45 6000 2.6 120 14:57 21.12.2020
4621 Clear 19 1021 45 7000 1 70 14:21 21.12.2020
4622 Clear 19 1021 45 7000 1 70 13:44 21.12.2020
4623 Clear 19 1021 45 7000 1 70 13:26 21.12.2020
4624 Clear 17 1022 51 7000 1 60 12:45 21.12.2020
4625 Clear 17 1022 51 7000 1 60 12:25 21.12.2020
4626 Clear 15 1022 54 6000 2.1 60 11:58 21.12.2020
4627 Clear 15 1022 54 6000 2.1 60 11:40 21.12.2020
4628 Clear 14 1023 58 6000 1 50 11:22 21.12.2020
4629 Clear 14 1023 58 6000 1 50 10:48 21.12.2020
4630 Clear 14 1023 58 6000 1 50 10:30 21.12.2020
4631 Smoke 12 1024 66 5000 1.5 40 09:47 21.12.2020
4632 Smoke 12 1024 66 5000 1.5 40 09:25 21.12.2020
4633 Smoke 9 1024 81 5000 1 50 08:54 21.12.2020
4634 Smoke 7 1023 87 4500 1 70 07:56 21.12.2020
4635 Smoke 7 1023 87 5000 1.5 80 06:47 21.12.2020
4636 Clear 7 1022 81 10000 1.5 80 04:58 21.12.2020
4637 Clear 8 1023 75 10000 4.14 109 02:31 21.12.2020
4638 Clear 9 1023 61 10000 4.04 115 00:34 21.12.2020
4639 Clear 9 1023 61 10000 4.06 117 23:37 20.12.2020
4640 Clear 10 1023 57 10000 4.07 117 23:19 20.12.2020
4641 Clear 10 1023 57 10000 4.07 117 22:42 20.12.2020
4642 Clear 11 1023 54 10000 4.04 117 22:22 20.12.2020
4643 Clear 11 1023 54 10000 4.04 117 21:40 20.12.2020
4644 Clear 11 1023 54 10000 3.95 113 21:22 20.12.2020
4645 Clear 11 1023 50 10000 3.95 113 20:53 20.12.2020
4646 Clear 11 1023 50 10000 3.89 108 20:26 20.12.2020
4647 Clear 11 1023 50 10000 3.89 108 19:58 20.12.2020
4648 Clear 12 1023 54 10000 3.89 108 19:38 20.12.2020
4649 Clear 12 1023 54 10000 3.98 92 19:20 20.12.2020
4650 Clear 13 1023 44 7000 4.01 92 18:42 20.12.2020
4651 Clear 14 1023 47 7000 4.24 82 18:23 20.12.2020
4652 Clear 14 1023 47 7000 4.24 82 17:46 20.12.2020
4653 Clear 14 1023 47 7000 4.57 79 17:28 20.12.2020
4654 Clear 14 1023 47 7000 4.57 79 17:28 20.12.2020
4655 Clear 15 1022 41 7000 4.57 79 16:47 20.12.2020
4656 Clear 16 1022 41 7000 4.65 79 16:28 20.12.2020
4657 Clear 17 1022 45 7000 3.1 60 15:50 20.12.2020
4658 Clear 17 1022 45 7000 3.1 60 15:26 20.12.2020
4659 Clear 17 1022 45 7000 3.1 60 14:56 20.12.2020
4660 Clear 17 1022 45 7000 4.22 94 14:34 20.12.2020
4661 Clear 18 1022 45 7000 1 80 13:49 20.12.2020
4662 Clear 18 1022 45 7000 1 80 13:30 20.12.2020
4663 Clear 17 1022 51 7000 1 80 12:59 20.12.2020
4664 Clear 16 1022 51 7000 1 80 12:40 20.12.2020
4665 Haze 15 1023 58 5000 1 60 12:21 20.12.2020
4666 Haze 15 1023 58 5000 1 60 11:45 20.12.2020
4667 Haze 15 1023 58 5000 1 60 11:26 20.12.2020
4668 Haze 13 1024 71 5000 0.5 40 10:49 20.12.2020
4669 Haze 12 1024 66 5000 1.5 50 10:21 20.12.2020
4670 Haze 11 1024 66 5000 1.5 50 09:46 20.12.2020
4671 Haze 11 1024 66 5000 1.5 50 09:28 20.12.2020
4672 Smoke 11 1024 87 4000 1 40 08:59 20.12.2020
4673 Smoke 10 1024 87 4000 1 40 08:40 20.12.2020
4674 Mist 8 1024 87 3000 5.04 122 07:34 20.12.2020
4675 Mist 6 1023 93 3000 4.35 115 06:28 20.12.2020
4676 Clear 6 1023 81 8000 2.1 60 02:41 20.12.2020
4677 Clear 10 1024 76 7000 3.04 119 00:53 20.12.2020
4678 Haze 10 1024 76 5000 3.15 122 23:36 19.12.2020
4679 Haze 10 1024 76 5000 2.96 123 23:18 19.12.2020
4680 Haze 10 1024 76 5000 2.96 123 22:42 19.12.2020
4681 Haze 10 1024 76 5000 2.78 130 22:24 19.12.2020
4682 Haze 10 1024 81 5000 2.78 130 21:45 19.12.2020
4683 Haze 10 1024 81 5000 2.59 113 21:26 19.12.2020
4684 Haze 10 1024 76 5000 2.59 113 20:58 19.12.2020
4685 Haze 10 1024 76 5000 2.59 113 20:36 19.12.2020
4686 Haze 10 1024 76 5000 2.68 95 20:18 19.12.2020
4687 Haze 10 1024 76 5000 2.68 95 19:41 19.12.2020
4688 Haze 10 1024 76 5000 2.7 82 19:23 19.12.2020
4689 Haze 13 1023 54 5000 2.49 81 18:34 19.12.2020
4690 Haze 14 1023 67 5000 1.5 100 17:56 19.12.2020
4691 Haze 14 1023 67 5000 1.5 100 17:36 19.12.2020
4692 Haze 15 1023 62 5000 1.5 100 17:18 19.12.2020
4693 Haze 15 1023 62 5000 1.5 100 16:40 19.12.2020
4694 Haze 16 1023 62 5000 1.5 100 16:22 19.12.2020
4695 Haze 16 1023 62 5000 1.5 100 15:54 19.12.2020
4696 Clouds 16 1023 58 6000 1.65 133 15:26 19.12.2020
4697 Clouds 16 1023 58 6000 2.1 100 14:39 19.12.2020
4698 Clouds 17 1023 48 6000 1 130 13:59 19.12.2020
4699 Clouds 17 1023 48 6000 1 130 13:40 19.12.2020
4700 Clouds 17 1023 48 6000 1 130 13:18 19.12.2020
4701 Clouds 16 1023 55 7000 2.1 80 12:42 19.12.2020
4702 Clouds 16 1023 55 7000 2.1 80 12:24 19.12.2020
4703 Clouds 15 1024 58 7000 1 80 11:56 19.12.2020
4704 Clouds 15 1024 58 7000 1 80 11:35 19.12.2020
4705 Haze 13 1025 76 5000 0.5 70 10:43 19.12.2020
4706 Mist 12 1025 87 5000 1 40 10:21 19.12.2020
4707 Mist 12 1025 87 5000 1 40 09:45 19.12.2020
4708 Mist 12 1025 87 5000 1 40 09:27 19.12.2020
4709 Mist 10 1025 87 5000 0.5 20 08:32 19.12.2020
4710 Mist 7 1025 100 3000 2.44 99 07:24 19.12.2020
4711 Mist 7 1025 100 3000 2.44 99 06:52 19.12.2020
4712 Mist 6 1024 100 4000 2.54 87 06:19 19.12.2020
4713 Mist 7 1024 93 4000 2.71 82 05:18 19.12.2020
4714 Mist 7 1024 100 3000 2.55 77 03:20 19.12.2020
4715 Mist 8 1024 93 3000 1.23 54 00:40 19.12.2020
4716 Mist 8 1024 93 3000 1.32 34 00:18 19.12.2020
4717 Mist 8 1023 87 5000 2.1 330 23:48 18.12.2020
4718 Mist 9 1024 93 3000 1.52 30 23:23 18.12.2020
4719 Mist 9 1024 93 3000 1.52 30 22:46 18.12.2020
4720 Mist 9 1024 93 3000 1.45 23 22:24 18.12.2020
4721 Mist 9 1024 93 3000 1.45 23 21:50 18.12.2020
4722 Mist 9 1024 93 3000 1.45 23 21:31 18.12.2020
4723 Mist 10 1024 93 4000 1.42 15 20:42 18.12.2020
4724 Haze 10 1024 87 4000 1.46 19 20:21 18.12.2020
4725 Haze 10 1024 87 4000 1.46 19 19:45 18.12.2020
4726 Haze 10 1024 93 4000 1.41 1 19:21 18.12.2020
4727 Haze 10 1024 93 4000 1.44 342 18:43 18.12.2020
4728 Haze 10 1024 93 4000 1.68 324 18:24 18.12.2020
4729 Clouds 14 1022 67 6000 2.18 312 17:28 18.12.2020
4730 Clouds 14 1022 67 6000 2.18 312 16:57 18.12.2020
4731 Clouds 14 1022 67 6000 2.18 312 16:38 18.12.2020
4732 Clouds 16 1022 59 6000 2.13 305 16:18 18.12.2020
4733 Clouds 16 1022 59 6000 2.13 305 15:42 18.12.2020
4734 Clouds 16 1022 59 6000 1.49 307 15:24 18.12.2020
4735 Clouds 16 1022 59 6000 1.49 307 14:55 18.12.2020
4736 Clouds 15 1022 67 6000 1.5 70 14:22 18.12.2020
4737 Clouds 15 1022 67 6000 1.5 70 13:51 18.12.2020
4738 Clouds 15 1022 67 6000 1.5 70 13:31 18.12.2020
4739 Clouds 15 1022 67 6000 1.5 70 12:56 18.12.2020
4740 Clouds 15 1022 67 6000 1.5 70 12:30 18.12.2020
4741 Haze 14 1022 71 5000 1.5 70 11:27 18.12.2020
4742 Haze 13 1022 82 4000 1.5 70 10:40 18.12.2020
4743 Clouds 12 1023 81 8000 2.1 50 10:21 18.12.2020
4744 Clouds 12 1023 81 8000 2.1 50 09:57 18.12.2020
4745 Clouds 12 1023 81 8000 2.1 50 09:37 18.12.2020
4746 Clouds 11 1022 87 10000 1.5 360 09:18 18.12.2020
4747 Clouds 11 1022 87 10000 1.5 360 08:43 18.12.2020
4748 Clouds 10 1022 87 8000 2.34 330 07:58 18.12.2020
4749 Clouds 9 1021 93 7000 1.5 340 07:20 18.12.2020
4750 Clouds 9 1021 93 7000 1.5 340 06:59 18.12.2020
4751 Mist 10 1021 93 5000 1.5 310 05:44 18.12.2020
4752 Mist 10 1021 93 5000 2.1 260 04:52 18.12.2020
4753 Mist 10 1021 87 5000 2.1 260 03:35 18.12.2020
4754 Clouds 10 1021 87 6000 2.6 240 01:45 18.12.2020
4755 Clouds 10 1021 87 6000 3.1 250 00:31 18.12.2020
4756 Mist 10 1021 87 5000 3.1 240 23:53 17.12.2020
4757 Clouds 10 1021 87 6000 2.6 230 23:25 17.12.2020
4758 Clouds 10 1021 87 6000 2.6 230 22:49 17.12.2020
4759 Clouds 10 1021 87 6000 2.6 230 22:28 17.12.2020
4760 Clouds 10 1021 87 6000 2.6 230 21:47 17.12.2020
4761 Clouds 10 1021 87 6000 2.6 230 21:22 17.12.2020
4762 Clouds 10 1021 87 6000 2.6 230 20:55 17.12.2020
4763 Clouds 11 1021 81 8000 4.1 240 20:37 17.12.2020
4764 Clouds 11 1021 81 8000 4.1 240 20:18 17.12.2020
4765 Clouds 11 1021 81 8000 4.1 240 19:44 17.12.2020
4766 Clouds 11 1021 81 8000 4.1 240 19:22 17.12.2020
4767 Clouds 11 1021 87 6000 3.1 260 18:41 17.12.2020
4768 Mist 10 1021 87 5000 2.6 250 18:22 17.12.2020
4769 Mist 10 1021 87 5000 2.6 250 18:22 17.12.2020
4770 Mist 10 1021 87 5000 2.6 250 17:51 17.12.2020
4771 Mist 10 1021 87 5000 2.6 250 17:32 17.12.2020
4772 Haze 11 1020 87 5000 2.6 240 16:44 17.12.2020
4773 Rain 12 1020 87 4000 3.6 250 16:24 17.12.2020
4774 Rain 12 1020 87 4000 3.6 250 15:52 17.12.2020
4775 Rain 12 1020 87 4000 3.6 250 15:30 17.12.2020
4776 Haze 14 1020 71 4000 3.6 240 14:54 17.12.2020
4777 Clouds 14 1019 71 5000 4.6 240 14:30 17.12.2020
4778 Clouds 14 1019 71 5000 4.6 240 13:52 17.12.2020
4779 Clouds 14 1019 71 5000 4.6 240 13:33 17.12.2020
4780 Clouds 14 1019 71 5000 4.6 230 12:47 17.12.2020
4781 Clouds 14 1019 71 5000 4.6 230 12:25 17.12.2020
4782 Clouds 14 1019 76 5000 3.1 250 11:45 17.12.2020
4783 Clouds 14 1019 76 5000 3.1 250 11:25 17.12.2020
4784 Clouds 13 1020 76 7000 3.6 230 10:55 17.12.2020
4785 Clouds 13 1020 82 3500 4.6 220 10:19 17.12.2020
4786 Clouds 13 1020 82 3500 4.6 220 09:28 17.12.2020
4787 Mist 11 1020 93 5000 3.1 240 07:54 17.12.2020
4788 Mist 11 1020 93 5000 3.1 240 07:35 17.12.2020
4789 Mist 10 1019 87 5000 3.1 210 06:54 17.12.2020
4790 Mist 10 1019 87 5000 3.1 210 06:33 17.12.2020
4791 Mist 10 1019 93 5000 3.1 230 05:59 17.12.2020
4792 Mist 11 1018 87 5000 3.6 240 00:55 17.12.2020
4793 Mist 11 1018 87 5000 3.6 240 23:57 16.12.2020
4794 Rain 11 1018 93 4000 3.1 250 23:22 16.12.2020
4795 Rain 11 1018 93 4000 3.1 250 22:58 16.12.2020
4796 Rain 11 1018 93 4000 3.1 250 22:36 16.12.2020
4797 Rain 11 1018 93 4000 2.6 230 21:54 16.12.2020
4798 Rain 11 1018 93 4000 2.6 230 21:36 16.12.2020
4799 Mist 11 1017 93 5000 3.6 230 20:59 16.12.2020
4800 Mist 11 1017 93 5000 3.6 230 20:41 16.12.2020
4801 Rain 11 1017 93 5000 3.1 240 20:19 16.12.2020
4802 Rain 11 1017 87 5000 4.1 250 19:20 16.12.2020
4803 Rain 11 1017 87 5000 4.1 250 18:57 16.12.2020
4804 Rain 11 1017 87 5000 4.1 250 18:57 16.12.2020
4805 Rain 11 1017 87 5000 4.1 250 18:57 16.12.2020
4806 Mist 11 1017 87 5000 4.1 250 18:37 16.12.2020
4807 Rain 11 1017 87 5000 4.1 250 18:19 16.12.2020
4808 Rain 11 1016 87 4000 4.1 220 17:33 16.12.2020
4809 Rain 11 1016 93 4000 3.1 260 16:42 16.12.2020
4810 Rain 10 1016 93 4000 3.1 210 16:22 16.12.2020
4811 Rain 11 1016 93 4000 3.1 210 15:52 16.12.2020
4812 Rain 11 1016 93 4000 3.1 210 15:32 16.12.2020
4813 Mist 12 1015 87 5000 5.7 230 14:56 16.12.2020
4814 Rain 12 1015 87 2500 5.1 240 14:37 16.12.2020
4815 Rain 12 1015 87 2500 5.1 240 14:19 16.12.2020
4816 Rain 12 1015 87 2500 5.1 240 13:39 16.12.2020
4817 Rain 12 1014 87 2500 5.1 240 13:19 16.12.2020
4818 Rain 12 1014 87 2500 5.1 240 12:42 16.12.2020
4819 Rain 12 1015 93 2500 5.1 240 11:49 16.12.2020
4820 Rain 11 1016 93 2500 3.6 240 11:23 16.12.2020
4821 Rain 11 1016 93 2500 3.6 240 10:53 16.12.2020
4822 Rain 11 1016 93 2500 3.6 240 10:28 16.12.2020
4823 Rain 11 1016 87 3000 2.1 220 09:54 16.12.2020
4824 Rain 11 1016 87 3000 5.7 230 09:24 16.12.2020
4825 Rain 11 1015 87 3000 2.1 190 08:22 16.12.2020
4826 Rain 11 1015 87 3000 2.1 190 07:44 16.12.2020
4827 Rain 10 1015 93 3000 2.1 210 07:20 16.12.2020
4828 Rain 10 1014 93 3000 2.1 180 03:35 16.12.2020
4829 Rain 10 1014 93 3000 2.1 170 01:59 16.12.2020
4830 Rain 11 1014 87 3000 3.1 210 23:50 15.12.2020
4831 Rain 11 1014 87 3000 3.1 210 23:31 15.12.2020
4832 Rain 11 1014 87 3000 1.5 140 22:41 15.12.2020
4833 Rain 13 1014 71 4000 2.1 220 22:21 15.12.2020
4834 Rain 13 1014 71 4000 2.1 220 21:47 15.12.2020
4835 Rain 13 1013 58 4000 3.1 240 21:23 15.12.2020
4836 Rain 13 1013 58 4000 3.1 240 20:45 15.12.2020
4837 Rain 13 1013 58 4000 4.1 240 20:27 15.12.2020
4838 Rain 13 1013 58 4000 4.1 240 19:55 15.12.2020
4839 Haze 13 1013 58 4000 4.1 240 19:34 15.12.2020
4840 Haze 13 1013 58 4000 6.2 240 18:44 15.12.2020
4841 Haze 13 1013 58 4000 6.2 240 18:24 15.12.2020
4842 Rain 13 1012 58 4000 6.2 240 17:59 15.12.2020
4843 Rain 13 1012 58 4000 6.2 240 17:41 15.12.2020
4844 Rain 13 1012 58 3000 6.2 240 17:20 15.12.2020
4845 Rain 13 1012 58 3000 6.2 240 17:20 15.12.2020
4846 Rain 13 1012 58 3000 6.2 240 16:34 15.12.2020
4847 Rain 13 1012 58 3000 6.2 240 15:59 15.12.2020
4848 Haze 13 1012 58 3000 7.2 230 15:33 15.12.2020
4849 Haze 14 1012 54 3500 6.2 230 14:51 15.12.2020
4850 Haze 14 1012 54 3500 6.2 230 14:25 15.12.2020
4851 Haze 14 1012 54 3500 6.2 230 13:59 15.12.2020
4852 Haze 14 1012 54 4000 6.2 230 13:40 15.12.2020
4853 Haze 14 1012 58 5000 3.6 200 13:22 15.12.2020
4854 Haze 14 1012 58 5000 3.6 200 12:43 15.12.2020
4855 Haze 14 1013 58 4000 4.6 220 12:18 15.12.2020
4856 Haze 14 1013 58 4000 4.6 220 11:43 15.12.2020
4857 Haze 13 1013 66 4000 4.1 230 11:20 15.12.2020
4858 Haze 13 1013 66 4000 4.1 230 10:41 15.12.2020
4859 Haze 12 1013 62 3000 5.1 230 10:19 15.12.2020
4860 Haze 12 1013 62 3000 5.1 230 09:39 15.12.2020
4861 Haze 11 1013 66 3000 4.1 230 09:21 15.12.2020
4862 Haze 11 1013 66 3000 4.1 230 08:37 15.12.2020
4863 Haze 10 1013 66 3000 2.6 240 08:19 15.12.2020
4864 Haze 10 1013 66 3000 2.6 240 07:40 15.12.2020
4865 Haze 9 1012 61 3500 6.2 270 06:40 15.12.2020
4866 Haze 9 1011 76 5000 5.1 270 05:27 15.12.2020
4867 Rain 12 1011 81 5000 5.1 250 00:38 15.12.2020
4868 Rain 11 1011 87 6000 3.6 290 23:48 14.12.2020
4869 Rain 12 1011 87 6000 3.1 290 23:19 14.12.2020
4870 Rain 12 1011 87 6000 3.1 290 22:39 14.12.2020
4871 Rain 12 1011 87 6000 4.6 280 21:56 14.12.2020
4872 Rain 12 1011 87 6000 4.6 280 21:36 14.12.2020
4873 Rain 14 1010 71 5000 5.1 280 21:18 14.12.2020
4874 Rain 15 1010 62 5000 5.1 280 20:43 14.12.2020
4875 Dust 15 1010 55 5000 3.1 260 20:24 14.12.2020
4876 Dust 16 1010 55 5000 3.1 260 19:41 14.12.2020
4877 Rain 16 1010 51 5000 2.1 270 19:23 14.12.2020
4878 Rain 16 1010 51 5000 2.1 270 18:43 14.12.2020
4879 Rain 17 1010 55 5000 4.1 250 18:23 14.12.2020
4880 Rain 17 1010 55 5000 4.1 250 17:38 14.12.2020
4881 Dust 17 1010 55 5000 4.1 250 17:19 14.12.2020
4882 Dust 17 1010 55 5000 4.1 250 17:19 14.12.2020
4883 Dust 18 1010 52 4000 5.1 270 16:40 14.12.2020
4884 Dust 18 1010 52 4000 5.1 270 16:22 14.12.2020
4885 Dust 20 1009 37 4000 5.1 270 15:33 14.12.2020
4886 Dust 23 1009 30 5000 5.1 250 14:51 14.12.2020
4887 Dust 23 1009 30 5000 5.1 250 14:32 14.12.2020
4888 Haze 24 1009 27 5000 6.2 250 13:57 14.12.2020
4889 Haze 24 1009 27 5000 6.2 250 13:35 14.12.2020
4890 Haze 24 1009 27 5000 6.2 250 12:58 14.12.2020
4891 Haze 24 1009 20 4500 7.2 220 12:40 14.12.2020
4892 Haze 24 1010 16 4000 5.1 220 12:20 14.12.2020
4893 Haze 25 1010 16 5000 2.1 170 11:30 14.12.2020
4894 Haze 22 1012 26 4000 2.6 170 10:29 14.12.2020
4895 Dust 20 1013 44 3000 0.5 220 09:53 14.12.2020
4896 Dust 18 1013 44 3000 0.5 220 09:25 14.12.2020
4897 Smoke 16 1013 47 4000 0.5 330 08:45 14.12.2020
4898 Smoke 16 1013 47 4000 0.5 330 08:26 14.12.2020
4899 Smoke 14 1013 47 5000 1.5 110 07:26 14.12.2020
4900 Clouds 13 1013 47 6000 1 70 06:44 14.12.2020
4901 Clouds 15 1013 38 8000 2.1 120 04:27 14.12.2020
4902 Clouds 13 1013 35 8000 5.03 111 02:26 14.12.2020
4903 Clouds 15 1014 38 7000 4.75 115 00:54 14.12.2020
4904 Clouds 15 1014 38 7000 4.75 115 00:31 14.12.2020
4905 Clouds 15 1015 34 7000 4.37 120 23:46 13.12.2020
4906 Clouds 15 1015 34 7000 4.37 120 23:46 13.12.2020
4907 Clouds 15 1015 33 7000 4.1 118 23:25 13.12.2020
4908 Clouds 15 1015 33 7000 4.1 118 22:46 13.12.2020
4909 Clouds 15 1015 32 7000 3.52 118 22:19 13.12.2020
4910 Clouds 16 1016 39 6000 3.52 118 21:42 13.12.2020
4911 Clouds 16 1016 39 6000 3.32 118 21:23 13.12.2020
4912 Clouds 16 1016 39 6000 3.32 118 20:35 13.12.2020
4913 Clouds 17 1015 39 6000 1.5 240 19:53 13.12.2020
4914 Clouds 17 1015 39 6000 1.5 240 19:32 13.12.2020
4915 Clouds 18 1015 39 6000 1.5 240 18:59 13.12.2020
4916 Clouds 18 1015 39 6000 1.5 240 18:41 13.12.2020
4917 Clouds 18 1015 39 6000 1.5 240 18:20 13.12.2020
4918 Clouds 19 1015 39 6000 1.5 240 17:46 13.12.2020
4919 Clouds 20 1015 32 6000 2.1 240 17:21 13.12.2020
4920 Clouds 20 1015 32 6000 2.1 240 16:55 13.12.2020
4921 Clouds 20 1015 32 6000 2.1 240 16:37 13.12.2020
4922 Haze 22 1015 24 5000 4.1 240 16:18 13.12.2020
4923 Haze 22 1015 24 5000 4.1 240 15:40 13.12.2020
4924 Clouds 22 1015 24 6000 4.1 240 15:21 13.12.2020
4925 Clouds 22 1015 24 6000 4.1 240 14:43 13.12.2020
4926 Haze 23 1015 20 5000 4.1 230 14:21 13.12.2020
4927 Haze 23 1015 20 5000 4.1 230 13:43 13.12.2020
4928 Haze 23 1015 20 5000 4.1 230 13:24 13.12.2020
4929 Haze 23 1015 22 5000 4.6 200 12:48 13.12.2020
4930 Clouds 22 1016 26 6000 2.6 200 12:22 13.12.2020
4931 Clouds 22 1016 26 6000 2.6 200 11:40 13.12.2020
4932 Clouds 21 1017 28 6000 2.1 210 10:56 13.12.2020
4933 Clouds 21 1017 28 6000 2.1 210 10:37 13.12.2020
4934 Clouds 19 1018 28 6000 2.1 200 09:55 13.12.2020
4935 Clouds 19 1018 28 6000 2.1 200 09:55 13.12.2020
4936 Clouds 19 1018 28 6000 2.1 200 09:26 13.12.2020
4937 Clouds 16 1018 39 6000 1 240 08:34 13.12.2020
4938 Haze 14 1017 47 5000 2.1 250 07:47 13.12.2020
4939 Haze 12 1017 44 5000 2.6 240 04:48 13.12.2020
4940 Haze 13 1017 50 4000 3.1 250 02:41 13.12.2020
4941 Haze 13 1017 47 4000 2.1 230 01:58 13.12.2020
4942 Clouds 16 1015 38 10000 3.86 113 00:50 13.12.2020
4943 Haze 13 1018 50 4000 2.1 230 00:28 13.12.2020
4944 Haze 13 1018 50 4000 2.1 230 23:32 12.12.2020
4945 Haze 14 1018 50 4000 2.1 230 22:53 12.12.2020
4946 Haze 14 1018 47 4000 2.1 240 22:20 12.12.2020
4947 Haze 14 1018 47 4000 2.1 240 21:42 12.12.2020
4948 Haze 14 1018 51 4000 3 156 21:18 12.12.2020
4949 Haze 14 1018 51 4000 3 156 20:41 12.12.2020
4950 Haze 14 1018 51 4000 3.18 132 20:19 12.12.2020
4951 Haze 14 1018 50 5000 3.18 132 19:46 12.12.2020
4952 Haze 15 1017 44 5000 3.57 117 19:28 12.12.2020
4953 Haze 15 1017 44 5000 3.81 103 18:47 12.12.2020
4954 Haze 15 1017 44 5000 2.44 91 18:29 12.12.2020
4955 Haze 15 1017 44 5000 2.44 91 17:51 12.12.2020
4956 Haze 18 1017 36 4000 2.44 91 17:32 12.12.2020
4957 Haze 18 1017 36 4000 1.46 102 16:28 12.12.2020
4958 Haze 18 1017 36 4000 1.46 102 15:53 12.12.2020
4959 Haze 20 1017 30 5000 1.46 102 15:34 12.12.2020
4960 Haze 21 1017 20 5000 3.1 200 14:53 12.12.2020
4961 Haze 21 1016 21 5000 4.6 230 13:58 12.12.2020
4962 Haze 21 1016 21 5000 4.6 230 13:38 12.12.2020
4963 Haze 21 1017 16 5000 1 30 13:19 12.12.2020
4964 Haze 21 1017 16 5000 1 30 12:31 12.12.2020
4965 Smoke 16 1018 38 4000 1 40 11:18 12.12.2020
4966 Smoke 16 1018 38 4000 1 40 10:42 12.12.2020
4967 Smoke 11 1019 43 5000 1 100 09:20 12.12.2020
4968 Clear 10 1017 27 10000 2.1 250 03:39 12.12.2020
4969 Clouds 9 1018 50 6000 2.1 230 00:50 12.12.2020
4970 Clouds 10 1018 50 6000 3.07 133 23:19 11.12.2020
4971 Clouds 11 1019 50 7000 2.69 127 20:55 11.12.2020
4972 Clouds 11 1019 43 7000 1.5 240 19:31 11.12.2020
4973 Clear 16 1019 38 10000 1.5 170 16:49 11.12.2020
4974 Clear 19 1018 34 10000 1.08 244 14:29 11.12.2020
4975 Clear 19 1019 36 10000 2.1 50 13:26 11.12.2020
4976 Haze 17 1019 39 5000 2.6 50 12:22 11.12.2020
4977 Haze 17 1019 39 5000 2.6 50 11:52 11.12.2020
4978 Clear 16 1020 47 10000 1.5 40 11:30 11.12.2020
4979 Clear 15 1020 47 10000 1.5 40 10:34 11.12.2020
4980 Clear 8 1020 70 10000 2.75 115 07:31 11.12.2020
4981 Clear 6 1019 70 10000 2.9 105 05:36 11.12.2020
4982 Clear 10 1019 46 10000 4.1 150 02:58 11.12.2020
4983 Clear 10 1019 46 10000 3.99 122 00:42 11.12.2020
4984 Clear 11 1020 46 10000 3.1 120 23:27 10.12.2020
4985 Clear 12 1020 47 10000 3.79 124 21:37 10.12.2020
4986 Clear 12 1020 47 10000 3.1 120 20:51 10.12.2020
4987 Clear 12 1020 47 10000 3.1 120 20:26 10.12.2020
4988 Clear 13 1020 47 10000 3.1 120 19:29 10.12.2020
4989 Clear 13 1020 50 10000 3.1 130 18:48 10.12.2020
4990 Clear 14 1020 50 10000 1.5 110 17:29 10.12.2020
4991 Clear 18 1020 39 10000 4.42 91 15:58 10.12.2020
4992 Clear 18 1020 36 10000 1.5 110 15:22 10.12.2020
4993 Clear 18 1020 36 10000 1.5 110 14:46 10.12.2020
4994 Clear 18 1020 39 10000 4.1 150 13:51 10.12.2020
4995 Clouds 17 1022 45 10000 2.1 100 12:23 10.12.2020
4996 Clouds 17 1022 45 10000 2.1 100 10:54 10.12.2020
4997 Clear 12 1024 76 6000 4.79 110 08:27 10.12.2020
4998 Mist 9 1023 93 5000 1.5 20 07:31 10.12.2020
4999 Mist 7 1023 100 5000 1 190 06:20 10.12.2020
5000 Haze 8 1024 87 5000 0.96 62 02:44 10.12.2020
5001 Haze 8 1024 87 5000 0.97 14 01:50 10.12.2020
5002 Clear 8 1024 93 6000 1.67 339 23:45 09.12.2020
5003 Clear 11 1023 81 8000 2.32 338 20:40 09.12.2020
5004 Clear 11 1024 81 8000 2.83 327 19:46 09.12.2020
5005 Clouds 13 1023 62 8000 3.28 329 18:42 09.12.2020
5006 Clouds 14 1023 58 8000 3.53 328 17:36 09.12.2020
5007 Clouds 14 1022 62 8000 3.42 329 16:40 09.12.2020
5008 Clouds 14 1022 62 8000 3.34 321 16:20 09.12.2020
5009 Clouds 17 1022 63 8000 4.1 316 14:53 09.12.2020
5010 Clouds 17 1022 63 8000 4.95 309 14:27 09.12.2020
5011 Clouds 17 1022 59 10000 3.1 300 13:51 09.12.2020
5012 Clouds 17 1022 59 10000 2.1 270 13:18 09.12.2020
5013 Clouds 17 1022 59 10000 2.1 270 12:43 09.12.2020
5014 Clouds 17 1023 59 10000 2.1 270 11:43 09.12.2020
5015 Clouds 15 1023 67 10000 2.6 310 09:54 09.12.2020
5016 Clouds 13 1024 82 7000 2.1 300 08:42 09.12.2020
5017 Mist 11 1023 87 4000 2.93 306 06:56 09.12.2020
5018 Mist 9 1022 93 5000 2.54 299 05:42 09.12.2020
5019 Mist 9 1021 93 5000 5.1 290 02:57 09.12.2020
5020 Mist 12 1022 87 5000 3.53 278 00:56 09.12.2020
5021 Drizzle 13 1022 87 5000 3.38 270 23:37 08.12.2020
5022 Drizzle 12 1022 87 5000 3.4 268 22:43 08.12.2020
5023 Haze 12 1021 76 5000 2.6 230 20:49 08.12.2020
5024 Haze 13 1021 71 5000 2.1 230 19:31 08.12.2020
5025 Haze 13 1021 67 5000 2.6 250 18:57 08.12.2020
5026 Haze 15 1020 62 5000 1.5 240 17:28 08.12.2020
5027 Haze 18 1020 55 4000 5.1 250 15:27 08.12.2020
5028 Haze 19 1019 48 4000 5.7 250 13:53 08.12.2020
5029 Haze 19 1019 48 4000 5.7 250 13:24 08.12.2020
5030 Haze 18 1020 48 5000 5.1 240 12:23 08.12.2020
5031 Haze 18 1020 48 5000 5.1 240 11:39 08.12.2020
5032 Smoke 17 1020 55 3500 3.6 240 10:43 08.12.2020
5033 Smoke 16 1021 59 3500 1 70 09:47 08.12.2020
5034 Haze 10 1021 81 3500 2.35 115 07:50 08.12.2020
5035 Haze 7 1020 87 3500 2.6 107 06:33 08.12.2020
5036 Haze 9 1020 70 5000 2.84 106 03:23 08.12.2020
5037 Haze 9 1019 71 5000 3.04 102 00:46 08.12.2020
5038 Haze 10 1020 66 5000 2.98 103 23:50 07.12.2020
5039 Haze 11 1020 66 5000 2.83 107 22:37 07.12.2020
5040 Haze 11 1020 66 5000 2.82 105 21:50 07.12.2020
5041 Clouds 12 1020 58 6000 2.9 101 19:51 07.12.2020
5042 Clouds 13 1020 54 7000 3.17 113 18:40 07.12.2020
5043 Clouds 14 1020 50 7000 3.41 115 17:26 07.12.2020
5044 Clouds 15 1019 47 7000 3.41 115 16:53 07.12.2020
5045 Clouds 17 1019 39 7000 1 200 15:26 07.12.2020
5046 Clouds 17 1019 36 7000 1 140 14:46 07.12.2020
5047 Clouds 17 1019 39 7000 2.1 160 13:54 07.12.2020
5048 Clouds 17 1020 42 7000 2.1 200 13:20 07.12.2020
5049 Clouds 17 1020 44 7000 1.5 170 11:43 07.12.2020
5050 Clouds 15 1021 54 6000 1 220 11:18 07.12.2020
5051 Haze 13 1021 62 5000 1.5 180 09:40 07.12.2020
5052 Smoke 9 1021 93 4000 2.52 153 08:21 07.12.2020
5053 Mist 8 1020 87 5000 1.82 198 06:29 07.12.2020
5054 Clouds 7 1020 87 7000 1.56 206 04:48 07.12.2020
5055 Haze 5 1019 86 5000 1.5 20 01:55 07.12.2020
5056 Clear 8 1020 87 8000 1.81 266 23:50 06.12.2020
5057 Clear 8 1020 87 8000 2.12 274 22:25 06.12.2020
5058 Clear 10 1019 87 7000 2.05 283 20:56 06.12.2020
5059 Clear 10 1019 87 7000 2.05 283 20:34 06.12.2020
5060 Clear 11 1019 81 7000 2.23 291 19:55 06.12.2020
5061 Clouds 12 1019 87 6000 3.1 230 18:33 06.12.2020
5062 Clouds 13 1019 76 6000 3.1 230 16:52 06.12.2020
5063 Haze 15 1018 58 5000 4.1 230 15:21 06.12.2020
5064 Haze 15 1017 58 5000 4.1 220 13:49 06.12.2020
5065 Haze 14 1018 67 5000 4.1 240 12:52 06.12.2020
5066 Haze 15 1018 67 5000 5.1 240 12:18 06.12.2020
5067 Haze 15 1018 67 5000 5.1 240 11:34 06.12.2020
5068 Clouds 13 1018 71 6000 3.1 220 10:51 06.12.2020
5069 Clouds 13 1018 71 6000 3.1 220 10:24 06.12.2020
5070 Haze 11 1018 81 5000 2.6 210 08:37 06.12.2020
5071 Mist 7 1018 87 5000 1 200 06:50 06.12.2020
5072 Mist 8 1018 93 4000 2.76 306 02:21 06.12.2020
5073 Mist 9 1017 87 5000 2.79 306 00:42 06.12.2020
5074 Mist 9 1017 87 5000 3.02 301 00:23 06.12.2020
5075 Haze 10 1017 81 5000 2.64 305 22:50 05.12.2020
5076 Haze 10 1017 81 5000 2.48 327 22:20 05.12.2020
5077 Haze 10 1017 81 5000 2.48 327 21:51 05.12.2020
5078 Haze 10 1017 81 5000 1 240 21:26 05.12.2020
5079 Haze 10 1017 87 5000 3.49 331 19:48 05.12.2020
5080 Haze 12 1017 81 5000 1.5 210 18:41 05.12.2020
5081 Haze 12 1016 76 5000 4.6 250 17:34 05.12.2020
5082 Haze 12 1016 76 4000 2.6 240 16:42 05.12.2020
5083 Rain 13 1016 82 4000 1.5 320 16:20 05.12.2020
5084 Haze 13 1015 76 4000 2.6 340 14:28 05.12.2020
5085 Rain 13 1016 87 2500 1.5 40 12:32 05.12.2020
5086 Mist 14 1016 87 2500 1.5 40 11:48 05.12.2020
5087 Mist 14 1016 76 2000 2.1 50 10:32 05.12.2020
5088 Rain 13 1017 82 5000 4.06 112 07:49 05.12.2020
5089 Rain 12 1016 93 3000 3.6 112 07:25 05.12.2020
5090 Rain 12 1016 87 4000 2.6 130 04:44 05.12.2020
5091 Mist 10 1017 87 4000 4.46 113 23:56 04.12.2020
5092 Mist 10 1018 87 3000 5.23 112 22:39 04.12.2020
5093 Mist 10 1018 87 3000 4.57 90 20:29 04.12.2020
5094 Mist 10 1018 93 4000 4 79 18:53 04.12.2020
5095 Mist 11 1018 93 5000 2.86 91 18:21 04.12.2020
5096 Mist 11 1018 93 5000 2.86 91 17:41 04.12.2020
5097 Haze 12 1018 81 5000 1.5 100 15:54 04.12.2020
5098 Clouds 12 1018 87 6000 3.1 120 15:18 04.12.2020
5099 Clouds 13 1019 82 6000 3.1 120 13:35 04.12.2020
5100 Clouds 13 1019 82 6000 3.1 120 12:55 04.12.2020
5101 Haze 12 1019 81 5000 6.2 90 11:41 04.12.2020
5102 Haze 12 1019 87 4000 4.1 120 10:30 04.12.2020
5103 Mist 11 1020 93 3500 1.5 70 08:29 04.12.2020
5104 Mist 8 1019 93 5000 4.88 120 06:40 04.12.2020
5105 Mist 8 1019 93 5000 4.88 120 06:40 04.12.2020
5106 Mist 8 1019 87 5000 3.69 112 04:52 04.12.2020
5107 Mist 10 1020 87 5000 3.75 116 01:20 04.12.2020
5108 Mist 9 1020 93 5000 4.28 114 22:47 03.12.2020
5109 Clear 10 1020 87 6000 3.65 75 21:22 03.12.2020
5110 Clear 11 1020 81 6000 3.65 75 20:41 03.12.2020
5111 Clear 11 1020 87 6000 3.68 72 19:22 03.12.2020
5112 Clear 12 1020 81 6000 3.68 72 18:41 03.12.2020
5113 Haze 13 1020 76 5000 1 80 17:21 03.12.2020
5114 Clear 14 1020 71 6000 1 70 15:59 03.12.2020
5115 Clear 14 1020 71 6000 1 70 15:32 03.12.2020
5116 Clouds 15 1020 67 6000 1.5 70 14:49 03.12.2020
5117 Haze 15 1020 72 3000 1 70 13:55 03.12.2020
5118 Haze 15 1020 72 3000 2.1 80 12:46 03.12.2020
5119 Haze 15 1020 72 3000 2.1 80 12:23 03.12.2020
5120 Clouds 13 1021 82 2000 1.5 80 10:54 03.12.2020
5121 Mist 11 1022 93 2500 1 60 08:49 03.12.2020
5122 Clear 9 1020 87 6000 3.18 82 04:21 03.12.2020
5123 Clear 10 1020 93 7000 2.77 75 01:57 03.12.2020
5124 Clear 10 1020 81 7000 2.22 41 00:28 03.12.2020
5125 Clear 11 1020 76 7000 2.53 45 22:47 02.12.2020
5126 Clear 11 1020 76 7000 2.4 49 21:55 02.12.2020
5127 Clear 12 1020 71 7000 2.13 45 20:51 02.12.2020
5128 Clear 12 1020 71 7000 2.13 45 20:33 02.12.2020
5129 Clear 12 1020 66 7000 2.02 28 19:54 02.12.2020
5130 Clear 13 1019 66 8000 0.5 160 17:53 02.12.2020
5131 Clear 13 1019 66 8000 0.5 160 17:34 02.12.2020
5132 Clouds 15 1018 58 8000 1 70 16:57 02.12.2020
5133 Clouds 17 1018 48 8000 1.5 90 14:47 02.12.2020
5134 Haze 17 1018 55 5000 1 90 11:34 02.12.2020
5135 Mist 17 1018 51 5000 2.1 90 10:28 02.12.2020
5136 Smoke 13 1018 71 4000 0.5 70 08:24 02.12.2020
5137 Rain 10 1015 71 5000 3.89 72 00:57 02.12.2020
5138 Rain 12 1015 62 5000 2.59 62 22:21 01.12.2020
5139 Rain 13 1015 58 5000 1.46 31 20:36 01.12.2020
5140 Rain 13 1014 62 5000 1.75 340 19:34 01.12.2020
5141 Haze 14 1014 58 5000 3.17 352 17:34 01.12.2020
5142 Haze 17 1014 42 5000 2.6 40 15:40 01.12.2020
5143 Haze 18 1014 42 5000 1 40 13:37 01.12.2020
5144 Haze 17 1015 51 5000 1 40 11:46 01.12.2020
5145 Haze 17 1015 51 5000 1 40 11:26 01.12.2020
5146 Smoke 15 1016 58 4000 1 40 10:38 01.12.2020
5147 Smoke 9 1016 87 3000 5.25 118 08:21 01.12.2020
5148 Mist 7 1016 93 3000 4.84 111 06:47 01.12.2020
5149 Haze 8 1016 81 5000 4.61 110 01:52 01.12.2020
5150 Haze 9 1016 76 5000 4.33 112 00:55 01.12.2020
5151 Haze 9 1017 76 5000 4.07 116 23:21 30.11.2020
5152 Haze 10 1017 76 5000 4.07 116 22:44 30.11.2020
5153 Haze 10 1017 76 5000 3.29 111 22:25 30.11.2020
5154 Haze 12 1017 66 5000 2.95 108 20:47 30.11.2020
5155 Haze 12 1017 66 5000 2.36 107 19:42 30.11.2020
5156 Clouds 14 1017 58 6000 1.67 76 18:23 30.11.2020
5157 Clouds 14 1017 58 6000 1.67 76 17:47 30.11.2020
5158 Clouds 16 1017 44 6000 2.1 230 16:55 30.11.2020
5159 Clouds 18 1017 42 6000 2.1 220 15:59 30.11.2020
5160 Clouds 19 1017 39 6000 2.1 250 14:46 30.11.2020
5161 Clouds 19 1017 34 7000 2.1 220 13:52 30.11.2020
5162 Clouds 20 1017 42 7000 1.5 170 12:26 30.11.2020
5163 Clear 19 1018 48 6000 1.5 200 11:58 30.11.2020
5164 Haze 17 1019 48 5000 2.1 150 10:26 30.11.2020
5165 Haze 17 1019 48 5000 2.1 150 10:26 30.11.2020
5166 Haze 14 1019 71 4000 1 40 09:49 30.11.2020
5167 Smoke 9 1019 87 8000 1 30 07:18 30.11.2020
5168 Clouds 12 1019 76 6000 5.1 150 00:41 30.11.2020
5169 Clouds 12 1020 66 6000 5.1 130 21:52 29.11.2020
5170 Clouds 12 1020 66 6000 5.1 130 21:31 29.11.2020
5171 Clouds 13 1020 66 6000 2.6 120 19:58 29.11.2020
5172 Clouds 15 1020 67 6000 1.5 120 17:47 29.11.2020
5173 Clouds 15 1020 67 6000 2.1 110 16:27 29.11.2020
5174 Haze 18 1020 55 5000 1 100 13:24 29.11.2020
5175 Clouds 17 1021 55 6000 0.5 140 11:42 29.11.2020
5176 Haze 16 1021 59 5000 1 140 10:34 29.11.2020
5177 Mist 11 1022 87 4000 1 100 08:38 29.11.2020
5178 Mist 7 1021 93 2500 2.21 139 06:33 29.11.2020
5179 Mist 10 1020 87 5000 1.71 135 23:54 28.11.2020
5180 Mist 11 1020 87 5000 2.21 135 22:56 28.11.2020
5181 Haze 11 1020 81 5000 3.97 133 20:49 28.11.2020
5182 Haze 11 1020 81 5000 4.25 127 19:50 28.11.2020
5183 Haze 11 1020 87 5000 3.1 123 19:23 28.11.2020
5184 Haze 12 1019 76 5000 3.1 123 18:51 28.11.2020
5185 Haze 12 1019 76 5000 3.48 78 17:48 28.11.2020
5186 Haze 13 1019 66 5000 3.42 68 16:44 28.11.2020
5187 Haze 16 1018 62 5000 1.5 140 14:56 28.11.2020
5188 Haze 16 1018 67 5000 1.5 40 13:18 28.11.2020
5189 Haze 14 1020 71 5000 1.5 80 10:57 28.11.2020
5190 Clouds 10 1019 81 6000 4.77 93 06:42 28.11.2020
5191 Clouds 9 1019 93 6000 3.84 89 03:33 28.11.2020
5192 Clear 10 1019 87 7000 3.77 90 01:51 28.11.2020
5193 Mist 11 1020 87 5000 2.99 92 23:18 27.11.2020
5194 Clear 11 1020 87 6000 2.99 85 21:51 27.11.2020
5195 Clear 11 1020 87 6000 3.31 67 20:37 27.11.2020
5196 Clear 11 1020 81 7000 2.93 69 19:30 27.11.2020
5197 Clouds 12 1020 81 7000 2.48 85 18:51 27.11.2020
5198 Clouds 16 1019 62 10000 0.5 100 15:39 27.11.2020
5199 Clouds 16 1018 59 10000 1.5 150 14:18 27.11.2020
5200 Clouds 15 1019 62 10000 1.5 70 12:48 27.11.2020
5201 Clouds 15 1019 67 10000 1.5 110 12:20 27.11.2020
5202 Clouds 15 1019 62 10000 1.5 140 10:51 27.11.2020
5203 Clouds 15 1019 62 10000 1.5 140 10:28 27.11.2020
5204 Clouds 13 1019 72 10000 1 41 07:39 27.11.2020
5205 Clear 11 1016 88 10000 4.42 280 22:59 26.11.2020
5206 Clear 11 1016 88 10000 4.3 276 22:22 26.11.2020
5207 Clouds 10 1016 93 6000 2.1 230 21:39 26.11.2020
5208 Clouds 10 1016 93 6000 2.1 230 20:39 26.11.2020
5209 Clouds 11 1016 87 6000 1.5 300 18:36 26.11.2020
5210 Clouds 12 1015 93 6000 3.1 230 17:20 26.11.2020
5211 Drizzle 13 1013 87 4000 4.6 220 13:44 26.11.2020
5212 Drizzle 13 1013 87 4000 5.7 220 12:56 26.11.2020
5213 Drizzle 13 1013 87 4000 5.7 220 12:29 26.11.2020
5214 Rain 12 1013 87 5000 5.1 200 10:40 26.11.2020
5215 Drizzle 12 1013 93 4500 2.1 240 10:18 26.11.2020
5216 Drizzle 12 1013 93 4500 2.1 240 09:34 26.11.2020
5217 Drizzle 11 1013 100 4000 2.1 240 08:47 26.11.2020
5218 Drizzle 11 1013 100 4000 2.1 240 08:28 26.11.2020
5219 Rain 11 1011 87 4000 1.5 180 02:18 26.11.2020
5220 Rain 13 1011 87 4000 4.1 200 21:54 25.11.2020
5221 Clouds 14 1011 71 6000 3.1 220 20:32 25.11.2020
5222 Haze 14 1011 71 5000 5.1 220 18:59 25.11.2020
5223 Haze 14 1011 71 5000 5.1 220 18:59 25.11.2020
5224 Haze 16 1011 58 5000 3.1 230 17:29 25.11.2020
5225 Clouds 17 1010 55 6000 3.1 220 15:44 25.11.2020
5226 Clouds 18 1010 48 6000 3.6 240 14:58 25.11.2020
5227 Clouds 20 1009 32 6000 5.1 240 13:46 25.11.2020
5228 Clouds 20 1009 32 6000 5.1 240 12:57 25.11.2020
5229 Haze 18 1011 51 5000 0.91 193 11:24 25.11.2020
5230 Smoke 14 1012 62 5000 2.82 126 09:21 25.11.2020
5231 Haze 13 1012 66 5000 2.82 126 08:50 25.11.2020
5232 Haze 11 1012 71 5000 3.39 119 07:41 25.11.2020
5233 Clouds 11 1013 62 6000 3.81 111 03:49 25.11.2020
5234 Clouds 12 1013 58 6000 3.91 108 01:49 25.11.2020
5235 Clouds 13 1015 50 6000 4.13 119 00:20 25.11.2020
5236 Clouds 13 1015 50 6000 4.13 119 23:35 24.11.2020
5237 Clouds 14 1015 50 6000 3.51 128 22:41 24.11.2020
5238 Clouds 13 1016 50 6000 3.46 131 21:44 24.11.2020
5239 Clouds 13 1016 50 6000 3.87 131 21:26 24.11.2020
5240 Clouds 15 1016 44 6000 3.51 120 19:48 24.11.2020
5241 Haze 15 1016 51 5000 2.1 110 17:47 24.11.2020
5242 Haze 15 1016 51 5000 2.1 110 17:27 24.11.2020
5243 Haze 17 1016 42 5000 2.1 100 16:38 24.11.2020
5244 Clouds 20 1016 40 6000 2.1 130 15:56 24.11.2020
5245 Clouds 19 1016 39 6000 2.6 90 15:20 24.11.2020
5246 Clouds 19 1016 39 6000 2.6 90 14:45 24.11.2020
5247 Clouds 19 1017 42 6000 2.6 90 13:56 24.11.2020
5248 Haze 19 1017 39 5000 4.1 140 12:42 24.11.2020
5249 Clouds 19 1019 39 6000 3.6 120 12:21 24.11.2020
5250 Clouds 19 1019 39 6000 3.6 120 11:34 24.11.2020
5251 Clouds 18 1019 42 6000 3.6 120 10:25 24.11.2020
5252 Clouds 16 1020 51 6000 1.5 90 09:42 24.11.2020
5253 Clouds 16 1020 51 6000 1.5 90 09:21 24.11.2020
5254 Mist 9 1020 100 3000 3.82 130 06:50 24.11.2020
5255 Mist 10 1020 93 5000 3.53 118 04:18 24.11.2020
5256 Mist 12 1022 81 5000 1.64 156 22:27 23.11.2020
5257 Haze 12 1022 82 5000 1.64 156 21:35 23.11.2020
5258 Haze 14 1022 76 5000 0.91 134 20:50 23.11.2020
5259 Haze 14 1022 76 4000 0.98 54 20:20 23.11.2020
5260 Haze 16 1022 72 4000 2.61 4 18:20 23.11.2020
5261 Haze 17 1022 59 4000 1 80 17:25 23.11.2020
5262 Haze 17 1022 59 4000 1 80 16:22 23.11.2020
5263 Haze 20 1021 52 5000 1 70 14:47 23.11.2020
5264 Haze 20 1022 52 4000 2.28 289 13:19 23.11.2020
5265 Haze 20 1022 52 4000 2.77 295 12:36 23.11.2020
5266 Haze 19 1022 52 5000 2.1 200 11:48 23.11.2020
5267 Haze 19 1022 52 5000 2.1 200 11:48 23.11.2020
5268 Haze 19 1023 55 5000 1 200 11:19 23.11.2020
5269 Haze 17 1024 59 5000 1 220 09:31 23.11.2020
5270 Smoke 15 1024 72 4000 0.5 190 08:47 23.11.2020
5271 Mist 12 1023 87 4000 1.21 286 07:28 23.11.2020
5272 Mist 11 1023 87 5000 1.91 296 00:38 23.11.2020
5273 Mist 11 1023 87 5000 2.01 309 23:36 22.11.2020
5274 Clouds 12 1023 76 6000 3.03 340 22:18 22.11.2020
5275 Clouds 13 1023 76 6000 3.45 346 20:54 22.11.2020
5276 Clouds 13 1023 76 6000 3.79 343 19:58 22.11.2020
5277 Haze 12 1023 76 5000 1.5 350 18:56 22.11.2020
5278 Clouds 15 1022 72 8000 1.5 310 17:33 22.11.2020
5279 Clouds 18 1022 67 6000 2.1 360 15:58 22.11.2020
5280 Clouds 19 1022 55 6000 2.1 360 14:54 22.11.2020
5281 Haze 19 1022 55 5000 1.5 240 12:50 22.11.2020
5282 Haze 19 1023 59 4000 0.5 130 12:18 22.11.2020
5283 Haze 19 1023 59 4000 0.5 130 11:36 22.11.2020
5284 Haze 16 1024 67 5000 0.5 260 10:47 22.11.2020
5285 Haze 16 1024 67 5000 0.5 260 10:29 22.11.2020
5286 Mist 9 1021 87 5000 2.49 304 02:47 22.11.2020
5287 Haze 9 1021 87 5000 2.47 289 23:54 21.11.2020
5288 Clear 10 1021 87 6000 2.26 294 22:40 21.11.2020
5289 Clear 11 1021 76 7000 2.22 300 21:30 21.11.2020
5290 Clear 12 1020 76 7000 1.5 230 20:49 21.11.2020
5291 Clear 12 1019 71 7000 1.5 230 20:18 21.11.2020
5292 Clear 12 1019 71 7000 1.5 230 19:39 21.11.2020
5293 Clouds 12 1019 62 7000 3.6 230 18:54 21.11.2020
5294 Haze 13 1018 58 5000 4.1 230 17:30 21.11.2020
5295 Haze 14 1018 58 5000 4.1 230 16:44 21.11.2020
5296 Haze 15 1017 58 5000 4.6 230 15:40 21.11.2020
5297 Haze 16 1017 54 5000 4.6 230 15:20 21.11.2020
5298 Haze 16 1017 54 5000 4.6 230 14:40 21.11.2020
5299 Clouds 16 1017 51 6000 6.7 240 12:44 21.11.2020
5300 Clouds 16 1017 51 6000 6.7 240 12:22 21.11.2020
5301 Clouds 15 1017 58 6000 5.1 230 11:49 21.11.2020
5302 Clouds 15 1017 67 6000 4.1 230 10:28 21.11.2020
5303 Haze 13 1017 76 5000 3.6 230 08:52 21.11.2020
5304 Haze 13 1017 76 5000 3.6 230 08:34 21.11.2020
5305 Clouds 12 1015 93 6000 3.53 259 05:42 21.11.2020
5306 Rain 12 1014 93 3000 3.1 250 02:52 21.11.2020
5307 Clouds 12 1014 81 6000 3.32 266 00:22 21.11.2020
5308 Clouds 12 1013 76 6000 2.1 240 22:59 20.11.2020
5309 Clear 12 1013 76 7000 3.6 250 21:45 20.11.2020
5310 Clear 12 1013 76 7000 3.6 250 21:22 20.11.2020
5311 Clear 14 1013 67 7000 1.5 230 19:55 20.11.2020
5312 Clear 14 1013 67 7000 1.5 230 19:28 20.11.2020
5313 Clear 14 1013 67 7000 2.1 240 18:27 20.11.2020
5314 Haze 15 1012 72 5000 3.1 230 17:31 20.11.2020
5315 Haze 15 1012 72 5000 3.1 240 16:47 20.11.2020
5316 Haze 15 1012 72 5000 3.1 240 16:27 20.11.2020
5317 Haze 16 1011 63 5000 5.1 250 15:42 20.11.2020
5318 Haze 18 1011 59 4000 5.1 250 13:57 20.11.2020
5319 Haze 18 1011 59 5000 5.1 260 13:20 20.11.2020
5320 Haze 18 1011 59 5000 5.1 260 12:58 20.11.2020
5321 Haze 19 1012 52 5000 4.6 260 11:55 20.11.2020
5322 Haze 19 1012 52 5000 4.6 260 11:26 20.11.2020
5323 Haze 18 1012 59 5000 2.6 240 09:56 20.11.2020
5324 Haze 16 1012 63 4500 0.98 165 08:32 20.11.2020
5325 Haze 14 1012 63 4500 1.73 140 07:52 20.11.2020
5326 Haze 10 1012 81 5000 2.2 121 05:19 20.11.2020
5327 Clouds 12 1013 76 6000 2.31 91 00:41 20.11.2020
5328 Clouds 13 1013 76 6000 0.71 321 22:30 19.11.2020
5329 Clouds 13 1013 76 6000 1.12 269 21:54 19.11.2020
5330 Clouds 14 1014 67 6000 1.49 250 20:58 19.11.2020
5331 Clouds 14 1014 67 6000 1 241 20:21 19.11.2020
5332 Clouds 15 1014 62 6000 0.12 159 19:27 19.11.2020
5333 Haze 17 1014 51 5000 0.3 15 18:55 19.11.2020
5334 Haze 18 1014 48 5000 1.5 130 17:35 19.11.2020
5335 Haze 19 1013 48 5000 1.79 69 16:39 19.11.2020
5336 Haze 21 1013 42 5000 2.1 110 15:31 19.11.2020
5337 Haze 21 1013 40 5000 2.1 100 13:58 19.11.2020
5338 Haze 21 1013 40 5000 2.1 100 13:38 19.11.2020
5339 Haze 21 1014 40 5000 2.1 100 12:57 19.11.2020
5340 Haze 21 1014 40 5000 2.1 100 12:34 19.11.2020
5341 Clear 20 1014 42 6000 3.1 100 11:41 19.11.2020
5342 Clear 20 1014 42 6000 3.1 100 11:22 19.11.2020
5343 Clear 20 1014 42 6000 3.1 100 11:22 19.11.2020
5344 Clear 18 1016 48 7000 2.1 90 10:51 19.11.2020
5345 Clear 17 1016 48 7000 2.1 90 09:49 19.11.2020
5346 Clear 17 1016 48 7000 2.1 90 09:28 19.11.2020
5347 Haze 15 1017 58 5000 1 140 08:58 19.11.2020
5348 Haze 12 1017 66 5000 1 50 07:57 19.11.2020
5349 Clear 11 1017 71 7000 4.24 115 01:50 19.11.2020
5350 Clear 13 1018 66 7000 4.47 115 00:33 19.11.2020
5351 Clear 13 1018 66 7000 5 113 23:47 18.11.2020
5352 Clear 13 1018 66 7000 5.33 106 23:23 18.11.2020
5353 Clear 14 1018 58 7000 5.33 106 22:30 18.11.2020
5354 Clear 13 1018 62 7000 5.66 102 21:44 18.11.2020
5355 Clear 13 1018 62 7000 5.45 99 21:26 18.11.2020
5356 Clear 14 1018 58 7000 5.45 99 20:40 18.11.2020
5357 Clear 14 1018 58 7000 4.83 108 19:44 18.11.2020
5358 Clear 14 1018 58 7000 4.25 111 19:24 18.11.2020
5359 Clear 15 1019 58 6000 4.83 100 18:48 18.11.2020
5360 Haze 17 1019 45 5000 2.1 80 17:52 18.11.2020
5361 Clear 18 1016 38 10000 4.3 91 16:57 18.11.2020
5362 Clear 18 1016 37 10000 4.48 96 16:21 18.11.2020
5363 Clear 20 1016 34 10000 4.96 108 14:43 18.11.2020
5364 Clear 21 1016 32 10000 5.61 118 14:25 18.11.2020
5365 Clear 20 1016 33 10000 5.55 123 13:29 18.11.2020
5366 Clear 20 1016 33 10000 5.55 123 12:44 18.11.2020
5367 Clear 20 1017 35 10000 5.96 125 11:57 18.11.2020
5368 Clear 17 1022 48 10000 3.1 100 11:22 18.11.2020
5369 Clear 17 1022 48 10000 3.1 100 10:30 18.11.2020
5370 Clear 14 1023 58 9000 1.5 110 08:43 18.11.2020
5371 Haze 12 1022 71 5000 2.1 80 07:29 18.11.2020
5372 Haze 11 1022 66 5000 2.1 90 04:47 18.11.2020
5373 Clear 12 1022 66 6000 1.5 90 00:21 18.11.2020
5374 Clear 12 1022 66 6000 1.5 90 23:30 17.11.2020
5375 Clear 12 1022 66 6000 1.5 90 22:45 17.11.2020
5376 Clear 12 1022 66 6000 1.5 90 22:27 17.11.2020
5377 Clear 13 1023 62 6000 2.1 80 21:48 17.11.2020
5378 Clear 13 1023 62 6000 2.1 80 21:28 17.11.2020
5379 Clear 13 1023 62 6000 2.1 80 20:43 17.11.2020
5380 Clear 13 1023 62 6000 2.1 80 20:23 17.11.2020
5381 Clear 13 1023 62 6000 2.1 80 20:23 17.11.2020
5382 Clear 13 1023 62 6000 1 80 19:44 17.11.2020
5383 Clouds 14 1022 58 6000 2.71 90 18:23 17.11.2020
5384 Clouds 16 1022 51 6000 1 70 17:31 17.11.2020
5385 Clouds 17 1022 48 6000 1 70 16:36 17.11.2020
5386 Clouds 17 1022 45 6000 2.09 84 15:58 17.11.2020
5387 Clouds 18 1022 45 6000 2.09 84 15:36 17.11.2020
5388 Clouds 20 1022 42 7000 1 180 14:58 17.11.2020
5389 Clouds 20 1022 42 7000 1 180 14:30 17.11.2020
5390 Clouds 20 1022 42 7000 0.5 160 13:45 17.11.2020
5391 Clouds 20 1022 42 7000 0.5 160 13:22 17.11.2020
5392 Clouds 20 1022 42 7000 1 90 12:42 17.11.2020
5393 Clouds 19 1023 48 7000 1 90 11:45 17.11.2020
5394 Clouds 19 1023 48 7000 1 90 11:26 17.11.2020
5395 Clouds 18 1023 52 7000 0.5 80 10:39 17.11.2020
5396 Haze 16 1024 59 5000 1.5 60 09:57 17.11.2020
5397 Haze 16 1024 59 5000 1.5 60 09:36 17.11.2020
5398 Smoke 14 1024 71 5000 0.5 50 08:43 17.11.2020
5399 Clear 12 1023 87 6000 4.34 110 07:59 17.11.2020
5400 Clear 12 1023 87 6000 4.34 110 07:32 17.11.2020
5401 Mist 10 1022 93 5000 2.93 100 04:31 17.11.2020
5402 Mist 10 1022 93 5000 2.66 94 03:25 17.11.2020
5403 Mist 11 1022 93 5000 2.48 84 02:29 17.11.2020
5404 Clouds 12 1021 81 6000 2.44 79 00:56 17.11.2020
5405 Clear 12 1021 81 6000 1.5 180 23:54 16.11.2020
5406 Clear 11 1021 81 6000 1.5 180 23:32 16.11.2020
5407 Clear 11 1021 87 6000 2.25 26 22:58 16.11.2020
5408 Clear 11 1021 87 6000 2.31 9 22:24 16.11.2020
5409 Clear 12 1021 82 6000 2.31 9 21:56 16.11.2020
5410 Clear 12 1021 82 6000 2.31 9 21:38 16.11.2020
5411 Clear 12 1021 82 6000 2.44 357 21:19 16.11.2020
5412 Clear 12 1021 82 6000 2.53 356 20:26 16.11.2020
5413 Clear 13 1020 76 6000 1.5 250 19:53 16.11.2020
5414 Clouds 13 1020 76 6000 1.5 250 19:29 16.11.2020
5415 Clouds 13 1020 76 6000 1.5 250 19:29 16.11.2020
5416 Clouds 14 1021 76 6000 2.31 355 18:51 16.11.2020
5417 Clouds 14 1020 76 6000 2.1 350 18:19 16.11.2020
5418 Clouds 14 1020 76 6000 2.1 350 17:36 16.11.2020
5419 Haze 16 1019 67 5000 1.82 339 17:18 16.11.2020
5420 Haze 16 1019 67 5000 1.82 339 16:49 16.11.2020
5421 Haze 16 1019 67 5000 2.05 321 16:26 16.11.2020
5422 Haze 17 1019 67 5000 2.05 321 15:45 16.11.2020
5423 Haze 17 1019 67 5000 2.58 309 15:27 16.11.2020
5424 Haze 18 1019 63 5000 1.5 240 14:48 16.11.2020
5425 Haze 18 1019 59 5000 0.5 200 13:46 16.11.2020
5426 Haze 17 1019 55 5000 0.5 270 13:18 16.11.2020
5427 Haze 17 1019 55 5000 0.5 270 12:30 16.11.2020
5428 Haze 17 1019 55 5000 1 240 11:41 16.11.2020
5429 Haze 16 1020 63 5000 2.1 230 11:21 16.11.2020
5430 Haze 16 1020 63 5000 2.1 230 10:44 16.11.2020
5431 Haze 16 1020 63 5000 2.1 230 10:26 16.11.2020
5432 Haze 14 1020 72 5000 2.6 220 09:52 16.11.2020
5433 Haze 14 1020 72 5000 2.6 220 09:34 16.11.2020
5434 Haze 13 1020 77 5000 2.6 240 08:48 16.11.2020
5435 Clouds 12 1020 87 8000 0.75 316 08:19 16.11.2020
5436 Clouds 12 1020 87 8000 0.81 302 07:19 16.11.2020
5437 Clouds 11 1019 87 8000 0.81 302 06:45 16.11.2020
5438 Clouds 11 1019 87 8000 0.66 307 05:44 16.11.2020
5439 Clouds 12 1019 82 10000 2.19 293 03:54 16.11.2020
5440 Clouds 13 1018 82 10000 2.6 240 01:45 16.11.2020
5441 Clouds 13 1018 82 10000 3.1 240 00:29 16.11.2020
5442 Rain 13 1018 82 7000 3.1 240 23:29 15.11.2020
5443 Rain 13 1018 82 7000 3.1 240 22:58 15.11.2020
5444 Rain 13 1018 82 7000 3.1 240 22:25 15.11.2020
5445 Clouds 12 1018 93 10000 4.76 301 21:54 15.11.2020
5446 Clouds 12 1018 93 10000 4.76 301 21:35 15.11.2020
5447 Clouds 13 1018 82 10000 4.45 305 20:58 15.11.2020
5448 Clouds 13 1018 82 10000 4.45 305 20:38 15.11.2020
5449 Clouds 13 1018 82 10000 4.45 305 20:38 15.11.2020
5450 Clouds 13 1018 82 10000 4.94 307 19:57 15.11.2020
5451 Clouds 13 1018 82 10000 4.94 307 19:38 15.11.2020
5452 Clouds 13 1018 82 10000 5.39 305 19:20 15.11.2020
5453 Rain 13 1018 82 7000 2.1 250 18:45 15.11.2020
5454 Rain 13 1018 82 7000 2.1 250 18:25 15.11.2020
5455 Rain 14 1018 76 7000 1 280 17:58 15.11.2020
5456 Rain 14 1018 76 7000 1 280 17:39 15.11.2020
5457 Clouds 14 1017 87 7000 1.5 290 17:20 15.11.2020
5458 Clouds 14 1017 87 7000 1.5 290 16:41 15.11.2020
5459 Clouds 14 1017 82 10000 2.6 280 16:19 15.11.2020
5460 Clouds 15 1017 82 10000 2.6 280 15:43 15.11.2020
5461 Clouds 15 1017 82 10000 2.6 280 15:24 15.11.2020
5462 Rain 17 1017 63 3000 6.7 300 14:51 15.11.2020
5463 Rain 17 1017 63 3000 6.7 300 14:26 15.11.2020
5464 Haze 18 1016 52 5000 2.6 250 13:42 15.11.2020
5465 Haze 16 1016 72 5000 2.6 250 13:21 15.11.2020
5466 Haze 16 1016 72 5000 2.6 250 12:46 15.11.2020
5467 Haze 17 1017 67 3500 4.1 240 12:19 15.11.2020
5468 Haze 17 1017 67 3500 4.1 240 11:44 15.11.2020
5469 Haze 18 1017 67 4000 2.6 260 11:18 15.11.2020
5470 Haze 18 1017 67 4000 2.6 260 10:51 15.11.2020
5471 Haze 18 1017 67 4000 2.6 260 10:30 15.11.2020
5472 Haze 18 1018 63 4000 2.6 220 09:52 15.11.2020
5473 Haze 18 1018 63 4000 2.6 220 09:32 15.11.2020
5474 Haze 17 1017 67 5000 2.1 250 08:56 15.11.2020
5475 Haze 17 1017 67 5000 2.1 250 08:38 15.11.2020
5476 Haze 15 1016 77 5000 2.1 230 07:45 15.11.2020
5477 Haze 13 1016 77 5000 2.1 260 06:42 15.11.2020
5478 Haze 14 1016 63 5000 2.1 250 04:53 15.11.2020
5479 Haze 14 1017 51 5000 1.5 220 02:21 15.11.2020
5480 Clouds 16 1017 48 6000 2.1 240 00:31 15.11.2020
5481 Clouds 16 1017 48 6000 2.1 240 23:54 14.11.2020
5482 Clouds 18 1017 42 6000 3.6 150 22:59 14.11.2020
5483 Clouds 17 1017 48 6000 2.6 150 22:41 14.11.2020
5484 Clouds 16 1017 63 8000 2.09 200 22:19 14.11.2020
5485 Clouds 16 1017 63 8000 2.09 200 21:39 14.11.2020
5486 Clouds 17 1017 55 8000 2.1 180 21:20 14.11.2020
5487 Clouds 17 1017 55 8000 2.1 180 20:47 14.11.2020
5488 Clouds 17 1017 55 8000 2.1 180 20:24 14.11.2020
5489 Haze 18 1017 55 5000 2.1 180 19:39 14.11.2020
5490 Haze 18 1017 55 5000 2.1 180 19:19 14.11.2020
5491 Haze 18 1017 48 5000 2.1 170 18:41 14.11.2020
5492 Haze 18 1017 48 5000 2.1 170 18:22 14.11.2020
5493 Haze 19 1017 55 5000 1.75 98 17:46 14.11.2020
5494 Haze 19 1017 55 5000 2.37 101 17:28 14.11.2020
5495 Haze 21 1017 43 5000 2.6 180 16:52 14.11.2020
5496 Haze 21 1017 43 5000 2.6 180 16:34 14.11.2020
5497 Clouds 22 1017 37 6000 2.6 180 15:56 14.11.2020
5498 Clouds 22 1017 37 6000 2.6 180 15:33 14.11.2020
5499 Clouds 24 1017 29 8000 2.6 180 14:57 14.11.2020
5500 Clouds 24 1017 29 8000 2.6 180 14:30 14.11.2020
5501 Clouds 24 1017 29 8000 1.5 160 13:58 14.11.2020
5502 Clouds 24 1017 29 8000 1.5 160 13:58 14.11.2020
5503 Clouds 24 1017 29 8000 1.5 160 13:39 14.11.2020
5504 Clouds 23 1018 31 8000 3.6 160 13:21 14.11.2020
5505 Clouds 23 1018 31 8000 3.6 160 12:41 14.11.2020
5506 Clouds 23 1018 31 8000 3.6 160 12:23 14.11.2020
5507 Clouds 23 1019 33 8000 4.1 150 11:40 14.11.2020
5508 Clouds 22 1019 35 8000 3.6 150 11:21 14.11.2020
5509 Clouds 22 1019 35 8000 3.6 150 10:40 14.11.2020
5510 Clouds 22 1019 35 8000 3.6 150 10:22 14.11.2020
5511 Clouds 21 1020 40 8000 1.5 190 09:45 14.11.2020
5512 Clouds 21 1020 40 8000 1.5 190 09:27 14.11.2020
5513 Clouds 19 1020 45 8000 1.5 190 08:44 14.11.2020
5514 Clouds 19 1020 45 8000 1.5 190 08:23 14.11.2020
5515 Clouds 15 1021 71 6000 5.88 129 07:42 14.11.2020
5516 Clouds 15 1021 71 6000 5.88 123 07:21 14.11.2020
5517 Clouds 13 1021 62 7000 4.88 115 06:29 14.11.2020
5518 Clouds 13 1021 71 7000 4.36 113 05:18 14.11.2020
5519 Clouds 13 1021 76 6000 4.1 80 03:40 14.11.2020
5520 Clear 16 1022 63 7000 3.71 108 00:43 14.11.2020
5521 Clear 16 1022 63 7000 4.08 92 23:43 13.11.2020
5522 Clear 16 1022 63 7000 3.43 94 23:21 13.11.2020
5523 Clear 16 1022 63 7000 3.43 94 22:42 13.11.2020
5524 Clear 16 1022 63 7000 2.3 115 22:23 13.11.2020
5525 Clear 17 1022 55 7000 2.3 115 21:51 13.11.2020
5526 Clear 17 1022 55 7000 3.16 117 21:29 13.11.2020
5527 Clear 17 1023 51 7000 1.5 110 20:56 13.11.2020
5528 Clear 17 1023 51 7000 1.5 110 20:37 13.11.2020
5529 Clear 18 1022 52 7000 2.1 110 20:19 13.11.2020
5530 Clear 18 1022 52 7000 2.1 110 19:45 13.11.2020
5531 Clouds 18 1022 52 7000 2.1 110 19:22 13.11.2020
5532 Clouds 17 1023 55 7000 1 100 18:53 13.11.2020
5533 Clouds 18 1022 52 8000 1 100 17:59 13.11.2020
5534 Clouds 18 1022 52 8000 1 100 17:39 13.11.2020
5535 Clear 20 1022 45 10000 0.5 90 17:18 13.11.2020
5536 Clear 20 1022 45 10000 0.5 90 16:47 13.11.2020
5537 Clear 20 1022 45 10000 0.5 90 16:21 13.11.2020
5538 Clear 21 1022 45 10000 1 60 15:42 13.11.2020
5539 Clear 21 1022 45 10000 1 60 15:23 13.11.2020
5540 Clouds 22 1022 35 10000 1.5 70 14:41 13.11.2020
5541 Clouds 22 1022 40 10000 1.5 70 14:20 13.11.2020
5542 Clouds 22 1022 40 10000 1.5 70 13:45 13.11.2020
5543 Clouds 22 1022 40 10000 1.5 70 13:21 13.11.2020
5544 Clouds 23 1022 40 10000 1.5 70 12:46 13.11.2020
5545 Clouds 23 1022 40 10000 1.5 70 12:24 13.11.2020
5546 Clear 21 1023 49 10000 2.1 30 11:48 13.11.2020
5547 Clear 21 1023 49 10000 2.1 30 11:27 13.11.2020
5548 Clear 20 1023 52 10000 2.1 30 10:56 13.11.2020
5549 Clear 20 1023 52 10000 2.1 30 10:35 13.11.2020
5550 Clear 19 1024 55 10000 2.1 30 09:57 13.11.2020
5551 Clear 19 1024 55 10000 2.1 30 09:38 13.11.2020
5552 Clear 18 1023 55 10000 1.5 150 09:19 13.11.2020
5553 Clear 18 1023 55 10000 1.5 150 09:19 13.11.2020
5554 Clear 18 1023 55 10000 1.5 150 09:19 13.11.2020
5555 Clear 18 1023 55 10000 1.5 150 08:50 13.11.2020
5556 Clear 14 1023 76 6000 5.38 102 08:20 13.11.2020
5557 Clear 14 1023 76 6000 5.38 102 07:44 13.11.2020
5558 Clear 14 1023 76 6000 4.97 96 07:26 13.11.2020
5559 Clear 13 1023 76 6000 4.97 96 06:49 13.11.2020
5560 Clouds 13 1023 76 6000 3.85 88 05:43 13.11.2020
5561 Clouds 13 1023 76 6000 3.82 86 05:23 13.11.2020
5562 Clouds 14 1022 76 6000 3.72 76 01:45 13.11.2020
5563 Clear 14 1022 82 6000 3.55 77 00:53 13.11.2020
5564 Clear 14 1022 82 6000 3.55 77 00:32 13.11.2020
5565 Clear 15 1023 72 6000 3.09 91 23:38 12.11.2020
5566 Clouds 15 1023 72 6000 2.22 82 23:19 12.11.2020
5567 Clouds 15 1023 72 6000 2.22 82 22:52 12.11.2020
5568 Clouds 15 1023 72 6000 2.22 82 22:33 12.11.2020
5569 Clouds 16 1022 67 6000 1.95 46 21:56 12.11.2020
5570 Clouds 16 1022 67 6000 1.95 46 21:37 12.11.2020
5571 Clouds 16 1022 67 6000 1.95 46 21:37 12.11.2020
5572 Clouds 16 1022 63 6000 2.35 17 21:18 12.11.2020
5573 Clouds 16 1022 63 6000 2.35 17 20:39 12.11.2020
5574 Clouds 17 1022 59 6000 3.17 5 20:21 12.11.2020
5575 Clouds 17 1022 59 6000 3.17 5 19:50 12.11.2020
5576 Clouds 17 1022 59 6000 3.17 5 19:32 12.11.2020
5577 Clouds 17 1022 59 6000 4.08 6 18:56 12.11.2020
5578 Clouds 18 1022 55 6000 4.16 1 18:37 12.11.2020
5579 Clouds 18 1021 52 6000 3.92 2 18:18 12.11.2020
5580 Clouds 18 1021 52 6000 3.92 2 17:39 12.11.2020
5581 Haze 18 1021 52 5000 1.5 360 17:20 12.11.2020
5582 Haze 18 1021 52 5000 1.5 360 16:44 12.11.2020
5583 Haze 20 1021 52 5000 1.5 360 16:23 12.11.2020
5584 Haze 20 1021 48 5000 2.78 345 15:46 12.11.2020
5585 Haze 20 1021 48 5000 1.38 5 15:26 12.11.2020
5586 Clouds 21 1021 49 7000 2.6 70 14:47 12.11.2020
5587 Clouds 21 1021 49 7000 2.6 70 14:47 12.11.2020
5588 Clouds 21 1021 49 7000 2.6 70 14:27 12.11.2020
5589 Clouds 21 1021 49 7000 2.6 70 14:27 12.11.2020
5590 Clouds 22 1021 43 8000 1.5 60 13:58 12.11.2020
5591 Clouds 22 1021 43 8000 1.5 60 13:39 12.11.2020
5592 Haze 23 1020 46 5000 5.1 80 13:19 12.11.2020
5593 Haze 22 1020 46 5000 5.1 80 12:44 12.11.2020
5594 Clouds 22 1021 49 7000 1 0 12:24 12.11.2020
5595 Clouds 22 1021 49 7000 1 0 11:53 12.11.2020
5596 Clouds 22 1021 49 7000 1 0 11:30 12.11.2020
5597 Clouds 20 1022 56 6000 0.5 50 10:49 12.11.2020
5598 Clouds 20 1022 56 6000 0.5 50 10:29 12.11.2020
5599 Clear 19 1023 63 6000 0.5 40 09:50 12.11.2020
5600 Clear 19 1023 63 6000 0.5 40 09:25 12.11.2020
5601 Clear 17 1023 67 6000 3.98 96 08:58 12.11.2020
5602 Clear 17 1023 67 6000 3.98 96 08:40 12.11.2020
5603 Mist 15 1022 82 5000 3.47 91 08:20 12.11.2020
5604 Mist 15 1022 82 5000 3.47 91 07:54 12.11.2020
5605 Mist 15 1022 82 5000 3.47 91 07:30 12.11.2020
5606 Clouds 14 1022 82 7000 2.58 64 06:51 12.11.2020
5607 Clouds 14 1022 82 7000 2.05 4 06:22 12.11.2020
5608 Clouds 15 1019 61 10000 2.64 345 03:45 12.11.2020
5609 Clear 14 1021 87 7000 2.25 345 03:19 12.11.2020
5610 Clear 14 1021 82 8000 1.47 26 00:28 12.11.2020
5611 Clear 14 1021 82 8000 1.47 26 23:43 11.11.2020
5612 Clear 14 1021 82 8000 2.83 354 23:24 11.11.2020
5613 Clear 15 1021 77 8000 2.83 354 22:47 11.11.2020
5614 Clear 15 1021 77 8000 3.96 349 22:22 11.11.2020
5615 Clear 15 1020 72 8000 1 140 21:57 11.11.2020
5616 Clear 15 1020 72 8000 1 140 21:38 11.11.2020
5617 Clear 15 1020 72 8000 1 140 21:19 11.11.2020
5618 Clear 15 1020 72 8000 1 140 20:42 11.11.2020
5619 Clouds 15 1020 72 8000 1 140 20:22 11.11.2020
5620 Clouds 15 1020 72 8000 1 140 19:55 11.11.2020
5621 Clouds 16 1020 72 8000 5.15 349 19:37 11.11.2020
5622 Clear 17 1020 67 7000 1 320 19:18 11.11.2020
5623 Clear 17 1020 67 7000 1 320 18:41 11.11.2020
5624 Clear 17 1020 67 7000 1 320 18:22 11.11.2020
5625 Clear 18 1020 55 7000 1.5 320 17:39 11.11.2020
5626 Clouds 19 1019 55 6000 5.75 330 17:21 11.11.2020
5627 Clouds 19 1019 55 6000 5.75 330 16:39 11.11.2020
5628 Clouds 20 1019 52 6000 4.97 322 16:21 11.11.2020
5629 Clouds 20 1019 52 6000 4.97 322 15:43 11.11.2020
5630 Clouds 20 1019 52 6000 4.48 319 15:23 11.11.2020
5631 Clouds 21 1018 52 7000 4.48 319 14:49 11.11.2020
5632 Clouds 21 1018 52 7000 4.48 319 14:30 11.11.2020
5633 Haze 21 1018 56 5000 3.73 322 13:50 11.11.2020
5634 Haze 21 1018 56 5000 3.73 322 13:32 11.11.2020
5635 Haze 22 1019 46 5000 3.74 327 12:38 11.11.2020
5636 Haze 21 1019 49 5000 3.14 329 12:20 11.11.2020
5637 Haze 21 1019 49 5000 3.14 329 11:47 11.11.2020
5638 Haze 21 1019 49 5000 2.69 331 11:25 11.11.2020
5639 Haze 19 1020 59 5000 2.69 331 10:39 11.11.2020
5640 Haze 19 1020 59 5000 2.42 330 10:20 11.11.2020
5641 Haze 19 1020 55 5000 2.42 330 09:44 11.11.2020
5642 Haze 19 1020 55 5000 2.01 324 09:24 11.11.2020
5643 Haze 17 1020 67 4000 2.01 324 08:46 11.11.2020
5644 Haze 17 1020 67 4000 1.7 319 08:27 11.11.2020
5645 Haze 14 1020 72 4000 1.7 319 07:49 11.11.2020
5646 Haze 14 1020 72 4000 1.7 319 07:49 11.11.2020
5647 Mist 12 1020 87 4000 2.45 324 06:51 11.11.2020
5648 Mist 12 1020 87 4000 2.46 321 06:25 11.11.2020
5649 Mist 11 1019 93 5000 3.15 325 03:40 11.11.2020
5650 Mist 13 1019 93 5000 3.45 322 00:59 11.11.2020
5651 Mist 13 1019 93 5000 3.76 328 00:28 11.11.2020
5652 Mist 13 1019 87 5000 3.76 328 23:49 10.11.2020
5653 Mist 13 1019 87 5000 4.02 331 23:24 10.11.2020
5654 Dust 14 1019 82 5000 4.02 331 22:57 10.11.2020
5655 Dust 14 1019 82 5000 4.26 337 22:27 10.11.2020
5656 Clear 14 1020 82 6000 4.26 337 21:54 10.11.2020
5657 Clear 14 1020 82 6000 4.26 337 21:36 10.11.2020
5658 Clear 15 1020 77 6000 4.78 341 21:18 10.11.2020
5659 Clear 15 1020 77 6000 4.78 341 20:42 10.11.2020
5660 Clear 15 1020 77 6000 5.02 337 20:23 10.11.2020
5661 Clouds 16 1018 72 7000 5.02 337 19:50 10.11.2020
5662 Clouds 16 1018 72 7000 5.02 337 19:32 10.11.2020
5663 Clouds 17 1018 59 7000 5.3 331 18:59 10.11.2020
5664 Clouds 17 1018 59 7000 5.3 331 18:40 10.11.2020
5665 Clouds 17 1018 59 7000 5.09 330 18:19 10.11.2020
5666 Haze 18 1018 55 5000 5.09 330 17:44 10.11.2020
5667 Haze 18 1018 55 5000 4.97 324 17:26 10.11.2020
5668 Haze 19 1018 55 4000 4.97 324 16:57 10.11.2020
5669 Haze 19 1018 55 4000 4.97 324 16:57 10.11.2020
5670 Haze 19 1018 55 4000 4.97 324 16:37 10.11.2020
5671 Haze 21 1018 49 4000 4.85 313 16:18 10.11.2020
5672 Haze 21 1018 49 4000 4.85 313 15:45 10.11.2020
5673 Haze 21 1018 49 4000 5.02 307 15:23 10.11.2020
5674 Haze 21 1018 49 4000 5.02 307 14:41 10.11.2020
5675 Haze 21 1018 49 4000 4.54 310 14:22 10.11.2020
5676 Haze 22 1018 46 4000 0.5 60 13:57 10.11.2020
5677 Haze 22 1018 46 4000 0.5 60 13:36 10.11.2020
5678 Haze 21 1018 49 4000 2.1 30 13:18 10.11.2020
5679 Haze 21 1018 49 4000 2.1 30 12:44 10.11.2020
5680 Haze 21 1018 49 4000 2.1 30 12:24 10.11.2020
5681 Haze 22 1018 46 4000 1 350 11:39 10.11.2020
5682 Haze 20 1018 52 5000 1.5 200 11:20 10.11.2020
5683 Haze 20 1018 52 5000 1.5 200 10:45 10.11.2020
5684 Haze 20 1018 52 5000 1.5 200 10:27 10.11.2020
5685 Haze 20 1018 52 5000 1.5 200 10:27 10.11.2020
5686 Haze 19 1019 55 5000 1.5 230 09:55 10.11.2020
5687 Haze 19 1019 55 5000 1.5 230 09:37 10.11.2020
5688 Haze 16 1019 63 5000 1.5 230 09:19 10.11.2020
5689 Haze 16 1019 63 5000 1.5 230 08:45 10.11.2020
5690 Haze 16 1019 63 5000 1.5 230 08:24 10.11.2020
5691 Haze 14 1019 72 4000 1.39 257 07:42 10.11.2020
5692 Haze 14 1019 72 4000 0.92 245 07:20 10.11.2020
5693 Haze 12 1019 82 5000 0.76 242 06:39 10.11.2020
5694 Haze 12 1018 76 5000 0.72 276 05:34 10.11.2020
5695 Haze 11 1018 81 5000 0.71 285 04:39 10.11.2020
5696 Clear 12 1018 76 6000 1.53 251 01:42 10.11.2020
5697 Clear 12 1019 76 7000 0.94 247 00:59 10.11.2020
5698 Clear 13 1019 71 7000 0.42 28 23:53 09.11.2020
5699 Clear 13 1019 71 7000 2.07 37 23:23 09.11.2020
5700 Clear 13 1020 71 7000 2.07 37 22:44 09.11.2020
5701 Clear 13 1020 71 7000 2.07 37 22:44 09.11.2020
5702 Clear 13 1020 71 7000 3.58 39 22:23 09.11.2020
5703 Clear 15 1019 72 6000 2.1 90 21:45 09.11.2020
5704 Clear 15 1019 72 6000 2.1 90 21:27 09.11.2020
5705 Clear 15 1019 72 6000 2.1 90 21:27 09.11.2020
5706 Clear 15 1019 67 6000 4.2 38 20:45 09.11.2020
5707 Clear 15 1019 67 6000 3.58 24 20:24 09.11.2020
5708 Clear 16 1019 67 6000 3.58 24 19:59 09.11.2020
5709 Clear 16 1019 67 6000 3.58 24 19:40 09.11.2020
5710 Clear 16 1019 67 6000 3.26 338 19:21 09.11.2020
5711 Clear 17 1019 55 6000 3.26 338 18:41 09.11.2020
5712 Haze 17 1018 59 5000 2.1 110 18:20 09.11.2020
5713 Haze 17 1018 59 5000 2.1 110 17:48 09.11.2020
5714 Haze 17 1018 59 5000 2.1 110 17:29 09.11.2020
5715 Haze 19 1018 55 5000 2.1 120 16:46 09.11.2020
5716 Haze 19 1018 55 5000 2.1 120 16:27 09.11.2020
5717 Haze 21 1018 43 5000 1 80 15:51 09.11.2020
5718 Haze 21 1018 43 5000 1 80 15:30 09.11.2020
5719 Haze 21 1018 49 5000 1 90 14:57 09.11.2020
5720 Haze 21 1018 49 5000 1 90 14:37 09.11.2020
5721 Haze 22 1018 46 4000 1 60 14:19 09.11.2020
5722 Haze 22 1018 46 4000 1 60 13:43 09.11.2020
5723 Haze 22 1018 46 4000 1 60 13:19 09.11.2020
5724 Haze 21 1018 49 4000 2.1 30 12:47 09.11.2020
5725 Haze 20 1019 49 5000 1.5 30 12:21 09.11.2020
5726 Haze 20 1019 49 5000 1.5 30 11:43 09.11.2020
5727 Haze 20 1019 49 5000 1.5 30 11:25 09.11.2020
5728 Haze 20 1019 49 5000 1.5 60 10:59 09.11.2020
5729 Haze 20 1019 49 5000 1.5 60 10:41 09.11.2020
5730 Haze 20 1019 49 5000 1.5 60 10:22 09.11.2020
5731 Haze 18 1019 59 5000 1 30 09:41 09.11.2020
5732 Haze 18 1019 59 5000 1 30 09:23 09.11.2020
5733 Haze 16 1020 72 5000 1 30 08:37 09.11.2020
5734 Clouds 14 1019 71 6000 6.73 98 08:18 09.11.2020
5735 Clouds 14 1019 71 6000 6.73 98 07:38 09.11.2020
5736 Clouds 13 1019 81 8000 7.2 95 07:18 09.11.2020
5737 Clouds 13 1019 81 8000 5.9 86 06:22 09.11.2020
5738 Clouds 14 1019 71 8000 5.83 87 02:58 09.11.2020
5739 Clouds 15 1019 62 8000 5.88 92 01:42 09.11.2020
5740 Clear 15 1019 77 8000 7.01 95 00:58 09.11.2020
5741 Clear 15 1019 77 8000 7.43 90 23:51 08.11.2020
5742 Clear 15 1019 77 8000 6.51 88 23:29 08.11.2020
5743 Clear 15 1019 77 8000 6.51 88 22:46 08.11.2020
5744 Rain 15 1019 77 8000 5.68 96 22:22 08.11.2020
5745 Haze 17 1019 59 4000 5.68 96 21:54 08.11.2020
5746 Haze 17 1019 59 4000 5.68 96 21:36 08.11.2020
5747 Rain 17 1018 72 5000 2.1 90 21:18 08.11.2020
5748 Rain 17 1018 72 5000 2.1 90 20:39 08.11.2020
5749 Thunderstorm 18 1018 52 4000 3.1 100 20:20 08.11.2020
5750 Thunderstorm 18 1018 52 4000 3.1 100 19:56 08.11.2020
5751 Thunderstorm 18 1018 52 4000 3.1 100 19:37 08.11.2020
5752 Haze 18 1017 55 5000 8.41 80 19:19 08.11.2020
5753 Haze 18 1017 55 5000 8.57 91 18:45 08.11.2020
5754 Haze 19 1017 55 5000 9.15 99 18:21 08.11.2020
5755 Haze 19 1017 55 5000 9.15 99 17:57 08.11.2020
5756 Haze 19 1017 55 5000 9.15 99 17:37 08.11.2020
5757 Haze 20 1017 52 5000 2.1 50 17:19 08.11.2020
5758 Haze 20 1017 52 5000 2.1 50 16:47 08.11.2020
5759 Haze 20 1017 52 5000 2.1 50 16:21 08.11.2020
5760 Haze 20 1017 52 5000 2.1 50 15:57 08.11.2020
5761 Haze 20 1017 49 5000 2.1 50 15:38 08.11.2020
5762 Haze 22 1017 43 5000 2.6 80 15:20 08.11.2020
5763 Haze 22 1017 43 5000 2.6 80 14:40 08.11.2020
5764 Haze 22 1017 43 5000 2.6 80 14:21 08.11.2020
5765 Haze 21 1017 43 5000 3.1 70 13:45 08.11.2020
5766 Haze 21 1017 43 5000 3.1 70 13:22 08.11.2020
5767 Haze 21 1017 49 5000 2.6 100 12:43 08.11.2020
5768 Haze 21 1017 49 5000 2.6 100 12:25 08.11.2020
5769 Haze 21 1018 49 5000 4.1 100 11:58 08.11.2020
5770 Haze 21 1018 49 5000 4.1 100 11:39 08.11.2020
5771 Clouds 20 1018 52 6000 4.1 100 11:20 08.11.2020
5772 Clouds 20 1018 52 6000 4.1 100 11:20 08.11.2020
5773 Clouds 20 1018 52 6000 4.1 100 10:49 08.11.2020
5774 Haze 18 1018 55 5000 3.6 100 10:19 08.11.2020
5775 Haze 18 1018 55 5000 3.6 100 09:44 08.11.2020
5776 Haze 18 1018 55 5000 3.6 100 09:24 08.11.2020
5777 Clear 17 1018 72 6000 5.1 100 08:58 08.11.2020
5778 Clear 17 1018 72 6000 5.1 100 08:39 08.11.2020
5779 Clear 17 1018 72 6000 5.1 100 08:39 08.11.2020
5780 Clear 15 1017 67 7000 2.6 90 08:18 08.11.2020
5781 Clear 15 1017 67 7000 2.6 90 07:52 08.11.2020
5782 Clouds 15 1017 67 7000 2.6 90 07:24 08.11.2020
5783 Clouds 14 1017 67 7000 6.92 88 06:22 08.11.2020
5784 Clouds 14 1017 67 7000 6.92 88 05:52 08.11.2020
5785 Clouds 14 1016 67 7000 5.92 86 04:50 08.11.2020
5786 Clouds 15 1017 67 6000 6.53 87 01:53 08.11.2020
5787 Clouds 15 1017 72 6000 6.7 83 01:19 08.11.2020
5788 Clouds 15 1017 72 6000 6.7 83 01:19 08.11.2020
5789 Clouds 15 1017 72 6000 8.51 75 00:28 08.11.2020
5790 Clouds 15 1017 72 6000 8.51 75 23:47 07.11.2020
5791 Clouds 15 1017 72 6000 9.36 68 23:29 07.11.2020
5792 Clouds 16 1017 67 6000 9.36 68 22:46 07.11.2020
5793 Clouds 16 1017 67 6000 9.4 64 22:26 07.11.2020
5794 Haze 16 1016 77 5000 9.4 64 21:55 07.11.2020
5795 Haze 16 1016 77 5000 9.4 64 21:36 07.11.2020
5796 Haze 17 1016 72 5000 8.26 60 21:18 07.11.2020
5797 Haze 17 1016 72 5000 8.26 60 20:42 07.11.2020
5798 Haze 17 1016 72 5000 6.69 59 20:23 07.11.2020
5799 Haze 17 1016 72 5000 6.69 59 19:44 07.11.2020
5800 Haze 17 1016 72 5000 4.7 55 19:26 07.11.2020
5801 Haze 17 1016 72 5000 4.7 55 18:41 07.11.2020
5802 Haze 17 1016 72 5000 3.62 36 18:22 07.11.2020
5803 Haze 18 1016 67 5000 2.9 3 17:47 07.11.2020
5804 Haze 18 1016 67 5000 1.06 335 17:28 07.11.2020
5805 Haze 20 1016 60 4000 2.1 50 16:46 07.11.2020
5806 Haze 20 1016 60 4000 2.1 50 16:25 07.11.2020
5807 Haze 20 1016 56 4000 2.1 20 15:57 07.11.2020
5808 Haze 20 1016 56 4000 2.1 20 15:39 07.11.2020
5809 Haze 20 1016 56 4000 2.1 10 15:19 07.11.2020
5810 Haze 20 1016 56 4000 2.1 10 14:41 07.11.2020
5811 Haze 20 1016 56 4000 2.1 10 14:41 07.11.2020
5812 Haze 20 1016 56 4000 2.1 10 14:41 07.11.2020
5813 Haze 21 1016 56 4000 2.1 10 14:21 07.11.2020
5814 Haze 21 1016 56 4000 1 30 13:46 07.11.2020
5815 Haze 21 1016 56 4000 1 30 13:25 07.11.2020
5816 Haze 20 1016 56 4000 1 30 12:42 07.11.2020
5817 Haze 19 1017 59 4000 1 50 12:19 07.11.2020
5818 Haze 19 1017 59 4000 1 50 11:41 07.11.2020
5819 Haze 19 1017 63 4000 1 40 11:22 07.11.2020
5820 Haze 19 1017 63 4000 1 40 10:45 07.11.2020
5821 Haze 19 1017 63 4000 1 40 10:25 07.11.2020
5822 Haze 17 1017 72 4000 1 30 09:52 07.11.2020
5823 Haze 17 1017 72 4000 1 30 09:32 07.11.2020
5824 Mist 15 1018 82 3000 4.87 120 08:53 07.11.2020
5825 Mist 15 1018 82 3000 4.87 120 08:34 07.11.2020
5826 Mist 13 1017 93 3000 4.2 115 07:50 07.11.2020
5827 Mist 13 1017 93 3000 2.73 118 07:19 07.11.2020
5828 Mist 13 1017 93 3000 2.83 118 06:47 07.11.2020
5829 Mist 13 1017 93 3000 1.49 88 05:23 07.11.2020
5830 Clouds 12 1016 93 7000 1.87 1 03:24 07.11.2020
5831 Clouds 12 1017 100 7000 2.32 331 01:28 07.11.2020
5832 Clear 12 1017 87 7000 2.32 331 00:59 07.11.2020
5833 Clear 12 1017 87 7000 1.15 312 23:53 06.11.2020
5834 Clear 12 1016 87 7000 1.14 325 23:21 06.11.2020
5835 Clear 13 1016 87 7000 1.14 325 22:42 06.11.2020
5836 Clear 13 1017 82 7000 2.42 340 22:19 06.11.2020
5837 Clear 13 1017 82 7000 2.42 340 21:46 06.11.2020
5838 Clear 13 1017 82 7000 2.44 338 21:22 06.11.2020
5839 Clear 14 1017 82 7000 2.44 338 20:56 06.11.2020
5840 Clear 14 1017 82 7000 2.44 338 20:38 06.11.2020
5841 Clear 15 1016 77 7000 2.84 336 20:18 06.11.2020
5842 Clear 15 1016 77 7000 2.84 336 19:44 06.11.2020
5843 Clouds 15 1016 77 7000 3.44 324 19:26 06.11.2020
5844 Clouds 16 1016 72 7000 3.55 338 18:46 06.11.2020
5845 Clouds 16 1016 72 7000 3.96 323 18:24 06.11.2020
5846 Clouds 16 1016 72 6000 1 240 17:51 06.11.2020
5847 Clouds 16 1016 72 6000 1 240 17:27 06.11.2020
5848 Clouds 17 1015 67 7000 2.6 240 16:50 06.11.2020
5849 Clouds 17 1015 67 7000 2.6 240 16:32 06.11.2020
5850 Clouds 18 1015 63 8000 2.1 250 15:55 06.11.2020
5851 Clouds 18 1015 63 8000 2.1 250 15:33 06.11.2020
5852 Clouds 19 1015 59 10000 2.1 260 14:54 06.11.2020
5853 Clouds 19 1015 59 10000 2.1 260 14:28 06.11.2020
5854 Clouds 20 1014 56 10000 2.6 240 13:50 06.11.2020
5855 Clouds 20 1014 56 10000 2.6 240 13:26 06.11.2020
5856 Clouds 19 1015 59 10000 2.1 250 12:56 06.11.2020
5857 Clouds 19 1015 59 10000 2.1 250 12:38 06.11.2020
5858 Clouds 18 1015 59 10000 2.6 240 12:18 06.11.2020
5859 Clouds 18 1015 59 10000 2.6 240 11:37 06.11.2020
5860 Clouds 18 1015 63 10000 2.6 240 10:58 06.11.2020
5861 Clouds 18 1015 63 10000 2.6 240 10:34 06.11.2020
5862 Clouds 17 1015 63 10000 2.6 240 09:57 06.11.2020
5863 Clouds 17 1015 72 10000 2.6 240 09:38 06.11.2020
5864 Clouds 16 1015 82 7000 3.1 260 09:20 06.11.2020
5865 Clouds 16 1015 82 7000 3.1 260 08:47 06.11.2020
5866 Clouds 16 1015 82 7000 3.1 260 08:27 06.11.2020
5867 Clouds 13 1015 93 7000 1.5 260 07:42 06.11.2020
5868 Clouds 13 1015 87 6000 1.5 230 07:19 06.11.2020
5869 Clouds 13 1015 87 6000 1.5 230 06:40 06.11.2020
5870 Clouds 13 1015 87 6000 2.1 230 05:38 06.11.2020
5871 Mist 12 1014 93 5000 5.1 240 01:59 06.11.2020
5872 Clear 12 1014 93 6000 5.1 240 00:29 06.11.2020
5873 Clear 12 1014 93 6000 5.1 240 23:51 05.11.2020
5874 Clouds 13 1014 82 7000 2.1 240 23:24 05.11.2020
5875 Clouds 13 1014 82 7000 2.1 240 22:48 05.11.2020
5876 Clouds 13 1014 93 7000 2.1 240 22:26 05.11.2020
5877 Clouds 13 1014 93 7000 2.1 240 21:57 05.11.2020
5878 Clouds 13 1014 93 7000 2.1 240 21:38 05.11.2020
5879 Clouds 13 1014 93 7000 2.1 240 21:19 05.11.2020
5880 Clouds 13 1014 93 7000 2.1 240 20:44 05.11.2020
5881 Clouds 13 1014 93 7000 2.1 240 20:24 05.11.2020
5882 Clouds 14 1015 93 7000 2.1 220 19:57 05.11.2020
5883 Clouds 14 1015 93 7000 2.1 220 19:38 05.11.2020
5884 Clouds 14 1014 93 6000 2.6 230 19:18 05.11.2020
5885 Clouds 14 1014 93 6000 2.6 230 18:41 05.11.2020
5886 Rain 15 1014 82 4000 4.1 240 18:22 05.11.2020
5887 Rain 15 1014 82 4000 4.1 240 17:46 05.11.2020
5888 Rain 15 1014 82 4000 4.1 240 17:26 05.11.2020
5889 Rain 15 1013 87 5000 3.1 220 16:49 05.11.2020
5890 Rain 15 1013 87 5000 3.1 220 16:28 05.11.2020
5891 Rain 15 1013 82 5000 4.1 230 15:55 05.11.2020
5892 Rain 15 1013 82 5000 4.1 230 15:37 05.11.2020
5893 Rain 15 1012 87 4000 4.1 220 15:18 05.11.2020
5894 Rain 15 1012 87 4000 4.1 220 14:44 05.11.2020
5895 Rain 15 1012 87 4000 4.1 220 14:24 05.11.2020
5896 Rain 16 1012 77 3000 3.6 220 13:41 05.11.2020
5897 Clouds 15 1012 82 5000 3.6 220 13:20 05.11.2020
5898 Clouds 15 1012 82 5000 3.6 220 12:43 05.11.2020
5899 Clouds 15 1012 82 5000 3.6 220 12:23 05.11.2020
5900 Mist 15 1012 82 4000 2.6 220 11:44 05.11.2020
5901 Mist 15 1012 82 4000 2.6 220 11:24 05.11.2020
5902 Rain 15 1012 87 4000 3.1 230 10:52 05.11.2020
5903 Rain 15 1012 87 4000 3.1 230 10:28 05.11.2020
5904 Rain 15 1013 87 2000 4.6 230 09:50 05.11.2020
5905 Rain 15 1013 87 2000 4.6 230 09:25 05.11.2020
5906 Mist 14 1012 87 4000 5.1 230 08:59 05.11.2020
5907 Mist 14 1012 87 4000 5.1 230 08:41 05.11.2020
5908 Mist 14 1012 87 4000 5.1 230 08:23 05.11.2020
5909 Rain 15 1012 87 4000 7.2 250 07:29 05.11.2020
5910 Rain 15 1012 87 4000 4.1 270 06:51 05.11.2020
5911 Rain 15 1012 87 4000 4.1 270 06:32 05.11.2020
5912 Rain 14 1011 93 1700 6.2 230 03:46 05.11.2020
5913 Rain 14 1014 93 2000 7.2 250 00:45 05.11.2020
5914 Rain 15 1014 93 2000 7.2 250 00:25 05.11.2020
5915 Rain 16 1014 87 1500 5.1 250 23:43 04.11.2020
5916 Rain 16 1014 87 1500 5.1 250 23:24 04.11.2020
5917 Rain 16 1014 87 4000 2.1 230 22:44 04.11.2020
5918 Rain 16 1014 87 4000 2.1 230 22:23 04.11.2020
5919 Rain 16 1014 72 4000 7.2 240 21:48 04.11.2020
5920 Rain 16 1014 72 4000 7.2 240 21:29 04.11.2020
5921 Clouds 17 1014 67 6000 5.7 230 20:56 04.11.2020
5922 Clouds 17 1014 67 6000 5.7 230 20:38 04.11.2020
5923 Clouds 17 1015 67 6000 6.2 250 20:19 04.11.2020
5924 Clouds 17 1015 67 6000 6.2 250 19:44 04.11.2020
5925 Clouds 17 1015 67 6000 6.2 250 19:26 04.11.2020
5926 Haze 17 1015 63 5000 4.6 230 18:44 04.11.2020
5927 Haze 17 1015 63 5000 4.6 230 18:25 04.11.2020
5928 Haze 17 1015 63 5000 5.1 250 17:57 04.11.2020
5929 Haze 17 1015 63 5000 5.1 250 17:38 04.11.2020
5930 Haze 18 1015 63 5000 6.7 260 17:19 04.11.2020
5931 Haze 18 1015 63 5000 6.7 260 16:38 04.11.2020
5932 Haze 19 1015 55 5000 5.7 240 16:20 04.11.2020
5933 Haze 19 1015 55 5000 5.7 240 15:46 04.11.2020
5934 Haze 19 1015 55 5000 5.7 240 15:24 04.11.2020
5935 Haze 19 1016 55 5000 5.1 250 14:48 04.11.2020
5936 Haze 19 1016 55 5000 5.1 250 14:27 04.11.2020
5937 Clouds 19 1016 55 5000 6.7 240 13:57 04.11.2020
5938 Clouds 19 1016 55 5000 6.7 240 13:39 04.11.2020
5939 Clouds 19 1016 55 5000 5.7 240 13:19 04.11.2020
5940 Clouds 19 1016 55 5000 5.7 240 12:48 04.11.2020
5941 Clouds 19 1016 55 5000 5.7 240 12:24 04.11.2020
5942 Clouds 19 1017 59 6000 3.1 240 11:55 04.11.2020
5943 Clouds 19 1017 59 6000 3.1 240 11:36 04.11.2020
5944 Clouds 18 1017 67 6000 4.1 230 11:18 04.11.2020
5945 Clouds 18 1017 67 6000 4.1 230 10:41 04.11.2020
5946 Clouds 18 1017 67 6000 4.1 230 10:22 04.11.2020
5947 Clouds 18 1018 67 5000 4.1 240 09:47 04.11.2020
5948 Clouds 18 1018 67 5000 4.1 240 09:22 04.11.2020
5949 Haze 17 1018 67 5000 4.1 240 08:44 04.11.2020
5950 Haze 16 1018 72 5000 5.1 230 08:18 04.11.2020
5951 Haze 16 1018 72 5000 5.1 230 07:44 04.11.2020
5952 Haze 16 1018 72 5000 5.1 230 07:26 04.11.2020
5953 Mist 14 1018 82 5000 2.1 240 06:41 04.11.2020
5954 Mist 12 1017 93 3000 2.6 300 05:59 04.11.2020
5955 Mist 13 1019 93 5000 2.1 250 02:32 04.11.2020
5956 Mist 14 1019 93 5000 2.1 250 01:40 04.11.2020
5957 Mist 15 1019 87 5000 2.1 290 00:40 04.11.2020
5958 Mist 15 1020 87 5000 2.1 300 23:38 03.11.2020
5959 Haze 15 1020 87 5000 2.1 310 23:20 03.11.2020
5960 Haze 15 1020 87 5000 2.1 310 22:41 03.11.2020
5961 Haze 16 1020 82 5000 1 280 22:20 03.11.2020
5962 Haze 16 1020 82 5000 1 280 21:55 03.11.2020
5963 Haze 16 1020 82 5000 1 280 21:37 03.11.2020
5964 Haze 17 1020 77 5000 1 300 21:18 03.11.2020
5965 Haze 17 1020 77 5000 1 300 20:42 03.11.2020
5966 Haze 17 1020 77 5000 1 300 20:21 03.11.2020
5967 Haze 18 1020 77 5000 2.1 330 19:43 03.11.2020
5968 Haze 19 1019 63 5000 2.6 350 19:20 03.11.2020
5969 Haze 19 1019 63 5000 2.6 350 18:44 03.11.2020
5970 Haze 19 1019 68 5000 3.1 300 18:20 03.11.2020
5971 Haze 19 1019 68 5000 3.1 300 17:56 03.11.2020
5972 Haze 19 1019 68 5000 3.1 300 17:37 03.11.2020
5973 Haze 19 1019 68 5000 3.1 300 17:37 03.11.2020
5974 Haze 21 1019 49 5000 3.1 260 17:18 03.11.2020
5975 Haze 21 1019 49 5000 3.1 260 16:43 03.11.2020
5976 Haze 21 1019 49 5000 3.1 260 16:21 03.11.2020
5977 Haze 23 1019 43 5000 4.1 250 15:41 03.11.2020
5978 Haze 23 1019 43 5000 4.1 260 15:23 03.11.2020
5979 Haze 23 1019 43 5000 4.1 260 14:46 03.11.2020
5980 Haze 23 1019 43 5000 4.1 260 14:27 03.11.2020
5981 Haze 24 1019 38 5000 2.1 270 13:46 03.11.2020
5982 Haze 24 1019 38 5000 2.1 270 13:23 03.11.2020
5983 Haze 23 1019 46 5000 1.5 310 12:59 03.11.2020
5984 Haze 23 1019 46 5000 1.5 310 12:37 03.11.2020
5985 Haze 23 1020 53 5000 1.5 310 12:18 03.11.2020
5986 Haze 23 1020 53 5000 1.5 310 11:41 03.11.2020
5987 Haze 22 1021 56 5000 4 304 11:20 03.11.2020
5988 Haze 22 1021 56 5000 4 304 11:20 03.11.2020
5989 Haze 22 1021 56 5000 4 304 10:39 03.11.2020
5990 Haze 22 1021 56 5000 3.53 315 10:21 03.11.2020
5991 Haze 20 1021 60 5000 1.5 40 09:51 03.11.2020
5992 Haze 20 1021 60 4000 1.5 40 09:33 03.11.2020
5993 Haze 19 1021 72 5000 1 100 08:56 03.11.2020
5994 Haze 19 1021 72 5000 1 100 08:35 03.11.2020
5995 Mist 17 1021 88 5000 2.8 329 07:54 03.11.2020
5996 Mist 17 1021 88 4000 3.25 331 07:27 03.11.2020
5997 Mist 15 1021 88 4000 3.25 331 06:49 03.11.2020
5998 Clouds 14 1020 77 8000 3.51 333 05:49 03.11.2020
5999 Clear 14 1020 93 8000 4.37 335 03:20 03.11.2020
6000 Rain 15 1021 87 6000 4.63 335 00:42 03.11.2020
6001 Clear 16 1021 87 6000 4.65 332 23:59 02.11.2020
6002 Clear 16 1021 87 6000 4.65 332 23:38 02.11.2020
6003 Clear 16 1021 87 6000 4.36 331 22:56 02.11.2020
6004 Clear 16 1021 87 6000 4.36 331 22:36 02.11.2020
6005 Clouds 17 1021 77 6000 5.05 332 21:59 02.11.2020
6006 Clouds 17 1021 77 6000 5.05 332 21:38 02.11.2020
6007 Clouds 17 1021 88 6000 3.98 329 21:19 02.11.2020
6008 Clouds 17 1021 88 6000 3.98 329 20:41 02.11.2020
6009 Clouds 18 1020 82 6000 3.89 339 20:20 02.11.2020
6010 Clouds 18 1020 82 6000 3.89 339 19:58 02.11.2020
6011 Clouds 18 1020 82 6000 3.89 339 19:40 02.11.2020
6012 Clouds 18 1020 82 6000 5.87 340 19:21 02.11.2020
6013 Clouds 18 1020 82 6000 5.77 337 18:39 02.11.2020
6014 Haze 19 1020 72 5000 4.1 320 18:21 02.11.2020
6015 Haze 19 1020 72 5000 4.1 320 17:56 02.11.2020
6016 Haze 19 1020 72 5000 4.1 320 17:36 02.11.2020
6017 Haze 20 1019 68 5000 4.1 320 17:18 02.11.2020
6018 Haze 20 1019 68 5000 4.1 320 16:38 02.11.2020
6019 Haze 22 1019 56 5000 3.1 270 16:20 02.11.2020
6020 Haze 22 1019 56 5000 3.1 270 15:39 02.11.2020
6021 Haze 24 1019 50 5000 3.1 250 15:20 02.11.2020
6022 Haze 24 1019 50 5000 3.1 250 14:53 02.11.2020
6023 Clouds 25 1019 47 6000 3.1 290 14:20 02.11.2020
6024 Clouds 25 1019 47 6000 3.1 290 13:53 02.11.2020
6025 Haze 24 1020 53 5000 1.5 190 13:23 02.11.2020
6026 Haze 23 1020 53 5000 1.5 190 12:55 02.11.2020
6027 Haze 23 1020 53 5000 1.5 190 12:30 02.11.2020
6028 Haze 23 1020 56 5000 2.1 307 11:56 02.11.2020
6029 Haze 23 1020 56 5000 2.1 307 11:37 02.11.2020
6030 Haze 22 1020 64 5000 0.5 60 11:18 02.11.2020
6031 Haze 22 1020 64 5000 0.5 60 10:41 02.11.2020
6032 Haze 21 1020 68 5000 1 0 10:20 02.11.2020
6033 Haze 21 1020 68 5000 1 0 09:49 02.11.2020
6034 Haze 21 1020 68 5000 1 0 09:23 02.11.2020
6035 Haze 19 1020 77 5000 1.5 350 08:40 02.11.2020
6036 Mist 18 1019 82 5000 1 0 08:20 02.11.2020
6037 Mist 18 1019 82 5000 1 0 07:50 02.11.2020
6038 Haze 15 1019 93 5000 1.5 120 06:52 02.11.2020
6039 Haze 15 1019 93 5000 1.5 120 06:34 02.11.2020
6040 Haze 17 1017 77 5000 3.6 240 03:27 02.11.2020
6041 Haze 16 1017 72 5000 3.6 300 01:24 02.11.2020
6042 Haze 16 1017 72 5000 3.6 300 01:24 02.11.2020
6043 Haze 16 1017 93 5000 3.6 300 00:35 02.11.2020
6044 Haze 16 1017 93 5000 2.1 140 23:41 01.11.2020
6045 Haze 16 1017 93 5000 2.1 140 23:23 01.11.2020
6046 Thunderstorm 18 1018 88 4000 4.1 140 22:46 01.11.2020
6047 Thunderstorm 18 1018 88 4000 4.1 140 22:25 01.11.2020
6048 Thunderstorm 18 1018 88 4000 4.1 140 22:25 01.11.2020
6049 Thunderstorm 18 1018 82 5000 3.1 70 21:58 01.11.2020
6050 Thunderstorm 18 1018 82 5000 3.1 70 21:38 01.11.2020
6051 Haze 19 1017 82 5000 3.1 340 21:20 01.11.2020
6052 Haze 19 1017 82 5000 3.1 340 20:42 01.11.2020
6053 Haze 19 1017 82 5000 3.1 340 20:23 01.11.2020
6054 Rain 20 1017 82 5000 3.1 340 19:43 01.11.2020
6055 Rain 20 1017 82 5000 3.1 340 19:25 01.11.2020
6056 Rain 21 1017 73 5000 3.1 290 18:54 01.11.2020
6057 Rain 21 1017 73 5000 3.1 290 18:36 01.11.2020
6058 Haze 21 1016 77 5000 3.1 290 18:18 01.11.2020
6059 Haze 21 1016 77 5000 3.1 290 18:18 01.11.2020
6060 Haze 21 1016 68 5000 3.1 290 17:43 01.11.2020
6061 Haze 21 1016 68 5000 3.1 290 17:24 01.11.2020
6062 Haze 22 1017 60 5000 3.1 290 16:42 01.11.2020
6063 Haze 22 1017 60 5000 3.1 290 16:21 01.11.2020
6064 Rain 23 1017 56 6000 3.1 290 15:55 01.11.2020
6065 Rain 23 1017 56 6000 3.1 290 15:37 01.11.2020
6066 Clouds 26 1016 47 7000 5.1 310 15:18 01.11.2020
6067 Clouds 26 1016 47 7000 5.1 310 14:45 01.11.2020
6068 Clouds 26 1016 47 7000 5.1 310 14:22 01.11.2020
6069 Haze 26 1016 41 5000 2.6 240 13:49 01.11.2020
6070 Haze 26 1016 41 5000 2.6 240 13:31 01.11.2020
6071 Haze 26 1016 47 5000 2.1 240 12:58 01.11.2020
6072 Haze 26 1016 47 5000 2.1 240 12:38 01.11.2020
6073 Haze 25 1016 47 5000 2.6 340 12:18 01.11.2020
6074 Haze 25 1016 47 5000 2.6 340 11:46 01.11.2020
6075 Haze 24 1017 56 5000 1.5 310 11:18 01.11.2020
6076 Haze 24 1017 56 5000 1.5 310 10:42 01.11.2020
6077 Haze 24 1017 56 5000 1.5 310 10:23 01.11.2020
6078 Haze 22 1018 56 5000 3.1 310 09:48 01.11.2020
6079 Haze 22 1017 60 5000 2.1 350 09:19 01.11.2020
6080 Haze 22 1017 60 5000 2.1 350 08:38 01.11.2020
6081 Haze 20 1016 72 5000 2.1 310 07:51 01.11.2020
6082 Haze 17 1016 82 4000 4.2 308 06:48 01.11.2020
6083 Mist 16 1015 93 5000 4.21 308 02:22 01.11.2020
6084 Mist 17 1016 88 5000 4.21 308 01:31 01.11.2020
6085 Haze 18 1016 68 5000 3.23 316 23:51 31.10.2020
6086 Haze 18 1016 68 5000 3.83 317 23:23 31.10.2020
6087 Haze 18 1016 68 5000 3.83 317 22:45 31.10.2020
6088 Haze 18 1016 68 5000 4.68 314 22:24 31.10.2020
6089 Haze 19 1016 77 5000 4.68 314 21:46 31.10.2020
6090 Haze 19 1016 77 5000 4.04 300 21:22 31.10.2020
6091 Haze 19 1016 77 5000 1 340 20:44 31.10.2020
6092 Haze 21 1015 68 5000 2.1 290 20:20 31.10.2020
6093 Haze 21 1015 68 5000 2.1 290 19:58 31.10.2020
6094 Haze 21 1015 68 5000 2.1 290 19:37 31.10.2020
6095 Haze 21 1015 68 5000 2.1 290 19:18 31.10.2020
6096 Haze 31 1015 22 5000 4.89 331 18:42 31.10.2020
6097 Haze 22 1015 64 5000 5.4 333 17:47 31.10.2020
6098 Haze 22 1015 64 5000 4.39 335 17:29 31.10.2020
6099 Haze 23 1014 57 5000 3.6 310 16:59 31.10.2020
6100 Haze 24 1014 57 5000 3.6 310 16:40 31.10.2020
6101 Haze 25 1014 39 5000 4.1 250 15:57 31.10.2020
6102 Haze 26 1014 39 5000 4.1 250 15:38 31.10.2020
6103 Haze 28 1014 37 5000 3.1 220 15:19 31.10.2020
6104 Haze 28 1014 37 5000 3.1 220 14:46 31.10.2020
6105 Haze 28 1014 37 5000 3.1 220 14:26 31.10.2020
6106 Haze 31 1014 28 5000 2.1 220 13:50 31.10.2020
6107 Haze 31 1014 28 5000 2.1 220 13:23 31.10.2020
6108 Dust 29 1015 30 3000 2.1 70 12:35 31.10.2020
6109 Dust 28 1016 39 2500 2.1 40 11:48 31.10.2020
6110 Dust 28 1016 39 2500 2.1 40 11:29 31.10.2020
6111 Dust 27 1016 42 3000 2.59 182 10:57 31.10.2020
6112 Dust 27 1016 42 3000 2.59 182 10:35 31.10.2020
6113 Smoke 25 1017 47 4000 2.08 170 09:43 31.10.2020
6114 Smoke 25 1017 47 4000 1.65 151 09:25 31.10.2020
6115 Smoke 24 1017 50 4000 1.65 151 08:33 31.10.2020
6116 Haze 20 1017 60 3500 1.37 132 07:59 31.10.2020
6117 Haze 20 1017 60 3500 1.18 116 07:27 31.10.2020
6118 Haze 18 1017 60 5000 1.18 116 06:42 31.10.2020
6119 Haze 17 1017 68 5000 0.64 124 06:20 31.10.2020
6120 Clouds 20 1017 60 6000 2.1 250 03:46 31.10.2020
6121 Clouds 18 1016 64 6000 0.98 115 01:30 31.10.2020
6122 Clouds 19 1017 60 6000 0.22 161 00:47 31.10.2020
6123 Clouds 19 1017 60 6000 0.73 104 23:53 30.10.2020
6124 Clouds 19 1017 64 6000 1.06 326 23:27 30.10.2020
6125 Clouds 20 1017 56 6000 1.06 326 22:56 30.10.2020
6126 Clouds 20 1017 56 6000 1.06 326 22:37 30.10.2020
6127 Clouds 20 1018 52 6000 2.45 324 22:18 30.10.2020
6128 Clouds 20 1018 52 6000 2.45 324 21:41 30.10.2020
6129 Clear 20 1018 52 6000 3.22 322 21:22 30.10.2020
6130 Clear 21 1018 56 6000 3.22 322 20:43 30.10.2020
6131 Clear 21 1018 56 6000 3.2 315 20:24 30.10.2020
6132 Clear 22 1018 49 6000 3.2 315 19:53 30.10.2020
6133 Clear 22 1018 49 6000 2.27 323 19:22 30.10.2020
6134 Clear 23 1018 47 6000 2.27 323 18:53 30.10.2020
6135 Clear 23 1018 47 6000 2.27 323 18:34 30.10.2020
6136 Clear 23 1017 44 6000 3.93 349 17:59 30.10.2020
6137 Clear 24 1017 44 6000 3.93 349 17:40 30.10.2020
6138 Clear 25 1017 39 6000 2.1 330 17:20 30.10.2020
6139 Clear 26 1017 39 6000 2.1 330 16:49 30.10.2020
6140 Clear 26 1017 39 6000 2.1 330 16:24 30.10.2020
6141 Clouds 30 1017 19 6000 1.5 250 15:41 30.10.2020
6142 Clear 30 1017 20 6000 2.1 290 15:21 30.10.2020
6143 Clear 30 1017 20 6000 2.1 290 14:55 30.10.2020
6144 Clear 30 1017 20 6000 2.1 290 14:36 30.10.2020
6145 Haze 32 1017 14 5000 2.1 290 14:18 30.10.2020
6146 Haze 32 1017 14 5000 2.1 290 13:41 30.10.2020
6147 Haze 31 1018 14 5000 1.5 200 13:19 30.10.2020
6148 Haze 31 1018 14 5000 1.5 200 12:41 30.10.2020
6149 Haze 31 1018 14 5000 1.5 200 12:21 30.10.2020
6150 Haze 29 1019 26 5000 1.5 220 11:44 30.10.2020
6151 Haze 28 1019 30 5000 2.25 189 11:20 30.10.2020
6152 Haze 28 1019 30 5000 2.25 189 10:50 30.10.2020
6153 Haze 28 1019 30 5000 2.19 166 10:25 30.10.2020
6154 Haze 26 1019 39 5000 1.5 20 09:46 30.10.2020
6155 Haze 26 1019 39 5000 1.5 20 09:24 30.10.2020
6156 Haze 24 1019 44 5000 2.6 138 08:55 30.10.2020
6157 Haze 24 1019 44 5000 2.81 138 08:31 30.10.2020
6158 Haze 22 1019 44 5000 2.71 114 07:52 30.10.2020
6159 Haze 21 1019 53 5000 2.71 114 07:33 30.10.2020
6160 Haze 18 1019 56 5000 1.47 105 06:49 30.10.2020
6161 Haze 17 1019 63 4500 0.29 63 05:39 30.10.2020
6162 Haze 15 1018 58 5000 0.18 231 02:43 30.10.2020
6163 Dust 19 1019 68 3500 1.68 352 01:18 30.10.2020
6164 Dust 20 1019 60 3500 2.4 324 23:58 29.10.2020
6165 Dust 20 1019 60 3500 2.4 324 23:40 29.10.2020
6166 Dust 20 1019 56 3000 2.48 321 23:21 29.10.2020
6167 Dust 21 1019 56 3000 2.48 321 22:43 29.10.2020
6168 Dust 21 1019 56 3000 2.93 327 22:24 29.10.2020
6169 Dust 21 1019 53 2500 2.93 327 21:43 29.10.2020
6170 Dust 21 1019 53 2500 2.5 308 21:22 29.10.2020
6171 Haze 22 1019 56 3500 2.5 308 20:43 29.10.2020
6172 Haze 22 1019 56 3500 3.11 315 20:23 29.10.2020
6173 Haze 24 1019 50 3000 3.11 315 19:56 29.10.2020
6174 Haze 24 1019 50 3000 3.11 315 19:38 29.10.2020
6175 Haze 24 1019 50 3000 4.04 336 19:18 29.10.2020
6176 Haze 24 1019 53 4000 3.83 336 18:45 29.10.2020
6177 Haze 24 1019 53 4000 5.21 350 18:25 29.10.2020
6178 Haze 25 1019 50 5000 5.21 350 17:42 29.10.2020
6179 Haze 28 1018 37 5000 1.5 290 17:22 29.10.2020
6180 Haze 28 1018 37 5000 1.5 290 16:52 29.10.2020
6181 Haze 29 1018 37 5000 2.6 300 16:23 29.10.2020
6182 Haze 29 1018 37 5000 2.6 300 15:58 29.10.2020
6183 Haze 29 1018 37 5000 2.6 300 15:40 29.10.2020
6184 Haze 29 1018 37 5000 2.6 300 15:22 29.10.2020
6185 Haze 31 1018 29 5000 1.5 360 14:58 29.10.2020
6186 Haze 31 1018 29 5000 1.5 360 14:39 29.10.2020
6187 Haze 31 1018 29 5000 1.5 360 14:39 29.10.2020
6188 Haze 31 1019 25 5000 1.5 330 14:18 29.10.2020
6189 Haze 31 1019 25 5000 1.5 330 13:40 29.10.2020
6190 Haze 31 1019 25 5000 1.5 330 13:22 29.10.2020
6191 Haze 31 1019 29 5000 1.75 244 12:41 29.10.2020
6192 Dust 30 1019 30 3000 2.1 20 12:19 29.10.2020
6193 Dust 30 1019 30 3000 2.1 20 11:47 29.10.2020
6194 Dust 30 1019 30 3000 2.1 20 11:26 29.10.2020
6195 Dust 29 1020 35 3000 2.1 30 10:38 29.10.2020
6196 Dust 28 1020 30 4000 1 90 10:20 29.10.2020
6197 Dust 28 1020 30 4000 1 90 09:53 29.10.2020
6198 Dust 28 1020 30 4000 1 90 09:28 29.10.2020
6199 Smoke 24 1020 50 3000 0.63 59 08:59 29.10.2020
6200 Smoke 24 1020 50 3000 0.63 59 08:40 29.10.2020
6201 Smoke 21 1020 53 3000 1.27 62 08:18 29.10.2020
6202 Smoke 21 1020 53 3000 1.27 62 07:46 29.10.2020
6203 Dust 18 1019 60 4000 1.5 240 06:58 29.10.2020
6204 Dust 18 1019 60 4000 1.5 240 06:22 29.10.2020
6205 Dust 16 1019 68 4000 1.62 298 04:46 29.10.2020
6206 Clouds 20 1016 61 10000 4.34 331 02:18 29.10.2020
6207 Clouds 20 1016 63 10000 4.27 326 00:31 29.10.2020
6208 Clouds 19 1016 68 10000 3.91 334 23:59 28.10.2020
6209 Clouds 20 1016 68 10000 4.49 328 23:23 28.10.2020
6210 Clouds 20 1016 68 10000 4.49 328 22:59 28.10.2020
6211 Clouds 20 1016 68 10000 4.49 328 22:41 28.10.2020
6212 Dust 20 1020 40 4000 5.48 323 22:22 28.10.2020
6213 Dust 20 1020 40 4000 5.48 323 21:43 28.10.2020
6214 Dust 20 1020 40 4000 4.95 318 21:25 28.10.2020
6215 Dust 20 1019 40 4000 4.95 318 20:43 28.10.2020
6216 Dust 20 1019 40 4000 3.9 308 20:23 28.10.2020
6217 Dust 21 1019 38 4000 3.9 308 19:55 28.10.2020
6218 Dust 21 1019 38 4000 3.9 308 19:36 28.10.2020
6219 Dust 23 1019 38 4000 3.6 313 19:18 28.10.2020
6220 Dust 23 1019 38 4000 3.6 313 18:42 28.10.2020
6221 Dust 25 1018 31 4000 1.5 220 18:18 28.10.2020
6222 Dust 25 1018 31 4000 1.5 220 17:41 28.10.2020
6223 Dust 27 1018 28 4000 5.39 335 17:21 28.10.2020
6224 Dust 27 1018 28 4000 5.39 335 16:47 28.10.2020
6225 Dust 27 1018 28 4000 3.65 337 16:28 28.10.2020
6226 Clouds 26 1014 19 10000 3.65 337 15:43 28.10.2020
6227 Clouds 29 1014 14 10000 2.58 329 15:20 28.10.2020
6228 Clouds 29 1014 14 10000 2.58 329 14:50 28.10.2020
6229 Dust 31 1018 20 3500 2.1 230 14:32 28.10.2020
6230 Clouds 31 1013 13 10000 2.26 292 13:59 28.10.2020
6231 Clouds 32 1013 12 10000 2.25 289 12:38 28.10.2020
6232 Clouds 31 1014 13 10000 1.46 292 12:20 28.10.2020
6233 Clouds 31 1014 13 10000 1.46 292 11:43 28.10.2020
6234 Dust 28 1019 28 3000 1 100 11:22 28.10.2020
6235 Clouds 30 1015 13 10000 0.51 259 10:57 28.10.2020
6236 Dust 26 1019 34 3000 0.5 70 10:39 28.10.2020
6237 Dust 26 1019 34 3000 0.5 70 10:21 28.10.2020
6238 Dust 25 1019 34 3000 0.5 70 09:38 28.10.2020
6239 Dust 24 1019 38 4000 0.5 40 09:20 28.10.2020
6240 Dust 24 1019 38 4000 0.5 40 08:47 28.10.2020
6241 Dust 24 1019 38 4000 0.5 40 08:25 28.10.2020
6242 Smoke 21 1018 46 4000 3.54 115 07:48 28.10.2020
6243 Smoke 21 1018 46 4000 3.54 115 07:30 28.10.2020
6244 Smoke 18 1018 42 2500 4.37 115 06:40 28.10.2020
6245 Smoke 17 1018 45 3000 2.1 120 05:49 28.10.2020
6246 Haze 18 1018 39 4000 3.18 106 04:53 28.10.2020
6247 Haze 18 1018 39 4000 3.55 108 04:25 28.10.2020
6248 Clear 18 1015 28 10000 3.3 96 02:25 28.10.2020
6249 Clear 18 1015 28 10000 3.3 96 01:49 28.10.2020
6250 Clouds 19 1015 36 10000 1.36 26 23:57 27.10.2020
6251 Haze 21 1017 28 4000 1.36 26 23:38 27.10.2020
6252 Haze 21 1017 28 4000 3.09 348 23:20 27.10.2020
6253 Haze 21 1017 28 4000 3.09 348 22:42 27.10.2020
6254 Haze 23 1017 25 4000 2.1 220 22:19 27.10.2020
6255 Haze 23 1017 25 4000 2.1 220 21:55 27.10.2020
6256 Haze 23 1017 25 4000 2.1 220 21:37 27.10.2020
6257 Haze 23 1017 25 4000 2.1 220 21:37 27.10.2020
6258 Haze 23 1017 25 4000 2.1 220 21:37 27.10.2020
6259 Haze 23 1017 25 4000 2.1 220 21:37 27.10.2020
6260 Haze 23 1018 23 4000 2.1 250 21:18 27.10.2020
6261 Haze 23 1018 23 4000 2.1 250 20:43 27.10.2020
6262 Haze 23 1018 23 4000 2.1 250 20:22 27.10.2020
6263 Haze 25 1017 17 4000 2.1 260 19:39 27.10.2020
6264 Haze 25 1017 17 4000 2.1 260 19:21 27.10.2020
6265 Haze 25 1017 17 4000 2.1 260 18:59 27.10.2020
6266 Haze 24 1017 19 4000 3.12 110 18:40 27.10.2020
6267 Haze 24 1017 19 4000 3.12 110 18:40 27.10.2020
6268 Haze 26 1017 19 4000 2.92 92 18:20 27.10.2020
6269 Haze 27 1017 19 4000 2.92 92 17:44 27.10.2020
6270 Haze 28 1016 19 4000 2.82 94 17:22 27.10.2020
6271 Haze 28 1016 19 4000 2.82 94 16:57 27.10.2020
6272 Haze 29 1016 19 4000 2.82 94 16:39 27.10.2020
6273 Haze 29 1016 11 5000 2.33 93 16:20 27.10.2020
6274 Haze 29 1016 11 5000 2.33 93 15:40 27.10.2020
6275 Clear 32 1016 9 6000 2.1 70 15:21 27.10.2020
6276 Clear 32 1016 9 6000 2.1 70 14:48 27.10.2020
6277 Clear 32 1016 9 6000 2.1 70 14:29 27.10.2020
6278 Haze 32 1017 10 5000 1.5 90 13:56 27.10.2020
6279 Haze 32 1017 10 5000 1.5 90 13:25 27.10.2020
6280 Haze 30 1017 8 5000 3.6 30 12:43 27.10.2020
6281 Haze 30 1017 8 5000 3.6 30 12:24 27.10.2020
6282 Dust 31 1018 12 5000 0.5 0 11:44 27.10.2020
6283 Dust 31 1018 12 5000 0.5 0 11:26 27.10.2020
6284 Dust 29 1018 12 5000 0.5 0 10:54 27.10.2020
6285 Dust 28 1018 14 5000 0.5 0 10:36 27.10.2020
6286 Dust 26 1019 9 4000 1.5 330 10:18 27.10.2020
6287 Dust 26 1019 9 4000 1.5 330 09:28 27.10.2020
6288 Smoke 24 1018 11 5000 1.5 60 08:56 27.10.2020
6289 Smoke 24 1018 11 5000 1.5 60 08:29 27.10.2020
6290 Smoke 20 1017 18 5000 1 20 07:52 27.10.2020
6291 Smoke 20 1017 18 5000 1 20 07:34 27.10.2020
6292 Haze 17 1017 29 4000 5.66 118 06:52 27.10.2020
6293 Haze 16 1017 31 4000 4.38 104 06:19 27.10.2020
6294 Haze 16 1017 31 4000 4.38 104 05:45 27.10.2020
6295 Haze 20 1017 14 5000 4.69 103 05:23 27.10.2020
6296 Haze 19 1016 25 5000 5.1 100 03:19 27.10.2020
6297 Haze 19 1017 22 5000 5.07 101 01:20 27.10.2020
6298 Haze 19 1017 22 5000 5.16 101 00:38 27.10.2020
6299 Haze 19 1016 24 5000 5.29 100 23:38 26.10.2020
6300 Haze 20 1016 18 5000 5.75 93 22:59 26.10.2020
6301 Haze 20 1016 18 5000 5.75 93 22:39 26.10.2020
6302 Haze 21 1016 18 5000 2.1 230 22:18 26.10.2020
6303 Haze 21 1016 18 5000 2.1 230 21:40 26.10.2020
6304 Haze 21 1016 20 5000 1.2 87 21:19 26.10.2020
6305 Haze 21 1016 20 5000 1.2 87 20:49 26.10.2020
6306 Haze 22 1016 20 5000 1.28 95 20:27 26.10.2020
6307 Haze 22 1016 12 5000 1.28 95 19:56 26.10.2020
6308 Haze 22 1016 12 5000 1.28 95 19:38 26.10.2020
6309 Haze 22 1016 12 5000 1.64 80 19:19 26.10.2020
6310 Haze 23 1016 35 5000 1.64 80 18:42 26.10.2020
6311 Dust 27 1016 19 4000 1.5 100 18:22 26.10.2020
6312 Dust 27 1016 19 4000 1.5 100 17:44 26.10.2020
6313 Dust 29 1015 23 4000 1.5 100 17:23 26.10.2020
6314 Dust 29 1015 23 4000 1.5 100 16:56 26.10.2020
6315 Dust 29 1015 23 4000 1.5 100 16:37 26.10.2020
6316 Dust 30 1015 11 4000 2.1 110 16:18 26.10.2020
6317 Dust 30 1015 11 4000 2.1 110 15:39 26.10.2020
6318 Dust 31 1016 9 3000 2.1 70 15:19 26.10.2020
6319 Dust 31 1016 9 3000 2.1 70 14:45 26.10.2020
6320 Dust 31 1016 7 3000 5.1 100 14:19 26.10.2020
6321 Dust 31 1016 7 3000 5.1 100 13:42 26.10.2020
6322 Dust 31 1016 7 3000 5.1 100 13:22 26.10.2020
6323 Dust 31 1016 8 3000 5.1 100 12:47 26.10.2020
6324 Dust 31 1016 8 3000 5.1 100 12:27 26.10.2020
6325 Haze 30 1017 9 4000 5.1 90 11:55 26.10.2020
6326 Haze 30 1017 9 4000 5.1 90 11:37 26.10.2020
6327 Haze 28 1018 10 5000 1.5 80 11:18 26.10.2020
6328 Haze 28 1018 10 5000 1.5 80 10:42 26.10.2020
6329 Haze 28 1018 10 5000 1.5 80 10:24 26.10.2020
6330 Haze 25 1018 15 5000 7.4 127 09:44 26.10.2020
6331 Haze 25 1018 15 5000 7.67 121 09:23 26.10.2020
6332 Haze 24 1018 15 4000 7.67 121 08:31 26.10.2020
6333 Haze 21 1017 16 4000 2.6 80 07:56 26.10.2020
6334 Haze 21 1017 16 4000 2.6 80 07:38 26.10.2020
6335 Haze 18 1017 36 5000 8.06 107 06:49 26.10.2020
6336 Clear 18 1015 23 7000 4.6 50 04:48 26.10.2020
6337 Clear 17 1014 31 10000 3.33 83 04:18 26.10.2020
6338 Clear 17 1014 34 10000 2.51 78 03:20 26.10.2020
6339 Clear 17 1014 34 10000 2.51 78 03:20 26.10.2020
6340 Clear 17 1014 34 10000 2.51 78 03:20 26.10.2020
6341 Clear 17 1014 34 10000 2.51 78 03:20 26.10.2020
6342 Clear 18 1016 34 6000 2.16 66 01:34 26.10.2020
6343 Clear 18 1016 36 6000 0.94 74 00:33 26.10.2020
6344 Clear 18 1016 36 6000 0.57 85 23:43 25.10.2020
6345 Clouds 19 1016 36 6000 0.69 203 23:22 25.10.2020
6346 Clouds 20 1016 30 6000 0.69 203 22:42 25.10.2020
6347 Clear 20 1016 30 6000 1.07 185 22:24 25.10.2020
6348 Clear 20 1016 30 6000 1.07 185 21:49 25.10.2020
6349 Clouds 20 1016 37 6000 1.12 138 21:29 25.10.2020
6350 Clouds 19 1016 34 6000 1.12 138 20:58 25.10.2020
6351 Clouds 19 1016 34 6000 1.12 138 20:39 25.10.2020
6352 Clouds 20 1015 30 6000 2.18 91 20:19 25.10.2020
6353 Clouds 20 1015 30 6000 2.18 91 19:49 25.10.2020
6354 Clouds 20 1015 30 6000 3.55 84 19:25 25.10.2020
6355 Clouds 22 1016 28 6000 3.55 84 18:57 25.10.2020
6356 Clouds 22 1016 28 6000 3.8 85 18:39 25.10.2020
6357 Haze 23 1015 25 5000 4.31 77 18:20 25.10.2020
6358 Haze 23 1015 25 5000 4.31 77 17:40 25.10.2020
6359 Haze 23 1015 25 5000 4.67 73 17:21 25.10.2020
6360 Haze 25 1015 23 5000 1.5 80 16:59 25.10.2020
6361 Haze 25 1015 23 5000 1.5 80 16:39 25.10.2020
6362 Haze 25 1015 23 5000 1.5 80 16:20 25.10.2020
6363 Haze 27 1015 21 4000 2.1 90 15:47 25.10.2020
6364 Haze 27 1015 16 4000 2.1 90 15:26 25.10.2020
6365 Haze 26 1015 16 4000 2.6 80 14:52 25.10.2020
6366 Haze 26 1015 16 4000 2.6 80 14:29 25.10.2020
6367 Haze 27 1015 15 4000 4.1 90 13:44 25.10.2020
6368 Haze 27 1015 15 4000 4.1 90 13:23 25.10.2020
6369 Haze 26 1016 22 4000 1.5 90 12:49 25.10.2020
6370 Haze 26 1016 22 4000 1.5 90 12:27 25.10.2020
6371 Drizzle 26 1016 22 4000 1.5 90 11:59 25.10.2020
6372 Dust 25 1016 22 4000 2.1 100 11:41 25.10.2020
6373 Dust 24 1018 16 4000 4.6 130 11:19 25.10.2020
6374 Dust 24 1018 16 4000 4.6 130 10:46 25.10.2020
6375 Dust 24 1018 16 4000 4.6 130 10:25 25.10.2020
6376 Drizzle 23 1018 20 4000 0.5 0 09:51 25.10.2020
6377 Dust 22 1017 12 4000 0.5 35 09:21 25.10.2020
6378 Dust 22 1017 12 4000 0.5 35 08:59 25.10.2020
6379 Dust 22 1017 12 4000 0.5 35 08:40 25.10.2020
6380 Dust 22 1017 12 4000 0.5 35 08:22 25.10.2020
6381 Dust 21 1017 19 4000 4.91 97 07:43 25.10.2020
6382 Haze 20 1017 24 4000 2.44 98 06:53 25.10.2020
6383 Haze 20 1017 24 4000 2.24 80 06:28 25.10.2020
6384 Clouds 19 1015 24 6000 0.93 85 05:20 25.10.2020
6385 Clouds 19 1015 24 6000 0.93 85 04:50 25.10.2020
6386 Clouds 20 1015 22 6000 2.1 140 02:37 25.10.2020
6387 Clouds 23 1015 13 6000 2.1 140 00:54 25.10.2020
6388 Clouds 23 1015 13 6000 2.1 140 00:29 25.10.2020
6389 Clouds 23 1015 13 6000 5.1 130 23:59 24.10.2020
6390 Clouds 23 1015 13 6000 5.1 130 23:40 24.10.2020
6391 Clouds 23 1015 13 6000 5.1 130 23:20 24.10.2020
6392 Haze 24 1015 13 5000 5.1 110 22:41 24.10.2020
6393 Haze 24 1015 13 5000 5.1 110 22:23 24.10.2020
6394 Haze 25 1015 15 4000 2.6 100 21:56 24.10.2020
6395 Haze 25 1015 15 4000 2.6 100 21:37 24.10.2020
6396 Haze 25 1015 13 4000 2.6 110 21:19 24.10.2020
6397 Haze 25 1015 13 4000 2.6 110 20:44 24.10.2020
6398 Haze 25 1015 13 4000 2.6 110 20:20 24.10.2020
6399 Haze 25 1015 14 4000 5.1 120 19:44 24.10.2020
6400 Haze 25 1015 14 4000 5.1 120 19:25 24.10.2020
6401 Haze 26 1015 12 5000 4.6 110 18:54 24.10.2020
6402 Haze 26 1015 12 5000 4.6 110 18:31 24.10.2020
6403 Haze 28 1015 10 5000 3.6 120 17:55 24.10.2020
6404 Haze 28 1015 10 5000 3.6 120 17:27 24.10.2020
6405 Dust 29 1015 9 3000 4.1 100 16:58 24.10.2020
6406 Dust 30 1015 9 3000 4.1 100 16:40 24.10.2020
6407 Dust 31 1016 7 3000 5.1 120 15:59 24.10.2020
6408 Dust 31 1016 7 3000 5.1 120 15:38 24.10.2020
6409 Dust 31 1016 7 3000 5.1 120 15:19 24.10.2020
6410 Dust 31 1016 7 3000 4.1 120 14:42 24.10.2020
6411 Dust 31 1016 7 3000 4.1 120 14:22 24.10.2020
6412 Dust 31 1016 7 4000 3.6 150 13:44 24.10.2020
6413 Haze 30 1017 9 5000 4.1 150 13:20 24.10.2020
6414 Haze 30 1017 9 5000 4.1 150 13:20 24.10.2020
6415 Haze 30 1017 9 5000 4.1 150 12:41 24.10.2020
6416 Haze 30 1017 9 5000 4.1 150 12:21 24.10.2020
6417 Haze 29 1018 12 5000 3.6 150 11:51 24.10.2020
6418 Haze 29 1018 12 5000 3.6 150 11:27 24.10.2020
6419 Haze 27 1019 14 5000 2.6 120 10:52 24.10.2020
6420 Haze 27 1019 14 5000 2.6 120 10:32 24.10.2020
6421 Haze 24 1019 16 5000 2.1 90 09:50 24.10.2020
6422 Haze 24 1019 16 5000 2.1 90 09:32 24.10.2020
6423 Haze 21 1019 20 5000 2.1 90 08:58 24.10.2020
6424 Haze 21 1019 20 5000 2.1 90 08:19 24.10.2020
6425 Clear 17 1018 23 7000 1.5 70 07:53 24.10.2020
6426 Clear 17 1018 23 7000 1.5 70 07:25 24.10.2020
6427 Clear 17 1018 25 7000 1.5 70 06:53 24.10.2020
6428 Clear 17 1018 25 7000 1.5 70 06:53 24.10.2020
6429 Clear 17 1018 25 8000 3.9 110 06:23 24.10.2020
6430 Clear 18 1018 20 8000 1 70 03:35 24.10.2020
6431 Clear 22 1018 15 8000 1.5 90 01:40 24.10.2020
6432 Clear 23 1018 11 7000 4.1 130 00:41 24.10.2020
6433 Clear 23 1018 11 7000 4.1 130 00:21 24.10.2020
6434 Clear 22 1019 13 7000 5.1 130 23:49 23.10.2020
6435 Clear 22 1019 13 7000 5.1 130 23:26 23.10.2020
6436 Clear 23 1019 13 7000 6.7 110 22:58 23.10.2020
6437 Clear 23 1019 13 7000 6.7 110 22:39 23.10.2020
6438 Clear 23 1019 13 7000 6.7 110 22:20 23.10.2020
6439 Clear 24 1019 13 7000 5.1 120 21:46 23.10.2020
6440 Clear 24 1019 13 7000 5.1 120 21:25 23.10.2020
6441 Clear 24 1019 12 7000 5.1 120 20:41 23.10.2020
6442 Clear 24 1019 12 7000 5.1 120 20:23 23.10.2020
6443 Clear 26 1019 10 8000 4.1 120 19:54 23.10.2020
6444 Clear 26 1019 10 8000 4.1 120 19:33 23.10.2020
6445 Clear 26 1019 11 8000 1.5 90 18:57 23.10.2020
6446 Clear 26 1019 11 8000 1.5 90 18:38 23.10.2020
6447 Clear 28 1018 9 8000 1 60 18:19 23.10.2020
6448 Clear 28 1018 9 8000 1 60 17:42 23.10.2020
6449 Clear 28 1018 9 8000 1 60 17:20 23.10.2020
6450 Clear 29 1019 9 8000 5.64 95 16:44 23.10.2020
6451 Clear 29 1019 9 8000 5.94 102 16:25 23.10.2020
6452 Clear 30 1019 9 8000 5.94 102 15:45 23.10.2020
6453 Clear 30 1019 9 8000 6.64 112 15:24 23.10.2020
6454 Clear 31 1019 7 7000 2.6 100 14:57 23.10.2020
6455 Clear 31 1019 7 7000 2.6 100 14:39 23.10.2020
6456 Dust 31 1020 10 5000 4.1 140 14:20 23.10.2020
6457 Dust 31 1020 10 5000 4.1 140 13:38 23.10.2020
6458 Clear 31 1020 10 6000 2.1 200 13:19 23.10.2020
6459 Clear 31 1020 10 6000 2.1 200 12:47 23.10.2020
6460 Clear 31 1020 10 6000 2.1 200 12:27 23.10.2020
6461 Clear 28 1021 17 8000 5.18 142 11:47 23.10.2020
6462 Clear 28 1021 17 8000 5.34 145 11:22 23.10.2020
6463 Clear 27 1022 13 8000 1.5 40 10:46 23.10.2020
6464 Clear 27 1022 13 8000 1.5 40 10:25 23.10.2020
6465 Clear 23 1022 33 8000 1.5 50 09:46 23.10.2020
6466 Clouds 23 1022 33 8000 1.5 50 09:27 23.10.2020
6467 Clouds 21 1022 60 8000 4.9 126 08:53 23.10.2020
6468 Clouds 21 1022 60 8000 4.9 126 08:33 23.10.2020
6469 Clear 17 1021 19 7000 3.98 115 07:46 23.10.2020
6470 Clear 17 1021 19 7000 3.87 106 07:22 23.10.2020
6471 Clear 16 1020 25 7000 3.87 106 06:31 23.10.2020
6472 Clear 16 1020 25 6000 3.34 101 05:44 23.10.2020
6473 Clear 20 1020 20 6000 2.1 170 02:33 23.10.2020
6474 Haze 21 1020 27 5000 2.1 100 01:52 23.10.2020
6475 Haze 24 1020 25 5000 2.1 80 00:48 23.10.2020
6476 Haze 22 1020 23 5000 2.1 110 23:54 22.10.2020
6477 Haze 22 1020 23 5000 2.1 110 23:30 22.10.2020
6478 Haze 21 1020 40 5000 2.1 80 22:54 22.10.2020
6479 Haze 21 1020 40 5000 2.1 80 22:36 22.10.2020
6480 Haze 22 1020 40 5000 3.56 146 22:18 22.10.2020
6481 Haze 22 1020 40 5000 3.56 146 21:42 22.10.2020
6482 Haze 22 1020 40 5000 2.94 129 21:23 22.10.2020
6483 Haze 23 1020 40 5000 2.94 129 20:57 22.10.2020
6484 Haze 23 1020 40 5000 2.94 129 20:39 22.10.2020
6485 Haze 25 1020 22 5000 2.1 230 20:18 22.10.2020
6486 Haze 25 1020 22 5000 2.1 230 19:40 22.10.2020
6487 Haze 26 1020 22 5000 2.6 230 19:19 22.10.2020
6488 Haze 26 1020 22 5000 2.6 230 18:43 22.10.2020
6489 Haze 31 1019 13 5000 4.05 96 18:20 22.10.2020
6490 Haze 31 1019 13 5000 4.05 96 17:46 22.10.2020
6491 Haze 31 1019 13 5000 4.33 96 17:26 22.10.2020
6492 Haze 32 1019 10 5000 4.33 96 16:57 22.10.2020
6493 Haze 32 1019 10 5000 4.33 96 16:39 22.10.2020
6494 Haze 32 1020 10 5000 2.1 240 16:20 22.10.2020
6495 Haze 31 1020 10 5000 2.1 240 15:44 22.10.2020
6496 Haze 31 1020 10 5000 2.1 240 15:25 22.10.2020
6497 Haze 32 1020 10 5000 3.72 117 14:47 22.10.2020
6498 Haze 32 1020 10 5000 3.42 141 14:25 22.10.2020
6499 Haze 31 1020 11 5000 1 200 13:49 22.10.2020
6500 Haze 31 1020 11 5000 1 200 13:24 22.10.2020
6501 Haze 31 1021 19 5000 1 130 12:54 22.10.2020
6502 Haze 31 1021 19 5000 1 130 12:24 22.10.2020
6503 Haze 29 1022 26 5000 1.5 130 11:50 22.10.2020
6504 Haze 27 1022 41 5000 2.1 80 11:20 22.10.2020
6505 Haze 27 1022 41 5000 2.1 80 10:51 22.10.2020
6506 Haze 27 1022 41 5000 2.1 80 10:29 22.10.2020
6507 Haze 24 1022 47 5000 1 60 09:54 22.10.2020
6508 Haze 24 1022 47 5000 1 60 09:35 22.10.2020
6509 Smoke 20 1022 68 4000 2.87 132 08:56 22.10.2020
6510 Smoke 20 1022 68 4000 2.87 132 08:37 22.10.2020
6511 Haze 16 1022 82 4000 0.87 70 08:18 22.10.2020
6512 Haze 16 1022 82 4000 0.87 70 07:42 22.10.2020
6513 Mist 15 1021 88 3000 0.69 12 06:59 22.10.2020
6514 Mist 15 1021 88 3000 0.69 12 06:36 22.10.2020
6515 Mist 15 1022 88 4000 0.31 249 05:42 22.10.2020
6516 Mist 17 1021 88 5000 0.95 263 05:19 22.10.2020
6517 Haze 18 1021 82 5000 1.29 285 01:53 22.10.2020
6518 Haze 19 1021 77 5000 3.27 335 00:27 22.10.2020
6519 Haze 19 1021 77 5000 3.27 335 23:57 21.10.2020
6520 Haze 18 1021 77 5000 3.27 335 23:35 21.10.2020
6521 Haze 18 1021 72 5000 3.48 331 22:54 21.10.2020
6522 Haze 18 1021 72 5000 3.48 331 22:36 21.10.2020
6523 Haze 19 1021 72 5000 1 180 22:18 21.10.2020
6524 Haze 19 1021 72 5000 1 180 21:42 21.10.2020
6525 Haze 20 1021 68 5000 1 170 21:19 21.10.2020
6526 Haze 20 1021 68 5000 1 170 20:48 21.10.2020
6527 Clear 22 1021 68 6000 4.06 327 20:19 21.10.2020
6528 Clear 22 1021 68 6000 4.82 328 19:57 21.10.2020
6529 Clear 22 1021 68 6000 4.82 328 19:37 21.10.2020
6530 Clear 23 1021 60 6000 5.29 317 19:18 21.10.2020
6531 Clear 23 1021 60 6000 5.29 317 19:18 21.10.2020
6532 Clear 23 1021 60 6000 5.29 317 18:46 21.10.2020
6533 Clear 25 1020 44 8000 1 290 18:21 21.10.2020
6534 Clear 25 1020 44 8000 1 290 17:43 21.10.2020
6535 Clear 27 1020 39 8000 1.5 300 17:20 21.10.2020
6536 Clear 27 1020 39 8000 1.5 300 16:55 21.10.2020
6537 Clear 27 1020 39 8000 1.5 300 16:36 21.10.2020
6538 Clear 27 1020 39 8000 1.5 300 16:18 21.10.2020
6539 Clouds 28 1020 39 8000 3.1 290 15:42 21.10.2020
6540 Clouds 28 1020 39 8000 3.1 290 15:20 21.10.2020
6541 Clouds 28 1020 32 8000 3.1 280 14:45 21.10.2020
6542 Clouds 28 1020 32 8000 3.1 280 14:27 21.10.2020
6543 Clouds 28 1020 26 7000 3.1 240 13:46 21.10.2020
6544 Clouds 28 1020 26 7000 3.1 240 13:26 21.10.2020
6545 Clouds 27 1020 28 7000 4.1 240 12:48 21.10.2020
6546 Clouds 27 1020 28 7000 4.1 240 12:25 21.10.2020
6547 Haze 26 1021 44 5000 2.6 210 11:59 21.10.2020
6548 Haze 26 1021 44 5000 2.6 210 11:40 21.10.2020
6549 Haze 26 1021 44 5000 2.6 210 11:19 21.10.2020
6550 Haze 25 1021 50 5000 3.1 250 10:44 21.10.2020
6551 Haze 25 1021 50 5000 3.1 250 10:25 21.10.2020
6552 Haze 24 1020 60 5000 1 240 09:53 21.10.2020
6553 Haze 24 1020 60 5000 1 240 09:53 21.10.2020
6554 Haze 24 1020 60 5000 1 240 09:33 21.10.2020
6555 Haze 21 1020 68 5000 1.5 240 08:56 21.10.2020
6556 Haze 21 1020 68 5000 1.5 240 08:56 21.10.2020
6557 Haze 21 1020 68 5000 1.5 240 08:38 21.10.2020
6558 Haze 21 1020 68 5000 1.5 240 08:19 21.10.2020
6559 Smoke 18 1019 68 5000 1.5 240 07:37 21.10.2020
6560 Clear 17 1019 68 6000 2.6 240 06:55 21.10.2020
6561 Clear 17 1019 68 6000 2.6 240 06:29 21.10.2020
6562 Clear 18 1018 64 6000 3.1 250 04:47 21.10.2020
6563 Clear 18 1019 56 7000 1.62 287 00:57 21.10.2020
6564 Clear 19 1019 60 6000 2.49 292 23:50 20.10.2020
6565 Clear 19 1019 60 6000 2.51 290 23:19 20.10.2020
6566 Haze 21 1019 60 5000 4.04 297 22:29 20.10.2020
6567 Haze 22 1019 53 5000 3.6 250 21:50 20.10.2020
6568 Haze 22 1019 53 5000 3.6 250 21:21 20.10.2020
6569 Haze 22 1018 53 5000 2.6 240 20:59 20.10.2020
6570 Haze 22 1018 53 5000 2.6 240 20:41 20.10.2020
6571 Haze 22 1018 53 5000 2.6 240 20:22 20.10.2020
6572 Haze 24 1019 47 5000 3.1 220 19:44 20.10.2020
6573 Haze 24 1019 47 5000 3.1 220 19:22 20.10.2020
6574 Haze 25 1018 36 5000 4.1 230 18:56 20.10.2020
6575 Haze 25 1018 36 5000 4.1 230 18:37 20.10.2020
6576 Dust 26 1018 34 5000 3.1 250 17:50 20.10.2020
6577 Dust 26 1018 34 5000 3.1 250 17:32 20.10.2020
6578 Dust 28 1018 30 5000 5.1 250 16:56 20.10.2020
6579 Dust 28 1018 30 5000 5.1 250 16:38 20.10.2020
6580 Dust 28 1018 30 5000 5.1 250 16:20 20.10.2020
6581 Haze 28 1018 26 5000 3.1 250 15:44 20.10.2020
6582 Haze 28 1018 26 5000 3.1 250 15:23 20.10.2020
6583 Haze 31 1018 8 5000 1.5 200 14:44 20.10.2020
6584 Haze 31 1018 8 5000 1.5 200 14:25 20.10.2020
6585 Haze 32 1019 7 5000 3.1 150 13:58 20.10.2020
6586 Haze 32 1019 7 5000 3.1 150 13:40 20.10.2020
6587 Haze 32 1019 7 5000 3.1 150 13:19 20.10.2020
6588 Haze 30 1019 8 5000 2.1 110 12:49 20.10.2020
6589 Haze 30 1019 8 5000 2.1 110 12:30 20.10.2020
6590 Haze 29 1020 11 5000 2.6 110 11:47 20.10.2020
6591 Haze 29 1020 11 5000 2.6 110 11:28 20.10.2020
6592 Haze 27 1020 12 5000 2.1 106 10:43 20.10.2020
6593 Haze 27 1020 12 5000 2.1 106 10:25 20.10.2020
6594 Haze 26 1020 44 5000 3.1 100 09:44 20.10.2020
6595 Haze 26 1020 44 5000 3.1 100 09:20 20.10.2020
6596 Smoke 24 1020 19 4000 1.5 90 08:40 20.10.2020
6597 Smoke 24 1020 19 4000 1.5 90 08:19 20.10.2020
6598 Haze 20 1020 28 4000 5.26 124 07:44 20.10.2020
6599 Haze 20 1020 28 4000 3.92 119 07:21 20.10.2020
6600 Clear 18 1020 39 6000 3.68 112 06:20 20.10.2020
6601 Clear 19 1019 39 6000 3.28 106 04:51 20.10.2020
6602 Clear 20 1020 37 6000 2.42 83 02:31 20.10.2020
6603 Haze 20 1020 42 5000 1.51 118 01:27 20.10.2020
6604 Haze 21 1020 37 5000 1.51 118 00:51 20.10.2020
6605 Haze 21 1020 37 5000 1.49 142 00:27 20.10.2020
6606 Haze 21 1020 33 5000 1.49 142 23:51 19.10.2020
6607 Haze 21 1020 33 5000 1.13 8 23:27 19.10.2020
6608 Haze 21 1020 33 5000 1.13 8 22:54 19.10.2020
6609 Haze 21 1020 33 5000 2.69 328 22:28 19.10.2020
6610 Haze 23 1020 33 5000 2.69 328 21:58 19.10.2020
6611 Haze 23 1020 33 5000 2.69 328 21:39 19.10.2020
6612 Haze 23 1020 33 5000 2.94 327 21:19 19.10.2020
6613 Haze 23 1020 29 5000 2.94 327 20:43 19.10.2020
6614 Haze 23 1020 29 5000 2.15 35 20:25 19.10.2020
6615 Haze 24 1020 29 5000 2.15 35 19:46 19.10.2020
6616 Haze 24 1020 29 5000 2.83 52 19:20 19.10.2020
6617 Haze 27 1019 24 5000 2.83 52 18:50 19.10.2020
6618 Haze 27 1019 24 5000 2.83 52 18:31 19.10.2020
6619 Haze 30 1018 16 5000 2.1 60 17:49 19.10.2020
6620 Haze 30 1018 16 5000 2.1 60 17:28 19.10.2020
6621 Haze 31 1018 16 5000 1 70 16:54 19.10.2020
6622 Haze 31 1018 16 5000 1 70 16:30 19.10.2020
6623 Clear 31 1014 12 10000 3.27 101 15:57 19.10.2020
6624 Clear 31 1014 12 10000 3.27 101 15:36 19.10.2020
6625 Clear 32 1014 11 10000 3.04 129 15:18 19.10.2020
6626 Clear 32 1014 11 10000 3.04 129 14:43 19.10.2020
6627 Clear 32 1014 11 10000 2.97 140 14:23 19.10.2020
6628 Clear 32 1014 11 10000 2.97 140 13:46 19.10.2020
6629 Clear 32 1015 11 10000 2.94 152 13:28 19.10.2020
6630 Clear 32 1015 11 10000 2.94 152 12:46 19.10.2020
6631 Clear 31 1016 12 10000 2.87 153 12:26 19.10.2020
6632 Clear 31 1016 12 10000 2.87 153 11:51 19.10.2020
6633 Haze 27 1021 27 4000 1 80 11:24 19.10.2020
6634 Haze 27 1021 27 4000 1 80 10:55 19.10.2020
6635 Haze 27 1021 27 4000 1 80 10:36 19.10.2020
6636 Smoke 25 1020 33 4000 1.5 30 10:18 19.10.2020
6637 Smoke 25 1020 33 4000 1.5 30 09:42 19.10.2020
6638 Smoke 23 1020 43 3000 3.55 122 09:18 19.10.2020
6639 Smoke 22 1020 43 3000 3.55 122 08:47 19.10.2020
6640 Smoke 22 1020 43 3000 3.39 120 08:21 19.10.2020
6641 Smoke 16 1019 52 4000 3.52 114 07:21 19.10.2020
6642 Smoke 16 1019 52 4000 3.52 114 06:50 19.10.2020
6643 Smoke 16 1019 52 4000 3.52 114 06:50 19.10.2020
6644 Clear 17 1019 48 6000 2.98 115 05:42 19.10.2020
6645 Clear 20 1018 45 8000 2.51 112 03:47 19.10.2020
6646 Clear 20 1018 46 6000 0.87 125 01:57 19.10.2020
6647 Haze 21 1018 43 5000 0.68 167 00:43 19.10.2020
6648 Haze 21 1018 37 5000 0.64 251 23:59 18.10.2020
6649 Haze 21 1018 37 5000 0.64 251 23:40 18.10.2020
6650 Haze 21 1018 37 5000 0.35 251 23:21 18.10.2020
6651 Clear 22 1018 26 7000 2.6 70 22:45 18.10.2020
6652 Clear 23 1017 38 6000 0.36 233 22:20 18.10.2020
6653 Clear 23 1017 38 6000 0.36 233 21:50 18.10.2020
6654 Clear 23 1017 38 6000 0.61 197 21:29 18.10.2020
6655 Clear 24 1017 33 6000 0.61 197 20:47 18.10.2020
6656 Clear 24 1017 33 6000 1.7 108 20:25 18.10.2020
6657 Clear 24 1018 33 6000 1.7 108 19:57 18.10.2020
6658 Clear 24 1018 33 6000 0.37 41 19:39 18.10.2020
6659 Clear 26 1017 36 6000 2.69 96 19:19 18.10.2020
6660 Clear 26 1017 36 6000 2.69 96 18:46 18.10.2020
6661 Clear 26 1017 36 6000 4.03 92 18:24 18.10.2020
6662 Clear 29 1017 21 7000 1.5 290 17:43 18.10.2020
6663 Clear 29 1017 21 7000 1.5 290 17:24 18.10.2020
6664 Clear 31 1017 18 8000 1.5 280 16:44 18.10.2020
6665 Clear 31 1017 18 8000 1.5 280 16:26 18.10.2020
6666 Clear 32 1017 12 8000 2.1 250 15:57 18.10.2020
6667 Clear 32 1017 12 8000 2.1 250 15:39 18.10.2020
6668 Clear 33 1017 14 8000 1.5 220 15:18 18.10.2020
6669 Clear 33 1017 14 8000 1.5 220 14:50 18.10.2020
6670 Clear 33 1017 14 8000 1.5 220 14:27 18.10.2020
6671 Clear 32 1017 13 7000 1 220 13:55 18.10.2020
6672 Clear 32 1017 13 7000 1 220 13:36 18.10.2020
6673 Clear 32 1018 13 7000 2.6 180 13:18 18.10.2020
6674 Clear 32 1018 13 7000 2.6 180 12:41 18.10.2020
6675 Haze 30 1018 12 4000 0.5 150 12:20 18.10.2020
6676 Haze 30 1018 12 4000 0.5 150 11:41 18.10.2020
6677 Haze 30 1018 13 4000 0.5 150 11:22 18.10.2020
6678 Haze 28 1019 22 4000 1.5 270 10:40 18.10.2020
6679 Smoke 27 1019 26 4000 4.7 131 10:21 18.10.2020
6680 Smoke 27 1019 26 4000 4.7 131 09:51 18.10.2020
6681 Smoke 26 1019 26 4000 4.68 124 09:23 18.10.2020
6682 Smoke 22 1018 49 3000 4.68 124 08:58 18.10.2020
6683 Smoke 22 1018 49 3000 4.68 124 08:37 18.10.2020
6684 Haze 18 1018 63 3000 4.05 119 08:19 18.10.2020
6685 Haze 18 1018 63 3000 4.46 121 07:30 18.10.2020
6686 Clear 16 1017 59 7000 2.63 106 05:33 18.10.2020
6687 Clear 17 1017 48 8000 0.51 314 02:56 18.10.2020
6688 Clear 19 1018 48 8000 1.35 299 01:41 18.10.2020
6689 Clear 18 1018 48 8000 1.85 289 00:52 18.10.2020
6690 Clear 18 1018 48 8000 1.85 289 00:34 18.10.2020
6691 Clear 19 1018 45 8000 1.43 293 23:56 17.10.2020
6692 Clear 19 1018 45 8000 1.43 293 23:37 17.10.2020
6693 Clear 20 1018 46 8000 1.34 298 23:19 17.10.2020
6694 Clear 20 1018 46 8000 1.34 298 22:41 17.10.2020
6695 Clear 22 1018 43 8000 1.07 317 22:20 17.10.2020
6696 Clear 22 1018 43 8000 1.07 317 22:20 17.10.2020
6697 Clear 22 1018 43 8000 1.07 317 21:56 17.10.2020
6698 Clear 22 1018 43 8000 1.07 317 21:38 17.10.2020
6699 Clear 22 1017 43 8000 0.91 10 21:19 17.10.2020
6700 Clear 22 1017 43 8000 0.91 10 20:40 17.10.2020
6701 Clear 24 1017 38 6000 2.03 337 20:18 17.10.2020
6702 Clear 24 1017 38 6000 2.03 337 19:42 17.10.2020
6703 Clear 25 1017 36 6000 1.84 43 19:18 17.10.2020
6704 Clear 25 1017 36 6000 1.84 43 18:43 17.10.2020
6705 Clear 25 1017 36 6000 3.15 68 18:25 17.10.2020
6706 Clear 27 1016 30 6000 2.6 310 17:50 17.10.2020
6707 Clear 27 1016 30 6000 2.6 310 17:23 17.10.2020
6708 Clear 29 1016 25 6000 2.6 300 16:50 17.10.2020
6709 Clear 29 1016 25 6000 2.6 300 16:24 17.10.2020
6710 Clear